<?xml version="1.0" encoding="UTF-8" standalone="no" ?>
<gpx xmlns="http://www.topografix.com/GPX/1/1" xmlns:xsi="http://www.w3.org/2001/XMLSchema-instance" xsi:schemaLocation="http://www.topografix.com/GPX/1/1 http://www.topografix.com/GPX/1/1/gpx.xsd" version="1.1" creator="VisuGPX - https://www.visugpx.com">
  <metadata>
    <name>AVCC reco etape du tour 2009</name>
    <desc><![CDATA[AVCC La Ciotat. Sortie de reconnaissance de l'etape du tour 2009]]></desc>
  </metadata>
  <trk>
    <name><![CDATA[recoetapedutour]]></name>
    <trkseg>
      <trkpt lat="44.23836" lon="5.07625">
        <ele>205.378784</ele>
        <time>2009-06-14T08:58:07Z</time>
      </trkpt>
      <trkpt lat="44.23824" lon="5.07666">
        <ele>202.014282</ele>
        <time>2009-06-14T08:58:16Z</time>
      </trkpt>
      <trkpt lat="44.23811" lon="5.07705">
        <ele>200.091675</ele>
        <time>2009-06-14T08:58:24Z</time>
      </trkpt>
      <trkpt lat="44.23793" lon="5.07749">
        <ele>199.130127</ele>
        <time>2009-06-14T08:58:32Z</time>
      </trkpt>
      <trkpt lat="44.23787" lon="5.07767">
        <ele>198.649536</ele>
        <time>2009-06-14T08:58:35Z</time>
      </trkpt>
      <trkpt lat="44.23785" lon="5.07813">
        <ele>193.843018</ele>
        <time>2009-06-14T08:58:42Z</time>
      </trkpt>
      <trkpt lat="44.2379" lon="5.07856">
        <ele>192.401123</ele>
        <time>2009-06-14T08:58:49Z</time>
      </trkpt>
      <trkpt lat="44.23791" lon="5.07901">
        <ele>193.843018</ele>
        <time>2009-06-14T08:58:56Z</time>
      </trkpt>
      <trkpt lat="44.23795" lon="5.07955">
        <ele>194.32373</ele>
        <time>2009-06-14T08:59:04Z</time>
      </trkpt>
      <trkpt lat="44.23796" lon="5.08001">
        <ele>194.32373</ele>
        <time>2009-06-14T08:59:11Z</time>
      </trkpt>
      <trkpt lat="44.23787" lon="5.08044">
        <ele>196.246338</ele>
        <time>2009-06-14T08:59:18Z</time>
      </trkpt>
      <trkpt lat="44.23772" lon="5.08079">
        <ele>194.804321</ele>
        <time>2009-06-14T08:59:24Z</time>
      </trkpt>
      <trkpt lat="44.2375" lon="5.08116">
        <ele>193.843018</ele>
        <time>2009-06-14T08:59:31Z</time>
      </trkpt>
      <trkpt lat="44.23717" lon="5.08158">
        <ele>193.362305</ele>
        <time>2009-06-14T08:59:40Z</time>
      </trkpt>
      <trkpt lat="44.23699" lon="5.08177">
        <ele>194.804321</ele>
        <time>2009-06-14T08:59:44Z</time>
      </trkpt>
      <trkpt lat="44.23685" lon="5.08208">
        <ele>195.765625</ele>
        <time>2009-06-14T08:59:49Z</time>
      </trkpt>
      <trkpt lat="44.23684" lon="5.08244">
        <ele>197.688232</ele>
        <time>2009-06-14T08:59:54Z</time>
      </trkpt>
      <trkpt lat="44.23693" lon="5.08305">
        <ele>203.456177</ele>
        <time>2009-06-14T09:00:03Z</time>
      </trkpt>
      <trkpt lat="44.2369" lon="5.08337">
        <ele>204.41748</ele>
        <time>2009-06-14T09:00:08Z</time>
      </trkpt>
      <trkpt lat="44.23684" lon="5.08349">
        <ele>203.456177</ele>
        <time>2009-06-14T09:00:10Z</time>
      </trkpt>
      <trkpt lat="44.23679" lon="5.08362">
        <ele>202.494873</ele>
        <time>2009-06-14T09:00:12Z</time>
      </trkpt>
      <trkpt lat="44.23674" lon="5.08396">
        <ele>202.014282</ele>
        <time>2009-06-14T09:00:16Z</time>
      </trkpt>
      <trkpt lat="44.23675" lon="5.08404">
        <ele>202.014282</ele>
        <time>2009-06-14T09:00:17Z</time>
      </trkpt>
      <trkpt lat="44.23677" lon="5.0843">
        <ele>202.494873</ele>
        <time>2009-06-14T09:00:20Z</time>
      </trkpt>
      <trkpt lat="44.23671" lon="5.08463">
        <ele>203.93689</ele>
        <time>2009-06-14T09:00:24Z</time>
      </trkpt>
      <trkpt lat="44.23646" lon="5.08512">
        <ele>203.93689</ele>
        <time>2009-06-14T09:00:32Z</time>
      </trkpt>
      <trkpt lat="44.2363" lon="5.08538">
        <ele>206.340088</ele>
        <time>2009-06-14T09:00:37Z</time>
      </trkpt>
      <trkpt lat="44.23604" lon="5.08581">
        <ele>213.069336</ele>
        <time>2009-06-14T09:00:46Z</time>
      </trkpt>
      <trkpt lat="44.23586" lon="5.08629">
        <ele>214.51123</ele>
        <time>2009-06-14T09:00:55Z</time>
      </trkpt>
      <trkpt lat="44.23579" lon="5.08655">
        <ele>214.991943</ele>
        <time>2009-06-14T09:01:00Z</time>
      </trkpt>
      <trkpt lat="44.23577" lon="5.08666">
        <ele>215.953247</ele>
        <time>2009-06-14T09:01:05Z</time>
      </trkpt>
      <trkpt lat="44.23587" lon="5.08673">
        <ele>216.43396</ele>
        <time>2009-06-14T09:01:09Z</time>
      </trkpt>
      <trkpt lat="44.23599" lon="5.08668">
        <ele>217.875977</ele>
        <time>2009-06-14T09:01:12Z</time>
      </trkpt>
      <trkpt lat="44.23638" lon="5.08659">
        <ele>220.279175</ele>
        <time>2009-06-14T09:01:20Z</time>
      </trkpt>
      <trkpt lat="44.23675" lon="5.08658">
        <ele>221.240601</ele>
        <time>2009-06-14T09:01:27Z</time>
      </trkpt>
      <trkpt lat="44.23719" lon="5.08659">
        <ele>218.83728</ele>
        <time>2009-06-14T09:01:34Z</time>
      </trkpt>
      <trkpt lat="44.2377" lon="5.08663">
        <ele>219.798584</ele>
        <time>2009-06-14T09:01:42Z</time>
      </trkpt>
      <trkpt lat="44.23807" lon="5.08665">
        <ele>215.953247</ele>
        <time>2009-06-14T09:01:48Z</time>
      </trkpt>
      <trkpt lat="44.23849" lon="5.08668">
        <ele>216.43396</ele>
        <time>2009-06-14T09:01:55Z</time>
      </trkpt>
      <trkpt lat="44.23895" lon="5.0867">
        <ele>216.43396</ele>
        <time>2009-06-14T09:02:03Z</time>
      </trkpt>
      <trkpt lat="44.23939" lon="5.08664">
        <ele>216.914673</ele>
        <time>2009-06-14T09:02:11Z</time>
      </trkpt>
      <trkpt lat="44.23982" lon="5.08644">
        <ele>216.43396</ele>
        <time>2009-06-14T09:02:19Z</time>
      </trkpt>
      <trkpt lat="44.24014" lon="5.08622">
        <ele>215.472656</ele>
        <time>2009-06-14T09:02:25Z</time>
      </trkpt>
      <trkpt lat="44.24057" lon="5.08576">
        <ele>214.03064</ele>
        <time>2009-06-14T09:02:34Z</time>
      </trkpt>
      <trkpt lat="44.24087" lon="5.08525">
        <ele>214.03064</ele>
        <time>2009-06-14T09:02:42Z</time>
      </trkpt>
      <trkpt lat="44.2411" lon="5.08467">
        <ele>212.108032</ele>
        <time>2009-06-14T09:02:50Z</time>
      </trkpt>
      <trkpt lat="44.24132" lon="5.08401">
        <ele>212.108032</ele>
        <time>2009-06-14T09:02:59Z</time>
      </trkpt>
      <trkpt lat="44.24152" lon="5.08342">
        <ele>214.03064</ele>
        <time>2009-06-14T09:03:07Z</time>
      </trkpt>
      <trkpt lat="44.24178" lon="5.08271">
        <ele>214.991943</ele>
        <time>2009-06-14T09:03:17Z</time>
      </trkpt>
      <trkpt lat="44.242" lon="5.08208">
        <ele>217.875977</ele>
        <time>2009-06-14T09:03:26Z</time>
      </trkpt>
      <trkpt lat="44.24212" lon="5.08174">
        <ele>218.356567</ele>
        <time>2009-06-14T09:03:31Z</time>
      </trkpt>
      <trkpt lat="44.24225" lon="5.08165">
        <ele>220.279175</ele>
        <time>2009-06-14T09:03:35Z</time>
      </trkpt>
      <trkpt lat="44.24233" lon="5.08177">
        <ele>221.240601</ele>
        <time>2009-06-14T09:03:39Z</time>
      </trkpt>
      <trkpt lat="44.24247" lon="5.08229">
        <ele>223.643799</ele>
        <time>2009-06-14T09:03:47Z</time>
      </trkpt>
      <trkpt lat="44.24253" lon="5.08249">
        <ele>223.163208</ele>
        <time>2009-06-14T09:03:50Z</time>
      </trkpt>
      <trkpt lat="44.24266" lon="5.08293">
        <ele>226.527832</ele>
        <time>2009-06-14T09:03:56Z</time>
      </trkpt>
      <trkpt lat="44.24283" lon="5.08351">
        <ele>228.450439</ele>
        <time>2009-06-14T09:04:04Z</time>
      </trkpt>
      <trkpt lat="44.24297" lon="5.08395">
        <ele>227.969727</ele>
        <time>2009-06-14T09:04:10Z</time>
      </trkpt>
      <trkpt lat="44.24313" lon="5.08449">
        <ele>224.605225</ele>
        <time>2009-06-14T09:04:17Z</time>
      </trkpt>
      <trkpt lat="44.24329" lon="5.08506">
        <ele>224.124512</ele>
        <time>2009-06-14T09:04:25Z</time>
      </trkpt>
      <trkpt lat="44.24331" lon="5.08513">
        <ele>223.643799</ele>
        <time>2009-06-14T09:04:26Z</time>
      </trkpt>
      <trkpt lat="44.24336" lon="5.08529">
        <ele>224.124512</ele>
        <time>2009-06-14T09:04:29Z</time>
      </trkpt>
      <trkpt lat="44.24348" lon="5.08575">
        <ele>227.969727</ele>
        <time>2009-06-14T09:04:38Z</time>
      </trkpt>
      <trkpt lat="44.24359" lon="5.08609">
        <ele>231.334351</ele>
        <time>2009-06-14T09:04:44Z</time>
      </trkpt>
      <trkpt lat="44.24374" lon="5.08651">
        <ele>228.931152</ele>
        <time>2009-06-14T09:04:52Z</time>
      </trkpt>
      <trkpt lat="44.24387" lon="5.08694">
        <ele>227.969727</ele>
        <time>2009-06-14T09:05:00Z</time>
      </trkpt>
      <trkpt lat="44.24392" lon="5.0871">
        <ele>227.489136</ele>
        <time>2009-06-14T09:05:03Z</time>
      </trkpt>
      <trkpt lat="44.24396" lon="5.08721">
        <ele>227.008545</ele>
        <time>2009-06-14T09:05:05Z</time>
      </trkpt>
      <trkpt lat="44.24411" lon="5.08774">
        <ele>225.085938</ele>
        <time>2009-06-14T09:05:13Z</time>
      </trkpt>
      <trkpt lat="44.24427" lon="5.08825">
        <ele>224.605225</ele>
        <time>2009-06-14T09:05:21Z</time>
      </trkpt>
      <trkpt lat="44.24451" lon="5.08903">
        <ele>225.566528</ele>
        <time>2009-06-14T09:05:33Z</time>
      </trkpt>
      <trkpt lat="44.24467" lon="5.08955">
        <ele>225.566528</ele>
        <time>2009-06-14T09:05:41Z</time>
      </trkpt>
      <trkpt lat="44.24483" lon="5.0901">
        <ele>227.008545</ele>
        <time>2009-06-14T09:05:50Z</time>
      </trkpt>
      <trkpt lat="44.24508" lon="5.09085">
        <ele>227.008545</ele>
        <time>2009-06-14T09:06:03Z</time>
      </trkpt>
      <trkpt lat="44.24513" lon="5.09096">
        <ele>228.450439</ele>
        <time>2009-06-14T09:06:05Z</time>
      </trkpt>
      <trkpt lat="44.24538" lon="5.09131">
        <ele>230.85376</ele>
        <time>2009-06-14T09:06:12Z</time>
      </trkpt>
      <trkpt lat="44.24559" lon="5.09151">
        <ele>235.660278</ele>
        <time>2009-06-14T09:06:17Z</time>
      </trkpt>
      <trkpt lat="44.24595" lon="5.09169">
        <ele>237.102295</ele>
        <time>2009-06-14T09:06:24Z</time>
      </trkpt>
      <trkpt lat="44.24632" lon="5.0919">
        <ele>237.102295</ele>
        <time>2009-06-14T09:06:31Z</time>
      </trkpt>
      <trkpt lat="44.24673" lon="5.09213">
        <ele>239.024902</ele>
        <time>2009-06-14T09:06:39Z</time>
      </trkpt>
      <trkpt lat="44.24714" lon="5.09235">
        <ele>234.699097</ele>
        <time>2009-06-14T09:06:47Z</time>
      </trkpt>
      <trkpt lat="44.24719" lon="5.09238">
        <ele>234.218384</ele>
        <time>2009-06-14T09:06:48Z</time>
      </trkpt>
      <trkpt lat="44.24734" lon="5.09258">
        <ele>233.25708</ele>
        <time>2009-06-14T09:06:52Z</time>
      </trkpt>
      <trkpt lat="44.24747" lon="5.09268">
        <ele>234.218384</ele>
        <time>2009-06-14T09:06:55Z</time>
      </trkpt>
      <trkpt lat="44.24758" lon="5.09263">
        <ele>233.737671</ele>
        <time>2009-06-14T09:06:57Z</time>
      </trkpt>
      <trkpt lat="44.24784" lon="5.09261">
        <ele>233.25708</ele>
        <time>2009-06-14T09:07:02Z</time>
      </trkpt>
      <trkpt lat="44.2483" lon="5.09281">
        <ele>235.179688</ele>
        <time>2009-06-14T09:07:11Z</time>
      </trkpt>
      <trkpt lat="44.24882" lon="5.09305">
        <ele>236.621704</ele>
        <time>2009-06-14T09:07:21Z</time>
      </trkpt>
      <trkpt lat="44.24935" lon="5.09325">
        <ele>239.505493</ele>
        <time>2009-06-14T09:07:31Z</time>
      </trkpt>
      <trkpt lat="44.24995" lon="5.09346">
        <ele>240.947632</ele>
        <time>2009-06-14T09:07:42Z</time>
      </trkpt>
      <trkpt lat="44.25047" lon="5.09368">
        <ele>240.947632</ele>
        <time>2009-06-14T09:07:51Z</time>
      </trkpt>
      <trkpt lat="44.25106" lon="5.09392">
        <ele>241.428223</ele>
        <time>2009-06-14T09:08:01Z</time>
      </trkpt>
      <trkpt lat="44.25154" lon="5.09411">
        <ele>241.428223</ele>
        <time>2009-06-14T09:08:09Z</time>
      </trkpt>
      <trkpt lat="44.25196" lon="5.09427">
        <ele>242.389648</ele>
        <time>2009-06-14T09:08:16Z</time>
      </trkpt>
      <trkpt lat="44.25257" lon="5.09452">
        <ele>242.870239</ele>
        <time>2009-06-14T09:08:26Z</time>
      </trkpt>
      <trkpt lat="44.25311" lon="5.09478">
        <ele>243.35083</ele>
        <time>2009-06-14T09:08:35Z</time>
      </trkpt>
      <trkpt lat="44.25377" lon="5.09514">
        <ele>246.234863</ele>
        <time>2009-06-14T09:08:47Z</time>
      </trkpt>
      <trkpt lat="44.2542" lon="5.09537">
        <ele>247.676758</ele>
        <time>2009-06-14T09:08:56Z</time>
      </trkpt>
      <trkpt lat="44.25463" lon="5.09561">
        <ele>250.0802</ele>
        <time>2009-06-14T09:09:05Z</time>
      </trkpt>
      <trkpt lat="44.25497" lon="5.0959">
        <ele>252.963989</ele>
        <time>2009-06-14T09:09:13Z</time>
      </trkpt>
      <trkpt lat="44.25509" lon="5.09619">
        <ele>253.925415</ele>
        <time>2009-06-14T09:09:18Z</time>
      </trkpt>
      <trkpt lat="44.25521" lon="5.09629">
        <ele>254.886597</ele>
        <time>2009-06-14T09:09:21Z</time>
      </trkpt>
      <trkpt lat="44.25535" lon="5.09625">
        <ele>255.848022</ele>
        <time>2009-06-14T09:09:24Z</time>
      </trkpt>
      <trkpt lat="44.25565" lon="5.0962">
        <ele>257.770752</ele>
        <time>2009-06-14T09:09:30Z</time>
      </trkpt>
      <trkpt lat="44.25608" lon="5.09635">
        <ele>260.17395</ele>
        <time>2009-06-14T09:09:39Z</time>
      </trkpt>
      <trkpt lat="44.25655" lon="5.09656">
        <ele>261.615967</ele>
        <time>2009-06-14T09:09:49Z</time>
      </trkpt>
      <trkpt lat="44.25689" lon="5.09671">
        <ele>263.057861</ele>
        <time>2009-06-14T09:09:56Z</time>
      </trkpt>
      <trkpt lat="44.25728" lon="5.09687">
        <ele>263.538574</ele>
        <time>2009-06-14T09:10:04Z</time>
      </trkpt>
      <trkpt lat="44.2578" lon="5.0971">
        <ele>265.941895</ele>
        <time>2009-06-14T09:10:15Z</time>
      </trkpt>
      <trkpt lat="44.25834" lon="5.09734">
        <ele>268.825806</ele>
        <time>2009-06-14T09:10:26Z</time>
      </trkpt>
      <trkpt lat="44.25877" lon="5.09756">
        <ele>269.306519</ele>
        <time>2009-06-14T09:10:35Z</time>
      </trkpt>
      <trkpt lat="44.25905" lon="5.09784">
        <ele>270.2677</ele>
        <time>2009-06-14T09:10:41Z</time>
      </trkpt>
      <trkpt lat="44.25933" lon="5.09829">
        <ele>270.2677</ele>
        <time>2009-06-14T09:10:49Z</time>
      </trkpt>
      <trkpt lat="44.2594" lon="5.09841">
        <ele>270.2677</ele>
        <time>2009-06-14T09:10:51Z</time>
      </trkpt>
      <trkpt lat="44.2597" lon="5.09871">
        <ele>270.748413</ele>
        <time>2009-06-14T09:10:58Z</time>
      </trkpt>
      <trkpt lat="44.26017" lon="5.09903">
        <ele>271.229126</ele>
        <time>2009-06-14T09:11:07Z</time>
      </trkpt>
      <trkpt lat="44.26059" lon="5.09939">
        <ele>271.709717</ele>
        <time>2009-06-14T09:11:15Z</time>
      </trkpt>
      <trkpt lat="44.26102" lon="5.09979">
        <ele>274.113037</ele>
        <time>2009-06-14T09:11:24Z</time>
      </trkpt>
      <trkpt lat="44.26138" lon="5.10006">
        <ele>276.516357</ele>
        <time>2009-06-14T09:11:32Z</time>
      </trkpt>
      <trkpt lat="44.26173" lon="5.10025">
        <ele>278.919678</ele>
        <time>2009-06-14T09:11:40Z</time>
      </trkpt>
      <trkpt lat="44.26204" lon="5.10041">
        <ele>280.361694</ele>
        <time>2009-06-14T09:11:47Z</time>
      </trkpt>
      <trkpt lat="44.26233" lon="5.10069">
        <ele>279.880859</ele>
        <time>2009-06-14T09:11:54Z</time>
      </trkpt>
      <trkpt lat="44.26258" lon="5.1012">
        <ele>278.919678</ele>
        <time>2009-06-14T09:12:03Z</time>
      </trkpt>
      <trkpt lat="44.26266" lon="5.10139">
        <ele>278.438965</ele>
        <time>2009-06-14T09:12:06Z</time>
      </trkpt>
      <trkpt lat="44.26296" lon="5.10183">
        <ele>279.880859</ele>
        <time>2009-06-14T09:12:14Z</time>
      </trkpt>
      <trkpt lat="44.26301" lon="5.10187">
        <ele>280.361694</ele>
        <time>2009-06-14T09:12:15Z</time>
      </trkpt>
      <trkpt lat="44.2634" lon="5.10207">
        <ele>280.842407</ele>
        <time>2009-06-14T09:12:22Z</time>
      </trkpt>
      <trkpt lat="44.26389" lon="5.10227">
        <ele>280.361694</ele>
        <time>2009-06-14T09:12:30Z</time>
      </trkpt>
      <trkpt lat="44.26427" lon="5.10255">
        <ele>279.880859</ele>
        <time>2009-06-14T09:12:36Z</time>
      </trkpt>
      <trkpt lat="44.26471" lon="5.10301">
        <ele>279.880859</ele>
        <time>2009-06-14T09:12:44Z</time>
      </trkpt>
      <trkpt lat="44.26511" lon="5.10338">
        <ele>280.361694</ele>
        <time>2009-06-14T09:12:51Z</time>
      </trkpt>
      <trkpt lat="44.26549" lon="5.10354">
        <ele>280.842407</ele>
        <time>2009-06-14T09:12:57Z</time>
      </trkpt>
      <trkpt lat="44.26581" lon="5.10355">
        <ele>280.361694</ele>
        <time>2009-06-14T09:13:02Z</time>
      </trkpt>
      <trkpt lat="44.26642" lon="5.10348">
        <ele>279.400269</ele>
        <time>2009-06-14T09:13:11Z</time>
      </trkpt>
      <trkpt lat="44.26705" lon="5.10342">
        <ele>280.361694</ele>
        <time>2009-06-14T09:13:20Z</time>
      </trkpt>
      <trkpt lat="44.26782" lon="5.10334">
        <ele>281.322998</ele>
        <time>2009-06-14T09:13:31Z</time>
      </trkpt>
      <trkpt lat="44.26849" lon="5.10327">
        <ele>282.284302</ele>
        <time>2009-06-14T09:13:41Z</time>
      </trkpt>
      <trkpt lat="44.26902" lon="5.10322">
        <ele>283.245605</ele>
        <time>2009-06-14T09:13:49Z</time>
      </trkpt>
      <trkpt lat="44.26958" lon="5.10322">
        <ele>285.168213</ele>
        <time>2009-06-14T09:13:58Z</time>
      </trkpt>
      <trkpt lat="44.26999" lon="5.10334">
        <ele>286.610229</ele>
        <time>2009-06-14T09:14:05Z</time>
      </trkpt>
      <trkpt lat="44.27045" lon="5.10352">
        <ele>287.571411</ele>
        <time>2009-06-14T09:14:13Z</time>
      </trkpt>
      <trkpt lat="44.27091" lon="5.1037">
        <ele>288.532959</ele>
        <time>2009-06-14T09:14:21Z</time>
      </trkpt>
      <trkpt lat="44.27149" lon="5.10393">
        <ele>289.494141</ele>
        <time>2009-06-14T09:14:31Z</time>
      </trkpt>
      <trkpt lat="44.27208" lon="5.10417">
        <ele>290.936157</ele>
        <time>2009-06-14T09:14:41Z</time>
      </trkpt>
      <trkpt lat="44.27259" lon="5.10451">
        <ele>291.897461</ele>
        <time>2009-06-14T09:14:50Z</time>
      </trkpt>
      <trkpt lat="44.273" lon="5.10491">
        <ele>292.378174</ele>
        <time>2009-06-14T09:14:58Z</time>
      </trkpt>
      <trkpt lat="44.27332" lon="5.10535">
        <ele>290.936157</ele>
        <time>2009-06-14T09:15:04Z</time>
      </trkpt>
      <trkpt lat="44.27373" lon="5.10595">
        <ele>287.09082</ele>
        <time>2009-06-14T09:15:11Z</time>
      </trkpt>
      <trkpt lat="44.27429" lon="5.10674">
        <ele>284.206909</ele>
        <time>2009-06-14T09:15:19Z</time>
      </trkpt>
      <trkpt lat="44.27455" lon="5.10707">
        <ele>285.168213</ele>
        <time>2009-06-14T09:15:23Z</time>
      </trkpt>
      <trkpt lat="44.27482" lon="5.10727">
        <ele>286.129517</ele>
        <time>2009-06-14T09:15:27Z</time>
      </trkpt>
      <trkpt lat="44.27554" lon="5.10754">
        <ele>288.052246</ele>
        <time>2009-06-14T09:15:37Z</time>
      </trkpt>
      <trkpt lat="44.27586" lon="5.10769">
        <ele>289.01355</ele>
        <time>2009-06-14T09:15:42Z</time>
      </trkpt>
      <trkpt lat="44.27612" lon="5.10793">
        <ele>289.494141</ele>
        <time>2009-06-14T09:15:47Z</time>
      </trkpt>
      <trkpt lat="44.2763" lon="5.10791">
        <ele>289.494141</ele>
        <time>2009-06-14T09:15:50Z</time>
      </trkpt>
      <trkpt lat="44.27635" lon="5.10786">
        <ele>289.494141</ele>
        <time>2009-06-14T09:15:51Z</time>
      </trkpt>
      <trkpt lat="44.27669" lon="5.10761">
        <ele>290.455566</ele>
        <time>2009-06-14T09:15:57Z</time>
      </trkpt>
      <trkpt lat="44.27721" lon="5.10739">
        <ele>292.858765</ele>
        <time>2009-06-14T09:16:05Z</time>
      </trkpt>
      <trkpt lat="44.27765" lon="5.10719">
        <ele>293.339355</ele>
        <time>2009-06-14T09:16:12Z</time>
      </trkpt>
      <trkpt lat="44.27819" lon="5.10695">
        <ele>295.742676</ele>
        <time>2009-06-14T09:16:21Z</time>
      </trkpt>
      <trkpt lat="44.27871" lon="5.10666">
        <ele>297.665405</ele>
        <time>2009-06-14T09:16:30Z</time>
      </trkpt>
      <trkpt lat="44.27938" lon="5.10618">
        <ele>299.1073</ele>
        <time>2009-06-14T09:16:42Z</time>
      </trkpt>
      <trkpt lat="44.27992" lon="5.10579">
        <ele>301.029907</ele>
        <time>2009-06-14T09:16:52Z</time>
      </trkpt>
      <trkpt lat="44.28037" lon="5.10554">
        <ele>302.471924</ele>
        <time>2009-06-14T09:17:00Z</time>
      </trkpt>
      <trkpt lat="44.28077" lon="5.1055">
        <ele>302.952515</ele>
        <time>2009-06-14T09:17:06Z</time>
      </trkpt>
      <trkpt lat="44.28119" lon="5.10561">
        <ele>303.433228</ele>
        <time>2009-06-14T09:17:12Z</time>
      </trkpt>
      <trkpt lat="44.28185" lon="5.10587">
        <ele>305.355957</ele>
        <time>2009-06-14T09:17:21Z</time>
      </trkpt>
      <trkpt lat="44.28267" lon="5.10618">
        <ele>307.278564</ele>
        <time>2009-06-14T09:17:32Z</time>
      </trkpt>
      <trkpt lat="44.28335" lon="5.10632">
        <ele>309.201172</ele>
        <time>2009-06-14T09:17:41Z</time>
      </trkpt>
      <trkpt lat="44.2838" lon="5.10629">
        <ele>309.681885</ele>
        <time>2009-06-14T09:17:47Z</time>
      </trkpt>
      <trkpt lat="44.28427" lon="5.10614">
        <ele>309.681885</ele>
        <time>2009-06-14T09:17:53Z</time>
      </trkpt>
      <trkpt lat="44.28495" lon="5.10586">
        <ele>308.720459</ele>
        <time>2009-06-14T09:18:01Z</time>
      </trkpt>
      <trkpt lat="44.28568" lon="5.10557">
        <ele>305.355957</ele>
        <time>2009-06-14T09:18:09Z</time>
      </trkpt>
      <trkpt lat="44.28642" lon="5.10527">
        <ele>301.029907</ele>
        <time>2009-06-14T09:18:16Z</time>
      </trkpt>
      <trkpt lat="44.28753" lon="5.10483">
        <ele>295.742676</ele>
        <time>2009-06-14T09:18:26Z</time>
      </trkpt>
      <trkpt lat="44.28866" lon="5.10435">
        <ele>292.858765</ele>
        <time>2009-06-14T09:18:36Z</time>
      </trkpt>
      <trkpt lat="44.28952" lon="5.10389">
        <ele>290.936157</ele>
        <time>2009-06-14T09:18:44Z</time>
      </trkpt>
      <trkpt lat="44.29031" lon="5.10344">
        <ele>289.494141</ele>
        <time>2009-06-14T09:18:52Z</time>
      </trkpt>
      <trkpt lat="44.29097" lon="5.10306">
        <ele>289.01355</ele>
        <time>2009-06-14T09:18:59Z</time>
      </trkpt>
      <trkpt lat="44.29181" lon="5.1026">
        <ele>288.052246</ele>
        <time>2009-06-14T09:19:08Z</time>
      </trkpt>
      <trkpt lat="44.29261" lon="5.10215">
        <ele>286.129517</ele>
        <time>2009-06-14T09:19:16Z</time>
      </trkpt>
      <trkpt lat="44.2936" lon="5.10159">
        <ele>283.726196</ele>
        <time>2009-06-14T09:19:26Z</time>
      </trkpt>
      <trkpt lat="44.29421" lon="5.1013">
        <ele>282.765015</ele>
        <time>2009-06-14T09:19:32Z</time>
      </trkpt>
      <trkpt lat="44.2947" lon="5.10123">
        <ele>282.765015</ele>
        <time>2009-06-14T09:19:37Z</time>
      </trkpt>
      <trkpt lat="44.29546" lon="5.10121">
        <ele>282.284302</ele>
        <time>2009-06-14T09:19:45Z</time>
      </trkpt>
      <trkpt lat="44.29608" lon="5.10127">
        <ele>280.842407</ele>
        <time>2009-06-14T09:19:51Z</time>
      </trkpt>
      <trkpt lat="44.29682" lon="5.10146">
        <ele>279.400269</ele>
        <time>2009-06-14T09:19:58Z</time>
      </trkpt>
      <trkpt lat="44.29728" lon="5.10164">
        <ele>278.438965</ele>
        <time>2009-06-14T09:20:03Z</time>
      </trkpt>
      <trkpt lat="44.29804" lon="5.10184">
        <ele>276.99707</ele>
        <time>2009-06-14T09:20:11Z</time>
      </trkpt>
      <trkpt lat="44.29855" lon="5.10182">
        <ele>276.516357</ele>
        <time>2009-06-14T09:20:16Z</time>
      </trkpt>
      <trkpt lat="44.2995" lon="5.10169">
        <ele>275.555054</ele>
        <time>2009-06-14T09:20:25Z</time>
      </trkpt>
      <trkpt lat="44.30029" lon="5.10159">
        <ele>275.555054</ele>
        <time>2009-06-14T09:20:33Z</time>
      </trkpt>
      <trkpt lat="44.30106" lon="5.1015">
        <ele>276.035645</ele>
        <time>2009-06-14T09:20:41Z</time>
      </trkpt>
      <trkpt lat="44.30163" lon="5.10129">
        <ele>274.59375</ele>
        <time>2009-06-14T09:20:47Z</time>
      </trkpt>
      <trkpt lat="44.30249" lon="5.10095">
        <ele>273.151855</ele>
        <time>2009-06-14T09:20:56Z</time>
      </trkpt>
      <trkpt lat="44.30314" lon="5.10078">
        <ele>274.59375</ele>
        <time>2009-06-14T09:21:03Z</time>
      </trkpt>
      <trkpt lat="44.30384" lon="5.10063">
        <ele>274.59375</ele>
        <time>2009-06-14T09:21:11Z</time>
      </trkpt>
      <trkpt lat="44.30452" lon="5.10047">
        <ele>272.671143</ele>
        <time>2009-06-14T09:21:18Z</time>
      </trkpt>
      <trkpt lat="44.30496" lon="5.10036">
        <ele>272.19043</ele>
        <time>2009-06-14T09:21:23Z</time>
      </trkpt>
      <trkpt lat="44.30552" lon="5.10016">
        <ele>272.671143</ele>
        <time>2009-06-14T09:21:30Z</time>
      </trkpt>
      <trkpt lat="44.30613" lon="5.09993">
        <ele>272.19043</ele>
        <time>2009-06-14T09:21:38Z</time>
      </trkpt>
      <trkpt lat="44.3068" lon="5.09968">
        <ele>271.709717</ele>
        <time>2009-06-14T09:21:46Z</time>
      </trkpt>
      <trkpt lat="44.3075" lon="5.09944">
        <ele>271.709717</ele>
        <time>2009-06-14T09:21:54Z</time>
      </trkpt>
      <trkpt lat="44.30793" lon="5.09939">
        <ele>271.709717</ele>
        <time>2009-06-14T09:21:59Z</time>
      </trkpt>
      <trkpt lat="44.30808" lon="5.09939">
        <ele>272.19043</ele>
        <time>2009-06-14T09:22:01Z</time>
      </trkpt>
      <trkpt lat="44.3084" lon="5.0993">
        <ele>271.229126</ele>
        <time>2009-06-14T09:22:06Z</time>
      </trkpt>
      <trkpt lat="44.30853" lon="5.09919">
        <ele>270.748413</ele>
        <time>2009-06-14T09:22:09Z</time>
      </trkpt>
      <trkpt lat="44.30875" lon="5.09891">
        <ele>268.825806</ele>
        <time>2009-06-14T09:22:14Z</time>
      </trkpt>
      <trkpt lat="44.30901" lon="5.09878">
        <ele>267.864502</ele>
        <time>2009-06-14T09:22:18Z</time>
      </trkpt>
      <trkpt lat="44.30955" lon="5.09872">
        <ele>268.825806</ele>
        <time>2009-06-14T09:22:25Z</time>
      </trkpt>
      <trkpt lat="44.30992" lon="5.09868">
        <ele>272.19043</ele>
        <time>2009-06-14T09:22:30Z</time>
      </trkpt>
      <trkpt lat="44.31037" lon="5.09882">
        <ele>276.99707</ele>
        <time>2009-06-14T09:22:36Z</time>
      </trkpt>
      <trkpt lat="44.31056" lon="5.09875">
        <ele>278.438965</ele>
        <time>2009-06-14T09:22:39Z</time>
      </trkpt>
      <trkpt lat="44.31062" lon="5.09868">
        <ele>276.99707</ele>
        <time>2009-06-14T09:22:40Z</time>
      </trkpt>
      <trkpt lat="44.311" lon="5.09832">
        <ele>270.2677</ele>
        <time>2009-06-14T09:22:45Z</time>
      </trkpt>
      <trkpt lat="44.31133" lon="5.09782">
        <ele>264.499878</ele>
        <time>2009-06-14T09:22:50Z</time>
      </trkpt>
      <trkpt lat="44.3114" lon="5.09772">
        <ele>264.019287</ele>
        <time>2009-06-14T09:22:51Z</time>
      </trkpt>
      <trkpt lat="44.31175" lon="5.09743">
        <ele>262.096558</ele>
        <time>2009-06-14T09:22:55Z</time>
      </trkpt>
      <trkpt lat="44.31186" lon="5.09738">
        <ele>261.135254</ele>
        <time>2009-06-14T09:22:56Z</time>
      </trkpt>
      <trkpt lat="44.31249" lon="5.0972">
        <ele>255.848022</ele>
        <time>2009-06-14T09:23:02Z</time>
      </trkpt>
      <trkpt lat="44.31313" lon="5.09722">
        <ele>250.0802</ele>
        <time>2009-06-14T09:23:08Z</time>
      </trkpt>
      <trkpt lat="44.31402" lon="5.09738">
        <ele>244.792847</ele>
        <time>2009-06-14T09:23:16Z</time>
      </trkpt>
      <trkpt lat="44.31444" lon="5.0976">
        <ele>243.831543</ele>
        <time>2009-06-14T09:23:20Z</time>
      </trkpt>
      <trkpt lat="44.31488" lon="5.09793">
        <ele>244.312256</ele>
        <time>2009-06-14T09:23:25Z</time>
      </trkpt>
      <trkpt lat="44.31524" lon="5.09818">
        <ele>246.234863</ele>
        <time>2009-06-14T09:23:30Z</time>
      </trkpt>
      <trkpt lat="44.3156" lon="5.09842">
        <ele>247.196045</ele>
        <time>2009-06-14T09:23:36Z</time>
      </trkpt>
      <trkpt lat="44.31587" lon="5.09865">
        <ele>248.157593</ele>
        <time>2009-06-14T09:23:41Z</time>
      </trkpt>
      <trkpt lat="44.31633" lon="5.09906">
        <ele>250.560791</ele>
        <time>2009-06-14T09:23:50Z</time>
      </trkpt>
      <trkpt lat="44.31667" lon="5.09928">
        <ele>252.483398</ele>
        <time>2009-06-14T09:23:56Z</time>
      </trkpt>
      <trkpt lat="44.31694" lon="5.09932">
        <ele>252.483398</ele>
        <time>2009-06-14T09:24:00Z</time>
      </trkpt>
      <trkpt lat="44.31745" lon="5.09925">
        <ele>252.963989</ele>
        <time>2009-06-14T09:24:07Z</time>
      </trkpt>
      <trkpt lat="44.31804" lon="5.09917">
        <ele>252.963989</ele>
        <time>2009-06-14T09:24:15Z</time>
      </trkpt>
      <trkpt lat="44.31855" lon="5.09909">
        <ele>253.444702</ele>
        <time>2009-06-14T09:24:22Z</time>
      </trkpt>
      <trkpt lat="44.31928" lon="5.09898">
        <ele>253.925415</ele>
        <time>2009-06-14T09:24:32Z</time>
      </trkpt>
      <trkpt lat="44.31996" lon="5.09889">
        <ele>254.406006</ele>
        <time>2009-06-14T09:24:41Z</time>
      </trkpt>
      <trkpt lat="44.32043" lon="5.09887">
        <ele>254.406006</ele>
        <time>2009-06-14T09:24:47Z</time>
      </trkpt>
      <trkpt lat="44.32101" lon="5.09897">
        <ele>253.925415</ele>
        <time>2009-06-14T09:24:54Z</time>
      </trkpt>
      <trkpt lat="44.32185" lon="5.0992">
        <ele>252.963989</ele>
        <time>2009-06-14T09:25:04Z</time>
      </trkpt>
      <trkpt lat="44.32254" lon="5.09939">
        <ele>251.522095</ele>
        <time>2009-06-14T09:25:12Z</time>
      </trkpt>
      <trkpt lat="44.32332" lon="5.09961">
        <ele>250.0802</ele>
        <time>2009-06-14T09:25:21Z</time>
      </trkpt>
      <trkpt lat="44.32403" lon="5.09979">
        <ele>249.118774</ele>
        <time>2009-06-14T09:25:29Z</time>
      </trkpt>
      <trkpt lat="44.32463" lon="5.09996">
        <ele>250.0802</ele>
        <time>2009-06-14T09:25:36Z</time>
      </trkpt>
      <trkpt lat="44.3252" lon="5.10012">
        <ele>250.560791</ele>
        <time>2009-06-14T09:25:43Z</time>
      </trkpt>
      <trkpt lat="44.32559" lon="5.10034">
        <ele>250.0802</ele>
        <time>2009-06-14T09:25:48Z</time>
      </trkpt>
      <trkpt lat="44.32605" lon="5.1008">
        <ele>249.118774</ele>
        <time>2009-06-14T09:25:55Z</time>
      </trkpt>
      <trkpt lat="44.32666" lon="5.10142">
        <ele>247.676758</ele>
        <time>2009-06-14T09:26:04Z</time>
      </trkpt>
      <trkpt lat="44.32722" lon="5.10197">
        <ele>245.75415</ele>
        <time>2009-06-14T09:26:12Z</time>
      </trkpt>
      <trkpt lat="44.32792" lon="5.1027">
        <ele>243.831543</ele>
        <time>2009-06-14T09:26:22Z</time>
      </trkpt>
      <trkpt lat="44.32862" lon="5.1034">
        <ele>243.35083</ele>
        <time>2009-06-14T09:26:32Z</time>
      </trkpt>
      <trkpt lat="44.32922" lon="5.10401">
        <ele>243.831543</ele>
        <time>2009-06-14T09:26:41Z</time>
      </trkpt>
      <trkpt lat="44.32986" lon="5.10469">
        <ele>243.831543</ele>
        <time>2009-06-14T09:26:50Z</time>
      </trkpt>
      <trkpt lat="44.33055" lon="5.10545">
        <ele>243.831543</ele>
        <time>2009-06-14T09:27:00Z</time>
      </trkpt>
      <trkpt lat="44.33133" lon="5.10627">
        <ele>243.35083</ele>
        <time>2009-06-14T09:27:11Z</time>
      </trkpt>
      <trkpt lat="44.33177" lon="5.10681">
        <ele>243.831543</ele>
        <time>2009-06-14T09:27:18Z</time>
      </trkpt>
      <trkpt lat="44.3324" lon="5.10764">
        <ele>243.831543</ele>
        <time>2009-06-14T09:27:28Z</time>
      </trkpt>
      <trkpt lat="44.33279" lon="5.10819">
        <ele>243.831543</ele>
        <time>2009-06-14T09:27:35Z</time>
      </trkpt>
      <trkpt lat="44.33313" lon="5.10866">
        <ele>243.831543</ele>
        <time>2009-06-14T09:27:41Z</time>
      </trkpt>
      <trkpt lat="44.33359" lon="5.10914">
        <ele>243.831543</ele>
        <time>2009-06-14T09:27:48Z</time>
      </trkpt>
      <trkpt lat="44.33412" lon="5.10965">
        <ele>242.870239</ele>
        <time>2009-06-14T09:27:56Z</time>
      </trkpt>
      <trkpt lat="44.33452" lon="5.11015">
        <ele>242.389648</ele>
        <time>2009-06-14T09:28:03Z</time>
      </trkpt>
      <trkpt lat="44.33464" lon="5.11027">
        <ele>242.389648</ele>
        <time>2009-06-14T09:28:05Z</time>
      </trkpt>
      <trkpt lat="44.33492" lon="5.11043">
        <ele>242.389648</ele>
        <time>2009-06-14T09:28:09Z</time>
      </trkpt>
      <trkpt lat="44.33548" lon="5.1106">
        <ele>242.389648</ele>
        <time>2009-06-14T09:28:17Z</time>
      </trkpt>
      <trkpt lat="44.33591" lon="5.11085">
        <ele>243.831543</ele>
        <time>2009-06-14T09:28:23Z</time>
      </trkpt>
      <trkpt lat="44.33629" lon="5.11122">
        <ele>245.273438</ele>
        <time>2009-06-14T09:28:29Z</time>
      </trkpt>
      <trkpt lat="44.33656" lon="5.11156">
        <ele>246.715454</ele>
        <time>2009-06-14T09:28:34Z</time>
      </trkpt>
      <trkpt lat="44.33679" lon="5.11209">
        <ele>246.715454</ele>
        <time>2009-06-14T09:28:40Z</time>
      </trkpt>
      <trkpt lat="44.33693" lon="5.11262">
        <ele>246.715454</ele>
        <time>2009-06-14T09:28:46Z</time>
      </trkpt>
      <trkpt lat="44.33695" lon="5.11271">
        <ele>247.196045</ele>
        <time>2009-06-14T09:28:47Z</time>
      </trkpt>
      <trkpt lat="44.33725" lon="5.11335">
        <ele>252.963989</ele>
        <time>2009-06-14T09:28:54Z</time>
      </trkpt>
      <trkpt lat="44.33754" lon="5.11393">
        <ele>255.848022</ele>
        <time>2009-06-14T09:29:01Z</time>
      </trkpt>
      <trkpt lat="44.33783" lon="5.11422">
        <ele>258.251343</ele>
        <time>2009-06-14T09:29:06Z</time>
      </trkpt>
      <trkpt lat="44.3379" lon="5.11426">
        <ele>258.251343</ele>
        <time>2009-06-14T09:29:07Z</time>
      </trkpt>
      <trkpt lat="44.33852" lon="5.1145">
        <ele>259.693359</ele>
        <time>2009-06-14T09:29:15Z</time>
      </trkpt>
      <trkpt lat="44.33891" lon="5.11464">
        <ele>259.693359</ele>
        <time>2009-06-14T09:29:20Z</time>
      </trkpt>
      <trkpt lat="44.33934" lon="5.11496">
        <ele>256.809326</ele>
        <time>2009-06-14T09:29:26Z</time>
      </trkpt>
      <trkpt lat="44.33983" lon="5.11538">
        <ele>255.848022</ele>
        <time>2009-06-14T09:29:33Z</time>
      </trkpt>
      <trkpt lat="44.34027" lon="5.11578">
        <ele>257.770752</ele>
        <time>2009-06-14T09:29:40Z</time>
      </trkpt>
      <trkpt lat="44.34083" lon="5.11629">
        <ele>261.615967</ele>
        <time>2009-06-14T09:29:49Z</time>
      </trkpt>
      <trkpt lat="44.34142" lon="5.11683">
        <ele>264.019287</ele>
        <time>2009-06-14T09:29:59Z</time>
      </trkpt>
      <trkpt lat="44.342" lon="5.11735">
        <ele>265.461304</ele>
        <time>2009-06-14T09:30:08Z</time>
      </trkpt>
      <trkpt lat="44.34243" lon="5.1177">
        <ele>265.941895</ele>
        <time>2009-06-14T09:30:14Z</time>
      </trkpt>
      <trkpt lat="44.34293" lon="5.11806">
        <ele>263.538574</ele>
        <time>2009-06-14T09:30:20Z</time>
      </trkpt>
      <trkpt lat="44.34301" lon="5.11813">
        <ele>263.057861</ele>
        <time>2009-06-14T09:30:21Z</time>
      </trkpt>
      <trkpt lat="44.34352" lon="5.11872">
        <ele>259.212646</ele>
        <time>2009-06-14T09:30:28Z</time>
      </trkpt>
      <trkpt lat="44.34401" lon="5.1193">
        <ele>257.290039</ele>
        <time>2009-06-14T09:30:35Z</time>
      </trkpt>
      <trkpt lat="44.34425" lon="5.11958">
        <ele>258.731934</ele>
        <time>2009-06-14T09:30:39Z</time>
      </trkpt>
      <trkpt lat="44.34467" lon="5.11985">
        <ele>261.615967</ele>
        <time>2009-06-14T09:30:45Z</time>
      </trkpt>
      <trkpt lat="44.34516" lon="5.12015">
        <ele>261.615967</ele>
        <time>2009-06-14T09:30:52Z</time>
      </trkpt>
      <trkpt lat="44.34566" lon="5.12033">
        <ele>265.461304</ele>
        <time>2009-06-14T09:30:59Z</time>
      </trkpt>
      <trkpt lat="44.34621" lon="5.1205">
        <ele>264.980591</ele>
        <time>2009-06-14T09:31:06Z</time>
      </trkpt>
      <trkpt lat="44.34666" lon="5.1207">
        <ele>265.941895</ele>
        <time>2009-06-14T09:31:12Z</time>
      </trkpt>
      <trkpt lat="44.34683" lon="5.12097">
        <ele>264.980591</ele>
        <time>2009-06-14T09:31:17Z</time>
      </trkpt>
      <trkpt lat="44.34682" lon="5.12118">
        <ele>264.019287</ele>
        <time>2009-06-14T09:31:20Z</time>
      </trkpt>
      <trkpt lat="44.3468" lon="5.12124">
        <ele>264.019287</ele>
        <time>2009-06-14T09:31:21Z</time>
      </trkpt>
      <trkpt lat="44.34675" lon="5.12141">
        <ele>262.577148</ele>
        <time>2009-06-14T09:31:24Z</time>
      </trkpt>
      <trkpt lat="44.34673" lon="5.12162">
        <ele>261.615967</ele>
        <time>2009-06-14T09:31:29Z</time>
      </trkpt>
      <trkpt lat="44.34673" lon="5.12171">
        <ele>261.615967</ele>
        <time>2009-06-14T09:31:31Z</time>
      </trkpt>
      <trkpt lat="44.34674" lon="5.12204">
        <ele>261.615967</ele>
        <time>2009-06-14T09:31:38Z</time>
      </trkpt>
      <trkpt lat="44.34682" lon="5.12231">
        <ele>257.770752</ele>
        <time>2009-06-14T09:31:45Z</time>
      </trkpt>
      <trkpt lat="44.34687" lon="5.12251">
        <ele>258.731934</ele>
        <time>2009-06-14T09:31:51Z</time>
      </trkpt>
      <trkpt lat="44.34691" lon="5.12263">
        <ele>258.731934</ele>
        <time>2009-06-14T09:31:56Z</time>
      </trkpt>
      <trkpt lat="44.34692" lon="5.12266">
        <ele>261.615967</ele>
        <time>2009-06-14T09:32:07Z</time>
      </trkpt>
      <trkpt lat="44.34694" lon="5.12266">
        <ele>262.096558</ele>
        <time>2009-06-14T09:32:14Z</time>
      </trkpt>
      <trkpt lat="44.34694" lon="5.12265">
        <ele>262.096558</ele>
        <time>2009-06-14T09:32:22Z</time>
      </trkpt>
      <trkpt lat="44.34695" lon="5.12266">
        <ele>260.654541</ele>
        <time>2009-06-14T09:32:25Z</time>
      </trkpt>
      <trkpt lat="44.34695" lon="5.12268">
        <ele>259.693359</ele>
        <time>2009-06-14T09:32:31Z</time>
      </trkpt>
      <trkpt lat="44.34697" lon="5.1227">
        <ele>260.654541</ele>
        <time>2009-06-14T09:32:42Z</time>
      </trkpt>
      <trkpt lat="44.34693" lon="5.12266">
        <ele>258.731934</ele>
        <time>2009-06-14T09:32:49Z</time>
      </trkpt>
      <trkpt lat="44.34698" lon="5.12269">
        <ele>261.615967</ele>
        <time>2009-06-14T09:33:16Z</time>
      </trkpt>
      <trkpt lat="44.347" lon="5.1227">
        <ele>263.057861</ele>
        <time>2009-06-14T09:33:21Z</time>
      </trkpt>
      <trkpt lat="44.34695" lon="5.12269">
        <ele>260.17395</ele>
        <time>2009-06-14T09:33:39Z</time>
      </trkpt>
      <trkpt lat="44.34696" lon="5.12268">
        <ele>250.560791</ele>
        <time>2009-06-14T09:34:00Z</time>
      </trkpt>
      <trkpt lat="44.34705" lon="5.12287">
        <ele>246.715454</ele>
        <time>2009-06-14T09:34:06Z</time>
      </trkpt>
      <trkpt lat="44.34721" lon="5.12315">
        <ele>245.75415</ele>
        <time>2009-06-14T09:34:11Z</time>
      </trkpt>
      <trkpt lat="44.34746" lon="5.12352">
        <ele>250.0802</ele>
        <time>2009-06-14T09:34:17Z</time>
      </trkpt>
      <trkpt lat="44.3477" lon="5.12389">
        <ele>252.963989</ele>
        <time>2009-06-14T09:34:22Z</time>
      </trkpt>
      <trkpt lat="44.34798" lon="5.12439">
        <ele>252.002808</ele>
        <time>2009-06-14T09:34:29Z</time>
      </trkpt>
      <trkpt lat="44.34803" lon="5.12445">
        <ele>252.002808</ele>
        <time>2009-06-14T09:34:30Z</time>
      </trkpt>
      <trkpt lat="44.34838" lon="5.12477">
        <ele>255.848022</ele>
        <time>2009-06-14T09:34:37Z</time>
      </trkpt>
      <trkpt lat="44.34877" lon="5.12502">
        <ele>255.36731</ele>
        <time>2009-06-14T09:34:44Z</time>
      </trkpt>
      <trkpt lat="44.34914" lon="5.12519">
        <ele>256.809326</ele>
        <time>2009-06-14T09:34:50Z</time>
      </trkpt>
      <trkpt lat="44.34963" lon="5.12537">
        <ele>257.290039</ele>
        <time>2009-06-14T09:34:57Z</time>
      </trkpt>
      <trkpt lat="44.35039" lon="5.12565">
        <ele>258.251343</ele>
        <time>2009-06-14T09:35:08Z</time>
      </trkpt>
      <trkpt lat="44.35063" lon="5.12585">
        <ele>259.212646</ele>
        <time>2009-06-14T09:35:13Z</time>
      </trkpt>
      <trkpt lat="44.35086" lon="5.12612">
        <ele>259.693359</ele>
        <time>2009-06-14T09:35:19Z</time>
      </trkpt>
      <trkpt lat="44.35111" lon="5.12642">
        <ele>260.654541</ele>
        <time>2009-06-14T09:35:24Z</time>
      </trkpt>
      <trkpt lat="44.35133" lon="5.12696">
        <ele>262.096558</ele>
        <time>2009-06-14T09:35:31Z</time>
      </trkpt>
      <trkpt lat="44.35152" lon="5.12769">
        <ele>263.538574</ele>
        <time>2009-06-14T09:35:40Z</time>
      </trkpt>
      <trkpt lat="44.35168" lon="5.12833">
        <ele>263.538574</ele>
        <time>2009-06-14T09:35:48Z</time>
      </trkpt>
      <trkpt lat="44.35181" lon="5.12883">
        <ele>263.057861</ele>
        <time>2009-06-14T09:35:55Z</time>
      </trkpt>
      <trkpt lat="44.35198" lon="5.12946">
        <ele>264.499878</ele>
        <time>2009-06-14T09:36:03Z</time>
      </trkpt>
      <trkpt lat="44.35211" lon="5.12998">
        <ele>264.019287</ele>
        <time>2009-06-14T09:36:09Z</time>
      </trkpt>
      <trkpt lat="44.35235" lon="5.13091">
        <ele>264.499878</ele>
        <time>2009-06-14T09:36:19Z</time>
      </trkpt>
      <trkpt lat="44.35254" lon="5.13164">
        <ele>264.499878</ele>
        <time>2009-06-14T09:36:27Z</time>
      </trkpt>
      <trkpt lat="44.35282" lon="5.13275">
        <ele>266.422485</ele>
        <time>2009-06-14T09:36:39Z</time>
      </trkpt>
      <trkpt lat="44.35304" lon="5.13361">
        <ele>267.383911</ele>
        <time>2009-06-14T09:36:49Z</time>
      </trkpt>
      <trkpt lat="44.35325" lon="5.1344">
        <ele>268.345093</ele>
        <time>2009-06-14T09:36:58Z</time>
      </trkpt>
      <trkpt lat="44.35352" lon="5.1354">
        <ele>269.787109</ele>
        <time>2009-06-14T09:37:09Z</time>
      </trkpt>
      <trkpt lat="44.35366" lon="5.13571">
        <ele>270.2677</ele>
        <time>2009-06-14T09:37:13Z</time>
      </trkpt>
      <trkpt lat="44.35398" lon="5.13605">
        <ele>269.787109</ele>
        <time>2009-06-14T09:37:19Z</time>
      </trkpt>
      <trkpt lat="44.35438" lon="5.1364">
        <ele>270.748413</ele>
        <time>2009-06-14T09:37:26Z</time>
      </trkpt>
      <trkpt lat="44.3547" lon="5.13671">
        <ele>270.2677</ele>
        <time>2009-06-14T09:37:32Z</time>
      </trkpt>
      <trkpt lat="44.355" lon="5.1371">
        <ele>270.748413</ele>
        <time>2009-06-14T09:37:38Z</time>
      </trkpt>
      <trkpt lat="44.35522" lon="5.13759">
        <ele>271.229126</ele>
        <time>2009-06-14T09:37:44Z</time>
      </trkpt>
      <trkpt lat="44.3556" lon="5.13845">
        <ele>273.151855</ele>
        <time>2009-06-14T09:37:55Z</time>
      </trkpt>
      <trkpt lat="44.35592" lon="5.13918">
        <ele>276.99707</ele>
        <time>2009-06-14T09:38:04Z</time>
      </trkpt>
      <trkpt lat="44.35611" lon="5.13964">
        <ele>276.99707</ele>
        <time>2009-06-14T09:38:10Z</time>
      </trkpt>
      <trkpt lat="44.3564" lon="5.14012">
        <ele>277.958252</ele>
        <time>2009-06-14T09:38:17Z</time>
      </trkpt>
      <trkpt lat="44.35678" lon="5.14064">
        <ele>278.438965</ele>
        <time>2009-06-14T09:38:24Z</time>
      </trkpt>
      <trkpt lat="44.35719" lon="5.14118">
        <ele>278.919678</ele>
        <time>2009-06-14T09:38:31Z</time>
      </trkpt>
      <trkpt lat="44.35749" lon="5.14157">
        <ele>277.958252</ele>
        <time>2009-06-14T09:38:36Z</time>
      </trkpt>
      <trkpt lat="44.3577" lon="5.142">
        <ele>277.477661</ele>
        <time>2009-06-14T09:38:42Z</time>
      </trkpt>
      <trkpt lat="44.35786" lon="5.14214">
        <ele>276.99707</ele>
        <time>2009-06-14T09:38:46Z</time>
      </trkpt>
      <trkpt lat="44.35817" lon="5.14232">
        <ele>278.438965</ele>
        <time>2009-06-14T09:38:52Z</time>
      </trkpt>
      <trkpt lat="44.35853" lon="5.14265">
        <ele>282.284302</ele>
        <time>2009-06-14T09:38:59Z</time>
      </trkpt>
      <trkpt lat="44.35877" lon="5.14299">
        <ele>283.726196</ele>
        <time>2009-06-14T09:39:05Z</time>
      </trkpt>
      <trkpt lat="44.35903" lon="5.1434">
        <ele>285.168213</ele>
        <time>2009-06-14T09:39:11Z</time>
      </trkpt>
      <trkpt lat="44.35918" lon="5.14374">
        <ele>285.648804</ele>
        <time>2009-06-14T09:39:15Z</time>
      </trkpt>
      <trkpt lat="44.3593" lon="5.14425">
        <ele>285.168213</ele>
        <time>2009-06-14T09:39:20Z</time>
      </trkpt>
      <trkpt lat="44.35926" lon="5.14495">
        <ele>281.803589</ele>
        <time>2009-06-14T09:39:26Z</time>
      </trkpt>
      <trkpt lat="44.35919" lon="5.14569">
        <ele>278.438965</ele>
        <time>2009-06-14T09:39:32Z</time>
      </trkpt>
      <trkpt lat="44.35921" lon="5.14634">
        <ele>276.99707</ele>
        <time>2009-06-14T09:39:37Z</time>
      </trkpt>
      <trkpt lat="44.35928" lon="5.14673">
        <ele>276.035645</ele>
        <time>2009-06-14T09:39:40Z</time>
      </trkpt>
      <trkpt lat="44.35954" lon="5.1473">
        <ele>275.555054</ele>
        <time>2009-06-14T09:39:45Z</time>
      </trkpt>
      <trkpt lat="44.36008" lon="5.14825">
        <ele>273.632446</ele>
        <time>2009-06-14T09:39:54Z</time>
      </trkpt>
      <trkpt lat="44.36039" lon="5.14879">
        <ele>273.632446</ele>
        <time>2009-06-14T09:40:00Z</time>
      </trkpt>
      <trkpt lat="44.36088" lon="5.14942">
        <ele>271.709717</ele>
        <time>2009-06-14T09:40:08Z</time>
      </trkpt>
      <trkpt lat="44.36137" lon="5.14992">
        <ele>271.709717</ele>
        <time>2009-06-14T09:40:15Z</time>
      </trkpt>
      <trkpt lat="44.362" lon="5.15052">
        <ele>271.709717</ele>
        <time>2009-06-14T09:40:24Z</time>
      </trkpt>
      <trkpt lat="44.36253" lon="5.15107">
        <ele>273.151855</ele>
        <time>2009-06-14T09:40:32Z</time>
      </trkpt>
      <trkpt lat="44.36314" lon="5.15178">
        <ele>274.59375</ele>
        <time>2009-06-14T09:40:42Z</time>
      </trkpt>
      <trkpt lat="44.36375" lon="5.15252">
        <ele>275.555054</ele>
        <time>2009-06-14T09:40:52Z</time>
      </trkpt>
      <trkpt lat="44.36426" lon="5.15312">
        <ele>275.555054</ele>
        <time>2009-06-14T09:41:00Z</time>
      </trkpt>
      <trkpt lat="44.36467" lon="5.1535">
        <ele>275.555054</ele>
        <time>2009-06-14T09:41:06Z</time>
      </trkpt>
      <trkpt lat="44.36499" lon="5.15364">
        <ele>276.035645</ele>
        <time>2009-06-14T09:41:10Z</time>
      </trkpt>
      <trkpt lat="44.36539" lon="5.15366">
        <ele>277.477661</ele>
        <time>2009-06-14T09:41:15Z</time>
      </trkpt>
      <trkpt lat="44.36574" lon="5.15353">
        <ele>279.400269</ele>
        <time>2009-06-14T09:41:20Z</time>
      </trkpt>
      <trkpt lat="44.36602" lon="5.15328">
        <ele>281.803589</ele>
        <time>2009-06-14T09:41:25Z</time>
      </trkpt>
      <trkpt lat="44.36629" lon="5.1529">
        <ele>284.206909</ele>
        <time>2009-06-14T09:41:31Z</time>
      </trkpt>
      <trkpt lat="44.36657" lon="5.15234">
        <ele>287.571411</ele>
        <time>2009-06-14T09:41:39Z</time>
      </trkpt>
      <trkpt lat="44.36686" lon="5.1517">
        <ele>290.455566</ele>
        <time>2009-06-14T09:41:48Z</time>
      </trkpt>
      <trkpt lat="44.36714" lon="5.15124">
        <ele>292.378174</ele>
        <time>2009-06-14T09:41:55Z</time>
      </trkpt>
      <trkpt lat="44.36736" lon="5.15103">
        <ele>293.339355</ele>
        <time>2009-06-14T09:41:59Z</time>
      </trkpt>
      <trkpt lat="44.36778" lon="5.15086">
        <ele>293.820068</ele>
        <time>2009-06-14T09:42:05Z</time>
      </trkpt>
      <trkpt lat="44.36816" lon="5.15082">
        <ele>294.781372</ele>
        <time>2009-06-14T09:42:10Z</time>
      </trkpt>
      <trkpt lat="44.36865" lon="5.15073">
        <ele>294.300781</ele>
        <time>2009-06-14T09:42:16Z</time>
      </trkpt>
      <trkpt lat="44.36907" lon="5.15078">
        <ele>291.416748</ele>
        <time>2009-06-14T09:42:21Z</time>
      </trkpt>
      <trkpt lat="44.36979" lon="5.15096">
        <ele>287.571411</ele>
        <time>2009-06-14T09:42:29Z</time>
      </trkpt>
      <trkpt lat="44.37036" lon="5.15114">
        <ele>283.726196</ele>
        <time>2009-06-14T09:42:36Z</time>
      </trkpt>
      <trkpt lat="44.37077" lon="5.15133">
        <ele>285.168213</ele>
        <time>2009-06-14T09:42:41Z</time>
      </trkpt>
      <trkpt lat="44.37109" lon="5.15157">
        <ele>285.648804</ele>
        <time>2009-06-14T09:42:45Z</time>
      </trkpt>
      <trkpt lat="44.37138" lon="5.152">
        <ele>289.01355</ele>
        <time>2009-06-14T09:42:50Z</time>
      </trkpt>
      <trkpt lat="44.37142" lon="5.1521">
        <ele>289.494141</ele>
        <time>2009-06-14T09:42:51Z</time>
      </trkpt>
      <trkpt lat="44.37162" lon="5.15273">
        <ele>291.897461</ele>
        <time>2009-06-14T09:42:57Z</time>
      </trkpt>
      <trkpt lat="44.37181" lon="5.15344">
        <ele>293.820068</ele>
        <time>2009-06-14T09:43:04Z</time>
      </trkpt>
      <trkpt lat="44.37196" lon="5.15418">
        <ele>294.300781</ele>
        <time>2009-06-14T09:43:11Z</time>
      </trkpt>
      <trkpt lat="44.37208" lon="5.155">
        <ele>292.378174</ele>
        <time>2009-06-14T09:43:19Z</time>
      </trkpt>
      <trkpt lat="44.37225" lon="5.15576">
        <ele>290.455566</ele>
        <time>2009-06-14T09:43:27Z</time>
      </trkpt>
      <trkpt lat="44.37235" lon="5.15646">
        <ele>289.494141</ele>
        <time>2009-06-14T09:43:34Z</time>
      </trkpt>
      <trkpt lat="44.37247" lon="5.15697">
        <ele>289.494141</ele>
        <time>2009-06-14T09:43:39Z</time>
      </trkpt>
      <trkpt lat="44.37252" lon="5.15754">
        <ele>289.974854</ele>
        <time>2009-06-14T09:43:44Z</time>
      </trkpt>
      <trkpt lat="44.37255" lon="5.15834">
        <ele>289.974854</ele>
        <time>2009-06-14T09:43:51Z</time>
      </trkpt>
      <trkpt lat="44.37269" lon="5.15961">
        <ele>288.052246</ele>
        <time>2009-06-14T09:44:02Z</time>
      </trkpt>
      <trkpt lat="44.37264" lon="5.1602">
        <ele>288.052246</ele>
        <time>2009-06-14T09:44:07Z</time>
      </trkpt>
      <trkpt lat="44.37266" lon="5.16044">
        <ele>288.052246</ele>
        <time>2009-06-14T09:44:09Z</time>
      </trkpt>
      <trkpt lat="44.37274" lon="5.16121">
        <ele>288.532959</ele>
        <time>2009-06-14T09:44:16Z</time>
      </trkpt>
      <trkpt lat="44.37273" lon="5.16192">
        <ele>290.455566</ele>
        <time>2009-06-14T09:44:23Z</time>
      </trkpt>
      <trkpt lat="44.37269" lon="5.16263">
        <ele>290.936157</ele>
        <time>2009-06-14T09:44:30Z</time>
      </trkpt>
      <trkpt lat="44.37276" lon="5.16323">
        <ele>291.897461</ele>
        <time>2009-06-14T09:44:36Z</time>
      </trkpt>
      <trkpt lat="44.37289" lon="5.16374">
        <ele>292.378174</ele>
        <time>2009-06-14T09:44:42Z</time>
      </trkpt>
      <trkpt lat="44.3731" lon="5.16418">
        <ele>290.936157</ele>
        <time>2009-06-14T09:44:49Z</time>
      </trkpt>
      <trkpt lat="44.37329" lon="5.16447">
        <ele>290.936157</ele>
        <time>2009-06-14T09:44:55Z</time>
      </trkpt>
      <trkpt lat="44.37363" lon="5.16487">
        <ele>289.494141</ele>
        <time>2009-06-14T09:45:03Z</time>
      </trkpt>
      <trkpt lat="44.37394" lon="5.1651">
        <ele>288.532959</ele>
        <time>2009-06-14T09:45:09Z</time>
      </trkpt>
      <trkpt lat="44.37405" lon="5.16517">
        <ele>288.052246</ele>
        <time>2009-06-14T09:45:11Z</time>
      </trkpt>
      <trkpt lat="44.37433" lon="5.16551">
        <ele>288.532959</ele>
        <time>2009-06-14T09:45:17Z</time>
      </trkpt>
      <trkpt lat="44.37456" lon="5.16593">
        <ele>288.052246</ele>
        <time>2009-06-14T09:45:23Z</time>
      </trkpt>
      <trkpt lat="44.37488" lon="5.16636">
        <ele>288.532959</ele>
        <time>2009-06-14T09:45:30Z</time>
      </trkpt>
      <trkpt lat="44.37521" lon="5.16666">
        <ele>290.455566</ele>
        <time>2009-06-14T09:45:36Z</time>
      </trkpt>
      <trkpt lat="44.37556" lon="5.16707">
        <ele>291.416748</ele>
        <time>2009-06-14T09:45:43Z</time>
      </trkpt>
      <trkpt lat="44.37587" lon="5.16739">
        <ele>291.416748</ele>
        <time>2009-06-14T09:45:49Z</time>
      </trkpt>
      <trkpt lat="44.37602" lon="5.16754">
        <ele>291.897461</ele>
        <time>2009-06-14T09:45:52Z</time>
      </trkpt>
      <trkpt lat="44.37633" lon="5.16773">
        <ele>290.455566</ele>
        <time>2009-06-14T09:45:57Z</time>
      </trkpt>
      <trkpt lat="44.37644" lon="5.16783">
        <ele>291.416748</ele>
        <time>2009-06-14T09:45:59Z</time>
      </trkpt>
      <trkpt lat="44.37664" lon="5.16823">
        <ele>291.897461</ele>
        <time>2009-06-14T09:46:04Z</time>
      </trkpt>
      <trkpt lat="44.37682" lon="5.16882">
        <ele>292.378174</ele>
        <time>2009-06-14T09:46:11Z</time>
      </trkpt>
      <trkpt lat="44.37704" lon="5.1696">
        <ele>295.261963</ele>
        <time>2009-06-14T09:46:20Z</time>
      </trkpt>
      <trkpt lat="44.37717" lon="5.17008">
        <ele>297.184692</ele>
        <time>2009-06-14T09:46:26Z</time>
      </trkpt>
      <trkpt lat="44.37726" lon="5.17029">
        <ele>298.146118</ele>
        <time>2009-06-14T09:46:29Z</time>
      </trkpt>
      <trkpt lat="44.37736" lon="5.17059">
        <ele>299.588013</ele>
        <time>2009-06-14T09:46:33Z</time>
      </trkpt>
      <trkpt lat="44.37752" lon="5.17068">
        <ele>300.068726</ele>
        <time>2009-06-14T09:46:36Z</time>
      </trkpt>
      <trkpt lat="44.37784" lon="5.1708">
        <ele>301.029907</ele>
        <time>2009-06-14T09:46:41Z</time>
      </trkpt>
      <trkpt lat="44.37848" lon="5.17103">
        <ele>302.471924</ele>
        <time>2009-06-14T09:46:50Z</time>
      </trkpt>
      <trkpt lat="44.37901" lon="5.1711">
        <ele>305.355957</ele>
        <time>2009-06-14T09:46:57Z</time>
      </trkpt>
      <trkpt lat="44.37945" lon="5.17114">
        <ele>310.162476</ele>
        <time>2009-06-14T09:47:03Z</time>
      </trkpt>
      <trkpt lat="44.38013" lon="5.1711">
        <ele>309.681885</ele>
        <time>2009-06-14T09:47:12Z</time>
      </trkpt>
      <trkpt lat="44.38057" lon="5.17118">
        <ele>313.527222</ele>
        <time>2009-06-14T09:47:18Z</time>
      </trkpt>
      <trkpt lat="44.38126" lon="5.1713">
        <ele>318.333618</ele>
        <time>2009-06-14T09:47:27Z</time>
      </trkpt>
      <trkpt lat="44.38181" lon="5.17128">
        <ele>311.123779</ele>
        <time>2009-06-14T09:47:34Z</time>
      </trkpt>
      <trkpt lat="44.38242" lon="5.17129">
        <ele>306.317261</ele>
        <time>2009-06-14T09:47:42Z</time>
      </trkpt>
      <trkpt lat="44.38294" lon="5.17145">
        <ele>301.51062</ele>
        <time>2009-06-14T09:47:49Z</time>
      </trkpt>
      <trkpt lat="44.38343" lon="5.17176">
        <ele>300.068726</ele>
        <time>2009-06-14T09:47:56Z</time>
      </trkpt>
      <trkpt lat="44.3838" lon="5.17215">
        <ele>295.742676</ele>
        <time>2009-06-14T09:48:02Z</time>
      </trkpt>
      <trkpt lat="44.38389" lon="5.17232">
        <ele>294.300781</ele>
        <time>2009-06-14T09:48:04Z</time>
      </trkpt>
      <trkpt lat="44.38401" lon="5.17271">
        <ele>293.820068</ele>
        <time>2009-06-14T09:48:08Z</time>
      </trkpt>
      <trkpt lat="44.38415" lon="5.17371">
        <ele>292.378174</ele>
        <time>2009-06-14T09:48:17Z</time>
      </trkpt>
      <trkpt lat="44.38422" lon="5.17459">
        <ele>292.858765</ele>
        <time>2009-06-14T09:48:25Z</time>
      </trkpt>
      <trkpt lat="44.38427" lon="5.17558">
        <ele>295.261963</ele>
        <time>2009-06-14T09:48:34Z</time>
      </trkpt>
      <trkpt lat="44.38424" lon="5.17629">
        <ele>297.184692</ele>
        <time>2009-06-14T09:48:41Z</time>
      </trkpt>
      <trkpt lat="44.38417" lon="5.17703">
        <ele>299.1073</ele>
        <time>2009-06-14T09:48:49Z</time>
      </trkpt>
      <trkpt lat="44.38415" lon="5.17712">
        <ele>299.1073</ele>
        <time>2009-06-14T09:48:50Z</time>
      </trkpt>
      <trkpt lat="44.38395" lon="5.17757">
        <ele>300.068726</ele>
        <time>2009-06-14T09:48:56Z</time>
      </trkpt>
      <trkpt lat="44.38357" lon="5.17818">
        <ele>301.029907</ele>
        <time>2009-06-14T09:49:05Z</time>
      </trkpt>
      <trkpt lat="44.38316" lon="5.17885">
        <ele>300.549316</ele>
        <time>2009-06-14T09:49:15Z</time>
      </trkpt>
      <trkpt lat="44.38286" lon="5.17917">
        <ele>301.029907</ele>
        <time>2009-06-14T09:49:21Z</time>
      </trkpt>
      <trkpt lat="44.38245" lon="5.17936">
        <ele>301.51062</ele>
        <time>2009-06-14T09:49:28Z</time>
      </trkpt>
      <trkpt lat="44.38193" lon="5.1796">
        <ele>302.952515</ele>
        <time>2009-06-14T09:49:37Z</time>
      </trkpt>
      <trkpt lat="44.38147" lon="5.17988">
        <ele>302.952515</ele>
        <time>2009-06-14T09:49:45Z</time>
      </trkpt>
      <trkpt lat="44.381" lon="5.18027">
        <ele>301.991333</ele>
        <time>2009-06-14T09:49:53Z</time>
      </trkpt>
      <trkpt lat="44.38058" lon="5.18057">
        <ele>301.991333</ele>
        <time>2009-06-14T09:50:00Z</time>
      </trkpt>
      <trkpt lat="44.38001" lon="5.18093">
        <ele>303.433228</ele>
        <time>2009-06-14T09:50:09Z</time>
      </trkpt>
      <trkpt lat="44.37944" lon="5.18126">
        <ele>302.471924</ele>
        <time>2009-06-14T09:50:18Z</time>
      </trkpt>
      <trkpt lat="44.37938" lon="5.18132">
        <ele>302.471924</ele>
        <time>2009-06-14T09:50:19Z</time>
      </trkpt>
      <trkpt lat="44.37911" lon="5.18178">
        <ele>301.51062</ele>
        <time>2009-06-14T09:50:25Z</time>
      </trkpt>
      <trkpt lat="44.3788" lon="5.18259">
        <ele>302.952515</ele>
        <time>2009-06-14T09:50:34Z</time>
      </trkpt>
      <trkpt lat="44.37866" lon="5.18327">
        <ele>303.91394</ele>
        <time>2009-06-14T09:50:41Z</time>
      </trkpt>
      <trkpt lat="44.37866" lon="5.18387">
        <ele>304.875244</ele>
        <time>2009-06-14T09:50:47Z</time>
      </trkpt>
      <trkpt lat="44.37879" lon="5.18433">
        <ele>304.875244</ele>
        <time>2009-06-14T09:50:52Z</time>
      </trkpt>
      <trkpt lat="44.37899" lon="5.18469">
        <ele>306.317261</ele>
        <time>2009-06-14T09:50:57Z</time>
      </trkpt>
      <trkpt lat="44.37934" lon="5.18513">
        <ele>306.797852</ele>
        <time>2009-06-14T09:51:05Z</time>
      </trkpt>
      <trkpt lat="44.37954" lon="5.18554">
        <ele>306.317261</ele>
        <time>2009-06-14T09:51:11Z</time>
      </trkpt>
      <trkpt lat="44.3796" lon="5.18569">
        <ele>306.317261</ele>
        <time>2009-06-14T09:51:13Z</time>
      </trkpt>
      <trkpt lat="44.37969" lon="5.18628">
        <ele>306.317261</ele>
        <time>2009-06-14T09:51:20Z</time>
      </trkpt>
      <trkpt lat="44.3797" lon="5.18644">
        <ele>306.317261</ele>
        <time>2009-06-14T09:51:22Z</time>
      </trkpt>
      <trkpt lat="44.37963" lon="5.18696">
        <ele>306.317261</ele>
        <time>2009-06-14T09:51:28Z</time>
      </trkpt>
      <trkpt lat="44.37947" lon="5.18761">
        <ele>306.797852</ele>
        <time>2009-06-14T09:51:36Z</time>
      </trkpt>
      <trkpt lat="44.37927" lon="5.18844">
        <ele>306.797852</ele>
        <time>2009-06-14T09:51:46Z</time>
      </trkpt>
      <trkpt lat="44.37919" lon="5.18895">
        <ele>308.720459</ele>
        <time>2009-06-14T09:51:52Z</time>
      </trkpt>
      <trkpt lat="44.37917" lon="5.18944">
        <ele>311.604492</ele>
        <time>2009-06-14T09:51:58Z</time>
      </trkpt>
      <trkpt lat="44.37915" lon="5.18966">
        <ele>312.085205</ele>
        <time>2009-06-14T09:52:02Z</time>
      </trkpt>
      <trkpt lat="44.37916" lon="5.18996">
        <ele>311.604492</ele>
        <time>2009-06-14T09:52:07Z</time>
      </trkpt>
      <trkpt lat="44.37917" lon="5.19003">
        <ele>311.123779</ele>
        <time>2009-06-14T09:52:08Z</time>
      </trkpt>
      <trkpt lat="44.37964" lon="5.19169">
        <ele>309.681885</ele>
        <time>2009-06-14T09:52:33Z</time>
      </trkpt>
      <trkpt lat="44.38033" lon="5.19198">
        <ele>319.775635</ele>
        <time>2009-06-14T09:52:40Z</time>
      </trkpt>
      <trkpt lat="44.38065" lon="5.19236">
        <ele>315.93042</ele>
        <time>2009-06-14T09:52:46Z</time>
      </trkpt>
      <trkpt lat="44.38097" lon="5.19262">
        <ele>308.720459</ele>
        <time>2009-06-14T09:52:51Z</time>
      </trkpt>
      <trkpt lat="44.38142" lon="5.19298">
        <ele>309.201172</ele>
        <time>2009-06-14T09:52:58Z</time>
      </trkpt>
      <trkpt lat="44.38173" lon="5.19319">
        <ele>311.123779</ele>
        <time>2009-06-14T09:53:03Z</time>
      </trkpt>
      <trkpt lat="44.3821" lon="5.19351">
        <ele>314.488403</ele>
        <time>2009-06-14T09:53:10Z</time>
      </trkpt>
      <trkpt lat="44.3825" lon="5.19388">
        <ele>315.449829</ele>
        <time>2009-06-14T09:53:18Z</time>
      </trkpt>
      <trkpt lat="44.38259" lon="5.19399">
        <ele>315.449829</ele>
        <time>2009-06-14T09:53:20Z</time>
      </trkpt>
      <trkpt lat="44.38296" lon="5.19421">
        <ele>315.93042</ele>
        <time>2009-06-14T09:53:27Z</time>
      </trkpt>
      <trkpt lat="44.38332" lon="5.1943">
        <ele>317.372437</ele>
        <time>2009-06-14T09:53:33Z</time>
      </trkpt>
      <trkpt lat="44.38386" lon="5.1945">
        <ele>317.853027</ele>
        <time>2009-06-14T09:53:41Z</time>
      </trkpt>
      <trkpt lat="44.38446" lon="5.19473">
        <ele>319.295044</ele>
        <time>2009-06-14T09:53:50Z</time>
      </trkpt>
      <trkpt lat="44.38499" lon="5.19494">
        <ele>319.295044</ele>
        <time>2009-06-14T09:53:58Z</time>
      </trkpt>
      <trkpt lat="44.38573" lon="5.19523">
        <ele>320.256348</ele>
        <time>2009-06-14T09:54:09Z</time>
      </trkpt>
      <trkpt lat="44.3864" lon="5.19548">
        <ele>322.178955</ele>
        <time>2009-06-14T09:54:19Z</time>
      </trkpt>
      <trkpt lat="44.38692" lon="5.19568">
        <ele>323.140381</ele>
        <time>2009-06-14T09:54:27Z</time>
      </trkpt>
      <trkpt lat="44.38751" lon="5.19594">
        <ele>324.582275</ele>
        <time>2009-06-14T09:54:36Z</time>
      </trkpt>
      <trkpt lat="44.38807" lon="5.19633">
        <ele>325.543579</ele>
        <time>2009-06-14T09:54:45Z</time>
      </trkpt>
      <trkpt lat="44.38858" lon="5.19675">
        <ele>325.062988</ele>
        <time>2009-06-14T09:54:54Z</time>
      </trkpt>
      <trkpt lat="44.38882" lon="5.19716">
        <ele>323.620972</ele>
        <time>2009-06-14T09:55:00Z</time>
      </trkpt>
      <trkpt lat="44.389" lon="5.19767">
        <ele>323.140381</ele>
        <time>2009-06-14T09:55:06Z</time>
      </trkpt>
      <trkpt lat="44.38918" lon="5.19841">
        <ele>322.178955</ele>
        <time>2009-06-14T09:55:14Z</time>
      </trkpt>
      <trkpt lat="44.38934" lon="5.19918">
        <ele>321.217773</ele>
        <time>2009-06-14T09:55:21Z</time>
      </trkpt>
      <trkpt lat="44.38936" lon="5.19979">
        <ele>320.256348</ele>
        <time>2009-06-14T09:55:26Z</time>
      </trkpt>
      <trkpt lat="44.38931" lon="5.20058">
        <ele>321.217773</ele>
        <time>2009-06-14T09:55:33Z</time>
      </trkpt>
      <trkpt lat="44.3893" lon="5.20099">
        <ele>320.737061</ele>
        <time>2009-06-14T09:55:37Z</time>
      </trkpt>
      <trkpt lat="44.38941" lon="5.20147">
        <ele>318.814331</ele>
        <time>2009-06-14T09:55:42Z</time>
      </trkpt>
      <trkpt lat="44.38949" lon="5.20165">
        <ele>318.333618</ele>
        <time>2009-06-14T09:55:44Z</time>
      </trkpt>
      <trkpt lat="44.38995" lon="5.20239">
        <ele>317.853027</ele>
        <time>2009-06-14T09:55:53Z</time>
      </trkpt>
      <trkpt lat="44.39046" lon="5.20321">
        <ele>317.372437</ele>
        <time>2009-06-14T09:56:03Z</time>
      </trkpt>
      <trkpt lat="44.3908" lon="5.20376">
        <ele>317.853027</ele>
        <time>2009-06-14T09:56:10Z</time>
      </trkpt>
      <trkpt lat="44.39131" lon="5.2046">
        <ele>318.814331</ele>
        <time>2009-06-14T09:56:21Z</time>
      </trkpt>
      <trkpt lat="44.3916" lon="5.20518">
        <ele>320.256348</ele>
        <time>2009-06-14T09:56:28Z</time>
      </trkpt>
      <trkpt lat="44.3917" lon="5.20566">
        <ele>320.737061</ele>
        <time>2009-06-14T09:56:33Z</time>
      </trkpt>
      <trkpt lat="44.39181" lon="5.20637">
        <ele>321.698364</ele>
        <time>2009-06-14T09:56:40Z</time>
      </trkpt>
      <trkpt lat="44.39193" lon="5.2072">
        <ele>322.659668</ele>
        <time>2009-06-14T09:56:48Z</time>
      </trkpt>
      <trkpt lat="44.39213" lon="5.20857">
        <ele>324.101563</ele>
        <time>2009-06-14T09:57:01Z</time>
      </trkpt>
      <trkpt lat="44.39229" lon="5.20966">
        <ele>325.543579</ele>
        <time>2009-06-14T09:57:11Z</time>
      </trkpt>
      <trkpt lat="44.39248" lon="5.21085">
        <ele>327.466187</ele>
        <time>2009-06-14T09:57:22Z</time>
      </trkpt>
      <trkpt lat="44.39258" lon="5.2118">
        <ele>328.908325</ele>
        <time>2009-06-14T09:57:31Z</time>
      </trkpt>
      <trkpt lat="44.3925" lon="5.21243">
        <ele>329.869507</ele>
        <time>2009-06-14T09:57:37Z</time>
      </trkpt>
      <trkpt lat="44.39226" lon="5.21321">
        <ele>330.35022</ele>
        <time>2009-06-14T09:57:45Z</time>
      </trkpt>
      <trkpt lat="44.39199" lon="5.21407">
        <ele>331.311523</ele>
        <time>2009-06-14T09:57:54Z</time>
      </trkpt>
      <trkpt lat="44.39168" lon="5.21503">
        <ele>333.234131</ele>
        <time>2009-06-14T09:58:04Z</time>
      </trkpt>
      <trkpt lat="44.39139" lon="5.21595">
        <ele>334.195435</ele>
        <time>2009-06-14T09:58:14Z</time>
      </trkpt>
      <trkpt lat="44.39118" lon="5.2166">
        <ele>334.676147</ele>
        <time>2009-06-14T09:58:21Z</time>
      </trkpt>
      <trkpt lat="44.39098" lon="5.21717">
        <ele>334.195435</ele>
        <time>2009-06-14T09:58:27Z</time>
      </trkpt>
      <trkpt lat="44.39071" lon="5.21757">
        <ele>333.234131</ele>
        <time>2009-06-14T09:58:32Z</time>
      </trkpt>
      <trkpt lat="44.3906" lon="5.21771">
        <ele>333.234131</ele>
        <time>2009-06-14T09:58:34Z</time>
      </trkpt>
      <trkpt lat="44.39042" lon="5.21807">
        <ele>333.234131</ele>
        <time>2009-06-14T09:58:38Z</time>
      </trkpt>
      <trkpt lat="44.39018" lon="5.21874">
        <ele>334.195435</ele>
        <time>2009-06-14T09:58:45Z</time>
      </trkpt>
      <trkpt lat="44.39" lon="5.2193">
        <ele>335.156738</ele>
        <time>2009-06-14T09:58:51Z</time>
      </trkpt>
      <trkpt lat="44.39001" lon="5.2198">
        <ele>335.637329</ele>
        <time>2009-06-14T09:58:56Z</time>
      </trkpt>
      <trkpt lat="44.39023" lon="5.22079">
        <ele>339.002075</ele>
        <time>2009-06-14T09:59:06Z</time>
      </trkpt>
      <trkpt lat="44.39032" lon="5.22127">
        <ele>340.924683</ele>
        <time>2009-06-14T09:59:11Z</time>
      </trkpt>
      <trkpt lat="44.39027" lon="5.22175">
        <ele>340.924683</ele>
        <time>2009-06-14T09:59:16Z</time>
      </trkpt>
      <trkpt lat="44.39025" lon="5.22184">
        <ele>340.924683</ele>
        <time>2009-06-14T09:59:17Z</time>
      </trkpt>
      <trkpt lat="44.38997" lon="5.22254">
        <ele>340.924683</ele>
        <time>2009-06-14T09:59:25Z</time>
      </trkpt>
      <trkpt lat="44.38968" lon="5.22297">
        <ele>339.963379</ele>
        <time>2009-06-14T09:59:31Z</time>
      </trkpt>
      <trkpt lat="44.3893" lon="5.22356">
        <ele>340.924683</ele>
        <time>2009-06-14T09:59:39Z</time>
      </trkpt>
      <trkpt lat="44.38919" lon="5.22404">
        <ele>342.366699</ele>
        <time>2009-06-14T09:59:44Z</time>
      </trkpt>
      <trkpt lat="44.38914" lon="5.22476">
        <ele>343.808594</ele>
        <time>2009-06-14T09:59:51Z</time>
      </trkpt>
      <trkpt lat="44.389" lon="5.22551">
        <ele>343.808594</ele>
        <time>2009-06-14T09:59:58Z</time>
      </trkpt>
      <trkpt lat="44.38878" lon="5.22625">
        <ele>343.327881</ele>
        <time>2009-06-14T10:00:05Z</time>
      </trkpt>
      <trkpt lat="44.38838" lon="5.22718">
        <ele>342.84729</ele>
        <time>2009-06-14T10:00:14Z</time>
      </trkpt>
      <trkpt lat="44.38827" lon="5.22751">
        <ele>342.84729</ele>
        <time>2009-06-14T10:00:17Z</time>
      </trkpt>
      <trkpt lat="44.38823" lon="5.228">
        <ele>343.327881</ele>
        <time>2009-06-14T10:00:21Z</time>
      </trkpt>
      <trkpt lat="44.38832" lon="5.22886">
        <ele>342.84729</ele>
        <time>2009-06-14T10:00:28Z</time>
      </trkpt>
      <trkpt lat="44.38837" lon="5.22947">
        <ele>342.84729</ele>
        <time>2009-06-14T10:00:33Z</time>
      </trkpt>
      <trkpt lat="44.38832" lon="5.22996">
        <ele>342.366699</ele>
        <time>2009-06-14T10:00:37Z</time>
      </trkpt>
      <trkpt lat="44.38802" lon="5.2311">
        <ele>340.924683</ele>
        <time>2009-06-14T10:00:47Z</time>
      </trkpt>
      <trkpt lat="44.38784" lon="5.23177">
        <ele>340.924683</ele>
        <time>2009-06-14T10:00:53Z</time>
      </trkpt>
      <trkpt lat="44.38784" lon="5.2323">
        <ele>341.405273</ele>
        <time>2009-06-14T10:00:58Z</time>
      </trkpt>
      <trkpt lat="44.38797" lon="5.23264">
        <ele>341.885986</ele>
        <time>2009-06-14T10:01:02Z</time>
      </trkpt>
      <trkpt lat="44.38801" lon="5.2327">
        <ele>341.405273</ele>
        <time>2009-06-14T10:01:03Z</time>
      </trkpt>
      <trkpt lat="44.3881" lon="5.23282">
        <ele>340.444092</ele>
        <time>2009-06-14T10:01:05Z</time>
      </trkpt>
      <trkpt lat="44.38817" lon="5.23311">
        <ele>339.963379</ele>
        <time>2009-06-14T10:01:09Z</time>
      </trkpt>
      <trkpt lat="44.38816" lon="5.2332">
        <ele>339.963379</ele>
        <time>2009-06-14T10:01:10Z</time>
      </trkpt>
      <trkpt lat="44.38804" lon="5.23406">
        <ele>339.963379</ele>
        <time>2009-06-14T10:01:20Z</time>
      </trkpt>
      <trkpt lat="44.38794" lon="5.23459">
        <ele>340.444092</ele>
        <time>2009-06-14T10:01:27Z</time>
      </trkpt>
      <trkpt lat="44.38779" lon="5.23501">
        <ele>341.885986</ele>
        <time>2009-06-14T10:01:33Z</time>
      </trkpt>
      <trkpt lat="44.38759" lon="5.23561">
        <ele>342.84729</ele>
        <time>2009-06-14T10:01:41Z</time>
      </trkpt>
      <trkpt lat="44.38741" lon="5.2361">
        <ele>343.808594</ele>
        <time>2009-06-14T10:01:48Z</time>
      </trkpt>
      <trkpt lat="44.38712" lon="5.23662">
        <ele>343.808594</ele>
        <time>2009-06-14T10:01:56Z</time>
      </trkpt>
      <trkpt lat="44.38695" lon="5.23703">
        <ele>342.366699</ele>
        <time>2009-06-14T10:02:02Z</time>
      </trkpt>
      <trkpt lat="44.38688" lon="5.23743">
        <ele>340.924683</ele>
        <time>2009-06-14T10:02:07Z</time>
      </trkpt>
      <trkpt lat="44.3868" lon="5.23805">
        <ele>337.560059</ele>
        <time>2009-06-14T10:02:14Z</time>
      </trkpt>
      <trkpt lat="44.38662" lon="5.23879">
        <ele>335.637329</ele>
        <time>2009-06-14T10:02:22Z</time>
      </trkpt>
      <trkpt lat="44.38648" lon="5.23923">
        <ele>335.156738</ele>
        <time>2009-06-14T10:02:27Z</time>
      </trkpt>
      <trkpt lat="44.38621" lon="5.23968">
        <ele>333.714722</ele>
        <time>2009-06-14T10:02:33Z</time>
      </trkpt>
      <trkpt lat="44.38579" lon="5.24033">
        <ele>329.388916</ele>
        <time>2009-06-14T10:02:42Z</time>
      </trkpt>
      <trkpt lat="44.38537" lon="5.24097">
        <ele>327.466187</ele>
        <time>2009-06-14T10:02:51Z</time>
      </trkpt>
      <trkpt lat="44.38488" lon="5.24159">
        <ele>330.830933</ele>
        <time>2009-06-14T10:03:00Z</time>
      </trkpt>
      <trkpt lat="44.38426" lon="5.24238">
        <ele>340.444092</ele>
        <time>2009-06-14T10:03:11Z</time>
      </trkpt>
      <trkpt lat="44.38383" lon="5.24281">
        <ele>343.808594</ele>
        <time>2009-06-14T10:03:18Z</time>
      </trkpt>
      <trkpt lat="44.38345" lon="5.24327">
        <ele>344.289429</ele>
        <time>2009-06-14T10:03:25Z</time>
      </trkpt>
      <trkpt lat="44.38299" lon="5.24355">
        <ele>345.25061</ele>
        <time>2009-06-14T10:03:32Z</time>
      </trkpt>
      <trkpt lat="44.3825" lon="5.24377">
        <ele>344.289429</ele>
        <time>2009-06-14T10:03:40Z</time>
      </trkpt>
      <trkpt lat="44.38194" lon="5.24395">
        <ele>344.289429</ele>
        <time>2009-06-14T10:03:49Z</time>
      </trkpt>
      <trkpt lat="44.38144" lon="5.24406">
        <ele>343.327881</ele>
        <time>2009-06-14T10:03:57Z</time>
      </trkpt>
      <trkpt lat="44.38107" lon="5.24416">
        <ele>343.327881</ele>
        <time>2009-06-14T10:04:03Z</time>
      </trkpt>
      <trkpt lat="44.38081" lon="5.24444">
        <ele>344.289429</ele>
        <time>2009-06-14T10:04:08Z</time>
      </trkpt>
      <trkpt lat="44.38045" lon="5.245">
        <ele>343.808594</ele>
        <time>2009-06-14T10:04:16Z</time>
      </trkpt>
      <trkpt lat="44.38016" lon="5.24527">
        <ele>344.77002</ele>
        <time>2009-06-14T10:04:21Z</time>
      </trkpt>
      <trkpt lat="44.37965" lon="5.2456">
        <ele>347.173218</ele>
        <time>2009-06-14T10:04:29Z</time>
      </trkpt>
      <trkpt lat="44.37916" lon="5.2459">
        <ele>346.212036</ele>
        <time>2009-06-14T10:04:37Z</time>
      </trkpt>
      <trkpt lat="44.37887" lon="5.24614">
        <ele>346.692627</ele>
        <time>2009-06-14T10:04:42Z</time>
      </trkpt>
      <trkpt lat="44.37856" lon="5.24665">
        <ele>346.692627</ele>
        <time>2009-06-14T10:04:49Z</time>
      </trkpt>
      <trkpt lat="44.37828" lon="5.24706">
        <ele>346.212036</ele>
        <time>2009-06-14T10:04:55Z</time>
      </trkpt>
      <trkpt lat="44.37769" lon="5.24786">
        <ele>348.134644</ele>
        <time>2009-06-14T10:05:07Z</time>
      </trkpt>
      <trkpt lat="44.37722" lon="5.24854">
        <ele>350.057251</ele>
        <time>2009-06-14T10:05:17Z</time>
      </trkpt>
      <trkpt lat="44.3768" lon="5.24913">
        <ele>352.941162</ele>
        <time>2009-06-14T10:05:26Z</time>
      </trkpt>
      <trkpt lat="44.37639" lon="5.2497">
        <ele>355.344482</ele>
        <time>2009-06-14T10:05:35Z</time>
      </trkpt>
      <trkpt lat="44.37591" lon="5.25035">
        <ele>356.786377</ele>
        <time>2009-06-14T10:05:45Z</time>
      </trkpt>
      <trkpt lat="44.37554" lon="5.25074">
        <ele>358.228394</ele>
        <time>2009-06-14T10:05:52Z</time>
      </trkpt>
      <trkpt lat="44.37522" lon="5.25106">
        <ele>358.228394</ele>
        <time>2009-06-14T10:05:58Z</time>
      </trkpt>
      <trkpt lat="44.37499" lon="5.25154">
        <ele>358.708984</ele>
        <time>2009-06-14T10:06:04Z</time>
      </trkpt>
      <trkpt lat="44.37478" lon="5.25217">
        <ele>359.67041</ele>
        <time>2009-06-14T10:06:11Z</time>
      </trkpt>
      <trkpt lat="44.37461" lon="5.2528">
        <ele>359.67041</ele>
        <time>2009-06-14T10:06:18Z</time>
      </trkpt>
      <trkpt lat="44.37438" lon="5.25326">
        <ele>360.631714</ele>
        <time>2009-06-14T10:06:24Z</time>
      </trkpt>
      <trkpt lat="44.37412" lon="5.25355">
        <ele>360.631714</ele>
        <time>2009-06-14T10:06:29Z</time>
      </trkpt>
      <trkpt lat="44.37377" lon="5.25376">
        <ele>360.631714</ele>
        <time>2009-06-14T10:06:35Z</time>
      </trkpt>
      <trkpt lat="44.37333" lon="5.25387">
        <ele>361.59314</ele>
        <time>2009-06-14T10:06:42Z</time>
      </trkpt>
      <trkpt lat="44.37288" lon="5.25385">
        <ele>363.515747</ele>
        <time>2009-06-14T10:06:49Z</time>
      </trkpt>
      <trkpt lat="44.37251" lon="5.25384">
        <ele>363.515747</ele>
        <time>2009-06-14T10:06:55Z</time>
      </trkpt>
      <trkpt lat="44.37224" lon="5.254">
        <ele>364.476929</ele>
        <time>2009-06-14T10:07:00Z</time>
      </trkpt>
      <trkpt lat="44.37212" lon="5.25421">
        <ele>365.918945</ele>
        <time>2009-06-14T10:07:03Z</time>
      </trkpt>
      <trkpt lat="44.37175" lon="5.255">
        <ele>367.841553</ele>
        <time>2009-06-14T10:07:13Z</time>
      </trkpt>
      <trkpt lat="44.37137" lon="5.25581">
        <ele>367.841553</ele>
        <time>2009-06-14T10:07:23Z</time>
      </trkpt>
      <trkpt lat="44.3709" lon="5.25681">
        <ele>368.802979</ele>
        <time>2009-06-14T10:07:35Z</time>
      </trkpt>
      <trkpt lat="44.37059" lon="5.25768">
        <ele>370.244873</ele>
        <time>2009-06-14T10:07:45Z</time>
      </trkpt>
      <trkpt lat="44.37023" lon="5.25881">
        <ele>371.68689</ele>
        <time>2009-06-14T10:07:58Z</time>
      </trkpt>
      <trkpt lat="44.37" lon="5.2593">
        <ele>371.68689</ele>
        <time>2009-06-14T10:08:04Z</time>
      </trkpt>
      <trkpt lat="44.3696" lon="5.2601">
        <ele>371.68689</ele>
        <time>2009-06-14T10:08:14Z</time>
      </trkpt>
      <trkpt lat="44.3693" lon="5.26052">
        <ele>372.16748</ele>
        <time>2009-06-14T10:08:20Z</time>
      </trkpt>
      <trkpt lat="44.36881" lon="5.26104">
        <ele>373.609497</ele>
        <time>2009-06-14T10:08:29Z</time>
      </trkpt>
      <trkpt lat="44.36819" lon="5.26172">
        <ele>376.012817</ele>
        <time>2009-06-14T10:08:41Z</time>
      </trkpt>
      <trkpt lat="44.36763" lon="5.26235">
        <ele>377.935425</ele>
        <time>2009-06-14T10:08:52Z</time>
      </trkpt>
      <trkpt lat="44.36712" lon="5.26297">
        <ele>378.896851</ele>
        <time>2009-06-14T10:09:02Z</time>
      </trkpt>
      <trkpt lat="44.36699" lon="5.26306">
        <ele>378.896851</ele>
        <time>2009-06-14T10:09:04Z</time>
      </trkpt>
      <trkpt lat="44.36664" lon="5.26316">
        <ele>378.416138</ele>
        <time>2009-06-14T10:09:09Z</time>
      </trkpt>
      <trkpt lat="44.36595" lon="5.26319">
        <ele>376.012817</ele>
        <time>2009-06-14T10:09:19Z</time>
      </trkpt>
      <trkpt lat="44.36562" lon="5.26335">
        <ele>376.012817</ele>
        <time>2009-06-14T10:09:24Z</time>
      </trkpt>
      <trkpt lat="44.3652" lon="5.2638">
        <ele>376.012817</ele>
        <time>2009-06-14T10:09:32Z</time>
      </trkpt>
      <trkpt lat="44.36491" lon="5.26401">
        <ele>376.49353</ele>
        <time>2009-06-14T10:09:37Z</time>
      </trkpt>
      <trkpt lat="44.3645" lon="5.26422">
        <ele>377.935425</ele>
        <time>2009-06-14T10:09:44Z</time>
      </trkpt>
      <trkpt lat="44.3642" lon="5.26457">
        <ele>378.416138</ele>
        <time>2009-06-14T10:09:50Z</time>
      </trkpt>
      <trkpt lat="44.36401" lon="5.26495">
        <ele>379.377441</ele>
        <time>2009-06-14T10:09:55Z</time>
      </trkpt>
      <trkpt lat="44.36383" lon="5.26546">
        <ele>381.300049</ele>
        <time>2009-06-14T10:10:01Z</time>
      </trkpt>
      <trkpt lat="44.36353" lon="5.26597">
        <ele>383.222656</ele>
        <time>2009-06-14T10:10:08Z</time>
      </trkpt>
      <trkpt lat="44.36313" lon="5.26649">
        <ele>385.625977</ele>
        <time>2009-06-14T10:10:16Z</time>
      </trkpt>
      <trkpt lat="44.36274" lon="5.26686">
        <ele>389.951904</ele>
        <time>2009-06-14T10:10:23Z</time>
      </trkpt>
      <trkpt lat="44.3623" lon="5.26728">
        <ele>391.393799</ele>
        <time>2009-06-14T10:10:31Z</time>
      </trkpt>
      <trkpt lat="44.3619" lon="5.26762">
        <ele>393.797241</ele>
        <time>2009-06-14T10:10:38Z</time>
      </trkpt>
      <trkpt lat="44.3613" lon="5.26801">
        <ele>396.681152</ele>
        <time>2009-06-14T10:10:48Z</time>
      </trkpt>
      <trkpt lat="44.3607" lon="5.26817">
        <ele>399.084351</ele>
        <time>2009-06-14T10:10:57Z</time>
      </trkpt>
      <trkpt lat="44.36004" lon="5.26823">
        <ele>398.60376</ele>
        <time>2009-06-14T10:11:07Z</time>
      </trkpt>
      <trkpt lat="44.35948" lon="5.26823">
        <ele>399.565063</ele>
        <time>2009-06-14T10:11:15Z</time>
      </trkpt>
      <trkpt lat="44.35877" lon="5.26817">
        <ele>398.60376</ele>
        <time>2009-06-14T10:11:24Z</time>
      </trkpt>
      <trkpt lat="44.35869" lon="5.26817">
        <ele>398.123169</ele>
        <time>2009-06-14T10:11:25Z</time>
      </trkpt>
      <trkpt lat="44.35839" lon="5.26833">
        <ele>393.797241</ele>
        <time>2009-06-14T10:11:29Z</time>
      </trkpt>
      <trkpt lat="44.35822" lon="5.26859">
        <ele>389.951904</ele>
        <time>2009-06-14T10:11:32Z</time>
      </trkpt>
      <trkpt lat="44.35817" lon="5.2687">
        <ele>389.471191</ele>
        <time>2009-06-14T10:11:33Z</time>
      </trkpt>
      <trkpt lat="44.35772" lon="5.26975">
        <ele>385.145386</ele>
        <time>2009-06-14T10:11:43Z</time>
      </trkpt>
      <trkpt lat="44.35732" lon="5.27059">
        <ele>384.664795</ele>
        <time>2009-06-14T10:11:52Z</time>
      </trkpt>
      <trkpt lat="44.35683" lon="5.27143">
        <ele>386.106689</ele>
        <time>2009-06-14T10:12:02Z</time>
      </trkpt>
      <trkpt lat="44.35664" lon="5.27198">
        <ele>386.587402</ele>
        <time>2009-06-14T10:12:08Z</time>
      </trkpt>
      <trkpt lat="44.35642" lon="5.27257">
        <ele>387.067993</ele>
        <time>2009-06-14T10:12:14Z</time>
      </trkpt>
      <trkpt lat="44.35609" lon="5.27306">
        <ele>387.548584</ele>
        <time>2009-06-14T10:12:20Z</time>
      </trkpt>
      <trkpt lat="44.35535" lon="5.27405">
        <ele>389.471191</ele>
        <time>2009-06-14T10:12:33Z</time>
      </trkpt>
      <trkpt lat="44.35485" lon="5.27471">
        <ele>389.951904</ele>
        <time>2009-06-14T10:12:42Z</time>
      </trkpt>
      <trkpt lat="44.35429" lon="5.2754">
        <ele>389.471191</ele>
        <time>2009-06-14T10:12:51Z</time>
      </trkpt>
      <trkpt lat="44.35382" lon="5.27585">
        <ele>388.029297</ele>
        <time>2009-06-14T10:12:58Z</time>
      </trkpt>
      <trkpt lat="44.35337" lon="5.27627">
        <ele>385.625977</ele>
        <time>2009-06-14T10:13:05Z</time>
      </trkpt>
      <trkpt lat="44.35277" lon="5.27684">
        <ele>385.145386</ele>
        <time>2009-06-14T10:13:14Z</time>
      </trkpt>
      <trkpt lat="44.35233" lon="5.27733">
        <ele>383.222656</ele>
        <time>2009-06-14T10:13:21Z</time>
      </trkpt>
      <trkpt lat="44.352" lon="5.27794">
        <ele>385.625977</ele>
        <time>2009-06-14T10:13:28Z</time>
      </trkpt>
      <trkpt lat="44.3515" lon="5.27886">
        <ele>389.471191</ele>
        <time>2009-06-14T10:13:39Z</time>
      </trkpt>
      <trkpt lat="44.35122" lon="5.27917">
        <ele>391.874512</ele>
        <time>2009-06-14T10:13:44Z</time>
      </trkpt>
      <trkpt lat="44.35068" lon="5.27954">
        <ele>393.316528</ele>
        <time>2009-06-14T10:13:52Z</time>
      </trkpt>
      <trkpt lat="44.35019" lon="5.2798">
        <ele>393.316528</ele>
        <time>2009-06-14T10:13:59Z</time>
      </trkpt>
      <trkpt lat="44.34966" lon="5.28006">
        <ele>392.835938</ele>
        <time>2009-06-14T10:14:07Z</time>
      </trkpt>
      <trkpt lat="44.34923" lon="5.28035">
        <ele>392.835938</ele>
        <time>2009-06-14T10:14:14Z</time>
      </trkpt>
      <trkpt lat="44.34862" lon="5.28085">
        <ele>390.913208</ele>
        <time>2009-06-14T10:14:24Z</time>
      </trkpt>
      <trkpt lat="44.34834" lon="5.28132">
        <ele>391.393799</ele>
        <time>2009-06-14T10:14:30Z</time>
      </trkpt>
      <trkpt lat="44.34821" lon="5.2818">
        <ele>391.874512</ele>
        <time>2009-06-14T10:14:35Z</time>
      </trkpt>
      <trkpt lat="44.34804" lon="5.28252">
        <ele>396.200562</ele>
        <time>2009-06-14T10:14:42Z</time>
      </trkpt>
      <trkpt lat="44.34778" lon="5.28291">
        <ele>397.642456</ele>
        <time>2009-06-14T10:14:47Z</time>
      </trkpt>
      <trkpt lat="44.3475" lon="5.28306">
        <ele>397.161743</ele>
        <time>2009-06-14T10:14:51Z</time>
      </trkpt>
      <trkpt lat="44.34743" lon="5.28307">
        <ele>397.161743</ele>
        <time>2009-06-14T10:14:52Z</time>
      </trkpt>
      <trkpt lat="44.34701" lon="5.28308">
        <ele>397.642456</ele>
        <time>2009-06-14T10:14:58Z</time>
      </trkpt>
      <trkpt lat="44.34665" lon="5.28299">
        <ele>397.161743</ele>
        <time>2009-06-14T10:15:04Z</time>
      </trkpt>
      <trkpt lat="44.34622" lon="5.28291">
        <ele>396.681152</ele>
        <time>2009-06-14T10:15:11Z</time>
      </trkpt>
      <trkpt lat="44.34584" lon="5.28285">
        <ele>398.123169</ele>
        <time>2009-06-14T10:15:17Z</time>
      </trkpt>
      <trkpt lat="44.34555" lon="5.2828">
        <ele>398.60376</ele>
        <time>2009-06-14T10:15:22Z</time>
      </trkpt>
      <trkpt lat="44.34535" lon="5.28284">
        <ele>400.045898</ele>
        <time>2009-06-14T10:15:26Z</time>
      </trkpt>
      <trkpt lat="44.34522" lon="5.28288">
        <ele>400.045898</ele>
        <time>2009-06-14T10:15:29Z</time>
      </trkpt>
      <trkpt lat="44.3449" lon="5.28301">
        <ele>410.139648</ele>
        <time>2009-06-14T10:15:36Z</time>
      </trkpt>
      <trkpt lat="44.34475" lon="5.28314">
        <ele>410.139648</ele>
        <time>2009-06-14T10:15:40Z</time>
      </trkpt>
      <trkpt lat="44.34458" lon="5.28352">
        <ele>406.774902</ele>
        <time>2009-06-14T10:15:47Z</time>
      </trkpt>
      <trkpt lat="44.34455" lon="5.28357">
        <ele>406.294312</ele>
        <time>2009-06-14T10:15:48Z</time>
      </trkpt>
      <trkpt lat="44.34451" lon="5.28378">
        <ele>407.736328</ele>
        <time>2009-06-14T10:15:52Z</time>
      </trkpt>
      <trkpt lat="44.34447" lon="5.28396">
        <ele>408.697632</ele>
        <time>2009-06-14T10:15:56Z</time>
      </trkpt>
      <trkpt lat="44.34433" lon="5.28396">
        <ele>410.139648</ele>
        <time>2009-06-14T10:16:00Z</time>
      </trkpt>
      <trkpt lat="44.34415" lon="5.28387">
        <ele>408.217041</ele>
        <time>2009-06-14T10:16:06Z</time>
      </trkpt>
      <trkpt lat="44.34413" lon="5.28387">
        <ele>407.255615</ele>
        <time>2009-06-14T10:16:07Z</time>
      </trkpt>
      <trkpt lat="44.34409" lon="5.28377">
        <ele>404.852295</ele>
        <time>2009-06-14T10:16:12Z</time>
      </trkpt>
      <trkpt lat="44.3441" lon="5.28379">
        <ele>400.045898</ele>
        <time>2009-06-14T10:16:24Z</time>
      </trkpt>
      <trkpt lat="44.34411" lon="5.28382">
        <ele>396.681152</ele>
        <time>2009-06-14T10:16:27Z</time>
      </trkpt>
      <trkpt lat="44.34405" lon="5.28379">
        <ele>396.200562</ele>
        <time>2009-06-14T10:16:32Z</time>
      </trkpt>
      <trkpt lat="44.34398" lon="5.28382">
        <ele>393.797241</ele>
        <time>2009-06-14T10:16:37Z</time>
      </trkpt>
      <trkpt lat="44.34397" lon="5.28381">
        <ele>393.316528</ele>
        <time>2009-06-14T10:16:38Z</time>
      </trkpt>
      <trkpt lat="44.34393" lon="5.28386">
        <ele>403.891113</ele>
        <time>2009-06-14T10:16:44Z</time>
      </trkpt>
      <trkpt lat="44.34406" lon="5.28387">
        <ele>398.123169</ele>
        <time>2009-06-14T10:17:14Z</time>
      </trkpt>
      <trkpt lat="44.34406" lon="5.28388">
        <ele>398.123169</ele>
        <time>2009-06-14T10:17:19Z</time>
      </trkpt>
      <trkpt lat="44.34403" lon="5.28389">
        <ele>396.681152</ele>
        <time>2009-06-14T10:17:27Z</time>
      </trkpt>
      <trkpt lat="44.34399" lon="5.28388">
        <ele>392.835938</ele>
        <time>2009-06-14T10:17:29Z</time>
      </trkpt>
      <trkpt lat="44.34402" lon="5.28385">
        <ele>395.719849</ele>
        <time>2009-06-14T10:17:34Z</time>
      </trkpt>
      <trkpt lat="44.34405" lon="5.28385">
        <ele>398.60376</ele>
        <time>2009-06-14T10:17:40Z</time>
      </trkpt>
      <trkpt lat="44.34409" lon="5.28381">
        <ele>401.00708</ele>
        <time>2009-06-14T10:17:44Z</time>
      </trkpt>
      <trkpt lat="44.34411" lon="5.28379">
        <ele>398.60376</ele>
        <time>2009-06-14T10:17:50Z</time>
      </trkpt>
      <trkpt lat="44.3441" lon="5.28379">
        <ele>397.642456</ele>
        <time>2009-06-14T10:17:53Z</time>
      </trkpt>
      <trkpt lat="44.34393" lon="5.28371">
        <ele>393.316528</ele>
        <time>2009-06-14T10:18:02Z</time>
      </trkpt>
      <trkpt lat="44.34389" lon="5.28368">
        <ele>391.393799</ele>
        <time>2009-06-14T10:18:07Z</time>
      </trkpt>
      <trkpt lat="44.34386" lon="5.28374">
        <ele>404.371704</ele>
        <time>2009-06-14T10:18:34Z</time>
      </trkpt>
      <trkpt lat="44.34388" lon="5.28375">
        <ele>410.620239</ele>
        <time>2009-06-14T10:19:15Z</time>
      </trkpt>
      <trkpt lat="44.34372" lon="5.28369">
        <ele>403.4104</ele>
        <time>2009-06-14T10:19:22Z</time>
      </trkpt>
      <trkpt lat="44.34355" lon="5.28361">
        <ele>408.697632</ele>
        <time>2009-06-14T10:19:27Z</time>
      </trkpt>
      <trkpt lat="44.34337" lon="5.28354">
        <ele>405.333008</ele>
        <time>2009-06-14T10:19:32Z</time>
      </trkpt>
      <trkpt lat="44.34312" lon="5.28342">
        <ele>399.565063</ele>
        <time>2009-06-14T10:19:38Z</time>
      </trkpt>
      <trkpt lat="44.3429" lon="5.28335">
        <ele>394.758545</ele>
        <time>2009-06-14T10:19:43Z</time>
      </trkpt>
      <trkpt lat="44.34264" lon="5.28324">
        <ele>394.277954</ele>
        <time>2009-06-14T10:19:49Z</time>
      </trkpt>
      <trkpt lat="44.34239" lon="5.28317">
        <ele>400.045898</ele>
        <time>2009-06-14T10:19:55Z</time>
      </trkpt>
      <trkpt lat="44.34235" lon="5.28315">
        <ele>399.084351</ele>
        <time>2009-06-14T10:19:56Z</time>
      </trkpt>
      <trkpt lat="44.34217" lon="5.28304">
        <ele>396.681152</ele>
        <time>2009-06-14T10:20:01Z</time>
      </trkpt>
      <trkpt lat="44.34189" lon="5.28294">
        <ele>396.200562</ele>
        <time>2009-06-14T10:20:08Z</time>
      </trkpt>
      <trkpt lat="44.34155" lon="5.28279">
        <ele>396.681152</ele>
        <time>2009-06-14T10:20:15Z</time>
      </trkpt>
      <trkpt lat="44.34143" lon="5.28257">
        <ele>399.084351</ele>
        <time>2009-06-14T10:20:19Z</time>
      </trkpt>
      <trkpt lat="44.34148" lon="5.2824">
        <ele>402.449097</ele>
        <time>2009-06-14T10:20:22Z</time>
      </trkpt>
      <trkpt lat="44.34158" lon="5.28205">
        <ele>409.178345</ele>
        <time>2009-06-14T10:20:30Z</time>
      </trkpt>
      <trkpt lat="44.34152" lon="5.28185">
        <ele>411.100952</ele>
        <time>2009-06-14T10:20:35Z</time>
      </trkpt>
      <trkpt lat="44.34133" lon="5.28157">
        <ele>413.02356</ele>
        <time>2009-06-14T10:20:43Z</time>
      </trkpt>
      <trkpt lat="44.34107" lon="5.28116">
        <ele>415.42688</ele>
        <time>2009-06-14T10:20:53Z</time>
      </trkpt>
      <trkpt lat="44.34084" lon="5.28087">
        <ele>417.349609</ele>
        <time>2009-06-14T10:21:01Z</time>
      </trkpt>
      <trkpt lat="44.34055" lon="5.28074">
        <ele>417.349609</ele>
        <time>2009-06-14T10:21:08Z</time>
      </trkpt>
      <trkpt lat="44.34025" lon="5.28073">
        <ele>416.868896</ele>
        <time>2009-06-14T10:21:14Z</time>
      </trkpt>
      <trkpt lat="44.33982" lon="5.28078">
        <ele>415.907471</ele>
        <time>2009-06-14T10:21:23Z</time>
      </trkpt>
      <trkpt lat="44.33939" lon="5.28084">
        <ele>415.907471</ele>
        <time>2009-06-14T10:21:32Z</time>
      </trkpt>
      <trkpt lat="44.33892" lon="5.28089">
        <ele>416.868896</ele>
        <time>2009-06-14T10:21:41Z</time>
      </trkpt>
      <trkpt lat="44.3386" lon="5.2808">
        <ele>416.868896</ele>
        <time>2009-06-14T10:21:47Z</time>
      </trkpt>
      <trkpt lat="44.33802" lon="5.28053">
        <ele>418.310791</ele>
        <time>2009-06-14T10:21:58Z</time>
      </trkpt>
      <trkpt lat="44.33754" lon="5.28028">
        <ele>420.233398</ele>
        <time>2009-06-14T10:22:08Z</time>
      </trkpt>
      <trkpt lat="44.3373" lon="5.28009">
        <ele>421.675415</ele>
        <time>2009-06-14T10:22:15Z</time>
      </trkpt>
      <trkpt lat="44.33694" lon="5.27975">
        <ele>425.040161</ele>
        <time>2009-06-14T10:22:27Z</time>
      </trkpt>
      <trkpt lat="44.33662" lon="5.27944">
        <ele>428.404663</ele>
        <time>2009-06-14T10:22:38Z</time>
      </trkpt>
      <trkpt lat="44.33632" lon="5.27915">
        <ele>431.288574</ele>
        <time>2009-06-14T10:22:48Z</time>
      </trkpt>
      <trkpt lat="44.33598" lon="5.27882">
        <ele>433.691895</ele>
        <time>2009-06-14T10:22:59Z</time>
      </trkpt>
      <trkpt lat="44.33569" lon="5.27859">
        <ele>435.614502</ele>
        <time>2009-06-14T10:23:08Z</time>
      </trkpt>
      <trkpt lat="44.33551" lon="5.27859">
        <ele>436.575928</ele>
        <time>2009-06-14T10:23:13Z</time>
      </trkpt>
      <trkpt lat="44.33538" lon="5.27875">
        <ele>436.575928</ele>
        <time>2009-06-14T10:23:18Z</time>
      </trkpt>
      <trkpt lat="44.33528" lon="5.27909">
        <ele>438.498535</ele>
        <time>2009-06-14T10:23:25Z</time>
      </trkpt>
      <trkpt lat="44.33517" lon="5.27964">
        <ele>442.824463</ele>
        <time>2009-06-14T10:23:36Z</time>
      </trkpt>
      <trkpt lat="44.33508" lon="5.28012">
        <ele>445.227661</ele>
        <time>2009-06-14T10:23:46Z</time>
      </trkpt>
      <trkpt lat="44.33495" lon="5.28041">
        <ele>447.150269</ele>
        <time>2009-06-14T10:23:53Z</time>
      </trkpt>
      <trkpt lat="44.33491" lon="5.28043">
        <ele>447.150269</ele>
        <time>2009-06-14T10:23:54Z</time>
      </trkpt>
      <trkpt lat="44.33476" lon="5.28031">
        <ele>448.111816</ele>
        <time>2009-06-14T10:23:59Z</time>
      </trkpt>
      <trkpt lat="44.33472" lon="5.28022">
        <ele>447.150269</ele>
        <time>2009-06-14T10:24:01Z</time>
      </trkpt>
      <trkpt lat="44.33458" lon="5.27976">
        <ele>448.592407</ele>
        <time>2009-06-14T10:24:10Z</time>
      </trkpt>
      <trkpt lat="44.33442" lon="5.27928">
        <ele>451.476318</ele>
        <time>2009-06-14T10:24:19Z</time>
      </trkpt>
      <trkpt lat="44.3343" lon="5.27892">
        <ele>453.398926</ele>
        <time>2009-06-14T10:24:26Z</time>
      </trkpt>
      <trkpt lat="44.33415" lon="5.27848">
        <ele>456.282959</ele>
        <time>2009-06-14T10:24:34Z</time>
      </trkpt>
      <trkpt lat="44.33396" lon="5.27792">
        <ele>459.647583</ele>
        <time>2009-06-14T10:24:45Z</time>
      </trkpt>
      <trkpt lat="44.33378" lon="5.27757">
        <ele>462.050781</ele>
        <time>2009-06-14T10:24:53Z</time>
      </trkpt>
      <trkpt lat="44.33355" lon="5.27739">
        <ele>463.973389</ele>
        <time>2009-06-14T10:25:00Z</time>
      </trkpt>
      <trkpt lat="44.33317" lon="5.27714">
        <ele>467.338135</ele>
        <time>2009-06-14T10:25:11Z</time>
      </trkpt>
      <trkpt lat="44.33293" lon="5.2769">
        <ele>469.260742</ele>
        <time>2009-06-14T10:25:19Z</time>
      </trkpt>
      <trkpt lat="44.33285" lon="5.27665">
        <ele>470.221924</ele>
        <time>2009-06-14T10:25:24Z</time>
      </trkpt>
      <trkpt lat="44.33281" lon="5.27617">
        <ele>473.106079</ele>
        <time>2009-06-14T10:25:33Z</time>
      </trkpt>
      <trkpt lat="44.33269" lon="5.27583">
        <ele>475.028687</ele>
        <time>2009-06-14T10:25:40Z</time>
      </trkpt>
      <trkpt lat="44.33255" lon="5.27547">
        <ele>477.431885</ele>
        <time>2009-06-14T10:25:48Z</time>
      </trkpt>
      <trkpt lat="44.33261" lon="5.27528">
        <ele>478.393188</ele>
        <time>2009-06-14T10:25:52Z</time>
      </trkpt>
      <trkpt lat="44.33279" lon="5.27518">
        <ele>479.835083</ele>
        <time>2009-06-14T10:25:57Z</time>
      </trkpt>
      <trkpt lat="44.3331" lon="5.27503">
        <ele>481.757813</ele>
        <time>2009-06-14T10:26:06Z</time>
      </trkpt>
      <trkpt lat="44.33323" lon="5.27485">
        <ele>482.238525</ele>
        <time>2009-06-14T10:26:11Z</time>
      </trkpt>
      <trkpt lat="44.33326" lon="5.27466">
        <ele>482.719238</ele>
        <time>2009-06-14T10:26:15Z</time>
      </trkpt>
      <trkpt lat="44.33317" lon="5.27436">
        <ele>486.08374</ele>
        <time>2009-06-14T10:26:21Z</time>
      </trkpt>
      <trkpt lat="44.33301" lon="5.27397">
        <ele>489.448364</ele>
        <time>2009-06-14T10:26:29Z</time>
      </trkpt>
      <trkpt lat="44.33294" lon="5.27356">
        <ele>490.890381</ele>
        <time>2009-06-14T10:26:37Z</time>
      </trkpt>
      <trkpt lat="44.33286" lon="5.2731">
        <ele>490.40979</ele>
        <time>2009-06-14T10:26:46Z</time>
      </trkpt>
      <trkpt lat="44.33281" lon="5.27273">
        <ele>490.890381</ele>
        <time>2009-06-14T10:26:53Z</time>
      </trkpt>
      <trkpt lat="44.33288" lon="5.27249">
        <ele>491.851685</ele>
        <time>2009-06-14T10:26:58Z</time>
      </trkpt>
      <trkpt lat="44.33305" lon="5.27234">
        <ele>493.293579</ele>
        <time>2009-06-14T10:27:03Z</time>
      </trkpt>
      <trkpt lat="44.33328" lon="5.27225">
        <ele>495.216187</ele>
        <time>2009-06-14T10:27:09Z</time>
      </trkpt>
      <trkpt lat="44.33342" lon="5.27209">
        <ele>495.696899</ele>
        <time>2009-06-14T10:27:14Z</time>
      </trkpt>
      <trkpt lat="44.33353" lon="5.2718">
        <ele>496.658325</ele>
        <time>2009-06-14T10:27:20Z</time>
      </trkpt>
      <trkpt lat="44.33354" lon="5.27152">
        <ele>500.022949</ele>
        <time>2009-06-14T10:27:25Z</time>
      </trkpt>
      <trkpt lat="44.33345" lon="5.27129">
        <ele>500.50354</ele>
        <time>2009-06-14T10:27:30Z</time>
      </trkpt>
      <trkpt lat="44.33326" lon="5.27107">
        <ele>501.945557</ele>
        <time>2009-06-14T10:27:36Z</time>
      </trkpt>
      <trkpt lat="44.33291" lon="5.27064">
        <ele>505.310181</ele>
        <time>2009-06-14T10:27:48Z</time>
      </trkpt>
      <trkpt lat="44.33271" lon="5.27051">
        <ele>508.194092</ele>
        <time>2009-06-14T10:27:54Z</time>
      </trkpt>
      <trkpt lat="44.33249" lon="5.27037">
        <ele>510.116699</ele>
        <time>2009-06-14T10:28:01Z</time>
      </trkpt>
      <trkpt lat="44.33246" lon="5.27017">
        <ele>511.558716</ele>
        <time>2009-06-14T10:28:05Z</time>
      </trkpt>
      <trkpt lat="44.33248" lon="5.26986">
        <ele>513.962036</ele>
        <time>2009-06-14T10:28:11Z</time>
      </trkpt>
      <trkpt lat="44.33241" lon="5.26954">
        <ele>516.845947</ele>
        <time>2009-06-14T10:28:18Z</time>
      </trkpt>
      <trkpt lat="44.33231" lon="5.26916">
        <ele>517.807251</ele>
        <time>2009-06-14T10:28:26Z</time>
      </trkpt>
      <trkpt lat="44.33219" lon="5.2687">
        <ele>519.729858</ele>
        <time>2009-06-14T10:28:35Z</time>
      </trkpt>
      <trkpt lat="44.33212" lon="5.26829">
        <ele>520.691284</ele>
        <time>2009-06-14T10:28:43Z</time>
      </trkpt>
      <trkpt lat="44.33216" lon="5.26797">
        <ele>523.575195</ele>
        <time>2009-06-14T10:28:49Z</time>
      </trkpt>
      <trkpt lat="44.33226" lon="5.26745">
        <ele>526.459106</ele>
        <time>2009-06-14T10:28:59Z</time>
      </trkpt>
      <trkpt lat="44.33234" lon="5.26693">
        <ele>528.862549</ele>
        <time>2009-06-14T10:29:09Z</time>
      </trkpt>
      <trkpt lat="44.33232" lon="5.26682">
        <ele>529.34314</ele>
        <time>2009-06-14T10:29:11Z</time>
      </trkpt>
      <trkpt lat="44.33218" lon="5.26675">
        <ele>530.785156</ele>
        <time>2009-06-14T10:29:15Z</time>
      </trkpt>
      <trkpt lat="44.33212" lon="5.26681">
        <ele>530.785156</ele>
        <time>2009-06-14T10:29:17Z</time>
      </trkpt>
      <trkpt lat="44.33187" lon="5.26716">
        <ele>532.707764</ele>
        <time>2009-06-14T10:29:26Z</time>
      </trkpt>
      <trkpt lat="44.33157" lon="5.2674">
        <ele>535.591553</ele>
        <time>2009-06-14T10:29:35Z</time>
      </trkpt>
      <trkpt lat="44.3313" lon="5.2676">
        <ele>538.475708</ele>
        <time>2009-06-14T10:29:43Z</time>
      </trkpt>
      <trkpt lat="44.33094" lon="5.26782">
        <ele>541.359497</ele>
        <time>2009-06-14T10:29:53Z</time>
      </trkpt>
      <trkpt lat="44.33058" lon="5.26795">
        <ele>543.762817</ele>
        <time>2009-06-14T10:30:03Z</time>
      </trkpt>
      <trkpt lat="44.33033" lon="5.26788">
        <ele>543.762817</ele>
        <time>2009-06-14T10:30:10Z</time>
      </trkpt>
      <trkpt lat="44.3301" lon="5.26784">
        <ele>544.243652</ele>
        <time>2009-06-14T10:30:17Z</time>
      </trkpt>
      <trkpt lat="44.32987" lon="5.26787">
        <ele>544.724243</ele>
        <time>2009-06-14T10:30:24Z</time>
      </trkpt>
      <trkpt lat="44.32966" lon="5.26804">
        <ele>544.724243</ele>
        <time>2009-06-14T10:30:31Z</time>
      </trkpt>
      <trkpt lat="44.32953" lon="5.26812">
        <ele>545.685547</ele>
        <time>2009-06-14T10:30:35Z</time>
      </trkpt>
      <trkpt lat="44.32945" lon="5.26799">
        <ele>546.16626</ele>
        <time>2009-06-14T10:30:39Z</time>
      </trkpt>
      <trkpt lat="44.32948" lon="5.2679">
        <ele>545.685547</ele>
        <time>2009-06-14T10:30:41Z</time>
      </trkpt>
      <trkpt lat="44.32963" lon="5.26753">
        <ele>546.16626</ele>
        <time>2009-06-14T10:30:49Z</time>
      </trkpt>
      <trkpt lat="44.32976" lon="5.26695">
        <ele>549.050049</ele>
        <time>2009-06-14T10:31:01Z</time>
      </trkpt>
      <trkpt lat="44.32984" lon="5.26641">
        <ele>552.414551</ele>
        <time>2009-06-14T10:31:12Z</time>
      </trkpt>
      <trkpt lat="44.32989" lon="5.26591">
        <ele>556.26001</ele>
        <time>2009-06-14T10:31:22Z</time>
      </trkpt>
      <trkpt lat="44.32992" lon="5.26538">
        <ele>560.585938</ele>
        <time>2009-06-14T10:31:33Z</time>
      </trkpt>
      <trkpt lat="44.32981" lon="5.26512">
        <ele>562.989258</ele>
        <time>2009-06-14T10:31:39Z</time>
      </trkpt>
      <trkpt lat="44.32954" lon="5.26465">
        <ele>567.315186</ele>
        <time>2009-06-14T10:31:51Z</time>
      </trkpt>
      <trkpt lat="44.32936" lon="5.26426">
        <ele>569.718506</ele>
        <time>2009-06-14T10:32:00Z</time>
      </trkpt>
      <trkpt lat="44.32923" lon="5.26382">
        <ele>570.679688</ele>
        <time>2009-06-14T10:32:10Z</time>
      </trkpt>
      <trkpt lat="44.32913" lon="5.2635">
        <ele>570.679688</ele>
        <time>2009-06-14T10:32:17Z</time>
      </trkpt>
      <trkpt lat="44.32901" lon="5.26319">
        <ele>571.640869</ele>
        <time>2009-06-14T10:32:24Z</time>
      </trkpt>
      <trkpt lat="44.32882" lon="5.26292">
        <ele>574.525146</ele>
        <time>2009-06-14T10:32:31Z</time>
      </trkpt>
      <trkpt lat="44.32857" lon="5.26262">
        <ele>578.851074</ele>
        <time>2009-06-14T10:32:40Z</time>
      </trkpt>
      <trkpt lat="44.32838" lon="5.26252">
        <ele>581.734863</ele>
        <time>2009-06-14T10:32:46Z</time>
      </trkpt>
      <trkpt lat="44.32827" lon="5.26262">
        <ele>583.657471</ele>
        <time>2009-06-14T10:32:50Z</time>
      </trkpt>
      <trkpt lat="44.32813" lon="5.26299">
        <ele>584.138184</ele>
        <time>2009-06-14T10:32:58Z</time>
      </trkpt>
      <trkpt lat="44.32792" lon="5.26333">
        <ele>586.060791</ele>
        <time>2009-06-14T10:33:06Z</time>
      </trkpt>
      <trkpt lat="44.32759" lon="5.26363">
        <ele>588.945068</ele>
        <time>2009-06-14T10:33:16Z</time>
      </trkpt>
      <trkpt lat="44.32728" lon="5.26376">
        <ele>590.386963</ele>
        <time>2009-06-14T10:33:24Z</time>
      </trkpt>
      <trkpt lat="44.32698" lon="5.26375">
        <ele>590.867432</ele>
        <time>2009-06-14T10:33:32Z</time>
      </trkpt>
      <trkpt lat="44.32667" lon="5.26369">
        <ele>591.348145</ele>
        <time>2009-06-14T10:33:41Z</time>
      </trkpt>
      <trkpt lat="44.32635" lon="5.2636">
        <ele>593.270752</ele>
        <time>2009-06-14T10:33:50Z</time>
      </trkpt>
      <trkpt lat="44.32612" lon="5.26344">
        <ele>596.154785</ele>
        <time>2009-06-14T10:33:57Z</time>
      </trkpt>
      <trkpt lat="44.32591" lon="5.26317">
        <ele>598.557861</ele>
        <time>2009-06-14T10:34:05Z</time>
      </trkpt>
      <trkpt lat="44.32563" lon="5.26275">
        <ele>599.038574</ele>
        <time>2009-06-14T10:34:16Z</time>
      </trkpt>
      <trkpt lat="44.3254" lon="5.26257">
        <ele>600</ele>
        <time>2009-06-14T10:34:23Z</time>
      </trkpt>
      <trkpt lat="44.32518" lon="5.26258">
        <ele>601.922607</ele>
        <time>2009-06-14T10:34:29Z</time>
      </trkpt>
      <trkpt lat="44.32488" lon="5.26262">
        <ele>603.845215</ele>
        <time>2009-06-14T10:34:37Z</time>
      </trkpt>
      <trkpt lat="44.32469" lon="5.2625">
        <ele>604.806641</ele>
        <time>2009-06-14T10:34:43Z</time>
      </trkpt>
      <trkpt lat="44.32445" lon="5.26236">
        <ele>608.171387</ele>
        <time>2009-06-14T10:34:50Z</time>
      </trkpt>
      <trkpt lat="44.32423" lon="5.26234">
        <ele>610.09375</ele>
        <time>2009-06-14T10:34:56Z</time>
      </trkpt>
      <trkpt lat="44.32398" lon="5.26243">
        <ele>613.938965</ele>
        <time>2009-06-14T10:35:03Z</time>
      </trkpt>
      <trkpt lat="44.32385" lon="5.26261">
        <ele>614.900391</ele>
        <time>2009-06-14T10:35:08Z</time>
      </trkpt>
      <trkpt lat="44.32381" lon="5.26293">
        <ele>615.381104</ele>
        <time>2009-06-14T10:35:14Z</time>
      </trkpt>
      <trkpt lat="44.32384" lon="5.26331">
        <ele>616.822998</ele>
        <time>2009-06-14T10:35:21Z</time>
      </trkpt>
      <trkpt lat="44.32383" lon="5.26337">
        <ele>616.822998</ele>
        <time>2009-06-14T10:35:22Z</time>
      </trkpt>
      <trkpt lat="44.32371" lon="5.26351">
        <ele>618.745605</ele>
        <time>2009-06-14T10:35:26Z</time>
      </trkpt>
      <trkpt lat="44.32359" lon="5.26351">
        <ele>619.707031</ele>
        <time>2009-06-14T10:35:29Z</time>
      </trkpt>
      <trkpt lat="44.32322" lon="5.26348">
        <ele>621.629639</ele>
        <time>2009-06-14T10:35:39Z</time>
      </trkpt>
      <trkpt lat="44.32298" lon="5.2636">
        <ele>622.591064</ele>
        <time>2009-06-14T10:35:46Z</time>
      </trkpt>
      <trkpt lat="44.32267" lon="5.26391">
        <ele>624.994385</ele>
        <time>2009-06-14T10:35:56Z</time>
      </trkpt>
      <trkpt lat="44.32246" lon="5.26404">
        <ele>626.436279</ele>
        <time>2009-06-14T10:36:02Z</time>
      </trkpt>
      <trkpt lat="44.32227" lon="5.26403">
        <ele>627.397705</ele>
        <time>2009-06-14T10:36:07Z</time>
      </trkpt>
      <trkpt lat="44.32206" lon="5.26386">
        <ele>628.8396</ele>
        <time>2009-06-14T10:36:13Z</time>
      </trkpt>
      <trkpt lat="44.32184" lon="5.26354">
        <ele>629.320068</ele>
        <time>2009-06-14T10:36:21Z</time>
      </trkpt>
      <trkpt lat="44.32157" lon="5.26307">
        <ele>629.800781</ele>
        <time>2009-06-14T10:36:32Z</time>
      </trkpt>
      <trkpt lat="44.3213" lon="5.26269">
        <ele>629.320068</ele>
        <time>2009-06-14T10:36:42Z</time>
      </trkpt>
      <trkpt lat="44.32105" lon="5.26256">
        <ele>629.800781</ele>
        <time>2009-06-14T10:36:49Z</time>
      </trkpt>
      <trkpt lat="44.32079" lon="5.26256">
        <ele>633.165283</ele>
        <time>2009-06-14T10:36:56Z</time>
      </trkpt>
      <trkpt lat="44.32056" lon="5.26271">
        <ele>634.607422</ele>
        <time>2009-06-14T10:37:02Z</time>
      </trkpt>
      <trkpt lat="44.3203" lon="5.26305">
        <ele>636.530273</ele>
        <time>2009-06-14T10:37:10Z</time>
      </trkpt>
      <trkpt lat="44.32009" lon="5.26339">
        <ele>638.452881</ele>
        <time>2009-06-14T10:37:17Z</time>
      </trkpt>
      <trkpt lat="44.31996" lon="5.26385">
        <ele>640.375488</ele>
        <time>2009-06-14T10:37:25Z</time>
      </trkpt>
      <trkpt lat="44.31981" lon="5.26421">
        <ele>642.298096</ele>
        <time>2009-06-14T10:37:32Z</time>
      </trkpt>
      <trkpt lat="44.31971" lon="5.26432">
        <ele>643.259277</ele>
        <time>2009-06-14T10:37:35Z</time>
      </trkpt>
      <trkpt lat="44.31934" lon="5.26459">
        <ele>645.662598</ele>
        <time>2009-06-14T10:37:45Z</time>
      </trkpt>
      <trkpt lat="44.31913" lon="5.26486">
        <ele>647.104492</ele>
        <time>2009-06-14T10:37:52Z</time>
      </trkpt>
      <trkpt lat="44.31893" lon="5.26537">
        <ele>649.988525</ele>
        <time>2009-06-14T10:38:02Z</time>
      </trkpt>
      <trkpt lat="44.31891" lon="5.26542">
        <ele>649.988525</ele>
        <time>2009-06-14T10:38:03Z</time>
      </trkpt>
      <trkpt lat="44.31869" lon="5.26563">
        <ele>650.469238</ele>
        <time>2009-06-14T10:38:09Z</time>
      </trkpt>
      <trkpt lat="44.31839" lon="5.26588">
        <ele>651.911133</ele>
        <time>2009-06-14T10:38:17Z</time>
      </trkpt>
      <trkpt lat="44.31813" lon="5.26624">
        <ele>654.314697</ele>
        <time>2009-06-14T10:38:26Z</time>
      </trkpt>
      <trkpt lat="44.31789" lon="5.26652">
        <ele>657.198486</ele>
        <time>2009-06-14T10:38:34Z</time>
      </trkpt>
      <trkpt lat="44.31766" lon="5.26668">
        <ele>657.679199</ele>
        <time>2009-06-14T10:38:40Z</time>
      </trkpt>
      <trkpt lat="44.31756" lon="5.26678">
        <ele>658.640381</ele>
        <time>2009-06-14T10:38:43Z</time>
      </trkpt>
      <trkpt lat="44.31726" lon="5.26708">
        <ele>659.121094</ele>
        <time>2009-06-14T10:38:52Z</time>
      </trkpt>
      <trkpt lat="44.31703" lon="5.26739">
        <ele>660.562988</ele>
        <time>2009-06-14T10:39:00Z</time>
      </trkpt>
      <trkpt lat="44.31668" lon="5.26777">
        <ele>663.92749</ele>
        <time>2009-06-14T10:39:11Z</time>
      </trkpt>
      <trkpt lat="44.31635" lon="5.26817">
        <ele>666.811523</ele>
        <time>2009-06-14T10:39:22Z</time>
      </trkpt>
      <trkpt lat="44.31613" lon="5.26842">
        <ele>668.253662</ele>
        <time>2009-06-14T10:39:29Z</time>
      </trkpt>
      <trkpt lat="44.31584" lon="5.26858">
        <ele>671.137695</ele>
        <time>2009-06-14T10:39:37Z</time>
      </trkpt>
      <trkpt lat="44.31544" lon="5.26872">
        <ele>674.502197</ele>
        <time>2009-06-14T10:39:47Z</time>
      </trkpt>
      <trkpt lat="44.3152" lon="5.26895">
        <ele>675.944092</ele>
        <time>2009-06-14T10:39:54Z</time>
      </trkpt>
      <trkpt lat="44.31513" lon="5.26902">
        <ele>676.424805</ele>
        <time>2009-06-14T10:39:56Z</time>
      </trkpt>
      <trkpt lat="44.3149" lon="5.26911">
        <ele>677.38623</ele>
        <time>2009-06-14T10:40:02Z</time>
      </trkpt>
      <trkpt lat="44.31456" lon="5.26907">
        <ele>679.789307</ele>
        <time>2009-06-14T10:40:11Z</time>
      </trkpt>
      <trkpt lat="44.31437" lon="5.26914">
        <ele>681.231445</ele>
        <time>2009-06-14T10:40:16Z</time>
      </trkpt>
      <trkpt lat="44.31425" lon="5.26934">
        <ele>682.67334</ele>
        <time>2009-06-14T10:40:21Z</time>
      </trkpt>
      <trkpt lat="44.31405" lon="5.26976">
        <ele>685.557373</ele>
        <time>2009-06-14T10:40:31Z</time>
      </trkpt>
      <trkpt lat="44.31388" lon="5.27008">
        <ele>686.999268</ele>
        <time>2009-06-14T10:40:39Z</time>
      </trkpt>
      <trkpt lat="44.31356" lon="5.27063">
        <ele>689.883301</ele>
        <time>2009-06-14T10:40:53Z</time>
      </trkpt>
      <trkpt lat="44.31338" lon="5.27101">
        <ele>691.325195</ele>
        <time>2009-06-14T10:41:02Z</time>
      </trkpt>
      <trkpt lat="44.31325" lon="5.2715">
        <ele>693.728516</ele>
        <time>2009-06-14T10:41:12Z</time>
      </trkpt>
      <trkpt lat="44.31312" lon="5.27192">
        <ele>698.534912</ele>
        <time>2009-06-14T10:41:21Z</time>
      </trkpt>
      <trkpt lat="44.31295" lon="5.27235">
        <ele>699.977051</ele>
        <time>2009-06-14T10:41:31Z</time>
      </trkpt>
      <trkpt lat="44.31281" lon="5.27281">
        <ele>703.341797</ele>
        <time>2009-06-14T10:41:41Z</time>
      </trkpt>
      <trkpt lat="44.3128" lon="5.27322">
        <ele>705.264404</ele>
        <time>2009-06-14T10:41:49Z</time>
      </trkpt>
      <trkpt lat="44.31289" lon="5.27362">
        <ele>707.667725</ele>
        <time>2009-06-14T10:41:57Z</time>
      </trkpt>
      <trkpt lat="44.31302" lon="5.27403">
        <ele>711.512939</ele>
        <time>2009-06-14T10:42:05Z</time>
      </trkpt>
      <trkpt lat="44.31304" lon="5.27449">
        <ele>717.281006</ele>
        <time>2009-06-14T10:42:14Z</time>
      </trkpt>
      <trkpt lat="44.31302" lon="5.27495">
        <ele>722.087402</ele>
        <time>2009-06-14T10:42:23Z</time>
      </trkpt>
      <trkpt lat="44.313" lon="5.27536">
        <ele>725.932617</ele>
        <time>2009-06-14T10:42:31Z</time>
      </trkpt>
      <trkpt lat="44.31296" lon="5.27582">
        <ele>728.81665</ele>
        <time>2009-06-14T10:42:40Z</time>
      </trkpt>
      <trkpt lat="44.31292" lon="5.27625">
        <ele>729.297119</ele>
        <time>2009-06-14T10:42:48Z</time>
      </trkpt>
      <trkpt lat="44.31287" lon="5.27668">
        <ele>730.258545</ele>
        <time>2009-06-14T10:42:56Z</time>
      </trkpt>
      <trkpt lat="44.31281" lon="5.27713">
        <ele>730.739258</ele>
        <time>2009-06-14T10:43:05Z</time>
      </trkpt>
      <trkpt lat="44.31276" lon="5.27749">
        <ele>731.700439</ele>
        <time>2009-06-14T10:43:12Z</time>
      </trkpt>
      <trkpt lat="44.31273" lon="5.27753">
        <ele>731.700439</ele>
        <time>2009-06-14T10:43:13Z</time>
      </trkpt>
      <trkpt lat="44.31261" lon="5.2775">
        <ele>731.700439</ele>
        <time>2009-06-14T10:43:17Z</time>
      </trkpt>
      <trkpt lat="44.31259" lon="5.27741">
        <ele>731.700439</ele>
        <time>2009-06-14T10:43:19Z</time>
      </trkpt>
      <trkpt lat="44.31257" lon="5.27731">
        <ele>730.258545</ele>
        <time>2009-06-14T10:43:23Z</time>
      </trkpt>
      <trkpt lat="44.31256" lon="5.27727">
        <ele>730.258545</ele>
        <time>2009-06-14T10:43:28Z</time>
      </trkpt>
      <trkpt lat="44.31257" lon="5.27727">
        <ele>730.258545</ele>
        <time>2009-06-14T10:43:36Z</time>
      </trkpt>
      <trkpt lat="44.31258" lon="5.27728">
        <ele>728.81665</ele>
        <time>2009-06-14T10:43:48Z</time>
      </trkpt>
      <trkpt lat="44.31257" lon="5.27724">
        <ele>727.855225</ele>
        <time>2009-06-14T10:43:59Z</time>
      </trkpt>
      <trkpt lat="44.31253" lon="5.27703">
        <ele>726.41333</ele>
        <time>2009-06-14T10:44:06Z</time>
      </trkpt>
      <trkpt lat="44.31247" lon="5.27671">
        <ele>724.490723</ele>
        <time>2009-06-14T10:44:11Z</time>
      </trkpt>
      <trkpt lat="44.31234" lon="5.27625">
        <ele>720.645508</ele>
        <time>2009-06-14T10:44:16Z</time>
      </trkpt>
      <trkpt lat="44.3122" lon="5.27554">
        <ele>715.838867</ele>
        <time>2009-06-14T10:44:23Z</time>
      </trkpt>
      <trkpt lat="44.312" lon="5.27484">
        <ele>711.032227</ele>
        <time>2009-06-14T10:44:29Z</time>
      </trkpt>
      <trkpt lat="44.31173" lon="5.27412">
        <ele>706.706299</ele>
        <time>2009-06-14T10:44:35Z</time>
      </trkpt>
      <trkpt lat="44.31145" lon="5.27354">
        <ele>702.380371</ele>
        <time>2009-06-14T10:44:40Z</time>
      </trkpt>
      <trkpt lat="44.31134" lon="5.27329">
        <ele>699.977051</ele>
        <time>2009-06-14T10:44:43Z</time>
      </trkpt>
      <trkpt lat="44.31132" lon="5.27322">
        <ele>699.496338</ele>
        <time>2009-06-14T10:44:44Z</time>
      </trkpt>
      <trkpt lat="44.3112" lon="5.2731">
        <ele>696.131836</ele>
        <time>2009-06-14T10:44:48Z</time>
      </trkpt>
      <trkpt lat="44.31121" lon="5.27325">
        <ele>693.247803</ele>
        <time>2009-06-14T10:44:51Z</time>
      </trkpt>
      <trkpt lat="44.31125" lon="5.27333">
        <ele>693.247803</ele>
        <time>2009-06-14T10:44:52Z</time>
      </trkpt>
      <trkpt lat="44.31143" lon="5.2738">
        <ele>692.767334</ele>
        <time>2009-06-14T10:44:57Z</time>
      </trkpt>
      <trkpt lat="44.31161" lon="5.27467">
        <ele>692.286621</ele>
        <time>2009-06-14T10:45:04Z</time>
      </trkpt>
      <trkpt lat="44.3117" lon="5.27542">
        <ele>689.883301</ele>
        <time>2009-06-14T10:45:10Z</time>
      </trkpt>
      <trkpt lat="44.31171" lon="5.27584">
        <ele>687.960693</ele>
        <time>2009-06-14T10:45:13Z</time>
      </trkpt>
      <trkpt lat="44.31162" lon="5.27645">
        <ele>686.038086</ele>
        <time>2009-06-14T10:45:18Z</time>
      </trkpt>
      <trkpt lat="44.3116" lon="5.27666">
        <ele>685.076904</ele>
        <time>2009-06-14T10:45:20Z</time>
      </trkpt>
      <trkpt lat="44.3115" lon="5.27695">
        <ele>682.67334</ele>
        <time>2009-06-14T10:45:24Z</time>
      </trkpt>
      <trkpt lat="44.31137" lon="5.27694">
        <ele>681.231445</ele>
        <time>2009-06-14T10:45:27Z</time>
      </trkpt>
      <trkpt lat="44.31129" lon="5.27671">
        <ele>680.27002</ele>
        <time>2009-06-14T10:45:30Z</time>
      </trkpt>
      <trkpt lat="44.31118" lon="5.27635">
        <ele>677.866699</ele>
        <time>2009-06-14T10:45:33Z</time>
      </trkpt>
      <trkpt lat="44.31087" lon="5.27577">
        <ele>675.463379</ele>
        <time>2009-06-14T10:45:39Z</time>
      </trkpt>
      <trkpt lat="44.3106" lon="5.27517">
        <ele>666.330811</ele>
        <time>2009-06-14T10:45:44Z</time>
      </trkpt>
      <trkpt lat="44.31055" lon="5.2751">
        <ele>665.850342</ele>
        <time>2009-06-14T10:45:45Z</time>
      </trkpt>
      <trkpt lat="44.31034" lon="5.27493">
        <ele>663.92749</ele>
        <time>2009-06-14T10:45:49Z</time>
      </trkpt>
      <trkpt lat="44.31016" lon="5.27498">
        <ele>662.485596</ele>
        <time>2009-06-14T10:45:52Z</time>
      </trkpt>
      <trkpt lat="44.30997" lon="5.27492">
        <ele>662.005127</ele>
        <time>2009-06-14T10:45:55Z</time>
      </trkpt>
      <trkpt lat="44.30987" lon="5.27474">
        <ele>661.524414</ele>
        <time>2009-06-14T10:45:57Z</time>
      </trkpt>
      <trkpt lat="44.30947" lon="5.27428">
        <ele>658.640381</ele>
        <time>2009-06-14T10:46:03Z</time>
      </trkpt>
      <trkpt lat="44.30927" lon="5.27408">
        <ele>657.679199</ele>
        <time>2009-06-14T10:46:06Z</time>
      </trkpt>
      <trkpt lat="44.30903" lon="5.27404">
        <ele>655.756592</ele>
        <time>2009-06-14T10:46:10Z</time>
      </trkpt>
      <trkpt lat="44.30891" lon="5.27435">
        <ele>655.756592</ele>
        <time>2009-06-14T10:46:13Z</time>
      </trkpt>
      <trkpt lat="44.30889" lon="5.27453">
        <ele>651.43042</ele>
        <time>2009-06-14T10:46:14Z</time>
      </trkpt>
      <trkpt lat="44.30875" lon="5.27512">
        <ele>650.469238</ele>
        <time>2009-06-14T10:46:19Z</time>
      </trkpt>
      <trkpt lat="44.30857" lon="5.27533">
        <ele>647.585205</ele>
        <time>2009-06-14T10:46:23Z</time>
      </trkpt>
      <trkpt lat="44.30839" lon="5.2752">
        <ele>644.701172</ele>
        <time>2009-06-14T10:46:26Z</time>
      </trkpt>
      <trkpt lat="44.30833" lon="5.27511">
        <ele>644.220703</ele>
        <time>2009-06-14T10:46:27Z</time>
      </trkpt>
      <trkpt lat="44.30792" lon="5.27477">
        <ele>645.181885</ele>
        <time>2009-06-14T10:46:32Z</time>
      </trkpt>
      <trkpt lat="44.30744" lon="5.27444">
        <ele>641.817383</ele>
        <time>2009-06-14T10:46:37Z</time>
      </trkpt>
      <trkpt lat="44.30706" lon="5.27419">
        <ele>639.414063</ele>
        <time>2009-06-14T10:46:41Z</time>
      </trkpt>
      <trkpt lat="44.3067" lon="5.27391">
        <ele>635.568604</ele>
        <time>2009-06-14T10:46:45Z</time>
      </trkpt>
      <trkpt lat="44.30643" lon="5.27353">
        <ele>633.165283</ele>
        <time>2009-06-14T10:46:49Z</time>
      </trkpt>
      <trkpt lat="44.30637" lon="5.27344">
        <ele>632.684814</ele>
        <time>2009-06-14T10:46:50Z</time>
      </trkpt>
      <trkpt lat="44.30606" lon="5.27323">
        <ele>628.8396</ele>
        <time>2009-06-14T10:46:54Z</time>
      </trkpt>
      <trkpt lat="44.30577" lon="5.27326">
        <ele>624.513672</ele>
        <time>2009-06-14T10:46:57Z</time>
      </trkpt>
      <trkpt lat="44.30551" lon="5.2735">
        <ele>621.14917</ele>
        <time>2009-06-14T10:47:00Z</time>
      </trkpt>
      <trkpt lat="44.30506" lon="5.27394">
        <ele>617.303711</ele>
        <time>2009-06-14T10:47:05Z</time>
      </trkpt>
      <trkpt lat="44.30497" lon="5.274">
        <ele>616.342285</ele>
        <time>2009-06-14T10:47:06Z</time>
      </trkpt>
      <trkpt lat="44.30456" lon="5.27443">
        <ele>615.861816</ele>
        <time>2009-06-14T10:47:11Z</time>
      </trkpt>
      <trkpt lat="44.30428" lon="5.27453">
        <ele>612.49707</ele>
        <time>2009-06-14T10:47:14Z</time>
      </trkpt>
      <trkpt lat="44.30409" lon="5.27439">
        <ele>610.574463</ele>
        <time>2009-06-14T10:47:16Z</time>
      </trkpt>
      <trkpt lat="44.304" lon="5.27429">
        <ele>609.613281</ele>
        <time>2009-06-14T10:47:17Z</time>
      </trkpt>
      <trkpt lat="44.30341" lon="5.27359">
        <ele>603.845215</ele>
        <time>2009-06-14T10:47:24Z</time>
      </trkpt>
      <trkpt lat="44.30301" lon="5.27341">
        <ele>601.922607</ele>
        <time>2009-06-14T10:47:28Z</time>
      </trkpt>
      <trkpt lat="44.3027" lon="5.27348">
        <ele>599.038574</ele>
        <time>2009-06-14T10:47:31Z</time>
      </trkpt>
      <trkpt lat="44.3026" lon="5.27354">
        <ele>598.557861</ele>
        <time>2009-06-14T10:47:32Z</time>
      </trkpt>
      <trkpt lat="44.3021" lon="5.27384">
        <ele>594.712646</ele>
        <time>2009-06-14T10:47:37Z</time>
      </trkpt>
      <trkpt lat="44.30183" lon="5.27436">
        <ele>594.232178</ele>
        <time>2009-06-14T10:47:41Z</time>
      </trkpt>
      <trkpt lat="44.30173" lon="5.27483">
        <ele>593.751465</ele>
        <time>2009-06-14T10:47:44Z</time>
      </trkpt>
      <trkpt lat="44.30162" lon="5.27539">
        <ele>591.828857</ele>
        <time>2009-06-14T10:47:48Z</time>
      </trkpt>
      <trkpt lat="44.30154" lon="5.2755">
        <ele>591.828857</ele>
        <time>2009-06-14T10:47:49Z</time>
      </trkpt>
      <trkpt lat="44.3013" lon="5.27581">
        <ele>590.386963</ele>
        <time>2009-06-14T10:47:52Z</time>
      </trkpt>
      <trkpt lat="44.30105" lon="5.27634">
        <ele>588.945068</ele>
        <time>2009-06-14T10:47:56Z</time>
      </trkpt>
      <trkpt lat="44.30101" lon="5.27649">
        <ele>588.464355</ele>
        <time>2009-06-14T10:47:57Z</time>
      </trkpt>
      <trkpt lat="44.30075" lon="5.27774">
        <ele>584.138184</ele>
        <time>2009-06-14T10:48:05Z</time>
      </trkpt>
      <trkpt lat="44.30069" lon="5.27802">
        <ele>582.696289</ele>
        <time>2009-06-14T10:48:07Z</time>
      </trkpt>
      <trkpt lat="44.3007" lon="5.27859">
        <ele>579.331543</ele>
        <time>2009-06-14T10:48:11Z</time>
      </trkpt>
      <trkpt lat="44.30087" lon="5.27897">
        <ele>577.889648</ele>
        <time>2009-06-14T10:48:14Z</time>
      </trkpt>
      <trkpt lat="44.30114" lon="5.27944">
        <ele>575.967041</ele>
        <time>2009-06-14T10:48:18Z</time>
      </trkpt>
      <trkpt lat="44.30127" lon="5.27982">
        <ele>575.005859</ele>
        <time>2009-06-14T10:48:21Z</time>
      </trkpt>
      <trkpt lat="44.30131" lon="5.28017">
        <ele>573.563965</ele>
        <time>2009-06-14T10:48:24Z</time>
      </trkpt>
      <trkpt lat="44.30127" lon="5.28028">
        <ele>572.602539</ele>
        <time>2009-06-14T10:48:25Z</time>
      </trkpt>
      <trkpt lat="44.30118" lon="5.2809">
        <ele>570.198975</ele>
        <time>2009-06-14T10:48:30Z</time>
      </trkpt>
      <trkpt lat="44.30129" lon="5.28143">
        <ele>568.276367</ele>
        <time>2009-06-14T10:48:34Z</time>
      </trkpt>
      <trkpt lat="44.30131" lon="5.28182">
        <ele>566.35376</ele>
        <time>2009-06-14T10:48:37Z</time>
      </trkpt>
      <trkpt lat="44.3012" lon="5.28204">
        <ele>565.873291</ele>
        <time>2009-06-14T10:48:39Z</time>
      </trkpt>
      <trkpt lat="44.30067" lon="5.28277">
        <ele>561.547363</ele>
        <time>2009-06-14T10:48:46Z</time>
      </trkpt>
      <trkpt lat="44.30047" lon="5.28331">
        <ele>558.182861</ele>
        <time>2009-06-14T10:48:50Z</time>
      </trkpt>
      <trkpt lat="44.30046" lon="5.28378">
        <ele>555.779297</ele>
        <time>2009-06-14T10:48:53Z</time>
      </trkpt>
      <trkpt lat="44.30049" lon="5.28394">
        <ele>555.298584</ele>
        <time>2009-06-14T10:48:54Z</time>
      </trkpt>
      <trkpt lat="44.30058" lon="5.28441">
        <ele>552.895264</ele>
        <time>2009-06-14T10:48:57Z</time>
      </trkpt>
      <trkpt lat="44.30064" lon="5.28485">
        <ele>550.972656</ele>
        <time>2009-06-14T10:49:00Z</time>
      </trkpt>
      <trkpt lat="44.30085" lon="5.28534">
        <ele>548.569336</ele>
        <time>2009-06-14T10:49:04Z</time>
      </trkpt>
      <trkpt lat="44.30094" lon="5.2856">
        <ele>547.608154</ele>
        <time>2009-06-14T10:49:06Z</time>
      </trkpt>
      <trkpt lat="44.30117" lon="5.28637">
        <ele>544.243652</ele>
        <time>2009-06-14T10:49:12Z</time>
      </trkpt>
      <trkpt lat="44.30115" lon="5.28676">
        <ele>542.320923</ele>
        <time>2009-06-14T10:49:15Z</time>
      </trkpt>
      <trkpt lat="44.30124" lon="5.287">
        <ele>541.359497</ele>
        <time>2009-06-14T10:49:17Z</time>
      </trkpt>
      <trkpt lat="44.30148" lon="5.28724">
        <ele>537.514282</ele>
        <time>2009-06-14T10:49:20Z</time>
      </trkpt>
      <trkpt lat="44.30178" lon="5.2873">
        <ele>534.149658</ele>
        <time>2009-06-14T10:49:23Z</time>
      </trkpt>
      <trkpt lat="44.30205" lon="5.28749">
        <ele>530.304443</ele>
        <time>2009-06-14T10:49:26Z</time>
      </trkpt>
      <trkpt lat="44.30226" lon="5.28783">
        <ele>527.42041</ele>
        <time>2009-06-14T10:49:29Z</time>
      </trkpt>
      <trkpt lat="44.30239" lon="5.28808">
        <ele>526.459106</ele>
        <time>2009-06-14T10:49:31Z</time>
      </trkpt>
      <trkpt lat="44.30269" lon="5.28879">
        <ele>523.094604</ele>
        <time>2009-06-14T10:49:36Z</time>
      </trkpt>
      <trkpt lat="44.30277" lon="5.2891">
        <ele>522.613892</ele>
        <time>2009-06-14T10:49:38Z</time>
      </trkpt>
      <trkpt lat="44.30281" lon="5.28972">
        <ele>521.171997</ele>
        <time>2009-06-14T10:49:42Z</time>
      </trkpt>
      <trkpt lat="44.3028" lon="5.29014">
        <ele>519.249268</ele>
        <time>2009-06-14T10:49:45Z</time>
      </trkpt>
      <trkpt lat="44.30282" lon="5.29029">
        <ele>518.287842</ele>
        <time>2009-06-14T10:49:46Z</time>
      </trkpt>
      <trkpt lat="44.30291" lon="5.29104">
        <ele>515.884644</ele>
        <time>2009-06-14T10:49:51Z</time>
      </trkpt>
      <trkpt lat="44.30311" lon="5.29149">
        <ele>513.962036</ele>
        <time>2009-06-14T10:49:55Z</time>
      </trkpt>
      <trkpt lat="44.30331" lon="5.29182">
        <ele>512.039429</ele>
        <time>2009-06-14T10:49:58Z</time>
      </trkpt>
      <trkpt lat="44.30337" lon="5.29226">
        <ele>510.116699</ele>
        <time>2009-06-14T10:50:01Z</time>
      </trkpt>
      <trkpt lat="44.30332" lon="5.29268">
        <ele>507.713501</ele>
        <time>2009-06-14T10:50:04Z</time>
      </trkpt>
      <trkpt lat="44.30311" lon="5.293">
        <ele>504.829468</ele>
        <time>2009-06-14T10:50:07Z</time>
      </trkpt>
      <trkpt lat="44.3028" lon="5.29317">
        <ele>501.945557</ele>
        <time>2009-06-14T10:50:10Z</time>
      </trkpt>
      <trkpt lat="44.30258" lon="5.29317">
        <ele>501.945557</ele>
        <time>2009-06-14T10:50:12Z</time>
      </trkpt>
      <trkpt lat="44.30242" lon="5.29316">
        <ele>501.464844</ele>
        <time>2009-06-14T10:50:14Z</time>
      </trkpt>
      <trkpt lat="44.30228" lon="5.29298">
        <ele>499.061523</ele>
        <time>2009-06-14T10:50:18Z</time>
      </trkpt>
      <trkpt lat="44.30231" lon="5.29271">
        <ele>497.138916</ele>
        <time>2009-06-14T10:50:21Z</time>
      </trkpt>
      <trkpt lat="44.30227" lon="5.29251">
        <ele>496.177734</ele>
        <time>2009-06-14T10:50:23Z</time>
      </trkpt>
      <trkpt lat="44.30204" lon="5.29188">
        <ele>492.812988</ele>
        <time>2009-06-14T10:50:29Z</time>
      </trkpt>
      <trkpt lat="44.3018" lon="5.29127">
        <ele>485.122437</ele>
        <time>2009-06-14T10:50:35Z</time>
      </trkpt>
      <trkpt lat="44.30156" lon="5.29082">
        <ele>480.796631</ele>
        <time>2009-06-14T10:50:40Z</time>
      </trkpt>
      <trkpt lat="44.30141" lon="5.29034">
        <ele>475.989868</ele>
        <time>2009-06-14T10:50:44Z</time>
      </trkpt>
      <trkpt lat="44.30117" lon="5.28936">
        <ele>470.221924</ele>
        <time>2009-06-14T10:50:51Z</time>
      </trkpt>
      <trkpt lat="44.30109" lon="5.2891">
        <ele>468.780029</ele>
        <time>2009-06-14T10:50:53Z</time>
      </trkpt>
      <trkpt lat="44.30101" lon="5.28858">
        <ele>465.415527</ele>
        <time>2009-06-14T10:50:57Z</time>
      </trkpt>
      <trkpt lat="44.30089" lon="5.28819">
        <ele>463.012085</ele>
        <time>2009-06-14T10:51:00Z</time>
      </trkpt>
      <trkpt lat="44.30082" lon="5.28807">
        <ele>462.050781</ele>
        <time>2009-06-14T10:51:01Z</time>
      </trkpt>
      <trkpt lat="44.30016" lon="5.28697">
        <ele>458.205566</ele>
        <time>2009-06-14T10:51:10Z</time>
      </trkpt>
      <trkpt lat="44.30003" lon="5.28659">
        <ele>455.802246</ele>
        <time>2009-06-14T10:51:13Z</time>
      </trkpt>
      <trkpt lat="44.29975" lon="5.28622">
        <ele>452.918213</ele>
        <time>2009-06-14T10:51:17Z</time>
      </trkpt>
      <trkpt lat="44.29936" lon="5.28594">
        <ele>449.553711</ele>
        <time>2009-06-14T10:51:21Z</time>
      </trkpt>
      <trkpt lat="44.29876" lon="5.2852">
        <ele>443.785767</ele>
        <time>2009-06-14T10:51:28Z</time>
      </trkpt>
      <trkpt lat="44.29822" lon="5.28439">
        <ele>438.017822</ele>
        <time>2009-06-14T10:51:35Z</time>
      </trkpt>
      <trkpt lat="44.29776" lon="5.28396">
        <ele>433.691895</ele>
        <time>2009-06-14T10:51:40Z</time>
      </trkpt>
      <trkpt lat="44.29746" lon="5.28368">
        <ele>430.807983</ele>
        <time>2009-06-14T10:51:44Z</time>
      </trkpt>
      <trkpt lat="44.29741" lon="5.28362">
        <ele>430.327271</ele>
        <time>2009-06-14T10:51:45Z</time>
      </trkpt>
      <trkpt lat="44.29734" lon="5.28337">
        <ele>428.404663</ele>
        <time>2009-06-14T10:51:48Z</time>
      </trkpt>
      <trkpt lat="44.29741" lon="5.28318">
        <ele>427.92395</ele>
        <time>2009-06-14T10:51:50Z</time>
      </trkpt>
      <trkpt lat="44.29748" lon="5.28268">
        <ele>424.559448</ele>
        <time>2009-06-14T10:51:55Z</time>
      </trkpt>
      <trkpt lat="44.29736" lon="5.28254">
        <ele>424.078735</ele>
        <time>2009-06-14T10:51:57Z</time>
      </trkpt>
      <trkpt lat="44.29728" lon="5.28247">
        <ele>424.078735</ele>
        <time>2009-06-14T10:51:58Z</time>
      </trkpt>
      <trkpt lat="44.29682" lon="5.28224">
        <ele>421.194824</ele>
        <time>2009-06-14T10:52:03Z</time>
      </trkpt>
      <trkpt lat="44.29647" lon="5.28211">
        <ele>418.791504</ele>
        <time>2009-06-14T10:52:07Z</time>
      </trkpt>
      <trkpt lat="44.2962" lon="5.28193">
        <ele>416.868896</ele>
        <time>2009-06-14T10:52:11Z</time>
      </trkpt>
      <trkpt lat="44.29602" lon="5.282">
        <ele>415.42688</ele>
        <time>2009-06-14T10:52:15Z</time>
      </trkpt>
      <trkpt lat="44.29604" lon="5.28214">
        <ele>413.984863</ele>
        <time>2009-06-14T10:52:17Z</time>
      </trkpt>
      <trkpt lat="44.29612" lon="5.28221">
        <ele>413.02356</ele>
        <time>2009-06-14T10:52:19Z</time>
      </trkpt>
      <trkpt lat="44.29632" lon="5.28231">
        <ele>411.100952</ele>
        <time>2009-06-14T10:52:23Z</time>
      </trkpt>
      <trkpt lat="44.2964" lon="5.28248">
        <ele>410.620239</ele>
        <time>2009-06-14T10:52:27Z</time>
      </trkpt>
      <trkpt lat="44.29632" lon="5.28253">
        <ele>410.139648</ele>
        <time>2009-06-14T10:52:30Z</time>
      </trkpt>
      <trkpt lat="44.2962" lon="5.28245">
        <ele>410.139648</ele>
        <time>2009-06-14T10:52:33Z</time>
      </trkpt>
      <trkpt lat="44.29588" lon="5.28219">
        <ele>409.178345</ele>
        <time>2009-06-14T10:52:39Z</time>
      </trkpt>
      <trkpt lat="44.29543" lon="5.2819">
        <ele>409.178345</ele>
        <time>2009-06-14T10:52:46Z</time>
      </trkpt>
      <trkpt lat="44.29503" lon="5.28182">
        <ele>408.697632</ele>
        <time>2009-06-14T10:52:52Z</time>
      </trkpt>
      <trkpt lat="44.29477" lon="5.28178">
        <ele>408.697632</ele>
        <time>2009-06-14T10:52:56Z</time>
      </trkpt>
      <trkpt lat="44.29456" lon="5.28162">
        <ele>408.697632</ele>
        <time>2009-06-14T10:53:00Z</time>
      </trkpt>
      <trkpt lat="44.29451" lon="5.28144">
        <ele>408.217041</ele>
        <time>2009-06-14T10:53:02Z</time>
      </trkpt>
      <trkpt lat="44.29436" lon="5.28086">
        <ele>401.968506</ele>
        <time>2009-06-14T10:53:08Z</time>
      </trkpt>
      <trkpt lat="44.29431" lon="5.28065">
        <ele>401.00708</ele>
        <time>2009-06-14T10:53:10Z</time>
      </trkpt>
      <trkpt lat="44.29411" lon="5.2803">
        <ele>401.487793</ele>
        <time>2009-06-14T10:53:14Z</time>
      </trkpt>
      <trkpt lat="44.29405" lon="5.28025">
        <ele>401.968506</ele>
        <time>2009-06-14T10:53:15Z</time>
      </trkpt>
      <trkpt lat="44.29386" lon="5.28008">
        <ele>404.852295</ele>
        <time>2009-06-14T10:53:18Z</time>
      </trkpt>
      <trkpt lat="44.29356" lon="5.28001">
        <ele>406.294312</ele>
        <time>2009-06-14T10:53:22Z</time>
      </trkpt>
      <trkpt lat="44.29339" lon="5.2801">
        <ele>406.774902</ele>
        <time>2009-06-14T10:53:24Z</time>
      </trkpt>
      <trkpt lat="44.29259" lon="5.28058">
        <ele>407.736328</ele>
        <time>2009-06-14T10:53:33Z</time>
      </trkpt>
      <trkpt lat="44.29215" lon="5.28075">
        <ele>408.217041</ele>
        <time>2009-06-14T10:53:38Z</time>
      </trkpt>
      <trkpt lat="44.29164" lon="5.28088">
        <ele>409.178345</ele>
        <time>2009-06-14T10:53:44Z</time>
      </trkpt>
      <trkpt lat="44.29115" lon="5.28107">
        <ele>408.697632</ele>
        <time>2009-06-14T10:53:50Z</time>
      </trkpt>
      <trkpt lat="44.29063" lon="5.28117">
        <ele>409.178345</ele>
        <time>2009-06-14T10:53:56Z</time>
      </trkpt>
      <trkpt lat="44.29023" lon="5.28137">
        <ele>409.659058</ele>
        <time>2009-06-14T10:54:01Z</time>
      </trkpt>
      <trkpt lat="44.28968" lon="5.28162">
        <ele>410.139648</ele>
        <time>2009-06-14T10:54:08Z</time>
      </trkpt>
      <trkpt lat="44.28881" lon="5.28207">
        <ele>411.100952</ele>
        <time>2009-06-14T10:54:19Z</time>
      </trkpt>
      <trkpt lat="44.28822" lon="5.28241">
        <ele>407.736328</ele>
        <time>2009-06-14T10:54:27Z</time>
      </trkpt>
      <trkpt lat="44.28775" lon="5.2827">
        <ele>398.60376</ele>
        <time>2009-06-14T10:54:35Z</time>
      </trkpt>
      <trkpt lat="44.2872" lon="5.283">
        <ele>398.123169</ele>
        <time>2009-06-14T10:54:45Z</time>
      </trkpt>
      <trkpt lat="44.28684" lon="5.2831">
        <ele>398.123169</ele>
        <time>2009-06-14T10:54:51Z</time>
      </trkpt>
      <trkpt lat="44.28641" lon="5.28309">
        <ele>397.161743</ele>
        <time>2009-06-14T10:54:57Z</time>
      </trkpt>
      <trkpt lat="44.28633" lon="5.2831">
        <ele>396.681152</ele>
        <time>2009-06-14T10:54:58Z</time>
      </trkpt>
      <trkpt lat="44.28604" lon="5.28322">
        <ele>395.719849</ele>
        <time>2009-06-14T10:55:02Z</time>
      </trkpt>
      <trkpt lat="44.28556" lon="5.28356">
        <ele>395.239136</ele>
        <time>2009-06-14T10:55:09Z</time>
      </trkpt>
      <trkpt lat="44.28526" lon="5.28365">
        <ele>395.239136</ele>
        <time>2009-06-14T10:55:13Z</time>
      </trkpt>
      <trkpt lat="44.28452" lon="5.28363">
        <ele>394.758545</ele>
        <time>2009-06-14T10:55:23Z</time>
      </trkpt>
      <trkpt lat="44.28401" lon="5.28364">
        <ele>394.758545</ele>
        <time>2009-06-14T10:55:30Z</time>
      </trkpt>
      <trkpt lat="44.28369" lon="5.2836">
        <ele>393.797241</ele>
        <time>2009-06-14T10:55:34Z</time>
      </trkpt>
      <trkpt lat="44.28318" lon="5.28339">
        <ele>391.874512</ele>
        <time>2009-06-14T10:55:40Z</time>
      </trkpt>
      <trkpt lat="44.28251" lon="5.28307">
        <ele>387.548584</ele>
        <time>2009-06-14T10:55:48Z</time>
      </trkpt>
      <trkpt lat="44.28193" lon="5.28281">
        <ele>386.106689</ele>
        <time>2009-06-14T10:55:55Z</time>
      </trkpt>
      <trkpt lat="44.28161" lon="5.28265">
        <ele>385.625977</ele>
        <time>2009-06-14T10:55:59Z</time>
      </trkpt>
      <trkpt lat="44.28112" lon="5.28221">
        <ele>384.184082</ele>
        <time>2009-06-14T10:56:06Z</time>
      </trkpt>
      <trkpt lat="44.28093" lon="5.282">
        <ele>383.222656</ele>
        <time>2009-06-14T10:56:09Z</time>
      </trkpt>
      <trkpt lat="44.28074" lon="5.28157">
        <ele>381.78064</ele>
        <time>2009-06-14T10:56:14Z</time>
      </trkpt>
      <trkpt lat="44.2805" lon="5.2807">
        <ele>380.819458</ele>
        <time>2009-06-14T10:56:23Z</time>
      </trkpt>
      <trkpt lat="44.28029" lon="5.28006">
        <ele>380.338745</ele>
        <time>2009-06-14T10:56:30Z</time>
      </trkpt>
      <trkpt lat="44.28008" lon="5.27964">
        <ele>379.858032</ele>
        <time>2009-06-14T10:56:36Z</time>
      </trkpt>
      <trkpt lat="44.27992" lon="5.27932">
        <ele>378.896851</ele>
        <time>2009-06-14T10:56:41Z</time>
      </trkpt>
      <trkpt lat="44.27966" lon="5.27907">
        <ele>377.935425</ele>
        <time>2009-06-14T10:56:46Z</time>
      </trkpt>
      <trkpt lat="44.27959" lon="5.27905">
        <ele>377.935425</ele>
        <time>2009-06-14T10:56:47Z</time>
      </trkpt>
      <trkpt lat="44.27946" lon="5.27902">
        <ele>376.974243</ele>
        <time>2009-06-14T10:56:49Z</time>
      </trkpt>
      <trkpt lat="44.27925" lon="5.27891">
        <ele>376.49353</ele>
        <time>2009-06-14T10:56:52Z</time>
      </trkpt>
      <trkpt lat="44.27874" lon="5.27842">
        <ele>374.090088</ele>
        <time>2009-06-14T10:57:00Z</time>
      </trkpt>
      <trkpt lat="44.27817" lon="5.27785">
        <ele>371.206299</ele>
        <time>2009-06-14T10:57:09Z</time>
      </trkpt>
      <trkpt lat="44.27773" lon="5.2774">
        <ele>368.802979</ele>
        <time>2009-06-14T10:57:17Z</time>
      </trkpt>
      <trkpt lat="44.27713" lon="5.27681">
        <ele>367.841553</ele>
        <time>2009-06-14T10:57:28Z</time>
      </trkpt>
      <trkpt lat="44.27684" lon="5.27652">
        <ele>367.841553</ele>
        <time>2009-06-14T10:57:34Z</time>
      </trkpt>
      <trkpt lat="44.27651" lon="5.27619">
        <ele>370.244873</ele>
        <time>2009-06-14T10:57:41Z</time>
      </trkpt>
      <trkpt lat="44.27641" lon="5.27608">
        <ele>370.725586</ele>
        <time>2009-06-14T10:57:44Z</time>
      </trkpt>
      <trkpt lat="44.27635" lon="5.27602">
        <ele>370.725586</ele>
        <time>2009-06-14T10:57:47Z</time>
      </trkpt>
      <trkpt lat="44.27622" lon="5.27595">
        <ele>372.648193</ele>
        <time>2009-06-14T10:57:56Z</time>
      </trkpt>
      <trkpt lat="44.27618" lon="5.27595">
        <ele>375.051514</ele>
        <time>2009-06-14T10:58:02Z</time>
      </trkpt>
      <trkpt lat="44.27616" lon="5.27599">
        <ele>381.78064</ele>
        <time>2009-06-14T10:58:25Z</time>
      </trkpt>
      <trkpt lat="44.27617" lon="5.27599">
        <ele>380.338745</ele>
        <time>2009-06-14T10:58:27Z</time>
      </trkpt>
      <trkpt lat="44.27623" lon="5.27599">
        <ele>379.858032</ele>
        <time>2009-06-14T10:58:32Z</time>
      </trkpt>
      <trkpt lat="44.27629" lon="5.27595">
        <ele>377.454834</ele>
        <time>2009-06-14T10:58:35Z</time>
      </trkpt>
      <trkpt lat="44.27633" lon="5.27577">
        <ele>375.532104</ele>
        <time>2009-06-14T10:58:40Z</time>
      </trkpt>
      <trkpt lat="44.27638" lon="5.27543">
        <ele>376.012817</ele>
        <time>2009-06-14T10:58:46Z</time>
      </trkpt>
      <trkpt lat="44.27647" lon="5.27516">
        <ele>368.322266</ele>
        <time>2009-06-14T10:58:51Z</time>
      </trkpt>
      <trkpt lat="44.27658" lon="5.27473">
        <ele>367.360962</ele>
        <time>2009-06-14T10:58:58Z</time>
      </trkpt>
      <trkpt lat="44.27665" lon="5.27424">
        <ele>369.283691</ele>
        <time>2009-06-14T10:59:06Z</time>
      </trkpt>
      <trkpt lat="44.27661" lon="5.27382">
        <ele>374.570801</ele>
        <time>2009-06-14T10:59:12Z</time>
      </trkpt>
      <trkpt lat="44.27656" lon="5.27333">
        <ele>376.974243</ele>
        <time>2009-06-14T10:59:19Z</time>
      </trkpt>
      <trkpt lat="44.27655" lon="5.27327">
        <ele>377.454834</ele>
        <time>2009-06-14T10:59:20Z</time>
      </trkpt>
      <trkpt lat="44.27647" lon="5.27301">
        <ele>376.974243</ele>
        <time>2009-06-14T10:59:24Z</time>
      </trkpt>
      <trkpt lat="44.27625" lon="5.27258">
        <ele>384.664795</ele>
        <time>2009-06-14T10:59:31Z</time>
      </trkpt>
      <trkpt lat="44.27598" lon="5.27222">
        <ele>386.106689</ele>
        <time>2009-06-14T10:59:37Z</time>
      </trkpt>
      <trkpt lat="44.27573" lon="5.27206">
        <ele>381.78064</ele>
        <time>2009-06-14T10:59:42Z</time>
      </trkpt>
      <trkpt lat="44.27556" lon="5.27211">
        <ele>380.819458</ele>
        <time>2009-06-14T10:59:45Z</time>
      </trkpt>
      <trkpt lat="44.27518" lon="5.27224">
        <ele>376.49353</ele>
        <time>2009-06-14T10:59:52Z</time>
      </trkpt>
      <trkpt lat="44.27501" lon="5.27222">
        <ele>374.570801</ele>
        <time>2009-06-14T10:59:57Z</time>
      </trkpt>
      <trkpt lat="44.27498" lon="5.27215">
        <ele>373.609497</ele>
        <time>2009-06-14T10:59:59Z</time>
      </trkpt>
      <trkpt lat="44.2749" lon="5.27182">
        <ele>370.725586</ele>
        <time>2009-06-14T11:00:07Z</time>
      </trkpt>
      <trkpt lat="44.27481" lon="5.27153">
        <ele>370.244873</ele>
        <time>2009-06-14T11:00:13Z</time>
      </trkpt>
      <trkpt lat="44.2746" lon="5.271">
        <ele>375.051514</ele>
        <time>2009-06-14T11:00:21Z</time>
      </trkpt>
      <trkpt lat="44.27436" lon="5.27049">
        <ele>374.570801</ele>
        <time>2009-06-14T11:00:28Z</time>
      </trkpt>
      <trkpt lat="44.27403" lon="5.26978">
        <ele>373.128906</ele>
        <time>2009-06-14T11:00:38Z</time>
      </trkpt>
      <trkpt lat="44.27378" lon="5.26922">
        <ele>374.090088</ele>
        <time>2009-06-14T11:00:45Z</time>
      </trkpt>
      <trkpt lat="44.2734" lon="5.26852">
        <ele>374.570801</ele>
        <time>2009-06-14T11:00:54Z</time>
      </trkpt>
      <trkpt lat="44.27301" lon="5.26802">
        <ele>372.16748</ele>
        <time>2009-06-14T11:01:01Z</time>
      </trkpt>
      <trkpt lat="44.27253" lon="5.26757">
        <ele>368.802979</ele>
        <time>2009-06-14T11:01:08Z</time>
      </trkpt>
      <trkpt lat="44.27191" lon="5.26694">
        <ele>365.918945</ele>
        <time>2009-06-14T11:01:17Z</time>
      </trkpt>
      <trkpt lat="44.27125" lon="5.26627">
        <ele>364.476929</ele>
        <time>2009-06-14T11:01:27Z</time>
      </trkpt>
      <trkpt lat="44.27063" lon="5.26566">
        <ele>363.515747</ele>
        <time>2009-06-14T11:01:36Z</time>
      </trkpt>
      <trkpt lat="44.26991" lon="5.26496">
        <ele>362.554321</ele>
        <time>2009-06-14T11:01:46Z</time>
      </trkpt>
      <trkpt lat="44.26926" lon="5.26435">
        <ele>361.59314</ele>
        <time>2009-06-14T11:01:55Z</time>
      </trkpt>
      <trkpt lat="44.26861" lon="5.26371">
        <ele>360.631714</ele>
        <time>2009-06-14T11:02:04Z</time>
      </trkpt>
      <trkpt lat="44.26813" lon="5.26322">
        <ele>360.151123</ele>
        <time>2009-06-14T11:02:11Z</time>
      </trkpt>
      <trkpt lat="44.26757" lon="5.26275">
        <ele>360.631714</ele>
        <time>2009-06-14T11:02:19Z</time>
      </trkpt>
      <trkpt lat="44.26694" lon="5.2623">
        <ele>361.112427</ele>
        <time>2009-06-14T11:02:28Z</time>
      </trkpt>
      <trkpt lat="44.2663" lon="5.26195">
        <ele>359.67041</ele>
        <time>2009-06-14T11:02:36Z</time>
      </trkpt>
      <trkpt lat="44.26573" lon="5.26169">
        <ele>358.708984</ele>
        <time>2009-06-14T11:02:43Z</time>
      </trkpt>
      <trkpt lat="44.26545" lon="5.26151">
        <ele>358.228394</ele>
        <time>2009-06-14T11:02:47Z</time>
      </trkpt>
      <trkpt lat="44.26498" lon="5.2614">
        <ele>357.747803</ele>
        <time>2009-06-14T11:02:53Z</time>
      </trkpt>
      <trkpt lat="44.26465" lon="5.26137">
        <ele>357.26709</ele>
        <time>2009-06-14T11:02:57Z</time>
      </trkpt>
      <trkpt lat="44.26408" lon="5.26149">
        <ele>356.786377</ele>
        <time>2009-06-14T11:03:04Z</time>
      </trkpt>
      <trkpt lat="44.26348" lon="5.26162">
        <ele>356.786377</ele>
        <time>2009-06-14T11:03:11Z</time>
      </trkpt>
      <trkpt lat="44.26293" lon="5.26177">
        <ele>355.344482</ele>
        <time>2009-06-14T11:03:17Z</time>
      </trkpt>
      <trkpt lat="44.26244" lon="5.26177">
        <ele>354.383179</ele>
        <time>2009-06-14T11:03:22Z</time>
      </trkpt>
      <trkpt lat="44.26205" lon="5.26163">
        <ele>353.902588</ele>
        <time>2009-06-14T11:03:26Z</time>
      </trkpt>
      <trkpt lat="44.26144" lon="5.26124">
        <ele>354.383179</ele>
        <time>2009-06-14T11:03:33Z</time>
      </trkpt>
      <trkpt lat="44.26074" lon="5.26072">
        <ele>352.941162</ele>
        <time>2009-06-14T11:03:42Z</time>
      </trkpt>
      <trkpt lat="44.26018" lon="5.2604">
        <ele>350.537842</ele>
        <time>2009-06-14T11:03:49Z</time>
      </trkpt>
      <trkpt lat="44.25949" lon="5.26015">
        <ele>349.576538</ele>
        <time>2009-06-14T11:03:57Z</time>
      </trkpt>
      <trkpt lat="44.25899" lon="5.25991">
        <ele>348.615234</ele>
        <time>2009-06-14T11:04:03Z</time>
      </trkpt>
      <trkpt lat="44.25851" lon="5.25947">
        <ele>346.692627</ele>
        <time>2009-06-14T11:04:09Z</time>
      </trkpt>
      <trkpt lat="44.25801" lon="5.2588">
        <ele>344.77002</ele>
        <time>2009-06-14T11:04:16Z</time>
      </trkpt>
      <trkpt lat="44.2575" lon="5.25806">
        <ele>343.808594</ele>
        <time>2009-06-14T11:04:24Z</time>
      </trkpt>
      <trkpt lat="44.25695" lon="5.25729">
        <ele>344.289429</ele>
        <time>2009-06-14T11:04:33Z</time>
      </trkpt>
      <trkpt lat="44.25641" lon="5.2566">
        <ele>347.173218</ele>
        <time>2009-06-14T11:04:42Z</time>
      </trkpt>
      <trkpt lat="44.25591" lon="5.25596">
        <ele>349.576538</ele>
        <time>2009-06-14T11:04:51Z</time>
      </trkpt>
      <trkpt lat="44.25539" lon="5.25534">
        <ele>350.057251</ele>
        <time>2009-06-14T11:05:00Z</time>
      </trkpt>
      <trkpt lat="44.25483" lon="5.25479">
        <ele>349.095825</ele>
        <time>2009-06-14T11:05:09Z</time>
      </trkpt>
      <trkpt lat="44.25428" lon="5.25442">
        <ele>346.212036</ele>
        <time>2009-06-14T11:05:17Z</time>
      </trkpt>
      <trkpt lat="44.25379" lon="5.25419">
        <ele>344.77002</ele>
        <time>2009-06-14T11:05:24Z</time>
      </trkpt>
      <trkpt lat="44.25354" lon="5.25433">
        <ele>344.77002</ele>
        <time>2009-06-14T11:05:28Z</time>
      </trkpt>
      <trkpt lat="44.25322" lon="5.25489">
        <ele>344.289429</ele>
        <time>2009-06-14T11:05:35Z</time>
      </trkpt>
      <trkpt lat="44.25308" lon="5.25511">
        <ele>344.289429</ele>
        <time>2009-06-14T11:05:38Z</time>
      </trkpt>
      <trkpt lat="44.25278" lon="5.25537">
        <ele>342.84729</ele>
        <time>2009-06-14T11:05:43Z</time>
      </trkpt>
      <trkpt lat="44.25214" lon="5.25561">
        <ele>339.482666</ele>
        <time>2009-06-14T11:05:52Z</time>
      </trkpt>
      <trkpt lat="44.25165" lon="5.25568">
        <ele>339.002075</ele>
        <time>2009-06-14T11:05:59Z</time>
      </trkpt>
      <trkpt lat="44.25128" lon="5.25556">
        <ele>339.482666</ele>
        <time>2009-06-14T11:06:05Z</time>
      </trkpt>
      <trkpt lat="44.25095" lon="5.25532">
        <ele>339.482666</ele>
        <time>2009-06-14T11:06:11Z</time>
      </trkpt>
      <trkpt lat="44.25065" lon="5.25525">
        <ele>340.444092</ele>
        <time>2009-06-14T11:06:16Z</time>
      </trkpt>
      <trkpt lat="44.25058" lon="5.25526">
        <ele>340.924683</ele>
        <time>2009-06-14T11:06:17Z</time>
      </trkpt>
      <trkpt lat="44.25009" lon="5.25547">
        <ele>345.25061</ele>
        <time>2009-06-14T11:06:25Z</time>
      </trkpt>
      <trkpt lat="44.24985" lon="5.25574">
        <ele>347.173218</ele>
        <time>2009-06-14T11:06:30Z</time>
      </trkpt>
      <trkpt lat="44.24963" lon="5.25628">
        <ele>349.576538</ele>
        <time>2009-06-14T11:06:37Z</time>
      </trkpt>
      <trkpt lat="44.2495" lon="5.2569">
        <ele>350.537842</ele>
        <time>2009-06-14T11:06:44Z</time>
      </trkpt>
      <trkpt lat="44.24939" lon="5.25773">
        <ele>351.499146</ele>
        <time>2009-06-14T11:06:53Z</time>
      </trkpt>
      <trkpt lat="44.24932" lon="5.25858">
        <ele>351.499146</ele>
        <time>2009-06-14T11:07:02Z</time>
      </trkpt>
      <trkpt lat="44.24926" lon="5.25951">
        <ele>350.057251</ele>
        <time>2009-06-14T11:07:12Z</time>
      </trkpt>
      <trkpt lat="44.24914" lon="5.26049">
        <ele>352.460571</ele>
        <time>2009-06-14T11:07:23Z</time>
      </trkpt>
      <trkpt lat="44.24905" lon="5.26127">
        <ele>354.383179</ele>
        <time>2009-06-14T11:07:32Z</time>
      </trkpt>
      <trkpt lat="44.24894" lon="5.26186">
        <ele>355.825195</ele>
        <time>2009-06-14T11:07:39Z</time>
      </trkpt>
      <trkpt lat="44.24876" lon="5.26255">
        <ele>357.26709</ele>
        <time>2009-06-14T11:07:47Z</time>
      </trkpt>
      <trkpt lat="44.2486" lon="5.2633">
        <ele>358.228394</ele>
        <time>2009-06-14T11:07:55Z</time>
      </trkpt>
      <trkpt lat="44.24842" lon="5.26382">
        <ele>360.151123</ele>
        <time>2009-06-14T11:08:01Z</time>
      </trkpt>
      <trkpt lat="44.24812" lon="5.26434">
        <ele>362.554321</ele>
        <time>2009-06-14T11:08:08Z</time>
      </trkpt>
      <trkpt lat="44.24795" lon="5.26476">
        <ele>363.035034</ele>
        <time>2009-06-14T11:08:13Z</time>
      </trkpt>
      <trkpt lat="44.24774" lon="5.26534">
        <ele>364.476929</ele>
        <time>2009-06-14T11:08:20Z</time>
      </trkpt>
      <trkpt lat="44.24753" lon="5.26595">
        <ele>364.476929</ele>
        <time>2009-06-14T11:08:28Z</time>
      </trkpt>
      <trkpt lat="44.24738" lon="5.26643">
        <ele>362.07373</ele>
        <time>2009-06-14T11:08:35Z</time>
      </trkpt>
      <trkpt lat="44.2472" lon="5.26703">
        <ele>365.918945</ele>
        <time>2009-06-14T11:08:43Z</time>
      </trkpt>
      <trkpt lat="44.24705" lon="5.26732">
        <ele>368.322266</ele>
        <time>2009-06-14T11:08:48Z</time>
      </trkpt>
      <trkpt lat="44.24673" lon="5.26789">
        <ele>376.974243</ele>
        <time>2009-06-14T11:08:56Z</time>
      </trkpt>
      <trkpt lat="44.24643" lon="5.26851">
        <ele>380.338745</ele>
        <time>2009-06-14T11:09:05Z</time>
      </trkpt>
      <trkpt lat="44.24607" lon="5.26928">
        <ele>383.222656</ele>
        <time>2009-06-14T11:09:15Z</time>
      </trkpt>
      <trkpt lat="44.24576" lon="5.26994">
        <ele>384.664795</ele>
        <time>2009-06-14T11:09:24Z</time>
      </trkpt>
      <trkpt lat="44.24545" lon="5.27061">
        <ele>384.664795</ele>
        <time>2009-06-14T11:09:33Z</time>
      </trkpt>
      <trkpt lat="44.24504" lon="5.27154">
        <ele>384.664795</ele>
        <time>2009-06-14T11:09:45Z</time>
      </trkpt>
      <trkpt lat="44.24479" lon="5.2722">
        <ele>385.145386</ele>
        <time>2009-06-14T11:09:53Z</time>
      </trkpt>
      <trkpt lat="44.24457" lon="5.27307">
        <ele>388.990601</ele>
        <time>2009-06-14T11:10:03Z</time>
      </trkpt>
      <trkpt lat="44.2443" lon="5.27364">
        <ele>390.432617</ele>
        <time>2009-06-14T11:10:10Z</time>
      </trkpt>
      <trkpt lat="44.2438" lon="5.27444">
        <ele>390.432617</ele>
        <time>2009-06-14T11:10:21Z</time>
      </trkpt>
      <trkpt lat="44.24336" lon="5.27511">
        <ele>390.913208</ele>
        <time>2009-06-14T11:10:30Z</time>
      </trkpt>
      <trkpt lat="44.24325" lon="5.27524">
        <ele>390.913208</ele>
        <time>2009-06-14T11:10:32Z</time>
      </trkpt>
      <trkpt lat="44.24295" lon="5.27546">
        <ele>389.471191</ele>
        <time>2009-06-14T11:10:37Z</time>
      </trkpt>
      <trkpt lat="44.24289" lon="5.27547">
        <ele>388.990601</ele>
        <time>2009-06-14T11:10:38Z</time>
      </trkpt>
      <trkpt lat="44.24239" lon="5.27553">
        <ele>387.548584</ele>
        <time>2009-06-14T11:10:45Z</time>
      </trkpt>
      <trkpt lat="44.24196" lon="5.27565">
        <ele>386.587402</ele>
        <time>2009-06-14T11:10:51Z</time>
      </trkpt>
      <trkpt lat="44.24162" lon="5.27581">
        <ele>384.184082</ele>
        <time>2009-06-14T11:10:56Z</time>
      </trkpt>
      <trkpt lat="44.24135" lon="5.27614">
        <ele>383.703247</ele>
        <time>2009-06-14T11:11:01Z</time>
      </trkpt>
      <trkpt lat="44.24128" lon="5.27631">
        <ele>384.184082</ele>
        <time>2009-06-14T11:11:03Z</time>
      </trkpt>
      <trkpt lat="44.24112" lon="5.27702">
        <ele>387.067993</ele>
        <time>2009-06-14T11:11:10Z</time>
      </trkpt>
      <trkpt lat="44.24094" lon="5.2778">
        <ele>384.184082</ele>
        <time>2009-06-14T11:11:18Z</time>
      </trkpt>
      <trkpt lat="44.24077" lon="5.27851">
        <ele>386.106689</ele>
        <time>2009-06-14T11:11:26Z</time>
      </trkpt>
      <trkpt lat="44.24058" lon="5.27924">
        <ele>387.067993</ele>
        <time>2009-06-14T11:11:35Z</time>
      </trkpt>
      <trkpt lat="44.24038" lon="5.27992">
        <ele>386.106689</ele>
        <time>2009-06-14T11:11:43Z</time>
      </trkpt>
      <trkpt lat="44.24026" lon="5.28012">
        <ele>385.145386</ele>
        <time>2009-06-14T11:11:46Z</time>
      </trkpt>
      <trkpt lat="44.23994" lon="5.28038">
        <ele>384.664795</ele>
        <time>2009-06-14T11:11:52Z</time>
      </trkpt>
      <trkpt lat="44.23946" lon="5.28076">
        <ele>386.106689</ele>
        <time>2009-06-14T11:12:00Z</time>
      </trkpt>
      <trkpt lat="44.23899" lon="5.2811">
        <ele>388.51001</ele>
        <time>2009-06-14T11:12:08Z</time>
      </trkpt>
      <trkpt lat="44.2388" lon="5.2814">
        <ele>389.951904</ele>
        <time>2009-06-14T11:12:13Z</time>
      </trkpt>
      <trkpt lat="44.23871" lon="5.2817">
        <ele>388.990601</ele>
        <time>2009-06-14T11:12:17Z</time>
      </trkpt>
      <trkpt lat="44.23859" lon="5.28234">
        <ele>396.200562</ele>
        <time>2009-06-14T11:12:26Z</time>
      </trkpt>
      <trkpt lat="44.23845" lon="5.28271">
        <ele>400.045898</ele>
        <time>2009-06-14T11:12:32Z</time>
      </trkpt>
      <trkpt lat="44.2382" lon="5.28325">
        <ele>404.852295</ele>
        <time>2009-06-14T11:12:41Z</time>
      </trkpt>
      <trkpt lat="44.23803" lon="5.28369">
        <ele>407.736328</ele>
        <time>2009-06-14T11:12:48Z</time>
      </trkpt>
      <trkpt lat="44.23782" lon="5.28419">
        <ele>411.581665</ele>
        <time>2009-06-14T11:12:56Z</time>
      </trkpt>
      <trkpt lat="44.23759" lon="5.28467">
        <ele>413.504272</ele>
        <time>2009-06-14T11:13:04Z</time>
      </trkpt>
      <trkpt lat="44.23731" lon="5.28503">
        <ele>416.388184</ele>
        <time>2009-06-14T11:13:11Z</time>
      </trkpt>
      <trkpt lat="44.23695" lon="5.28547">
        <ele>417.8302</ele>
        <time>2009-06-14T11:13:19Z</time>
      </trkpt>
      <trkpt lat="44.23657" lon="5.28594">
        <ele>417.349609</ele>
        <time>2009-06-14T11:13:26Z</time>
      </trkpt>
      <trkpt lat="44.2363" lon="5.28608">
        <ele>417.8302</ele>
        <time>2009-06-14T11:13:30Z</time>
      </trkpt>
      <trkpt lat="44.23615" lon="5.28606">
        <ele>417.349609</ele>
        <time>2009-06-14T11:13:32Z</time>
      </trkpt>
      <trkpt lat="44.23573" lon="5.28598">
        <ele>416.868896</ele>
        <time>2009-06-14T11:13:38Z</time>
      </trkpt>
      <trkpt lat="44.2354" lon="5.28608">
        <ele>417.349609</ele>
        <time>2009-06-14T11:13:43Z</time>
      </trkpt>
      <trkpt lat="44.23494" lon="5.28637">
        <ele>418.791504</ele>
        <time>2009-06-14T11:13:51Z</time>
      </trkpt>
      <trkpt lat="44.2344" lon="5.28686">
        <ele>420.233398</ele>
        <time>2009-06-14T11:14:01Z</time>
      </trkpt>
      <trkpt lat="44.23413" lon="5.28723">
        <ele>416.868896</ele>
        <time>2009-06-14T11:14:07Z</time>
      </trkpt>
      <trkpt lat="44.23382" lon="5.28786">
        <ele>416.388184</ele>
        <time>2009-06-14T11:14:15Z</time>
      </trkpt>
      <trkpt lat="44.23341" lon="5.28874">
        <ele>410.139648</ele>
        <time>2009-06-14T11:14:25Z</time>
      </trkpt>
      <trkpt lat="44.23305" lon="5.28956">
        <ele>400.526489</ele>
        <time>2009-06-14T11:14:34Z</time>
      </trkpt>
      <trkpt lat="44.2327" lon="5.2902">
        <ele>401.968506</ele>
        <time>2009-06-14T11:14:42Z</time>
      </trkpt>
      <trkpt lat="44.23245" lon="5.29065">
        <ele>402.929688</ele>
        <time>2009-06-14T11:14:48Z</time>
      </trkpt>
      <trkpt lat="44.23215" lon="5.2915">
        <ele>406.294312</ele>
        <time>2009-06-14T11:14:58Z</time>
      </trkpt>
      <trkpt lat="44.23195" lon="5.29208">
        <ele>407.736328</ele>
        <time>2009-06-14T11:15:05Z</time>
      </trkpt>
      <trkpt lat="44.23168" lon="5.29291">
        <ele>408.697632</ele>
        <time>2009-06-14T11:15:15Z</time>
      </trkpt>
      <trkpt lat="44.23159" lon="5.29342">
        <ele>410.620239</ele>
        <time>2009-06-14T11:15:21Z</time>
      </trkpt>
      <trkpt lat="44.23154" lon="5.29401">
        <ele>411.581665</ele>
        <time>2009-06-14T11:15:28Z</time>
      </trkpt>
      <trkpt lat="44.23149" lon="5.29469">
        <ele>413.02356</ele>
        <time>2009-06-14T11:15:36Z</time>
      </trkpt>
      <trkpt lat="44.23147" lon="5.29484">
        <ele>413.504272</ele>
        <time>2009-06-14T11:15:38Z</time>
      </trkpt>
      <trkpt lat="44.23129" lon="5.29526">
        <ele>415.907471</ele>
        <time>2009-06-14T11:15:44Z</time>
      </trkpt>
      <trkpt lat="44.23122" lon="5.29541">
        <ele>417.349609</ele>
        <time>2009-06-14T11:15:46Z</time>
      </trkpt>
      <trkpt lat="44.23113" lon="5.29583">
        <ele>413.504272</ele>
        <time>2009-06-14T11:15:51Z</time>
      </trkpt>
      <trkpt lat="44.23115" lon="5.29608">
        <ele>413.504272</ele>
        <time>2009-06-14T11:15:54Z</time>
      </trkpt>
      <trkpt lat="44.2312" lon="5.29644">
        <ele>413.504272</ele>
        <time>2009-06-14T11:15:58Z</time>
      </trkpt>
      <trkpt lat="44.23111" lon="5.2969">
        <ele>413.504272</ele>
        <time>2009-06-14T11:16:03Z</time>
      </trkpt>
      <trkpt lat="44.23108" lon="5.29698">
        <ele>413.504272</ele>
        <time>2009-06-14T11:16:04Z</time>
      </trkpt>
      <trkpt lat="44.23072" lon="5.2976">
        <ele>415.42688</ele>
        <time>2009-06-14T11:16:13Z</time>
      </trkpt>
      <trkpt lat="44.23026" lon="5.29818">
        <ele>417.8302</ele>
        <time>2009-06-14T11:16:23Z</time>
      </trkpt>
      <trkpt lat="44.23002" lon="5.2987">
        <ele>419.752808</ele>
        <time>2009-06-14T11:16:30Z</time>
      </trkpt>
      <trkpt lat="44.22995" lon="5.29885">
        <ele>420.714111</ele>
        <time>2009-06-14T11:16:32Z</time>
      </trkpt>
      <trkpt lat="44.22967" lon="5.29908">
        <ele>421.194824</ele>
        <time>2009-06-14T11:16:37Z</time>
      </trkpt>
      <trkpt lat="44.22953" lon="5.29908">
        <ele>421.675415</ele>
        <time>2009-06-14T11:16:39Z</time>
      </trkpt>
      <trkpt lat="44.22902" lon="5.29901">
        <ele>424.078735</ele>
        <time>2009-06-14T11:16:46Z</time>
      </trkpt>
      <trkpt lat="44.22845" lon="5.29898">
        <ele>424.078735</ele>
        <time>2009-06-14T11:16:54Z</time>
      </trkpt>
      <trkpt lat="44.22818" lon="5.29915">
        <ele>423.598022</ele>
        <time>2009-06-14T11:16:59Z</time>
      </trkpt>
      <trkpt lat="44.22786" lon="5.29964">
        <ele>424.559448</ele>
        <time>2009-06-14T11:17:07Z</time>
      </trkpt>
      <trkpt lat="44.22742" lon="5.30039">
        <ele>427.443359</ele>
        <time>2009-06-14T11:17:19Z</time>
      </trkpt>
      <trkpt lat="44.22699" lon="5.30112">
        <ele>430.327271</ele>
        <time>2009-06-14T11:17:30Z</time>
      </trkpt>
      <trkpt lat="44.22648" lon="5.302">
        <ele>433.691895</ele>
        <time>2009-06-14T11:17:43Z</time>
      </trkpt>
      <trkpt lat="44.22613" lon="5.3026">
        <ele>437.056519</ele>
        <time>2009-06-14T11:17:52Z</time>
      </trkpt>
      <trkpt lat="44.22587" lon="5.30302">
        <ele>438.979126</ele>
        <time>2009-06-14T11:17:59Z</time>
      </trkpt>
      <trkpt lat="44.22556" lon="5.30332">
        <ele>439.459717</ele>
        <time>2009-06-14T11:18:06Z</time>
      </trkpt>
      <trkpt lat="44.22535" lon="5.30345">
        <ele>440.421265</ele>
        <time>2009-06-14T11:18:10Z</time>
      </trkpt>
      <trkpt lat="44.22502" lon="5.3035">
        <ele>441.382446</ele>
        <time>2009-06-14T11:18:16Z</time>
      </trkpt>
      <trkpt lat="44.2247" lon="5.30345">
        <ele>442.824463</ele>
        <time>2009-06-14T11:18:22Z</time>
      </trkpt>
      <trkpt lat="44.22446" lon="5.30358">
        <ele>442.824463</ele>
        <time>2009-06-14T11:18:27Z</time>
      </trkpt>
      <trkpt lat="44.22434" lon="5.30384">
        <ele>442.343872</ele>
        <time>2009-06-14T11:18:31Z</time>
      </trkpt>
      <trkpt lat="44.22431" lon="5.30417">
        <ele>440.901855</ele>
        <time>2009-06-14T11:18:35Z</time>
      </trkpt>
      <trkpt lat="44.22434" lon="5.30432">
        <ele>440.901855</ele>
        <time>2009-06-14T11:18:37Z</time>
      </trkpt>
      <trkpt lat="44.22462" lon="5.30506">
        <ele>444.266479</ele>
        <time>2009-06-14T11:18:48Z</time>
      </trkpt>
      <trkpt lat="44.22476" lon="5.30549">
        <ele>445.227661</ele>
        <time>2009-06-14T11:18:54Z</time>
      </trkpt>
      <trkpt lat="44.22476" lon="5.30586">
        <ele>449.072998</ele>
        <time>2009-06-14T11:18:59Z</time>
      </trkpt>
      <trkpt lat="44.22463" lon="5.30611">
        <ele>450.515015</ele>
        <time>2009-06-14T11:19:03Z</time>
      </trkpt>
      <trkpt lat="44.22438" lon="5.3063">
        <ele>450.034424</ele>
        <time>2009-06-14T11:19:08Z</time>
      </trkpt>
      <trkpt lat="44.22425" lon="5.30634">
        <ele>448.111816</ele>
        <time>2009-06-14T11:19:10Z</time>
      </trkpt>
      <trkpt lat="44.22374" lon="5.30646">
        <ele>447.630981</ele>
        <time>2009-06-14T11:19:19Z</time>
      </trkpt>
      <trkpt lat="44.22356" lon="5.30662">
        <ele>448.592407</ele>
        <time>2009-06-14T11:19:23Z</time>
      </trkpt>
      <trkpt lat="44.22346" lon="5.30693">
        <ele>450.034424</ele>
        <time>2009-06-14T11:19:28Z</time>
      </trkpt>
      <trkpt lat="44.22356" lon="5.30719">
        <ele>449.553711</ele>
        <time>2009-06-14T11:19:32Z</time>
      </trkpt>
      <trkpt lat="44.22362" lon="5.3073">
        <ele>449.553711</ele>
        <time>2009-06-14T11:19:34Z</time>
      </trkpt>
      <trkpt lat="44.22365" lon="5.3076">
        <ele>452.437622</ele>
        <time>2009-06-14T11:19:38Z</time>
      </trkpt>
      <trkpt lat="44.22352" lon="5.30774">
        <ele>453.398926</ele>
        <time>2009-06-14T11:19:41Z</time>
      </trkpt>
      <trkpt lat="44.2234" lon="5.30779">
        <ele>454.360229</ele>
        <time>2009-06-14T11:19:43Z</time>
      </trkpt>
      <trkpt lat="44.22289" lon="5.30791">
        <ele>457.724976</ele>
        <time>2009-06-14T11:19:51Z</time>
      </trkpt>
      <trkpt lat="44.22231" lon="5.30812">
        <ele>458.205566</ele>
        <time>2009-06-14T11:20:01Z</time>
      </trkpt>
      <trkpt lat="44.2222" lon="5.30818">
        <ele>458.686157</ele>
        <time>2009-06-14T11:20:03Z</time>
      </trkpt>
      <trkpt lat="44.22199" lon="5.30844">
        <ele>457.724976</ele>
        <time>2009-06-14T11:20:08Z</time>
      </trkpt>
      <trkpt lat="44.22174" lon="5.30892">
        <ele>459.16687</ele>
        <time>2009-06-14T11:20:16Z</time>
      </trkpt>
      <trkpt lat="44.22144" lon="5.30924">
        <ele>462.050781</ele>
        <time>2009-06-14T11:20:24Z</time>
      </trkpt>
      <trkpt lat="44.22121" lon="5.30944">
        <ele>463.492798</ele>
        <time>2009-06-14T11:20:30Z</time>
      </trkpt>
      <trkpt lat="44.22093" lon="5.30952">
        <ele>463.973389</ele>
        <time>2009-06-14T11:20:36Z</time>
      </trkpt>
      <trkpt lat="44.22082" lon="5.30953">
        <ele>464.454102</ele>
        <time>2009-06-14T11:20:38Z</time>
      </trkpt>
      <trkpt lat="44.22058" lon="5.30946">
        <ele>465.896118</ele>
        <time>2009-06-14T11:20:43Z</time>
      </trkpt>
      <trkpt lat="44.22027" lon="5.30922">
        <ele>468.299316</ele>
        <time>2009-06-14T11:20:50Z</time>
      </trkpt>
      <trkpt lat="44.21981" lon="5.30897">
        <ele>471.18335</ele>
        <time>2009-06-14T11:21:00Z</time>
      </trkpt>
      <trkpt lat="44.21957" lon="5.3087">
        <ele>471.66394</ele>
        <time>2009-06-14T11:21:06Z</time>
      </trkpt>
      <trkpt lat="44.21934" lon="5.30857">
        <ele>474.067261</ele>
        <time>2009-06-14T11:21:11Z</time>
      </trkpt>
      <trkpt lat="44.21883" lon="5.30844">
        <ele>474.547974</ele>
        <time>2009-06-14T11:21:21Z</time>
      </trkpt>
      <trkpt lat="44.21859" lon="5.30831">
        <ele>477.912476</ele>
        <time>2009-06-14T11:21:26Z</time>
      </trkpt>
      <trkpt lat="44.21842" lon="5.30804">
        <ele>477.912476</ele>
        <time>2009-06-14T11:21:31Z</time>
      </trkpt>
      <trkpt lat="44.21841" lon="5.30797">
        <ele>478.393188</ele>
        <time>2009-06-14T11:21:32Z</time>
      </trkpt>
      <trkpt lat="44.21825" lon="5.30762">
        <ele>478.393188</ele>
        <time>2009-06-14T11:21:38Z</time>
      </trkpt>
      <trkpt lat="44.21816" lon="5.30757">
        <ele>479.354492</ele>
        <time>2009-06-14T11:21:40Z</time>
      </trkpt>
      <trkpt lat="44.21788" lon="5.30744">
        <ele>481.277222</ele>
        <time>2009-06-14T11:21:46Z</time>
      </trkpt>
      <trkpt lat="44.21765" lon="5.30741">
        <ele>482.238525</ele>
        <time>2009-06-14T11:21:51Z</time>
      </trkpt>
      <trkpt lat="44.21743" lon="5.30755">
        <ele>483.199829</ele>
        <time>2009-06-14T11:21:56Z</time>
      </trkpt>
      <trkpt lat="44.2174" lon="5.30776">
        <ele>484.161133</ele>
        <time>2009-06-14T11:21:59Z</time>
      </trkpt>
      <trkpt lat="44.21742" lon="5.30789">
        <ele>484.641846</ele>
        <time>2009-06-14T11:22:01Z</time>
      </trkpt>
      <trkpt lat="44.21744" lon="5.30802">
        <ele>485.122437</ele>
        <time>2009-06-14T11:22:03Z</time>
      </trkpt>
      <trkpt lat="44.21743" lon="5.30854">
        <ele>487.045044</ele>
        <time>2009-06-14T11:22:10Z</time>
      </trkpt>
      <trkpt lat="44.21743" lon="5.30861">
        <ele>487.525635</ele>
        <time>2009-06-14T11:22:11Z</time>
      </trkpt>
      <trkpt lat="44.21752" lon="5.30894">
        <ele>489.448364</ele>
        <time>2009-06-14T11:22:16Z</time>
      </trkpt>
      <trkpt lat="44.21766" lon="5.309">
        <ele>490.40979</ele>
        <time>2009-06-14T11:22:19Z</time>
      </trkpt>
      <trkpt lat="44.21777" lon="5.30902">
        <ele>491.851685</ele>
        <time>2009-06-14T11:22:21Z</time>
      </trkpt>
      <trkpt lat="44.21794" lon="5.30919">
        <ele>489.929077</ele>
        <time>2009-06-14T11:22:25Z</time>
      </trkpt>
      <trkpt lat="44.21798" lon="5.30932">
        <ele>490.40979</ele>
        <time>2009-06-14T11:22:27Z</time>
      </trkpt>
      <trkpt lat="44.21805" lon="5.30958">
        <ele>492.332397</ele>
        <time>2009-06-14T11:22:31Z</time>
      </trkpt>
      <trkpt lat="44.21812" lon="5.30989">
        <ele>493.293579</ele>
        <time>2009-06-14T11:22:36Z</time>
      </trkpt>
      <trkpt lat="44.21819" lon="5.31007">
        <ele>493.774292</ele>
        <time>2009-06-14T11:22:39Z</time>
      </trkpt>
      <trkpt lat="44.2184" lon="5.31035">
        <ele>495.216187</ele>
        <time>2009-06-14T11:22:45Z</time>
      </trkpt>
      <trkpt lat="44.21859" lon="5.3104">
        <ele>496.658325</ele>
        <time>2009-06-14T11:22:49Z</time>
      </trkpt>
      <trkpt lat="44.21896" lon="5.31037">
        <ele>497.619629</ele>
        <time>2009-06-14T11:22:56Z</time>
      </trkpt>
      <trkpt lat="44.21916" lon="5.31053">
        <ele>498.100342</ele>
        <time>2009-06-14T11:23:01Z</time>
      </trkpt>
      <trkpt lat="44.21918" lon="5.31058">
        <ele>499.061523</ele>
        <time>2009-06-14T11:23:02Z</time>
      </trkpt>
      <trkpt lat="44.21933" lon="5.31102">
        <ele>501.945557</ele>
        <time>2009-06-14T11:23:11Z</time>
      </trkpt>
      <trkpt lat="44.2193" lon="5.31127">
        <ele>503.387451</ele>
        <time>2009-06-14T11:23:16Z</time>
      </trkpt>
      <trkpt lat="44.21912" lon="5.31155">
        <ele>504.348877</ele>
        <time>2009-06-14T11:23:23Z</time>
      </trkpt>
      <trkpt lat="44.21894" lon="5.31179">
        <ele>505.310181</ele>
        <time>2009-06-14T11:23:29Z</time>
      </trkpt>
      <trkpt lat="44.21871" lon="5.31188">
        <ele>506.271484</ele>
        <time>2009-06-14T11:23:35Z</time>
      </trkpt>
      <trkpt lat="44.21867" lon="5.31187">
        <ele>506.271484</ele>
        <time>2009-06-14T11:23:36Z</time>
      </trkpt>
      <trkpt lat="44.21827" lon="5.31171">
        <ele>507.713501</ele>
        <time>2009-06-14T11:23:46Z</time>
      </trkpt>
      <trkpt lat="44.21805" lon="5.31154">
        <ele>509.155396</ele>
        <time>2009-06-14T11:23:52Z</time>
      </trkpt>
      <trkpt lat="44.21788" lon="5.31151">
        <ele>510.116699</ele>
        <time>2009-06-14T11:23:56Z</time>
      </trkpt>
      <trkpt lat="44.21751" lon="5.31157">
        <ele>510.59729</ele>
        <time>2009-06-14T11:24:05Z</time>
      </trkpt>
      <trkpt lat="44.21719" lon="5.31174">
        <ele>513.481445</ele>
        <time>2009-06-14T11:24:14Z</time>
      </trkpt>
      <trkpt lat="44.21687" lon="5.31199">
        <ele>515.884644</ele>
        <time>2009-06-14T11:24:24Z</time>
      </trkpt>
      <trkpt lat="44.21669" lon="5.31215">
        <ele>517.32666</ele>
        <time>2009-06-14T11:24:30Z</time>
      </trkpt>
      <trkpt lat="44.21664" lon="5.31237">
        <ele>518.287842</ele>
        <time>2009-06-14T11:24:34Z</time>
      </trkpt>
      <trkpt lat="44.21668" lon="5.31253">
        <ele>519.249268</ele>
        <time>2009-06-14T11:24:37Z</time>
      </trkpt>
      <trkpt lat="44.21692" lon="5.31276">
        <ele>523.575195</ele>
        <time>2009-06-14T11:24:44Z</time>
      </trkpt>
      <trkpt lat="44.21702" lon="5.31285">
        <ele>526.939819</ele>
        <time>2009-06-14T11:24:47Z</time>
      </trkpt>
      <trkpt lat="44.21717" lon="5.31293">
        <ele>530.304443</ele>
        <time>2009-06-14T11:24:51Z</time>
      </trkpt>
      <trkpt lat="44.21742" lon="5.31302">
        <ele>534.149658</ele>
        <time>2009-06-14T11:24:57Z</time>
      </trkpt>
      <trkpt lat="44.21763" lon="5.31324">
        <ele>536.072388</ele>
        <time>2009-06-14T11:25:03Z</time>
      </trkpt>
      <trkpt lat="44.21766" lon="5.31347">
        <ele>538.475708</ele>
        <time>2009-06-14T11:25:07Z</time>
      </trkpt>
      <trkpt lat="44.21762" lon="5.31375">
        <ele>539.43689</ele>
        <time>2009-06-14T11:25:12Z</time>
      </trkpt>
      <trkpt lat="44.21751" lon="5.31388">
        <ele>540.398315</ele>
        <time>2009-06-14T11:25:16Z</time>
      </trkpt>
      <trkpt lat="44.21748" lon="5.31376">
        <ele>538.475708</ele>
        <time>2009-06-14T11:25:19Z</time>
      </trkpt>
      <trkpt lat="44.21752" lon="5.31352">
        <ele>537.033691</ele>
        <time>2009-06-14T11:25:23Z</time>
      </trkpt>
      <trkpt lat="44.21745" lon="5.31337">
        <ele>536.072388</ele>
        <time>2009-06-14T11:25:26Z</time>
      </trkpt>
      <trkpt lat="44.21729" lon="5.31328">
        <ele>536.072388</ele>
        <time>2009-06-14T11:25:30Z</time>
      </trkpt>
      <trkpt lat="44.21716" lon="5.31327">
        <ele>537.033691</ele>
        <time>2009-06-14T11:25:33Z</time>
      </trkpt>
      <trkpt lat="44.21708" lon="5.31328">
        <ele>537.514282</ele>
        <time>2009-06-14T11:25:35Z</time>
      </trkpt>
      <trkpt lat="44.21688" lon="5.31319">
        <ele>539.43689</ele>
        <time>2009-06-14T11:25:40Z</time>
      </trkpt>
      <trkpt lat="44.21667" lon="5.31302">
        <ele>540.878906</ele>
        <time>2009-06-14T11:25:46Z</time>
      </trkpt>
      <trkpt lat="44.21642" lon="5.31298">
        <ele>540.878906</ele>
        <time>2009-06-14T11:25:52Z</time>
      </trkpt>
      <trkpt lat="44.21626" lon="5.31294">
        <ele>541.359497</ele>
        <time>2009-06-14T11:25:56Z</time>
      </trkpt>
      <trkpt lat="44.21606" lon="5.31281">
        <ele>541.359497</ele>
        <time>2009-06-14T11:26:01Z</time>
      </trkpt>
      <trkpt lat="44.21594" lon="5.31257">
        <ele>540.878906</ele>
        <time>2009-06-14T11:26:06Z</time>
      </trkpt>
      <trkpt lat="44.21595" lon="5.31234">
        <ele>540.878906</ele>
        <time>2009-06-14T11:26:10Z</time>
      </trkpt>
      <trkpt lat="44.21601" lon="5.3121">
        <ele>541.359497</ele>
        <time>2009-06-14T11:26:14Z</time>
      </trkpt>
      <trkpt lat="44.21611" lon="5.31189">
        <ele>542.320923</ele>
        <time>2009-06-14T11:26:18Z</time>
      </trkpt>
      <trkpt lat="44.21642" lon="5.31145">
        <ele>544.724243</ele>
        <time>2009-06-14T11:26:28Z</time>
      </trkpt>
      <trkpt lat="44.21681" lon="5.31095">
        <ele>548.088867</ele>
        <time>2009-06-14T11:26:40Z</time>
      </trkpt>
      <trkpt lat="44.217" lon="5.31069">
        <ele>550.011475</ele>
        <time>2009-06-14T11:26:46Z</time>
      </trkpt>
      <trkpt lat="44.21709" lon="5.31044">
        <ele>551.453369</ele>
        <time>2009-06-14T11:26:51Z</time>
      </trkpt>
      <trkpt lat="44.217" lon="5.3103">
        <ele>552.414551</ele>
        <time>2009-06-14T11:26:55Z</time>
      </trkpt>
      <trkpt lat="44.21688" lon="5.31035">
        <ele>553.856689</ele>
        <time>2009-06-14T11:26:58Z</time>
      </trkpt>
      <trkpt lat="44.21648" lon="5.31059">
        <ele>557.221436</ele>
        <time>2009-06-14T11:27:08Z</time>
      </trkpt>
      <trkpt lat="44.21644" lon="5.31062">
        <ele>557.702148</ele>
        <time>2009-06-14T11:27:09Z</time>
      </trkpt>
      <trkpt lat="44.21621" lon="5.31097">
        <ele>562.508545</ele>
        <time>2009-06-14T11:27:16Z</time>
      </trkpt>
      <trkpt lat="44.21601" lon="5.31131">
        <ele>567.315186</ele>
        <time>2009-06-14T11:27:24Z</time>
      </trkpt>
      <trkpt lat="44.21571" lon="5.31172">
        <ele>567.795654</ele>
        <time>2009-06-14T11:27:34Z</time>
      </trkpt>
      <trkpt lat="44.21555" lon="5.31211">
        <ele>571.1604</ele>
        <time>2009-06-14T11:27:42Z</time>
      </trkpt>
      <trkpt lat="44.21533" lon="5.3127">
        <ele>578.370361</ele>
        <time>2009-06-14T11:27:54Z</time>
      </trkpt>
      <trkpt lat="44.21517" lon="5.31291">
        <ele>579.331543</ele>
        <time>2009-06-14T11:28:00Z</time>
      </trkpt>
      <trkpt lat="44.2149" lon="5.31303">
        <ele>580.773682</ele>
        <time>2009-06-14T11:28:07Z</time>
      </trkpt>
      <trkpt lat="44.21477" lon="5.31302">
        <ele>581.734863</ele>
        <time>2009-06-14T11:28:10Z</time>
      </trkpt>
      <trkpt lat="44.21442" lon="5.31288">
        <ele>583.176758</ele>
        <time>2009-06-14T11:28:19Z</time>
      </trkpt>
      <trkpt lat="44.21434" lon="5.31285">
        <ele>583.657471</ele>
        <time>2009-06-14T11:28:21Z</time>
      </trkpt>
      <trkpt lat="44.21411" lon="5.31288">
        <ele>584.138184</ele>
        <time>2009-06-14T11:28:27Z</time>
      </trkpt>
      <trkpt lat="44.21384" lon="5.31308">
        <ele>584.138184</ele>
        <time>2009-06-14T11:28:35Z</time>
      </trkpt>
      <trkpt lat="44.21361" lon="5.31336">
        <ele>587.021973</ele>
        <time>2009-06-14T11:28:43Z</time>
      </trkpt>
      <trkpt lat="44.2135" lon="5.31355">
        <ele>583.176758</ele>
        <time>2009-06-14T11:28:46Z</time>
      </trkpt>
      <trkpt lat="44.2134" lon="5.31384">
        <ele>585.099609</ele>
        <time>2009-06-14T11:28:52Z</time>
      </trkpt>
      <trkpt lat="44.21327" lon="5.31394">
        <ele>584.618896</ele>
        <time>2009-06-14T11:28:56Z</time>
      </trkpt>
      <trkpt lat="44.21322" lon="5.31384">
        <ele>584.138184</ele>
        <time>2009-06-14T11:28:59Z</time>
      </trkpt>
      <trkpt lat="44.21326" lon="5.31372">
        <ele>583.657471</ele>
        <time>2009-06-14T11:29:01Z</time>
      </trkpt>
      <trkpt lat="44.2133" lon="5.3136">
        <ele>581.254395</ele>
        <time>2009-06-14T11:29:03Z</time>
      </trkpt>
      <trkpt lat="44.21342" lon="5.31328">
        <ele>574.525146</ele>
        <time>2009-06-14T11:29:09Z</time>
      </trkpt>
      <trkpt lat="44.21343" lon="5.31317">
        <ele>572.121826</ele>
        <time>2009-06-14T11:29:11Z</time>
      </trkpt>
      <trkpt lat="44.21346" lon="5.31272">
        <ele>565.873291</ele>
        <time>2009-06-14T11:29:19Z</time>
      </trkpt>
      <trkpt lat="44.21334" lon="5.3124">
        <ele>574.044434</ele>
        <time>2009-06-14T11:29:25Z</time>
      </trkpt>
      <trkpt lat="44.21331" lon="5.31237">
        <ele>573.563965</ele>
        <time>2009-06-14T11:29:26Z</time>
      </trkpt>
      <trkpt lat="44.21304" lon="5.31225">
        <ele>574.525146</ele>
        <time>2009-06-14T11:29:33Z</time>
      </trkpt>
      <trkpt lat="44.21277" lon="5.31231">
        <ele>579.331543</ele>
        <time>2009-06-14T11:29:40Z</time>
      </trkpt>
      <trkpt lat="44.21243" lon="5.31247">
        <ele>583.176758</ele>
        <time>2009-06-14T11:29:48Z</time>
      </trkpt>
      <trkpt lat="44.21201" lon="5.31264">
        <ele>589.425537</ele>
        <time>2009-06-14T11:29:58Z</time>
      </trkpt>
      <trkpt lat="44.21167" lon="5.31272">
        <ele>593.270752</ele>
        <time>2009-06-14T11:30:06Z</time>
      </trkpt>
      <trkpt lat="44.21127" lon="5.3128">
        <ele>597.59668</ele>
        <time>2009-06-14T11:30:16Z</time>
      </trkpt>
      <trkpt lat="44.2111" lon="5.31279">
        <ele>598.557861</ele>
        <time>2009-06-14T11:30:20Z</time>
      </trkpt>
      <trkpt lat="44.21086" lon="5.31264">
        <ele>600.480713</ele>
        <time>2009-06-14T11:30:26Z</time>
      </trkpt>
      <trkpt lat="44.2108" lon="5.31256">
        <ele>600.961182</ele>
        <time>2009-06-14T11:30:28Z</time>
      </trkpt>
      <trkpt lat="44.21053" lon="5.31217">
        <ele>603.364502</ele>
        <time>2009-06-14T11:30:37Z</time>
      </trkpt>
      <trkpt lat="44.21035" lon="5.31214">
        <ele>604.806641</ele>
        <time>2009-06-14T11:30:42Z</time>
      </trkpt>
      <trkpt lat="44.21034" lon="5.3123">
        <ele>605.287354</ele>
        <time>2009-06-14T11:30:45Z</time>
      </trkpt>
      <trkpt lat="44.21039" lon="5.31241">
        <ele>605.768066</ele>
        <time>2009-06-14T11:30:47Z</time>
      </trkpt>
      <trkpt lat="44.21063" lon="5.31295">
        <ele>609.613281</ele>
        <time>2009-06-14T11:30:57Z</time>
      </trkpt>
      <trkpt lat="44.21071" lon="5.3131">
        <ele>610.574463</ele>
        <time>2009-06-14T11:31:00Z</time>
      </trkpt>
      <trkpt lat="44.211" lon="5.31341">
        <ele>612.49707</ele>
        <time>2009-06-14T11:31:08Z</time>
      </trkpt>
      <trkpt lat="44.21145" lon="5.31374">
        <ele>615.861816</ele>
        <time>2009-06-14T11:31:19Z</time>
      </trkpt>
      <trkpt lat="44.21153" lon="5.31382">
        <ele>616.822998</ele>
        <time>2009-06-14T11:31:21Z</time>
      </trkpt>
      <trkpt lat="44.21162" lon="5.31404">
        <ele>617.78418</ele>
        <time>2009-06-14T11:31:25Z</time>
      </trkpt>
      <trkpt lat="44.21154" lon="5.31415">
        <ele>618.745605</ele>
        <time>2009-06-14T11:31:28Z</time>
      </trkpt>
      <trkpt lat="44.21141" lon="5.31408">
        <ele>619.707031</ele>
        <time>2009-06-14T11:31:31Z</time>
      </trkpt>
      <trkpt lat="44.21092" lon="5.31371">
        <ele>621.629639</ele>
        <time>2009-06-14T11:31:43Z</time>
      </trkpt>
      <trkpt lat="44.21059" lon="5.3135">
        <ele>620.668457</ele>
        <time>2009-06-14T11:31:51Z</time>
      </trkpt>
      <trkpt lat="44.21017" lon="5.31329">
        <ele>621.14917</ele>
        <time>2009-06-14T11:32:01Z</time>
      </trkpt>
      <trkpt lat="44.2099" lon="5.31313">
        <ele>628.358887</ele>
        <time>2009-06-14T11:32:07Z</time>
      </trkpt>
      <trkpt lat="44.20963" lon="5.31285">
        <ele>632.204102</ele>
        <time>2009-06-14T11:32:14Z</time>
      </trkpt>
      <trkpt lat="44.20943" lon="5.31277">
        <ele>633.645996</ele>
        <time>2009-06-14T11:32:19Z</time>
      </trkpt>
      <trkpt lat="44.20936" lon="5.31292">
        <ele>634.126709</ele>
        <time>2009-06-14T11:32:22Z</time>
      </trkpt>
      <trkpt lat="44.20936" lon="5.31305">
        <ele>634.126709</ele>
        <time>2009-06-14T11:32:24Z</time>
      </trkpt>
      <trkpt lat="44.20938" lon="5.31341">
        <ele>635.088135</ele>
        <time>2009-06-14T11:32:29Z</time>
      </trkpt>
      <trkpt lat="44.20952" lon="5.31367">
        <ele>634.126709</ele>
        <time>2009-06-14T11:32:34Z</time>
      </trkpt>
      <trkpt lat="44.20959" lon="5.31376">
        <ele>634.607422</ele>
        <time>2009-06-14T11:32:36Z</time>
      </trkpt>
      <trkpt lat="44.2097" lon="5.31386">
        <ele>635.088135</ele>
        <time>2009-06-14T11:32:39Z</time>
      </trkpt>
      <trkpt lat="44.20979" lon="5.31405">
        <ele>636.049561</ele>
        <time>2009-06-14T11:32:43Z</time>
      </trkpt>
      <trkpt lat="44.20973" lon="5.31408">
        <ele>636.530273</ele>
        <time>2009-06-14T11:32:46Z</time>
      </trkpt>
      <trkpt lat="44.20964" lon="5.31403">
        <ele>637.010742</ele>
        <time>2009-06-14T11:32:48Z</time>
      </trkpt>
      <trkpt lat="44.20932" lon="5.31382">
        <ele>635.568604</ele>
        <time>2009-06-14T11:32:56Z</time>
      </trkpt>
      <trkpt lat="44.20924" lon="5.31376">
        <ele>634.607422</ele>
        <time>2009-06-14T11:32:58Z</time>
      </trkpt>
      <trkpt lat="44.20901" lon="5.31346">
        <ele>636.049561</ele>
        <time>2009-06-14T11:33:04Z</time>
      </trkpt>
      <trkpt lat="44.20898" lon="5.3134">
        <ele>639.894775</ele>
        <time>2009-06-14T11:33:05Z</time>
      </trkpt>
      <trkpt lat="44.20878" lon="5.31305">
        <ele>635.088135</ele>
        <time>2009-06-14T11:33:11Z</time>
      </trkpt>
      <trkpt lat="44.20857" lon="5.31284">
        <ele>635.088135</ele>
        <time>2009-06-14T11:33:17Z</time>
      </trkpt>
      <trkpt lat="44.20834" lon="5.31288">
        <ele>635.568604</ele>
        <time>2009-06-14T11:33:22Z</time>
      </trkpt>
      <trkpt lat="44.20817" lon="5.31305">
        <ele>636.530273</ele>
        <time>2009-06-14T11:33:26Z</time>
      </trkpt>
      <trkpt lat="44.20791" lon="5.3136">
        <ele>638.452881</ele>
        <time>2009-06-14T11:33:34Z</time>
      </trkpt>
      <trkpt lat="44.20778" lon="5.31417">
        <ele>639.894775</ele>
        <time>2009-06-14T11:33:42Z</time>
      </trkpt>
      <trkpt lat="44.20772" lon="5.3146">
        <ele>640.375488</ele>
        <time>2009-06-14T11:33:49Z</time>
      </trkpt>
      <trkpt lat="44.20771" lon="5.31463">
        <ele>640.855957</ele>
        <time>2009-06-14T11:33:50Z</time>
      </trkpt>
      <trkpt lat="44.20771" lon="5.31465">
        <ele>639.414063</ele>
        <time>2009-06-14T11:33:55Z</time>
      </trkpt>
      <trkpt lat="44.20771" lon="5.31466">
        <ele>639.414063</ele>
        <time>2009-06-14T11:34:08Z</time>
      </trkpt>
      <trkpt lat="44.2077" lon="5.31466">
        <ele>642.298096</ele>
        <time>2009-06-14T11:34:35Z</time>
      </trkpt>
      <trkpt lat="44.20769" lon="5.31466">
        <ele>644.220703</ele>
        <time>2009-06-14T11:34:47Z</time>
      </trkpt>
      <trkpt lat="44.2077" lon="5.31467">
        <ele>643.259277</ele>
        <time>2009-06-14T11:35:05Z</time>
      </trkpt>
      <trkpt lat="44.20773" lon="5.31465">
        <ele>642.778809</ele>
        <time>2009-06-14T11:35:14Z</time>
      </trkpt>
      <trkpt lat="44.20773" lon="5.31465">
        <ele>642.778809</ele>
        <time>2009-06-14T11:35:29Z</time>
      </trkpt>
      <trkpt lat="44.20775" lon="5.31463">
        <ele>642.778809</ele>
        <time>2009-06-14T11:35:45Z</time>
      </trkpt>
      <trkpt lat="44.20776" lon="5.31463">
        <ele>643.73999</ele>
        <time>2009-06-14T11:35:58Z</time>
      </trkpt>
      <trkpt lat="44.20775" lon="5.31464">
        <ele>643.259277</ele>
        <time>2009-06-14T11:36:07Z</time>
      </trkpt>
      <trkpt lat="44.20771" lon="5.31471">
        <ele>641.33667</ele>
        <time>2009-06-14T11:36:12Z</time>
      </trkpt>
      <trkpt lat="44.20765" lon="5.31495">
        <ele>641.33667</ele>
        <time>2009-06-14T11:36:18Z</time>
      </trkpt>
      <trkpt lat="44.20751" lon="5.3153">
        <ele>641.33667</ele>
        <time>2009-06-14T11:36:23Z</time>
      </trkpt>
      <trkpt lat="44.20725" lon="5.3158">
        <ele>640.375488</ele>
        <time>2009-06-14T11:36:30Z</time>
      </trkpt>
      <trkpt lat="44.20718" lon="5.31596">
        <ele>640.375488</ele>
        <time>2009-06-14T11:36:32Z</time>
      </trkpt>
      <trkpt lat="44.20705" lon="5.31654">
        <ele>637.972168</ele>
        <time>2009-06-14T11:36:38Z</time>
      </trkpt>
      <trkpt lat="44.2069" lon="5.31751">
        <ele>639.414063</ele>
        <time>2009-06-14T11:36:47Z</time>
      </trkpt>
      <trkpt lat="44.20677" lon="5.31839">
        <ele>640.375488</ele>
        <time>2009-06-14T11:36:55Z</time>
      </trkpt>
      <trkpt lat="44.20684" lon="5.31906">
        <ele>638.933594</ele>
        <time>2009-06-14T11:37:01Z</time>
      </trkpt>
      <trkpt lat="44.20685" lon="5.31953">
        <ele>638.452881</ele>
        <time>2009-06-14T11:37:05Z</time>
      </trkpt>
      <trkpt lat="44.20675" lon="5.32046">
        <ele>638.933594</ele>
        <time>2009-06-14T11:37:13Z</time>
      </trkpt>
      <trkpt lat="44.20673" lon="5.32057">
        <ele>638.933594</ele>
        <time>2009-06-14T11:37:14Z</time>
      </trkpt>
      <trkpt lat="44.20651" lon="5.32107">
        <ele>638.452881</ele>
        <time>2009-06-14T11:37:19Z</time>
      </trkpt>
      <trkpt lat="44.20621" lon="5.32132">
        <ele>638.933594</ele>
        <time>2009-06-14T11:37:23Z</time>
      </trkpt>
      <trkpt lat="44.20554" lon="5.32165">
        <ele>637.491455</ele>
        <time>2009-06-14T11:37:31Z</time>
      </trkpt>
      <trkpt lat="44.20526" lon="5.32195">
        <ele>636.530273</ele>
        <time>2009-06-14T11:37:35Z</time>
      </trkpt>
      <trkpt lat="44.20521" lon="5.32227">
        <ele>636.049561</ele>
        <time>2009-06-14T11:37:38Z</time>
      </trkpt>
      <trkpt lat="44.20521" lon="5.32239">
        <ele>636.049561</ele>
        <time>2009-06-14T11:37:39Z</time>
      </trkpt>
      <trkpt lat="44.20521" lon="5.32275">
        <ele>634.126709</ele>
        <time>2009-06-14T11:37:42Z</time>
      </trkpt>
      <trkpt lat="44.2051" lon="5.32334">
        <ele>631.24292</ele>
        <time>2009-06-14T11:37:47Z</time>
      </trkpt>
      <trkpt lat="44.20496" lon="5.32363">
        <ele>631.24292</ele>
        <time>2009-06-14T11:37:50Z</time>
      </trkpt>
      <trkpt lat="44.20453" lon="5.32432">
        <ele>611.535889</ele>
        <time>2009-06-14T11:37:58Z</time>
      </trkpt>
      <trkpt lat="44.20421" lon="5.32474">
        <ele>612.016602</ele>
        <time>2009-06-14T11:38:04Z</time>
      </trkpt>
      <trkpt lat="44.20395" lon="5.32493">
        <ele>611.535889</ele>
        <time>2009-06-14T11:38:08Z</time>
      </trkpt>
      <trkpt lat="44.20366" lon="5.32502">
        <ele>611.055176</ele>
        <time>2009-06-14T11:38:12Z</time>
      </trkpt>
      <trkpt lat="44.20343" lon="5.32528">
        <ele>614.900391</ele>
        <time>2009-06-14T11:38:16Z</time>
      </trkpt>
      <trkpt lat="44.20333" lon="5.3256">
        <ele>614.900391</ele>
        <time>2009-06-14T11:38:19Z</time>
      </trkpt>
      <trkpt lat="44.20331" lon="5.3257">
        <ele>615.381104</ele>
        <time>2009-06-14T11:38:20Z</time>
      </trkpt>
      <trkpt lat="44.20311" lon="5.32667">
        <ele>618.264893</ele>
        <time>2009-06-14T11:38:29Z</time>
      </trkpt>
      <trkpt lat="44.20296" lon="5.32704">
        <ele>618.264893</ele>
        <time>2009-06-14T11:38:33Z</time>
      </trkpt>
      <trkpt lat="44.20263" lon="5.3276">
        <ele>618.745605</ele>
        <time>2009-06-14T11:38:40Z</time>
      </trkpt>
      <trkpt lat="44.20232" lon="5.32835">
        <ele>618.745605</ele>
        <time>2009-06-14T11:38:48Z</time>
      </trkpt>
      <trkpt lat="44.20221" lon="5.32889">
        <ele>618.745605</ele>
        <time>2009-06-14T11:38:53Z</time>
      </trkpt>
      <trkpt lat="44.20204" lon="5.32989">
        <ele>620.187744</ele>
        <time>2009-06-14T11:39:02Z</time>
      </trkpt>
      <trkpt lat="44.20188" lon="5.33051">
        <ele>620.668457</ele>
        <time>2009-06-14T11:39:08Z</time>
      </trkpt>
      <trkpt lat="44.20159" lon="5.33142">
        <ele>618.745605</ele>
        <time>2009-06-14T11:39:17Z</time>
      </trkpt>
      <trkpt lat="44.20141" lon="5.33211">
        <ele>617.78418</ele>
        <time>2009-06-14T11:39:23Z</time>
      </trkpt>
      <trkpt lat="44.20142" lon="5.33261">
        <ele>617.303711</ele>
        <time>2009-06-14T11:39:27Z</time>
      </trkpt>
      <trkpt lat="44.20146" lon="5.33298">
        <ele>617.303711</ele>
        <time>2009-06-14T11:39:30Z</time>
      </trkpt>
      <trkpt lat="44.20139" lon="5.33348">
        <ele>617.303711</ele>
        <time>2009-06-14T11:39:34Z</time>
      </trkpt>
      <trkpt lat="44.20126" lon="5.33379">
        <ele>616.822998</ele>
        <time>2009-06-14T11:39:37Z</time>
      </trkpt>
      <trkpt lat="44.2008" lon="5.33468">
        <ele>613.938965</ele>
        <time>2009-06-14T11:39:46Z</time>
      </trkpt>
      <trkpt lat="44.20075" lon="5.33476">
        <ele>612.49707</ele>
        <time>2009-06-14T11:39:47Z</time>
      </trkpt>
      <trkpt lat="44.20044" lon="5.33508">
        <ele>610.574463</ele>
        <time>2009-06-14T11:39:52Z</time>
      </trkpt>
      <trkpt lat="44.20029" lon="5.33516">
        <ele>610.09375</ele>
        <time>2009-06-14T11:39:54Z</time>
      </trkpt>
      <trkpt lat="44.19967" lon="5.33532">
        <ele>606.729248</ele>
        <time>2009-06-14T11:40:02Z</time>
      </trkpt>
      <trkpt lat="44.19936" lon="5.33537">
        <ele>607.690674</ele>
        <time>2009-06-14T11:40:06Z</time>
      </trkpt>
      <trkpt lat="44.19893" lon="5.33567">
        <ele>605.768066</ele>
        <time>2009-06-14T11:40:12Z</time>
      </trkpt>
      <trkpt lat="44.19844" lon="5.33609">
        <ele>604.326172</ele>
        <time>2009-06-14T11:40:19Z</time>
      </trkpt>
      <trkpt lat="44.19802" lon="5.33649">
        <ele>607.690674</ele>
        <time>2009-06-14T11:40:25Z</time>
      </trkpt>
      <trkpt lat="44.19764" lon="5.33703">
        <ele>610.09375</ele>
        <time>2009-06-14T11:40:32Z</time>
      </trkpt>
      <trkpt lat="44.19737" lon="5.33719">
        <ele>610.09375</ele>
        <time>2009-06-14T11:40:36Z</time>
      </trkpt>
      <trkpt lat="44.19729" lon="5.33719">
        <ele>609.613281</ele>
        <time>2009-06-14T11:40:37Z</time>
      </trkpt>
      <trkpt lat="44.19687" lon="5.33717">
        <ele>608.651855</ele>
        <time>2009-06-14T11:40:43Z</time>
      </trkpt>
      <trkpt lat="44.19662" lon="5.33733">
        <ele>607.690674</ele>
        <time>2009-06-14T11:40:47Z</time>
      </trkpt>
      <trkpt lat="44.19648" lon="5.33766">
        <ele>608.651855</ele>
        <time>2009-06-14T11:40:51Z</time>
      </trkpt>
      <trkpt lat="44.19635" lon="5.3382">
        <ele>610.574463</ele>
        <time>2009-06-14T11:40:58Z</time>
      </trkpt>
      <trkpt lat="44.19622" lon="5.33869">
        <ele>611.055176</ele>
        <time>2009-06-14T11:41:05Z</time>
      </trkpt>
      <trkpt lat="44.19605" lon="5.33894">
        <ele>612.016602</ele>
        <time>2009-06-14T11:41:10Z</time>
      </trkpt>
      <trkpt lat="44.19601" lon="5.33897">
        <ele>612.016602</ele>
        <time>2009-06-14T11:41:11Z</time>
      </trkpt>
      <trkpt lat="44.19571" lon="5.33912">
        <ele>614.419678</ele>
        <time>2009-06-14T11:41:18Z</time>
      </trkpt>
      <trkpt lat="44.19549" lon="5.33937">
        <ele>614.900391</ele>
        <time>2009-06-14T11:41:24Z</time>
      </trkpt>
      <trkpt lat="44.19544" lon="5.33968">
        <ele>616.822998</ele>
        <time>2009-06-14T11:41:29Z</time>
      </trkpt>
      <trkpt lat="44.19545" lon="5.34037">
        <ele>621.629639</ele>
        <time>2009-06-14T11:41:39Z</time>
      </trkpt>
      <trkpt lat="44.19541" lon="5.34091">
        <ele>625.955566</ele>
        <time>2009-06-14T11:41:47Z</time>
      </trkpt>
      <trkpt lat="44.19532" lon="5.34133">
        <ele>626.916992</ele>
        <time>2009-06-14T11:41:53Z</time>
      </trkpt>
      <trkpt lat="44.19523" lon="5.34187">
        <ele>626.916992</ele>
        <time>2009-06-14T11:42:01Z</time>
      </trkpt>
      <trkpt lat="44.19508" lon="5.34271">
        <ele>631.24292</ele>
        <time>2009-06-14T11:42:14Z</time>
      </trkpt>
      <trkpt lat="44.19505" lon="5.34317">
        <ele>633.165283</ele>
        <time>2009-06-14T11:42:21Z</time>
      </trkpt>
      <trkpt lat="44.19501" lon="5.34337">
        <ele>633.165283</ele>
        <time>2009-06-14T11:42:24Z</time>
      </trkpt>
      <trkpt lat="44.1949" lon="5.34359">
        <ele>633.645996</ele>
        <time>2009-06-14T11:42:28Z</time>
      </trkpt>
      <trkpt lat="44.19456" lon="5.34401">
        <ele>634.607422</ele>
        <time>2009-06-14T11:42:37Z</time>
      </trkpt>
      <trkpt lat="44.19432" lon="5.34439">
        <ele>635.088135</ele>
        <time>2009-06-14T11:42:44Z</time>
      </trkpt>
      <trkpt lat="44.19407" lon="5.34495">
        <ele>635.568604</ele>
        <time>2009-06-14T11:42:53Z</time>
      </trkpt>
      <trkpt lat="44.19384" lon="5.34535">
        <ele>636.530273</ele>
        <time>2009-06-14T11:43:00Z</time>
      </trkpt>
      <trkpt lat="44.19359" lon="5.34561">
        <ele>638.933594</ele>
        <time>2009-06-14T11:43:06Z</time>
      </trkpt>
      <trkpt lat="44.1933" lon="5.34579">
        <ele>641.33667</ele>
        <time>2009-06-14T11:43:12Z</time>
      </trkpt>
      <trkpt lat="44.19286" lon="5.34602">
        <ele>643.73999</ele>
        <time>2009-06-14T11:43:21Z</time>
      </trkpt>
      <trkpt lat="44.19251" lon="5.34625">
        <ele>642.298096</ele>
        <time>2009-06-14T11:43:28Z</time>
      </trkpt>
      <trkpt lat="44.19241" lon="5.34635">
        <ele>642.778809</ele>
        <time>2009-06-14T11:43:30Z</time>
      </trkpt>
      <trkpt lat="44.19228" lon="5.34671">
        <ele>642.778809</ele>
        <time>2009-06-14T11:43:35Z</time>
      </trkpt>
      <trkpt lat="44.19228" lon="5.34698">
        <ele>643.259277</ele>
        <time>2009-06-14T11:43:38Z</time>
      </trkpt>
      <trkpt lat="44.19241" lon="5.34779">
        <ele>643.73999</ele>
        <time>2009-06-14T11:43:46Z</time>
      </trkpt>
      <trkpt lat="44.19252" lon="5.34851">
        <ele>642.298096</ele>
        <time>2009-06-14T11:43:52Z</time>
      </trkpt>
      <trkpt lat="44.19256" lon="5.34876">
        <ele>641.817383</ele>
        <time>2009-06-14T11:43:54Z</time>
      </trkpt>
      <trkpt lat="44.19247" lon="5.34915">
        <ele>638.933594</ele>
        <time>2009-06-14T11:43:58Z</time>
      </trkpt>
      <trkpt lat="44.19232" lon="5.3492">
        <ele>638.452881</ele>
        <time>2009-06-14T11:44:00Z</time>
      </trkpt>
      <trkpt lat="44.19197" lon="5.34943">
        <ele>634.607422</ele>
        <time>2009-06-14T11:44:05Z</time>
      </trkpt>
      <trkpt lat="44.1919" lon="5.34977">
        <ele>633.645996</ele>
        <time>2009-06-14T11:44:08Z</time>
      </trkpt>
      <trkpt lat="44.19202" lon="5.35005">
        <ele>633.645996</ele>
        <time>2009-06-14T11:44:11Z</time>
      </trkpt>
      <trkpt lat="44.19209" lon="5.35012">
        <ele>633.645996</ele>
        <time>2009-06-14T11:44:12Z</time>
      </trkpt>
      <trkpt lat="44.19223" lon="5.35028">
        <ele>633.165283</ele>
        <time>2009-06-14T11:44:14Z</time>
      </trkpt>
      <trkpt lat="44.19241" lon="5.3507">
        <ele>633.165283</ele>
        <time>2009-06-14T11:44:18Z</time>
      </trkpt>
      <trkpt lat="44.19243" lon="5.35082">
        <ele>633.165283</ele>
        <time>2009-06-14T11:44:19Z</time>
      </trkpt>
      <trkpt lat="44.19246" lon="5.35105">
        <ele>632.684814</ele>
        <time>2009-06-14T11:44:21Z</time>
      </trkpt>
      <trkpt lat="44.19269" lon="5.35142">
        <ele>633.645996</ele>
        <time>2009-06-14T11:44:25Z</time>
      </trkpt>
      <trkpt lat="44.19287" lon="5.3517">
        <ele>633.645996</ele>
        <time>2009-06-14T11:44:28Z</time>
      </trkpt>
      <trkpt lat="44.19289" lon="5.35193">
        <ele>634.126709</ele>
        <time>2009-06-14T11:44:30Z</time>
      </trkpt>
      <trkpt lat="44.19283" lon="5.35232">
        <ele>633.645996</ele>
        <time>2009-06-14T11:44:33Z</time>
      </trkpt>
      <trkpt lat="44.19264" lon="5.35272">
        <ele>632.204102</ele>
        <time>2009-06-14T11:44:37Z</time>
      </trkpt>
      <trkpt lat="44.1925" lon="5.35283">
        <ele>631.723389</ele>
        <time>2009-06-14T11:44:39Z</time>
      </trkpt>
      <trkpt lat="44.19211" lon="5.35308">
        <ele>630.762207</ele>
        <time>2009-06-14T11:44:44Z</time>
      </trkpt>
      <trkpt lat="44.19187" lon="5.35343">
        <ele>627.878174</ele>
        <time>2009-06-14T11:44:48Z</time>
      </trkpt>
      <trkpt lat="44.19181" lon="5.35365">
        <ele>626.916992</ele>
        <time>2009-06-14T11:44:50Z</time>
      </trkpt>
      <trkpt lat="44.19173" lon="5.35402">
        <ele>625.955566</ele>
        <time>2009-06-14T11:44:53Z</time>
      </trkpt>
      <trkpt lat="44.1915" lon="5.35442">
        <ele>623.071777</ele>
        <time>2009-06-14T11:44:57Z</time>
      </trkpt>
      <trkpt lat="44.19134" lon="5.35455">
        <ele>621.14917</ele>
        <time>2009-06-14T11:44:59Z</time>
      </trkpt>
      <trkpt lat="44.19089" lon="5.35487">
        <ele>617.78418</ele>
        <time>2009-06-14T11:45:04Z</time>
      </trkpt>
      <trkpt lat="44.19059" lon="5.3553">
        <ele>614.900391</ele>
        <time>2009-06-14T11:45:08Z</time>
      </trkpt>
      <trkpt lat="44.1905" lon="5.35559">
        <ele>613.938965</ele>
        <time>2009-06-14T11:45:10Z</time>
      </trkpt>
      <trkpt lat="44.19024" lon="5.35666">
        <ele>612.977783</ele>
        <time>2009-06-14T11:45:17Z</time>
      </trkpt>
      <trkpt lat="44.19023" lon="5.3573">
        <ele>611.535889</ele>
        <time>2009-06-14T11:45:21Z</time>
      </trkpt>
      <trkpt lat="44.19036" lon="5.35758">
        <ele>610.09375</ele>
        <time>2009-06-14T11:45:23Z</time>
      </trkpt>
      <trkpt lat="44.19043" lon="5.35771">
        <ele>609.613281</ele>
        <time>2009-06-14T11:45:24Z</time>
      </trkpt>
      <trkpt lat="44.19064" lon="5.35843">
        <ele>607.690674</ele>
        <time>2009-06-14T11:45:29Z</time>
      </trkpt>
      <trkpt lat="44.19055" lon="5.35872">
        <ele>607.209961</ele>
        <time>2009-06-14T11:45:31Z</time>
      </trkpt>
      <trkpt lat="44.19047" lon="5.35886">
        <ele>606.729248</ele>
        <time>2009-06-14T11:45:32Z</time>
      </trkpt>
      <trkpt lat="44.19028" lon="5.35962">
        <ele>604.806641</ele>
        <time>2009-06-14T11:45:37Z</time>
      </trkpt>
      <trkpt lat="44.1904" lon="5.36007">
        <ele>603.364502</ele>
        <time>2009-06-14T11:45:40Z</time>
      </trkpt>
      <trkpt lat="44.19051" lon="5.36037">
        <ele>602.403076</ele>
        <time>2009-06-14T11:45:42Z</time>
      </trkpt>
      <trkpt lat="44.19054" lon="5.36102">
        <ele>600.961182</ele>
        <time>2009-06-14T11:45:46Z</time>
      </trkpt>
      <trkpt lat="44.19045" lon="5.36216">
        <ele>598.077393</ele>
        <time>2009-06-14T11:45:53Z</time>
      </trkpt>
      <trkpt lat="44.19026" lon="5.36276">
        <ele>594.232178</ele>
        <time>2009-06-14T11:45:57Z</time>
      </trkpt>
      <trkpt lat="44.1902" lon="5.3629">
        <ele>593.751465</ele>
        <time>2009-06-14T11:45:58Z</time>
      </trkpt>
      <trkpt lat="44.19007" lon="5.36353">
        <ele>591.828857</ele>
        <time>2009-06-14T11:46:02Z</time>
      </trkpt>
      <trkpt lat="44.18995" lon="5.3648">
        <ele>589.90625</ele>
        <time>2009-06-14T11:46:10Z</time>
      </trkpt>
      <trkpt lat="44.18986" lon="5.36576">
        <ele>587.983398</ele>
        <time>2009-06-14T11:46:16Z</time>
      </trkpt>
      <trkpt lat="44.18966" lon="5.36633">
        <ele>585.580078</ele>
        <time>2009-06-14T11:46:20Z</time>
      </trkpt>
      <trkpt lat="44.18944" lon="5.36669">
        <ele>585.099609</ele>
        <time>2009-06-14T11:46:23Z</time>
      </trkpt>
      <trkpt lat="44.18948" lon="5.36711">
        <ele>583.657471</ele>
        <time>2009-06-14T11:46:26Z</time>
      </trkpt>
      <trkpt lat="44.18965" lon="5.36752">
        <ele>583.176758</ele>
        <time>2009-06-14T11:46:29Z</time>
      </trkpt>
      <trkpt lat="44.18977" lon="5.36798">
        <ele>583.657471</ele>
        <time>2009-06-14T11:46:32Z</time>
      </trkpt>
      <trkpt lat="44.18973" lon="5.36843">
        <ele>583.176758</ele>
        <time>2009-06-14T11:46:35Z</time>
      </trkpt>
      <trkpt lat="44.18955" lon="5.36881">
        <ele>582.215576</ele>
        <time>2009-06-14T11:46:38Z</time>
      </trkpt>
      <trkpt lat="44.18929" lon="5.36894">
        <ele>579.812256</ele>
        <time>2009-06-14T11:46:41Z</time>
      </trkpt>
      <trkpt lat="44.18899" lon="5.3688">
        <ele>581.254395</ele>
        <time>2009-06-14T11:46:43Z</time>
      </trkpt>
      <trkpt lat="44.18845" lon="5.36881">
        <ele>581.254395</ele>
        <time>2009-06-14T11:46:48Z</time>
      </trkpt>
      <trkpt lat="44.18836" lon="5.369">
        <ele>583.657471</ele>
        <time>2009-06-14T11:46:50Z</time>
      </trkpt>
      <trkpt lat="44.18796" lon="5.36944">
        <ele>581.734863</ele>
        <time>2009-06-14T11:46:55Z</time>
      </trkpt>
      <trkpt lat="44.18769" lon="5.36974">
        <ele>580.773682</ele>
        <time>2009-06-14T11:46:58Z</time>
      </trkpt>
      <trkpt lat="44.18712" lon="5.37063">
        <ele>571.1604</ele>
        <time>2009-06-14T11:47:05Z</time>
      </trkpt>
      <trkpt lat="44.18695" lon="5.37105">
        <ele>570.679688</ele>
        <time>2009-06-14T11:47:08Z</time>
      </trkpt>
      <trkpt lat="44.18686" lon="5.37186">
        <ele>566.35376</ele>
        <time>2009-06-14T11:47:13Z</time>
      </trkpt>
      <trkpt lat="44.18678" lon="5.37266">
        <ele>561.06665</ele>
        <time>2009-06-14T11:47:18Z</time>
      </trkpt>
      <trkpt lat="44.1866" lon="5.37323">
        <ele>559.624756</ele>
        <time>2009-06-14T11:47:22Z</time>
      </trkpt>
      <trkpt lat="44.18671" lon="5.37366">
        <ele>560.105225</ele>
        <time>2009-06-14T11:47:26Z</time>
      </trkpt>
      <trkpt lat="44.18695" lon="5.37388">
        <ele>559.144043</ele>
        <time>2009-06-14T11:47:29Z</time>
      </trkpt>
      <trkpt lat="44.18727" lon="5.37391">
        <ele>558.182861</ele>
        <time>2009-06-14T11:47:32Z</time>
      </trkpt>
      <trkpt lat="44.18782" lon="5.37381">
        <ele>556.26001</ele>
        <time>2009-06-14T11:47:36Z</time>
      </trkpt>
      <trkpt lat="44.18816" lon="5.37411">
        <ele>555.779297</ele>
        <time>2009-06-14T11:47:40Z</time>
      </trkpt>
      <trkpt lat="44.18828" lon="5.3744">
        <ele>554.817871</ele>
        <time>2009-06-14T11:47:43Z</time>
      </trkpt>
      <trkpt lat="44.18819" lon="5.3747">
        <ele>553.375977</ele>
        <time>2009-06-14T11:47:46Z</time>
      </trkpt>
      <trkpt lat="44.18799" lon="5.37486">
        <ele>552.414551</ele>
        <time>2009-06-14T11:47:48Z</time>
      </trkpt>
      <trkpt lat="44.1876" lon="5.375">
        <ele>551.934082</ele>
        <time>2009-06-14T11:47:51Z</time>
      </trkpt>
      <trkpt lat="44.18656" lon="5.37534">
        <ele>547.127441</ele>
        <time>2009-06-14T11:48:00Z</time>
      </trkpt>
      <trkpt lat="44.18609" lon="5.37529">
        <ele>542.801514</ele>
        <time>2009-06-14T11:48:04Z</time>
      </trkpt>
      <trkpt lat="44.18533" lon="5.37544">
        <ele>544.724243</ele>
        <time>2009-06-14T11:48:09Z</time>
      </trkpt>
      <trkpt lat="44.18511" lon="5.37578">
        <ele>543.762817</ele>
        <time>2009-06-14T11:48:12Z</time>
      </trkpt>
      <trkpt lat="44.18491" lon="5.37633">
        <ele>531.265747</ele>
        <time>2009-06-14T11:48:15Z</time>
      </trkpt>
      <trkpt lat="44.18487" lon="5.37683">
        <ele>528.862549</ele>
        <time>2009-06-14T11:48:18Z</time>
      </trkpt>
      <trkpt lat="44.18478" lon="5.37727">
        <ele>527.42041</ele>
        <time>2009-06-14T11:48:21Z</time>
      </trkpt>
      <trkpt lat="44.18462" lon="5.37756">
        <ele>525.497803</ele>
        <time>2009-06-14T11:48:24Z</time>
      </trkpt>
      <trkpt lat="44.18445" lon="5.37758">
        <ele>523.575195</ele>
        <time>2009-06-14T11:48:26Z</time>
      </trkpt>
      <trkpt lat="44.18409" lon="5.37746">
        <ele>520.691284</ele>
        <time>2009-06-14T11:48:29Z</time>
      </trkpt>
      <trkpt lat="44.18376" lon="5.37725">
        <ele>518.768555</ele>
        <time>2009-06-14T11:48:32Z</time>
      </trkpt>
      <trkpt lat="44.18356" lon="5.37709">
        <ele>517.32666</ele>
        <time>2009-06-14T11:48:34Z</time>
      </trkpt>
      <trkpt lat="44.18315" lon="5.37697">
        <ele>515.404053</ele>
        <time>2009-06-14T11:48:38Z</time>
      </trkpt>
      <trkpt lat="44.18285" lon="5.37719">
        <ele>512.52002</ele>
        <time>2009-06-14T11:48:41Z</time>
      </trkpt>
      <trkpt lat="44.18264" lon="5.37758">
        <ele>512.039429</ele>
        <time>2009-06-14T11:48:44Z</time>
      </trkpt>
      <trkpt lat="44.18257" lon="5.37788">
        <ele>511.558716</ele>
        <time>2009-06-14T11:48:46Z</time>
      </trkpt>
      <trkpt lat="44.18234" lon="5.37902">
        <ele>512.039429</ele>
        <time>2009-06-14T11:48:54Z</time>
      </trkpt>
      <trkpt lat="44.18205" lon="5.37928">
        <ele>516.845947</ele>
        <time>2009-06-14T11:48:58Z</time>
      </trkpt>
      <trkpt lat="44.18195" lon="5.37948">
        <ele>515.884644</ele>
        <time>2009-06-14T11:49:02Z</time>
      </trkpt>
      <trkpt lat="44.18197" lon="5.3796">
        <ele>518.768555</ele>
        <time>2009-06-14T11:49:04Z</time>
      </trkpt>
      <trkpt lat="44.18199" lon="5.38023">
        <ele>518.768555</ele>
        <time>2009-06-14T11:49:14Z</time>
      </trkpt>
      <trkpt lat="44.18202" lon="5.38052">
        <ele>519.249268</ele>
        <time>2009-06-14T11:49:18Z</time>
      </trkpt>
      <trkpt lat="44.18219" lon="5.38102">
        <ele>520.210571</ele>
        <time>2009-06-14T11:49:24Z</time>
      </trkpt>
      <trkpt lat="44.1824" lon="5.38159">
        <ele>520.210571</ele>
        <time>2009-06-14T11:49:31Z</time>
      </trkpt>
      <trkpt lat="44.18252" lon="5.38214">
        <ele>517.807251</ele>
        <time>2009-06-14T11:49:38Z</time>
      </trkpt>
      <trkpt lat="44.18261" lon="5.38271">
        <ele>518.768555</ele>
        <time>2009-06-14T11:49:45Z</time>
      </trkpt>
      <trkpt lat="44.18275" lon="5.38349">
        <ele>520.210571</ele>
        <time>2009-06-14T11:49:54Z</time>
      </trkpt>
      <trkpt lat="44.18289" lon="5.38422">
        <ele>521.171997</ele>
        <time>2009-06-14T11:50:02Z</time>
      </trkpt>
      <trkpt lat="44.18305" lon="5.38512">
        <ele>521.652588</ele>
        <time>2009-06-14T11:50:12Z</time>
      </trkpt>
      <trkpt lat="44.1832" lon="5.38591">
        <ele>522.613892</ele>
        <time>2009-06-14T11:50:21Z</time>
      </trkpt>
      <trkpt lat="44.18332" lon="5.38663">
        <ele>522.613892</ele>
        <time>2009-06-14T11:50:29Z</time>
      </trkpt>
      <trkpt lat="44.18333" lon="5.38712">
        <ele>523.094604</ele>
        <time>2009-06-14T11:50:34Z</time>
      </trkpt>
      <trkpt lat="44.18321" lon="5.38759">
        <ele>523.094604</ele>
        <time>2009-06-14T11:50:39Z</time>
      </trkpt>
      <trkpt lat="44.18295" lon="5.38815">
        <ele>522.613892</ele>
        <time>2009-06-14T11:50:46Z</time>
      </trkpt>
      <trkpt lat="44.18256" lon="5.38895">
        <ele>522.613892</ele>
        <time>2009-06-14T11:50:55Z</time>
      </trkpt>
      <trkpt lat="44.18213" lon="5.38985">
        <ele>524.055786</ele>
        <time>2009-06-14T11:51:05Z</time>
      </trkpt>
      <trkpt lat="44.18162" lon="5.39089">
        <ele>525.017212</ele>
        <time>2009-06-14T11:51:17Z</time>
      </trkpt>
      <trkpt lat="44.18125" lon="5.39165">
        <ele>526.939819</ele>
        <time>2009-06-14T11:51:26Z</time>
      </trkpt>
      <trkpt lat="44.18085" lon="5.39246">
        <ele>528.862549</ele>
        <time>2009-06-14T11:51:36Z</time>
      </trkpt>
      <trkpt lat="44.18047" lon="5.39325">
        <ele>527.42041</ele>
        <time>2009-06-14T11:51:46Z</time>
      </trkpt>
      <trkpt lat="44.18014" lon="5.39392">
        <ele>526.459106</ele>
        <time>2009-06-14T11:51:54Z</time>
      </trkpt>
      <trkpt lat="44.17981" lon="5.3946">
        <ele>526.459106</ele>
        <time>2009-06-14T11:52:02Z</time>
      </trkpt>
      <trkpt lat="44.17957" lon="5.39519">
        <ele>525.497803</ele>
        <time>2009-06-14T11:52:09Z</time>
      </trkpt>
      <trkpt lat="44.17927" lon="5.39613">
        <ele>524.536499</ele>
        <time>2009-06-14T11:52:20Z</time>
      </trkpt>
      <trkpt lat="44.17898" lon="5.39709">
        <ele>521.652588</ele>
        <time>2009-06-14T11:52:31Z</time>
      </trkpt>
      <trkpt lat="44.17873" lon="5.39794">
        <ele>521.171997</ele>
        <time>2009-06-14T11:52:40Z</time>
      </trkpt>
      <trkpt lat="44.17845" lon="5.39871">
        <ele>521.171997</ele>
        <time>2009-06-14T11:52:49Z</time>
      </trkpt>
      <trkpt lat="44.17809" lon="5.39953">
        <ele>522.133179</ele>
        <time>2009-06-14T11:52:59Z</time>
      </trkpt>
      <trkpt lat="44.17772" lon="5.40034">
        <ele>524.055786</ele>
        <time>2009-06-14T11:53:09Z</time>
      </trkpt>
      <trkpt lat="44.1774" lon="5.40079">
        <ele>526.459106</ele>
        <time>2009-06-14T11:53:16Z</time>
      </trkpt>
      <trkpt lat="44.17698" lon="5.40125">
        <ele>528.862549</ele>
        <time>2009-06-14T11:53:24Z</time>
      </trkpt>
      <trkpt lat="44.17655" lon="5.4017">
        <ele>530.785156</ele>
        <time>2009-06-14T11:53:32Z</time>
      </trkpt>
      <trkpt lat="44.1765" lon="5.40176">
        <ele>530.785156</ele>
        <time>2009-06-14T11:53:33Z</time>
      </trkpt>
      <trkpt lat="44.1762" lon="5.4019">
        <ele>531.746338</ele>
        <time>2009-06-14T11:53:38Z</time>
      </trkpt>
      <trkpt lat="44.17608" lon="5.40184">
        <ele>532.707764</ele>
        <time>2009-06-14T11:53:40Z</time>
      </trkpt>
      <trkpt lat="44.17572" lon="5.40167">
        <ele>535.591553</ele>
        <time>2009-06-14T11:53:46Z</time>
      </trkpt>
      <trkpt lat="44.17544" lon="5.40171">
        <ele>537.994995</ele>
        <time>2009-06-14T11:53:51Z</time>
      </trkpt>
      <trkpt lat="44.17519" lon="5.40196">
        <ele>540.878906</ele>
        <time>2009-06-14T11:53:57Z</time>
      </trkpt>
      <trkpt lat="44.17506" lon="5.40216">
        <ele>539.43689</ele>
        <time>2009-06-14T11:54:00Z</time>
      </trkpt>
      <trkpt lat="44.17496" lon="5.40255">
        <ele>541.359497</ele>
        <time>2009-06-14T11:54:05Z</time>
      </trkpt>
      <trkpt lat="44.17495" lon="5.40264">
        <ele>541.359497</ele>
        <time>2009-06-14T11:54:06Z</time>
      </trkpt>
      <trkpt lat="44.17493" lon="5.40344">
        <ele>538.956299</ele>
        <time>2009-06-14T11:54:14Z</time>
      </trkpt>
      <trkpt lat="44.17486" lon="5.40437">
        <ele>539.917603</ele>
        <time>2009-06-14T11:54:23Z</time>
      </trkpt>
      <trkpt lat="44.17485" lon="5.40448">
        <ele>539.917603</ele>
        <time>2009-06-14T11:54:24Z</time>
      </trkpt>
      <trkpt lat="44.17467" lon="5.40493">
        <ele>539.917603</ele>
        <time>2009-06-14T11:54:29Z</time>
      </trkpt>
      <trkpt lat="44.1745" lon="5.4051">
        <ele>540.398315</ele>
        <time>2009-06-14T11:54:32Z</time>
      </trkpt>
      <trkpt lat="44.17394" lon="5.40548">
        <ele>543.282104</ele>
        <time>2009-06-14T11:54:41Z</time>
      </trkpt>
      <trkpt lat="44.17351" lon="5.40589">
        <ele>544.243652</ele>
        <time>2009-06-14T11:54:48Z</time>
      </trkpt>
      <trkpt lat="44.17324" lon="5.40632">
        <ele>544.243652</ele>
        <time>2009-06-14T11:54:53Z</time>
      </trkpt>
      <trkpt lat="44.17277" lon="5.40708">
        <ele>544.243652</ele>
        <time>2009-06-14T11:55:02Z</time>
      </trkpt>
      <trkpt lat="44.17237" lon="5.40744">
        <ele>544.243652</ele>
        <time>2009-06-14T11:55:08Z</time>
      </trkpt>
      <trkpt lat="44.17231" lon="5.4075">
        <ele>544.724243</ele>
        <time>2009-06-14T11:55:09Z</time>
      </trkpt>
      <trkpt lat="44.17212" lon="5.40784">
        <ele>544.724243</ele>
        <time>2009-06-14T11:55:13Z</time>
      </trkpt>
      <trkpt lat="44.17192" lon="5.40833">
        <ele>543.762817</ele>
        <time>2009-06-14T11:55:18Z</time>
      </trkpt>
      <trkpt lat="44.17155" lon="5.40882">
        <ele>544.243652</ele>
        <time>2009-06-14T11:55:25Z</time>
      </trkpt>
      <trkpt lat="44.17135" lon="5.40923">
        <ele>545.204834</ele>
        <time>2009-06-14T11:55:30Z</time>
      </trkpt>
      <trkpt lat="44.171" lon="5.4101">
        <ele>546.646851</ele>
        <time>2009-06-14T11:55:40Z</time>
      </trkpt>
      <trkpt lat="44.17082" lon="5.41065">
        <ele>546.16626</ele>
        <time>2009-06-14T11:55:46Z</time>
      </trkpt>
      <trkpt lat="44.17078" lon="5.41105">
        <ele>546.646851</ele>
        <time>2009-06-14T11:55:50Z</time>
      </trkpt>
      <trkpt lat="44.17084" lon="5.41168">
        <ele>547.608154</ele>
        <time>2009-06-14T11:55:56Z</time>
      </trkpt>
      <trkpt lat="44.17085" lon="5.41178">
        <ele>547.127441</ele>
        <time>2009-06-14T11:55:57Z</time>
      </trkpt>
      <trkpt lat="44.17079" lon="5.4123">
        <ele>548.088867</ele>
        <time>2009-06-14T11:56:02Z</time>
      </trkpt>
      <trkpt lat="44.17067" lon="5.41257">
        <ele>548.569336</ele>
        <time>2009-06-14T11:56:05Z</time>
      </trkpt>
      <trkpt lat="44.17032" lon="5.41313">
        <ele>549.050049</ele>
        <time>2009-06-14T11:56:12Z</time>
      </trkpt>
      <trkpt lat="44.16997" lon="5.41385">
        <ele>549.050049</ele>
        <time>2009-06-14T11:56:20Z</time>
      </trkpt>
      <trkpt lat="44.16979" lon="5.41433">
        <ele>550.011475</ele>
        <time>2009-06-14T11:56:25Z</time>
      </trkpt>
      <trkpt lat="44.16969" lon="5.41497">
        <ele>550.011475</ele>
        <time>2009-06-14T11:56:31Z</time>
      </trkpt>
      <trkpt lat="44.16958" lon="5.41576">
        <ele>550.972656</ele>
        <time>2009-06-14T11:56:39Z</time>
      </trkpt>
      <trkpt lat="44.16942" lon="5.41645">
        <ele>552.895264</ele>
        <time>2009-06-14T11:56:47Z</time>
      </trkpt>
      <trkpt lat="44.16925" lon="5.41735">
        <ele>555.298584</ele>
        <time>2009-06-14T11:56:57Z</time>
      </trkpt>
      <trkpt lat="44.16921" lon="5.41753">
        <ele>555.779297</ele>
        <time>2009-06-14T11:56:59Z</time>
      </trkpt>
      <trkpt lat="44.16905" lon="5.41792">
        <ele>557.221436</ele>
        <time>2009-06-14T11:57:04Z</time>
      </trkpt>
      <trkpt lat="44.16889" lon="5.4181">
        <ele>558.182861</ele>
        <time>2009-06-14T11:57:07Z</time>
      </trkpt>
      <trkpt lat="44.16836" lon="5.41852">
        <ele>559.144043</ele>
        <time>2009-06-14T11:57:17Z</time>
      </trkpt>
      <trkpt lat="44.16802" lon="5.4188">
        <ele>560.585938</ele>
        <time>2009-06-14T11:57:23Z</time>
      </trkpt>
      <trkpt lat="44.16791" lon="5.4189">
        <ele>560.585938</ele>
        <time>2009-06-14T11:57:25Z</time>
      </trkpt>
      <trkpt lat="44.16764" lon="5.41928">
        <ele>561.547363</ele>
        <time>2009-06-14T11:57:30Z</time>
      </trkpt>
      <trkpt lat="44.1676" lon="5.41938">
        <ele>561.547363</ele>
        <time>2009-06-14T11:57:31Z</time>
      </trkpt>
      <trkpt lat="44.16738" lon="5.42008">
        <ele>562.989258</ele>
        <time>2009-06-14T11:57:38Z</time>
      </trkpt>
      <trkpt lat="44.16718" lon="5.42083">
        <ele>561.06665</ele>
        <time>2009-06-14T11:57:45Z</time>
      </trkpt>
      <trkpt lat="44.16712" lon="5.42107">
        <ele>560.105225</ele>
        <time>2009-06-14T11:57:47Z</time>
      </trkpt>
      <trkpt lat="44.16707" lon="5.42181">
        <ele>559.144043</ele>
        <time>2009-06-14T11:57:53Z</time>
      </trkpt>
      <trkpt lat="44.16702" lon="5.42293">
        <ele>558.66333</ele>
        <time>2009-06-14T11:58:02Z</time>
      </trkpt>
      <trkpt lat="44.16696" lon="5.42409">
        <ele>560.105225</ele>
        <time>2009-06-14T11:58:12Z</time>
      </trkpt>
      <trkpt lat="44.16691" lon="5.4251">
        <ele>561.06665</ele>
        <time>2009-06-14T11:58:21Z</time>
      </trkpt>
      <trkpt lat="44.16685" lon="5.42615">
        <ele>563.950439</ele>
        <time>2009-06-14T11:58:31Z</time>
      </trkpt>
      <trkpt lat="44.1668" lon="5.42706">
        <ele>565.873291</ele>
        <time>2009-06-14T11:58:40Z</time>
      </trkpt>
      <trkpt lat="44.16672" lon="5.42759">
        <ele>565.392578</ele>
        <time>2009-06-14T11:58:45Z</time>
      </trkpt>
      <trkpt lat="44.16652" lon="5.42807">
        <ele>564.431152</ele>
        <time>2009-06-14T11:58:50Z</time>
      </trkpt>
      <trkpt lat="44.16615" lon="5.42877">
        <ele>562.508545</ele>
        <time>2009-06-14T11:58:58Z</time>
      </trkpt>
      <trkpt lat="44.16572" lon="5.42957">
        <ele>562.028076</ele>
        <time>2009-06-14T11:59:08Z</time>
      </trkpt>
      <trkpt lat="44.16535" lon="5.43024">
        <ele>562.989258</ele>
        <time>2009-06-14T11:59:17Z</time>
      </trkpt>
      <trkpt lat="44.16498" lon="5.43092">
        <ele>563.950439</ele>
        <time>2009-06-14T11:59:27Z</time>
      </trkpt>
      <trkpt lat="44.16495" lon="5.43097">
        <ele>564.431152</ele>
        <time>2009-06-14T11:59:28Z</time>
      </trkpt>
      <trkpt lat="44.16478" lon="5.4312">
        <ele>565.392578</ele>
        <time>2009-06-14T11:59:34Z</time>
      </trkpt>
      <trkpt lat="44.16476" lon="5.43122">
        <ele>565.873291</ele>
        <time>2009-06-14T11:59:35Z</time>
      </trkpt>
      <trkpt lat="44.16463" lon="5.43147">
        <ele>567.315186</ele>
        <time>2009-06-14T11:59:41Z</time>
      </trkpt>
      <trkpt lat="44.16451" lon="5.43168">
        <ele>568.75708</ele>
        <time>2009-06-14T11:59:45Z</time>
      </trkpt>
      <trkpt lat="44.16433" lon="5.43173">
        <ele>569.237793</ele>
        <time>2009-06-14T11:59:49Z</time>
      </trkpt>
      <trkpt lat="44.16396" lon="5.43162">
        <ele>570.198975</ele>
        <time>2009-06-14T11:59:56Z</time>
      </trkpt>
      <trkpt lat="44.16362" lon="5.4315">
        <ele>571.1604</ele>
        <time>2009-06-14T12:00:02Z</time>
      </trkpt>
      <trkpt lat="44.16328" lon="5.4314">
        <ele>570.679688</ele>
        <time>2009-06-14T12:00:08Z</time>
      </trkpt>
      <trkpt lat="44.16285" lon="5.43151">
        <ele>572.602539</ele>
        <time>2009-06-14T12:00:15Z</time>
      </trkpt>
      <trkpt lat="44.16236" lon="5.43177">
        <ele>575.005859</ele>
        <time>2009-06-14T12:00:23Z</time>
      </trkpt>
      <trkpt lat="44.16185" lon="5.43209">
        <ele>576.447754</ele>
        <time>2009-06-14T12:00:32Z</time>
      </trkpt>
      <trkpt lat="44.16124" lon="5.43256">
        <ele>577.40918</ele>
        <time>2009-06-14T12:00:43Z</time>
      </trkpt>
      <trkpt lat="44.16072" lon="5.43291">
        <ele>578.851074</ele>
        <time>2009-06-14T12:00:52Z</time>
      </trkpt>
      <trkpt lat="44.16041" lon="5.43294">
        <ele>579.812256</ele>
        <time>2009-06-14T12:00:57Z</time>
      </trkpt>
      <trkpt lat="44.16036" lon="5.43294">
        <ele>580.292969</ele>
        <time>2009-06-14T12:00:58Z</time>
      </trkpt>
      <trkpt lat="44.16003" lon="5.43309">
        <ele>581.734863</ele>
        <time>2009-06-14T12:01:04Z</time>
      </trkpt>
      <trkpt lat="44.1597" lon="5.43332">
        <ele>582.696289</ele>
        <time>2009-06-14T12:01:11Z</time>
      </trkpt>
      <trkpt lat="44.15955" lon="5.4334">
        <ele>582.696289</ele>
        <time>2009-06-14T12:01:14Z</time>
      </trkpt>
      <trkpt lat="44.15938" lon="5.43339">
        <ele>583.657471</ele>
        <time>2009-06-14T12:01:18Z</time>
      </trkpt>
      <trkpt lat="44.159" lon="5.43352">
        <ele>587.021973</ele>
        <time>2009-06-14T12:01:25Z</time>
      </trkpt>
      <trkpt lat="44.15894" lon="5.43355">
        <ele>587.021973</ele>
        <time>2009-06-14T12:01:26Z</time>
      </trkpt>
      <trkpt lat="44.15871" lon="5.43379">
        <ele>587.983398</ele>
        <time>2009-06-14T12:01:31Z</time>
      </trkpt>
      <trkpt lat="44.15865" lon="5.43393">
        <ele>587.983398</ele>
        <time>2009-06-14T12:01:33Z</time>
      </trkpt>
      <trkpt lat="44.1586" lon="5.43406">
        <ele>587.983398</ele>
        <time>2009-06-14T12:01:35Z</time>
      </trkpt>
      <trkpt lat="44.15844" lon="5.43432">
        <ele>588.464355</ele>
        <time>2009-06-14T12:01:40Z</time>
      </trkpt>
      <trkpt lat="44.1582" lon="5.43458">
        <ele>587.983398</ele>
        <time>2009-06-14T12:01:47Z</time>
      </trkpt>
      <trkpt lat="44.15809" lon="5.43469">
        <ele>590.386963</ele>
        <time>2009-06-14T12:01:50Z</time>
      </trkpt>
      <trkpt lat="44.15783" lon="5.43479">
        <ele>591.828857</ele>
        <time>2009-06-14T12:01:56Z</time>
      </trkpt>
      <trkpt lat="44.15742" lon="5.43491">
        <ele>593.751465</ele>
        <time>2009-06-14T12:02:05Z</time>
      </trkpt>
      <trkpt lat="44.1571" lon="5.43498">
        <ele>593.751465</ele>
        <time>2009-06-14T12:02:13Z</time>
      </trkpt>
      <trkpt lat="44.15685" lon="5.4351">
        <ele>596.154785</ele>
        <time>2009-06-14T12:02:20Z</time>
      </trkpt>
      <trkpt lat="44.15655" lon="5.43521">
        <ele>599.519287</ele>
        <time>2009-06-14T12:02:28Z</time>
      </trkpt>
      <trkpt lat="44.15626" lon="5.43525">
        <ele>603.364502</ele>
        <time>2009-06-14T12:02:35Z</time>
      </trkpt>
      <trkpt lat="44.15606" lon="5.43544">
        <ele>605.287354</ele>
        <time>2009-06-14T12:02:41Z</time>
      </trkpt>
      <trkpt lat="44.15591" lon="5.43563">
        <ele>605.768066</ele>
        <time>2009-06-14T12:02:45Z</time>
      </trkpt>
      <trkpt lat="44.15577" lon="5.43579">
        <ele>606.248535</ele>
        <time>2009-06-14T12:02:48Z</time>
      </trkpt>
      <trkpt lat="44.15546" lon="5.43591">
        <ele>604.326172</ele>
        <time>2009-06-14T12:02:53Z</time>
      </trkpt>
      <trkpt lat="44.15533" lon="5.43586">
        <ele>603.845215</ele>
        <time>2009-06-14T12:02:55Z</time>
      </trkpt>
      <trkpt lat="44.1548" lon="5.43569">
        <ele>605.768066</ele>
        <time>2009-06-14T12:03:04Z</time>
      </trkpt>
      <trkpt lat="44.15431" lon="5.43565">
        <ele>608.651855</ele>
        <time>2009-06-14T12:03:13Z</time>
      </trkpt>
      <trkpt lat="44.15381" lon="5.43561">
        <ele>611.055176</ele>
        <time>2009-06-14T12:03:22Z</time>
      </trkpt>
      <trkpt lat="44.15361" lon="5.4355">
        <ele>612.49707</ele>
        <time>2009-06-14T12:03:26Z</time>
      </trkpt>
      <trkpt lat="44.15327" lon="5.43514">
        <ele>614.419678</ele>
        <time>2009-06-14T12:03:33Z</time>
      </trkpt>
      <trkpt lat="44.1529" lon="5.43463">
        <ele>616.822998</ele>
        <time>2009-06-14T12:03:41Z</time>
      </trkpt>
      <trkpt lat="44.15286" lon="5.43456">
        <ele>616.822998</ele>
        <time>2009-06-14T12:03:42Z</time>
      </trkpt>
      <trkpt lat="44.15277" lon="5.43424">
        <ele>617.303711</ele>
        <time>2009-06-14T12:03:46Z</time>
      </trkpt>
      <trkpt lat="44.15276" lon="5.43371">
        <ele>618.264893</ele>
        <time>2009-06-14T12:03:52Z</time>
      </trkpt>
      <trkpt lat="44.15284" lon="5.43288">
        <ele>618.745605</ele>
        <time>2009-06-14T12:04:02Z</time>
      </trkpt>
      <trkpt lat="44.15292" lon="5.43194">
        <ele>620.668457</ele>
        <time>2009-06-14T12:04:14Z</time>
      </trkpt>
      <trkpt lat="44.15294" lon="5.43135">
        <ele>623.071777</ele>
        <time>2009-06-14T12:04:22Z</time>
      </trkpt>
      <trkpt lat="44.15284" lon="5.43081">
        <ele>624.513672</ele>
        <time>2009-06-14T12:04:30Z</time>
      </trkpt>
      <trkpt lat="44.15266" lon="5.43038">
        <ele>625.474854</ele>
        <time>2009-06-14T12:04:37Z</time>
      </trkpt>
      <trkpt lat="44.15245" lon="5.43009">
        <ele>626.436279</ele>
        <time>2009-06-14T12:04:43Z</time>
      </trkpt>
      <trkpt lat="44.15205" lon="5.42967">
        <ele>627.878174</ele>
        <time>2009-06-14T12:04:53Z</time>
      </trkpt>
      <trkpt lat="44.15163" lon="5.42921">
        <ele>630.281494</ele>
        <time>2009-06-14T12:05:04Z</time>
      </trkpt>
      <trkpt lat="44.15128" lon="5.42878">
        <ele>632.204102</ele>
        <time>2009-06-14T12:05:14Z</time>
      </trkpt>
      <trkpt lat="44.151" lon="5.42853">
        <ele>633.645996</ele>
        <time>2009-06-14T12:05:21Z</time>
      </trkpt>
      <trkpt lat="44.15062" lon="5.42839">
        <ele>635.568604</ele>
        <time>2009-06-14T12:05:29Z</time>
      </trkpt>
      <trkpt lat="44.15025" lon="5.42827">
        <ele>637.491455</ele>
        <time>2009-06-14T12:05:37Z</time>
      </trkpt>
      <trkpt lat="44.14995" lon="5.42806">
        <ele>638.933594</ele>
        <time>2009-06-14T12:05:44Z</time>
      </trkpt>
      <trkpt lat="44.14991" lon="5.42802">
        <ele>638.933594</ele>
        <time>2009-06-14T12:05:45Z</time>
      </trkpt>
      <trkpt lat="44.14975" lon="5.42768">
        <ele>639.414063</ele>
        <time>2009-06-14T12:05:51Z</time>
      </trkpt>
      <trkpt lat="44.14974" lon="5.42742">
        <ele>640.855957</ele>
        <time>2009-06-14T12:05:55Z</time>
      </trkpt>
      <trkpt lat="44.14976" lon="5.42729">
        <ele>641.33667</ele>
        <time>2009-06-14T12:05:57Z</time>
      </trkpt>
      <trkpt lat="44.14995" lon="5.42656">
        <ele>644.701172</ele>
        <time>2009-06-14T12:06:09Z</time>
      </trkpt>
      <trkpt lat="44.15013" lon="5.42587">
        <ele>649.988525</ele>
        <time>2009-06-14T12:06:20Z</time>
      </trkpt>
      <trkpt lat="44.15019" lon="5.42542">
        <ele>649.507813</ele>
        <time>2009-06-14T12:06:27Z</time>
      </trkpt>
      <trkpt lat="44.15016" lon="5.42502">
        <ele>650.949707</ele>
        <time>2009-06-14T12:06:33Z</time>
      </trkpt>
      <trkpt lat="44.15" lon="5.42441">
        <ele>653.833984</ele>
        <time>2009-06-14T12:06:43Z</time>
      </trkpt>
      <trkpt lat="44.14986" lon="5.42391">
        <ele>656.237061</ele>
        <time>2009-06-14T12:06:51Z</time>
      </trkpt>
      <trkpt lat="44.14974" lon="5.42363">
        <ele>658.159912</ele>
        <time>2009-06-14T12:06:56Z</time>
      </trkpt>
      <trkpt lat="44.14947" lon="5.42335">
        <ele>659.601807</ele>
        <time>2009-06-14T12:07:03Z</time>
      </trkpt>
      <trkpt lat="44.1491" lon="5.42296">
        <ele>660.082275</ele>
        <time>2009-06-14T12:07:13Z</time>
      </trkpt>
      <trkpt lat="44.14877" lon="5.42255">
        <ele>661.524414</ele>
        <time>2009-06-14T12:07:22Z</time>
      </trkpt>
      <trkpt lat="44.14841" lon="5.42206">
        <ele>663.447021</ele>
        <time>2009-06-14T12:07:32Z</time>
      </trkpt>
      <trkpt lat="44.14803" lon="5.4217">
        <ele>663.92749</ele>
        <time>2009-06-14T12:07:41Z</time>
      </trkpt>
      <trkpt lat="44.14799" lon="5.42166">
        <ele>663.92749</ele>
        <time>2009-06-14T12:07:42Z</time>
      </trkpt>
      <trkpt lat="44.14788" lon="5.42141">
        <ele>666.811523</ele>
        <time>2009-06-14T12:07:46Z</time>
      </trkpt>
      <trkpt lat="44.14782" lon="5.42123">
        <ele>669.215088</ele>
        <time>2009-06-14T12:07:49Z</time>
      </trkpt>
      <trkpt lat="44.14759" lon="5.42098">
        <ele>670.17627</ele>
        <time>2009-06-14T12:07:55Z</time>
      </trkpt>
      <trkpt lat="44.14726" lon="5.4208">
        <ele>670.656982</ele>
        <time>2009-06-14T12:08:02Z</time>
      </trkpt>
      <trkpt lat="44.14707" lon="5.42049">
        <ele>671.137695</ele>
        <time>2009-06-14T12:08:08Z</time>
      </trkpt>
      <trkpt lat="44.14703" lon="5.42044">
        <ele>671.137695</ele>
        <time>2009-06-14T12:08:09Z</time>
      </trkpt>
      <trkpt lat="44.14686" lon="5.42031">
        <ele>671.618164</ele>
        <time>2009-06-14T12:08:13Z</time>
      </trkpt>
      <trkpt lat="44.14644" lon="5.42018">
        <ele>672.57959</ele>
        <time>2009-06-14T12:08:21Z</time>
      </trkpt>
      <trkpt lat="44.14598" lon="5.42003">
        <ele>675.944092</ele>
        <time>2009-06-14T12:08:30Z</time>
      </trkpt>
      <trkpt lat="44.14569" lon="5.42001">
        <ele>676.905518</ele>
        <time>2009-06-14T12:08:36Z</time>
      </trkpt>
      <trkpt lat="44.14531" lon="5.42012">
        <ele>676.424805</ele>
        <time>2009-06-14T12:08:44Z</time>
      </trkpt>
      <trkpt lat="44.14515" lon="5.42018">
        <ele>675.944092</ele>
        <time>2009-06-14T12:08:47Z</time>
      </trkpt>
      <trkpt lat="44.14494" lon="5.42037">
        <ele>677.38623</ele>
        <time>2009-06-14T12:08:52Z</time>
      </trkpt>
      <trkpt lat="44.14485" lon="5.42046">
        <ele>677.866699</ele>
        <time>2009-06-14T12:08:54Z</time>
      </trkpt>
      <trkpt lat="44.14459" lon="5.42058">
        <ele>680.27002</ele>
        <time>2009-06-14T12:08:59Z</time>
      </trkpt>
      <trkpt lat="44.14423" lon="5.42054">
        <ele>681.231445</ele>
        <time>2009-06-14T12:09:06Z</time>
      </trkpt>
      <trkpt lat="44.14409" lon="5.42051">
        <ele>682.192627</ele>
        <time>2009-06-14T12:09:09Z</time>
      </trkpt>
      <trkpt lat="44.14367" lon="5.42033">
        <ele>683.153809</ele>
        <time>2009-06-14T12:09:18Z</time>
      </trkpt>
      <trkpt lat="44.1434" lon="5.42017">
        <ele>684.596191</ele>
        <time>2009-06-14T12:09:24Z</time>
      </trkpt>
      <trkpt lat="44.14328" lon="5.42008">
        <ele>685.557373</ele>
        <time>2009-06-14T12:09:27Z</time>
      </trkpt>
      <trkpt lat="44.14302" lon="5.41998">
        <ele>688.441406</ele>
        <time>2009-06-14T12:09:33Z</time>
      </trkpt>
      <trkpt lat="44.14286" lon="5.41996">
        <ele>690.844482</ele>
        <time>2009-06-14T12:09:37Z</time>
      </trkpt>
      <trkpt lat="44.14255" lon="5.42008">
        <ele>692.286621</ele>
        <time>2009-06-14T12:09:44Z</time>
      </trkpt>
      <trkpt lat="44.1422" lon="5.42015">
        <ele>691.805908</ele>
        <time>2009-06-14T12:09:51Z</time>
      </trkpt>
      <trkpt lat="44.14194" lon="5.42008">
        <ele>693.728516</ele>
        <time>2009-06-14T12:09:57Z</time>
      </trkpt>
      <trkpt lat="44.14168" lon="5.41986">
        <ele>695.651123</ele>
        <time>2009-06-14T12:10:04Z</time>
      </trkpt>
      <trkpt lat="44.14143" lon="5.41951">
        <ele>699.015625</ele>
        <time>2009-06-14T12:10:12Z</time>
      </trkpt>
      <trkpt lat="44.14115" lon="5.41909">
        <ele>702.380371</ele>
        <time>2009-06-14T12:10:21Z</time>
      </trkpt>
      <trkpt lat="44.14085" lon="5.41872">
        <ele>704.783691</ele>
        <time>2009-06-14T12:10:30Z</time>
      </trkpt>
      <trkpt lat="44.14081" lon="5.41869">
        <ele>704.783691</ele>
        <time>2009-06-14T12:10:31Z</time>
      </trkpt>
      <trkpt lat="44.14057" lon="5.41866">
        <ele>705.745117</ele>
        <time>2009-06-14T12:10:36Z</time>
      </trkpt>
      <trkpt lat="44.14039" lon="5.41869">
        <ele>706.225586</ele>
        <time>2009-06-14T12:10:40Z</time>
      </trkpt>
      <trkpt lat="44.1401" lon="5.41876">
        <ele>707.667725</ele>
        <time>2009-06-14T12:10:47Z</time>
      </trkpt>
      <trkpt lat="44.13975" lon="5.41878">
        <ele>709.109619</ele>
        <time>2009-06-14T12:10:55Z</time>
      </trkpt>
      <trkpt lat="44.13948" lon="5.41861">
        <ele>709.590332</ele>
        <time>2009-06-14T12:11:02Z</time>
      </trkpt>
      <trkpt lat="44.13915" lon="5.41835">
        <ele>711.512939</ele>
        <time>2009-06-14T12:11:11Z</time>
      </trkpt>
      <trkpt lat="44.13891" lon="5.41834">
        <ele>712.474121</ele>
        <time>2009-06-14T12:11:17Z</time>
      </trkpt>
      <trkpt lat="44.13876" lon="5.41846">
        <ele>713.435547</ele>
        <time>2009-06-14T12:11:21Z</time>
      </trkpt>
      <trkpt lat="44.13858" lon="5.41879">
        <ele>714.877441</ele>
        <time>2009-06-14T12:11:28Z</time>
      </trkpt>
      <trkpt lat="44.13853" lon="5.41901">
        <ele>716.31958</ele>
        <time>2009-06-14T12:11:32Z</time>
      </trkpt>
      <trkpt lat="44.1385" lon="5.4195">
        <ele>717.281006</ele>
        <time>2009-06-14T12:11:40Z</time>
      </trkpt>
      <trkpt lat="44.13839" lon="5.41984">
        <ele>717.281006</ele>
        <time>2009-06-14T12:11:46Z</time>
      </trkpt>
      <trkpt lat="44.13824" lon="5.41996">
        <ele>716.31958</ele>
        <time>2009-06-14T12:11:50Z</time>
      </trkpt>
      <trkpt lat="44.13807" lon="5.41999">
        <ele>715.358154</ele>
        <time>2009-06-14T12:11:54Z</time>
      </trkpt>
      <trkpt lat="44.13765" lon="5.41992">
        <ele>715.358154</ele>
        <time>2009-06-14T12:12:04Z</time>
      </trkpt>
      <trkpt lat="44.1374" lon="5.41997">
        <ele>715.838867</ele>
        <time>2009-06-14T12:12:10Z</time>
      </trkpt>
      <trkpt lat="44.13703" lon="5.42012">
        <ele>716.800293</ele>
        <time>2009-06-14T12:12:19Z</time>
      </trkpt>
      <trkpt lat="44.13667" lon="5.42022">
        <ele>717.281006</ele>
        <time>2009-06-14T12:12:28Z</time>
      </trkpt>
      <trkpt lat="44.13628" lon="5.42024">
        <ele>721.126221</ele>
        <time>2009-06-14T12:12:37Z</time>
      </trkpt>
      <trkpt lat="44.13598" lon="5.42022">
        <ele>723.529541</ele>
        <time>2009-06-14T12:12:44Z</time>
      </trkpt>
      <trkpt lat="44.13565" lon="5.42023">
        <ele>725.932617</ele>
        <time>2009-06-14T12:12:52Z</time>
      </trkpt>
      <trkpt lat="44.13531" lon="5.42024">
        <ele>729.297119</ele>
        <time>2009-06-14T12:13:00Z</time>
      </trkpt>
      <trkpt lat="44.13506" lon="5.42025">
        <ele>730.739258</ele>
        <time>2009-06-14T12:13:06Z</time>
      </trkpt>
      <trkpt lat="44.13464" lon="5.42024">
        <ele>735.06543</ele>
        <time>2009-06-14T12:13:16Z</time>
      </trkpt>
      <trkpt lat="44.13425" lon="5.42025">
        <ele>737.468506</ele>
        <time>2009-06-14T12:13:25Z</time>
      </trkpt>
      <trkpt lat="44.13407" lon="5.42024">
        <ele>738.429932</ele>
        <time>2009-06-14T12:13:29Z</time>
      </trkpt>
      <trkpt lat="44.13364" lon="5.42015">
        <ele>739.871826</ele>
        <time>2009-06-14T12:13:40Z</time>
      </trkpt>
      <trkpt lat="44.13336" lon="5.42017">
        <ele>741.313721</ele>
        <time>2009-06-14T12:13:47Z</time>
      </trkpt>
      <trkpt lat="44.13316" lon="5.42034">
        <ele>743.236328</ele>
        <time>2009-06-14T12:13:53Z</time>
      </trkpt>
      <trkpt lat="44.13299" lon="5.42067">
        <ele>746.120361</ele>
        <time>2009-06-14T12:14:00Z</time>
      </trkpt>
      <trkpt lat="44.13289" lon="5.42107">
        <ele>748.043213</ele>
        <time>2009-06-14T12:14:07Z</time>
      </trkpt>
      <trkpt lat="44.13279" lon="5.42161">
        <ele>749.96582</ele>
        <time>2009-06-14T12:14:16Z</time>
      </trkpt>
      <trkpt lat="44.13271" lon="5.42213">
        <ele>751.407715</ele>
        <time>2009-06-14T12:14:25Z</time>
      </trkpt>
      <trkpt lat="44.13261" lon="5.42265">
        <ele>752.368896</ele>
        <time>2009-06-14T12:14:34Z</time>
      </trkpt>
      <trkpt lat="44.13246" lon="5.42307">
        <ele>753.811035</ele>
        <time>2009-06-14T12:14:42Z</time>
      </trkpt>
      <trkpt lat="44.13222" lon="5.42354">
        <ele>755.733643</ele>
        <time>2009-06-14T12:14:52Z</time>
      </trkpt>
      <trkpt lat="44.13196" lon="5.42394">
        <ele>757.175537</ele>
        <time>2009-06-14T12:15:01Z</time>
      </trkpt>
      <trkpt lat="44.13179" lon="5.42425">
        <ele>760.059326</ele>
        <time>2009-06-14T12:15:08Z</time>
      </trkpt>
      <trkpt lat="44.13175" lon="5.42458">
        <ele>761.501465</ele>
        <time>2009-06-14T12:15:14Z</time>
      </trkpt>
      <trkpt lat="44.13181" lon="5.42474">
        <ele>761.020752</ele>
        <time>2009-06-14T12:15:17Z</time>
      </trkpt>
      <trkpt lat="44.13206" lon="5.42488">
        <ele>763.424072</ele>
        <time>2009-06-14T12:15:23Z</time>
      </trkpt>
      <trkpt lat="44.13211" lon="5.42487">
        <ele>763.424072</ele>
        <time>2009-06-14T12:15:24Z</time>
      </trkpt>
      <trkpt lat="44.13259" lon="5.42476">
        <ele>764.385498</ele>
        <time>2009-06-14T12:15:33Z</time>
      </trkpt>
      <trkpt lat="44.13264" lon="5.42475">
        <ele>764.866211</ele>
        <time>2009-06-14T12:15:34Z</time>
      </trkpt>
      <trkpt lat="44.13291" lon="5.42482">
        <ele>767.269531</ele>
        <time>2009-06-14T12:15:39Z</time>
      </trkpt>
      <trkpt lat="44.13303" lon="5.42504">
        <ele>767.75</ele>
        <time>2009-06-14T12:15:43Z</time>
      </trkpt>
      <trkpt lat="44.13305" lon="5.42539">
        <ele>769.672852</ele>
        <time>2009-06-14T12:15:48Z</time>
      </trkpt>
      <trkpt lat="44.13294" lon="5.42561">
        <ele>770.634033</ele>
        <time>2009-06-14T12:15:52Z</time>
      </trkpt>
      <trkpt lat="44.13286" lon="5.42569">
        <ele>771.114746</ele>
        <time>2009-06-14T12:15:54Z</time>
      </trkpt>
      <trkpt lat="44.13273" lon="5.42578">
        <ele>771.595215</ele>
        <time>2009-06-14T12:15:57Z</time>
      </trkpt>
      <trkpt lat="44.13263" lon="5.42589">
        <ele>771.114746</ele>
        <time>2009-06-14T12:16:00Z</time>
      </trkpt>
      <trkpt lat="44.13254" lon="5.42618">
        <ele>771.595215</ele>
        <time>2009-06-14T12:16:05Z</time>
      </trkpt>
      <trkpt lat="44.13251" lon="5.42673">
        <ele>771.595215</ele>
        <time>2009-06-14T12:16:13Z</time>
      </trkpt>
      <trkpt lat="44.13243" lon="5.42712">
        <ele>772.556641</ele>
        <time>2009-06-14T12:16:19Z</time>
      </trkpt>
      <trkpt lat="44.13232" lon="5.42737">
        <ele>772.556641</ele>
        <time>2009-06-14T12:16:23Z</time>
      </trkpt>
      <trkpt lat="44.13216" lon="5.42752">
        <ele>773.998535</ele>
        <time>2009-06-14T12:16:27Z</time>
      </trkpt>
      <trkpt lat="44.13183" lon="5.42758">
        <ele>774.959961</ele>
        <time>2009-06-14T12:16:34Z</time>
      </trkpt>
      <trkpt lat="44.13137" lon="5.42747">
        <ele>777.363281</ele>
        <time>2009-06-14T12:16:44Z</time>
      </trkpt>
      <trkpt lat="44.1309" lon="5.42735">
        <ele>777.84375</ele>
        <time>2009-06-14T12:16:54Z</time>
      </trkpt>
      <trkpt lat="44.13054" lon="5.42719">
        <ele>779.285645</ele>
        <time>2009-06-14T12:17:02Z</time>
      </trkpt>
      <trkpt lat="44.13022" lon="5.42694">
        <ele>781.20874</ele>
        <time>2009-06-14T12:17:10Z</time>
      </trkpt>
      <trkpt lat="44.12988" lon="5.42669">
        <ele>782.650635</ele>
        <time>2009-06-14T12:17:18Z</time>
      </trkpt>
      <trkpt lat="44.12983" lon="5.42666">
        <ele>783.131104</ele>
        <time>2009-06-14T12:17:19Z</time>
      </trkpt>
      <trkpt lat="44.1296" lon="5.42656">
        <ele>784.092529</ele>
        <time>2009-06-14T12:17:24Z</time>
      </trkpt>
      <trkpt lat="44.12942" lon="5.42658">
        <ele>784.092529</ele>
        <time>2009-06-14T12:17:28Z</time>
      </trkpt>
      <trkpt lat="44.12918" lon="5.42677">
        <ele>785.053955</ele>
        <time>2009-06-14T12:17:34Z</time>
      </trkpt>
      <trkpt lat="44.12915" lon="5.42682">
        <ele>785.534424</ele>
        <time>2009-06-14T12:17:35Z</time>
      </trkpt>
      <trkpt lat="44.1291" lon="5.42692">
        <ele>784.573242</ele>
        <time>2009-06-14T12:17:37Z</time>
      </trkpt>
      <trkpt lat="44.12906" lon="5.42712">
        <ele>784.092529</ele>
        <time>2009-06-14T12:17:41Z</time>
      </trkpt>
      <trkpt lat="44.12916" lon="5.42731">
        <ele>786.976318</ele>
        <time>2009-06-14T12:17:46Z</time>
      </trkpt>
      <trkpt lat="44.12933" lon="5.42761">
        <ele>789.379639</ele>
        <time>2009-06-14T12:17:53Z</time>
      </trkpt>
      <trkpt lat="44.12938" lon="5.42766">
        <ele>788.418457</ele>
        <time>2009-06-14T12:17:56Z</time>
      </trkpt>
      <trkpt lat="44.12939" lon="5.42772">
        <ele>789.379639</ele>
        <time>2009-06-14T12:18:12Z</time>
      </trkpt>
      <trkpt lat="44.12939" lon="5.42773">
        <ele>786.976318</ele>
        <time>2009-06-14T12:18:26Z</time>
      </trkpt>
      <trkpt lat="44.12943" lon="5.4277">
        <ele>789.860352</ele>
        <time>2009-06-14T12:19:05Z</time>
      </trkpt>
      <trkpt lat="44.12944" lon="5.4277">
        <ele>780.728027</ele>
        <time>2009-06-14T12:20:13Z</time>
      </trkpt>
      <trkpt lat="44.12943" lon="5.42771">
        <ele>783.131104</ele>
        <time>2009-06-14T12:20:22Z</time>
      </trkpt>
      <trkpt lat="44.12938" lon="5.42762">
        <ele>786.015137</ele>
        <time>2009-06-14T12:20:29Z</time>
      </trkpt>
      <trkpt lat="44.12936" lon="5.42758">
        <ele>791.782959</ele>
        <time>2009-06-14T12:20:35Z</time>
      </trkpt>
      <trkpt lat="44.12935" lon="5.42758">
        <ele>792.263672</ele>
        <time>2009-06-14T12:20:37Z</time>
      </trkpt>
      <trkpt lat="44.12929" lon="5.42759">
        <ele>788.89917</ele>
        <time>2009-06-14T12:20:42Z</time>
      </trkpt>
      <trkpt lat="44.12928" lon="5.42761">
        <ele>784.573242</ele>
        <time>2009-06-14T12:20:47Z</time>
      </trkpt>
      <trkpt lat="44.12931" lon="5.42759">
        <ele>782.169922</ele>
        <time>2009-06-14T12:20:54Z</time>
      </trkpt>
      <trkpt lat="44.12933" lon="5.42758">
        <ele>783.131104</ele>
        <time>2009-06-14T12:21:03Z</time>
      </trkpt>
      <trkpt lat="44.12935" lon="5.42764">
        <ele>785.053955</ele>
        <time>2009-06-14T12:21:07Z</time>
      </trkpt>
      <trkpt lat="44.12943" lon="5.42768">
        <ele>781.689209</ele>
        <time>2009-06-14T12:21:15Z</time>
      </trkpt>
      <trkpt lat="44.12942" lon="5.4277">
        <ele>786.015137</ele>
        <time>2009-06-14T12:21:25Z</time>
      </trkpt>
      <trkpt lat="44.12943" lon="5.42772">
        <ele>786.49585</ele>
        <time>2009-06-14T12:21:55Z</time>
      </trkpt>
      <trkpt lat="44.12943" lon="5.42772">
        <ele>788.418457</ele>
        <time>2009-06-14T12:22:09Z</time>
      </trkpt>
      <trkpt lat="44.12941" lon="5.42769">
        <ele>784.573242</ele>
        <time>2009-06-14T12:23:07Z</time>
      </trkpt>
      <trkpt lat="44.12943" lon="5.42772">
        <ele>789.860352</ele>
        <time>2009-06-14T12:24:17Z</time>
      </trkpt>
      <trkpt lat="44.12946" lon="5.42773">
        <ele>797.551025</ele>
        <time>2009-06-14T12:24:57Z</time>
      </trkpt>
      <trkpt lat="44.12946" lon="5.42772">
        <ele>781.689209</ele>
        <time>2009-06-14T12:25:24Z</time>
      </trkpt>
      <trkpt lat="44.12941" lon="5.42774">
        <ele>785.053955</ele>
        <time>2009-06-14T12:25:34Z</time>
      </trkpt>
      <trkpt lat="44.1294" lon="5.42772">
        <ele>786.976318</ele>
        <time>2009-06-14T12:25:40Z</time>
      </trkpt>
      <trkpt lat="44.12938" lon="5.42775">
        <ele>787.937744</ele>
        <time>2009-06-14T12:25:48Z</time>
      </trkpt>
      <trkpt lat="44.12938" lon="5.42776">
        <ele>788.89917</ele>
        <time>2009-06-14T12:25:49Z</time>
      </trkpt>
      <trkpt lat="44.12929" lon="5.428">
        <ele>788.418457</ele>
        <time>2009-06-14T12:25:57Z</time>
      </trkpt>
      <trkpt lat="44.12927" lon="5.42801">
        <ele>788.418457</ele>
        <time>2009-06-14T12:25:58Z</time>
      </trkpt>
      <trkpt lat="44.12911" lon="5.42793">
        <ele>790.341064</ele>
        <time>2009-06-14T12:26:04Z</time>
      </trkpt>
      <trkpt lat="44.12886" lon="5.42778">
        <ele>791.782959</ele>
        <time>2009-06-14T12:26:11Z</time>
      </trkpt>
      <trkpt lat="44.12856" lon="5.42754">
        <ele>790.821533</ele>
        <time>2009-06-14T12:26:19Z</time>
      </trkpt>
      <trkpt lat="44.12821" lon="5.42722">
        <ele>790.821533</ele>
        <time>2009-06-14T12:26:28Z</time>
      </trkpt>
      <trkpt lat="44.12814" lon="5.42714">
        <ele>790.341064</ele>
        <time>2009-06-14T12:26:30Z</time>
      </trkpt>
      <trkpt lat="44.12791" lon="5.42703">
        <ele>788.89917</ele>
        <time>2009-06-14T12:26:35Z</time>
      </trkpt>
      <trkpt lat="44.12753" lon="5.42693">
        <ele>788.89917</ele>
        <time>2009-06-14T12:26:42Z</time>
      </trkpt>
      <trkpt lat="44.12715" lon="5.42668">
        <ele>787.937744</ele>
        <time>2009-06-14T12:26:49Z</time>
      </trkpt>
      <trkpt lat="44.12664" lon="5.42648">
        <ele>785.534424</ele>
        <time>2009-06-14T12:26:57Z</time>
      </trkpt>
      <trkpt lat="44.12623" lon="5.42639">
        <ele>784.573242</ele>
        <time>2009-06-14T12:27:03Z</time>
      </trkpt>
      <trkpt lat="44.12591" lon="5.42626">
        <ele>783.131104</ele>
        <time>2009-06-14T12:27:08Z</time>
      </trkpt>
      <trkpt lat="44.1255" lon="5.42606">
        <ele>780.728027</ele>
        <time>2009-06-14T12:27:14Z</time>
      </trkpt>
      <trkpt lat="44.12514" lon="5.42568">
        <ele>778.324463</ele>
        <time>2009-06-14T12:27:20Z</time>
      </trkpt>
      <trkpt lat="44.12471" lon="5.42522">
        <ele>776.401855</ele>
        <time>2009-06-14T12:27:27Z</time>
      </trkpt>
      <trkpt lat="44.12428" lon="5.42481">
        <ele>773.998535</ele>
        <time>2009-06-14T12:27:34Z</time>
      </trkpt>
      <trkpt lat="44.12396" lon="5.42439">
        <ele>772.556641</ele>
        <time>2009-06-14T12:27:40Z</time>
      </trkpt>
      <trkpt lat="44.12358" lon="5.42375">
        <ele>771.114746</ele>
        <time>2009-06-14T12:27:48Z</time>
      </trkpt>
      <trkpt lat="44.12325" lon="5.42306">
        <ele>770.634033</ele>
        <time>2009-06-14T12:27:56Z</time>
      </trkpt>
      <trkpt lat="44.12295" lon="5.42285">
        <ele>771.595215</ele>
        <time>2009-06-14T12:28:01Z</time>
      </trkpt>
      <trkpt lat="44.12274" lon="5.42288">
        <ele>771.114746</ele>
        <time>2009-06-14T12:28:04Z</time>
      </trkpt>
      <trkpt lat="44.12213" lon="5.42307">
        <ele>773.037354</ele>
        <time>2009-06-14T12:28:13Z</time>
      </trkpt>
      <trkpt lat="44.12154" lon="5.42326">
        <ele>774.479248</ele>
        <time>2009-06-14T12:28:22Z</time>
      </trkpt>
      <trkpt lat="44.12106" lon="5.4234">
        <ele>775.44043</ele>
        <time>2009-06-14T12:28:29Z</time>
      </trkpt>
      <trkpt lat="44.121" lon="5.4234">
        <ele>774.959961</ele>
        <time>2009-06-14T12:28:30Z</time>
      </trkpt>
      <trkpt lat="44.12061" lon="5.42329">
        <ele>772.556641</ele>
        <time>2009-06-14T12:28:36Z</time>
      </trkpt>
      <trkpt lat="44.11999" lon="5.42298">
        <ele>771.114746</ele>
        <time>2009-06-14T12:28:46Z</time>
      </trkpt>
      <trkpt lat="44.11954" lon="5.42284">
        <ele>771.114746</ele>
        <time>2009-06-14T12:28:53Z</time>
      </trkpt>
      <trkpt lat="44.11932" lon="5.42265">
        <ele>770.634033</ele>
        <time>2009-06-14T12:28:57Z</time>
      </trkpt>
      <trkpt lat="44.11892" lon="5.42217">
        <ele>771.114746</ele>
        <time>2009-06-14T12:29:05Z</time>
      </trkpt>
      <trkpt lat="44.11827" lon="5.4216">
        <ele>771.114746</ele>
        <time>2009-06-14T12:29:17Z</time>
      </trkpt>
      <trkpt lat="44.1177" lon="5.42115">
        <ele>772.075928</ele>
        <time>2009-06-14T12:29:27Z</time>
      </trkpt>
      <trkpt lat="44.11731" lon="5.42093">
        <ele>772.556641</ele>
        <time>2009-06-14T12:29:33Z</time>
      </trkpt>
      <trkpt lat="44.11706" lon="5.42061">
        <ele>772.556641</ele>
        <time>2009-06-14T12:29:38Z</time>
      </trkpt>
      <trkpt lat="44.11694" lon="5.42037">
        <ele>772.556641</ele>
        <time>2009-06-14T12:29:41Z</time>
      </trkpt>
      <trkpt lat="44.11648" lon="5.41992">
        <ele>772.075928</ele>
        <time>2009-06-14T12:29:49Z</time>
      </trkpt>
      <trkpt lat="44.11613" lon="5.41962">
        <ele>769.672852</ele>
        <time>2009-06-14T12:29:55Z</time>
      </trkpt>
      <trkpt lat="44.11594" lon="5.41933">
        <ele>768.230713</ele>
        <time>2009-06-14T12:29:59Z</time>
      </trkpt>
      <trkpt lat="44.11564" lon="5.41876">
        <ele>769.192139</ele>
        <time>2009-06-14T12:30:06Z</time>
      </trkpt>
      <trkpt lat="44.11526" lon="5.41832">
        <ele>769.192139</ele>
        <time>2009-06-14T12:30:13Z</time>
      </trkpt>
      <trkpt lat="44.11486" lon="5.41791">
        <ele>766.788818</ele>
        <time>2009-06-14T12:30:20Z</time>
      </trkpt>
      <trkpt lat="44.11435" lon="5.41733">
        <ele>765.827637</ele>
        <time>2009-06-14T12:30:29Z</time>
      </trkpt>
      <trkpt lat="44.11386" lon="5.41688">
        <ele>765.827637</ele>
        <time>2009-06-14T12:30:37Z</time>
      </trkpt>
      <trkpt lat="44.11321" lon="5.41639">
        <ele>764.385498</ele>
        <time>2009-06-14T12:30:47Z</time>
      </trkpt>
      <trkpt lat="44.11263" lon="5.41603">
        <ele>765.346924</ele>
        <time>2009-06-14T12:30:55Z</time>
      </trkpt>
      <trkpt lat="44.11206" lon="5.41571">
        <ele>766.308105</ele>
        <time>2009-06-14T12:31:03Z</time>
      </trkpt>
      <trkpt lat="44.11146" lon="5.41544">
        <ele>765.346924</ele>
        <time>2009-06-14T12:31:11Z</time>
      </trkpt>
      <trkpt lat="44.11079" lon="5.41521">
        <ele>766.788818</ele>
        <time>2009-06-14T12:31:20Z</time>
      </trkpt>
      <trkpt lat="44.11032" lon="5.41517">
        <ele>764.866211</ele>
        <time>2009-06-14T12:31:26Z</time>
      </trkpt>
      <trkpt lat="44.10986" lon="5.41492">
        <ele>765.346924</ele>
        <time>2009-06-14T12:31:32Z</time>
      </trkpt>
      <trkpt lat="44.10946" lon="5.41477">
        <ele>765.346924</ele>
        <time>2009-06-14T12:31:37Z</time>
      </trkpt>
      <trkpt lat="44.10882" lon="5.41455">
        <ele>763.424072</ele>
        <time>2009-06-14T12:31:45Z</time>
      </trkpt>
      <trkpt lat="44.10826" lon="5.41443">
        <ele>761.982178</ele>
        <time>2009-06-14T12:31:52Z</time>
      </trkpt>
      <trkpt lat="44.10761" lon="5.41432">
        <ele>761.982178</ele>
        <time>2009-06-14T12:32:00Z</time>
      </trkpt>
      <trkpt lat="44.10732" lon="5.41412">
        <ele>761.501465</ele>
        <time>2009-06-14T12:32:04Z</time>
      </trkpt>
      <trkpt lat="44.10684" lon="5.41371">
        <ele>761.501465</ele>
        <time>2009-06-14T12:32:11Z</time>
      </trkpt>
      <trkpt lat="44.1064" lon="5.41345">
        <ele>761.982178</ele>
        <time>2009-06-14T12:32:17Z</time>
      </trkpt>
      <trkpt lat="44.1057" lon="5.41312">
        <ele>762.943359</ele>
        <time>2009-06-14T12:32:26Z</time>
      </trkpt>
      <trkpt lat="44.10502" lon="5.41282">
        <ele>761.982178</ele>
        <time>2009-06-14T12:32:35Z</time>
      </trkpt>
      <trkpt lat="44.10447" lon="5.4127">
        <ele>761.982178</ele>
        <time>2009-06-14T12:32:42Z</time>
      </trkpt>
      <trkpt lat="44.10394" lon="5.4125">
        <ele>762.943359</ele>
        <time>2009-06-14T12:32:49Z</time>
      </trkpt>
      <trkpt lat="44.1034" lon="5.41231">
        <ele>762.943359</ele>
        <time>2009-06-14T12:32:56Z</time>
      </trkpt>
      <trkpt lat="44.10268" lon="5.41208">
        <ele>764.866211</ele>
        <time>2009-06-14T12:33:05Z</time>
      </trkpt>
      <trkpt lat="44.10194" lon="5.41173">
        <ele>765.346924</ele>
        <time>2009-06-14T12:33:15Z</time>
      </trkpt>
      <trkpt lat="44.10131" lon="5.41136">
        <ele>765.346924</ele>
        <time>2009-06-14T12:33:24Z</time>
      </trkpt>
      <trkpt lat="44.10077" lon="5.41102">
        <ele>763.424072</ele>
        <time>2009-06-14T12:33:32Z</time>
      </trkpt>
      <trkpt lat="44.10022" lon="5.41072">
        <ele>762.943359</ele>
        <time>2009-06-14T12:33:40Z</time>
      </trkpt>
      <trkpt lat="44.09995" lon="5.41058">
        <ele>763.424072</ele>
        <time>2009-06-14T12:33:44Z</time>
      </trkpt>
      <trkpt lat="44.0996" lon="5.41034">
        <ele>764.866211</ele>
        <time>2009-06-14T12:33:50Z</time>
      </trkpt>
      <trkpt lat="44.09919" lon="5.41009">
        <ele>765.346924</ele>
        <time>2009-06-14T12:33:57Z</time>
      </trkpt>
      <trkpt lat="44.0989" lon="5.40998">
        <ele>765.827637</ele>
        <time>2009-06-14T12:34:02Z</time>
      </trkpt>
      <trkpt lat="44.09861" lon="5.40984">
        <ele>764.866211</ele>
        <time>2009-06-14T12:34:07Z</time>
      </trkpt>
      <trkpt lat="44.09838" lon="5.40969">
        <ele>765.346924</ele>
        <time>2009-06-14T12:34:11Z</time>
      </trkpt>
      <trkpt lat="44.09789" lon="5.40932">
        <ele>764.866211</ele>
        <time>2009-06-14T12:34:20Z</time>
      </trkpt>
      <trkpt lat="44.0974" lon="5.40913">
        <ele>764.866211</ele>
        <time>2009-06-14T12:34:28Z</time>
      </trkpt>
      <trkpt lat="44.09698" lon="5.40886">
        <ele>763.904541</ele>
        <time>2009-06-14T12:34:35Z</time>
      </trkpt>
      <trkpt lat="44.09658" lon="5.40867">
        <ele>763.904541</ele>
        <time>2009-06-14T12:34:41Z</time>
      </trkpt>
      <trkpt lat="44.09598" lon="5.40854">
        <ele>762.943359</ele>
        <time>2009-06-14T12:34:49Z</time>
      </trkpt>
      <trkpt lat="44.09539" lon="5.40839">
        <ele>764.385498</ele>
        <time>2009-06-14T12:34:57Z</time>
      </trkpt>
      <trkpt lat="44.09489" lon="5.40832">
        <ele>764.385498</ele>
        <time>2009-06-14T12:35:04Z</time>
      </trkpt>
      <trkpt lat="44.09436" lon="5.40826">
        <ele>762.462646</ele>
        <time>2009-06-14T12:35:11Z</time>
      </trkpt>
      <trkpt lat="44.09393" lon="5.40818">
        <ele>761.020752</ele>
        <time>2009-06-14T12:35:17Z</time>
      </trkpt>
      <trkpt lat="44.09376" lon="5.40816">
        <ele>760.540039</ele>
        <time>2009-06-14T12:35:20Z</time>
      </trkpt>
      <trkpt lat="44.09359" lon="5.40813">
        <ele>759.578857</ele>
        <time>2009-06-14T12:35:24Z</time>
      </trkpt>
      <trkpt lat="44.09333" lon="5.40817">
        <ele>760.059326</ele>
        <time>2009-06-14T12:35:30Z</time>
      </trkpt>
      <trkpt lat="44.09316" lon="5.4082">
        <ele>761.501465</ele>
        <time>2009-06-14T12:35:34Z</time>
      </trkpt>
      <trkpt lat="44.09298" lon="5.4082">
        <ele>762.462646</ele>
        <time>2009-06-14T12:35:39Z</time>
      </trkpt>
      <trkpt lat="44.09283" lon="5.40822">
        <ele>761.020752</ele>
        <time>2009-06-14T12:35:43Z</time>
      </trkpt>
      <trkpt lat="44.09262" lon="5.40827">
        <ele>761.020752</ele>
        <time>2009-06-14T12:35:49Z</time>
      </trkpt>
      <trkpt lat="44.09244" lon="5.40826">
        <ele>760.540039</ele>
        <time>2009-06-14T12:35:55Z</time>
      </trkpt>
      <trkpt lat="44.09227" lon="5.40827">
        <ele>765.346924</ele>
        <time>2009-06-14T12:36:02Z</time>
      </trkpt>
      <trkpt lat="44.09225" lon="5.40829">
        <ele>764.866211</ele>
        <time>2009-06-14T12:36:03Z</time>
      </trkpt>
      <trkpt lat="44.09215" lon="5.40845">
        <ele>769.192139</ele>
        <time>2009-06-14T12:36:11Z</time>
      </trkpt>
      <trkpt lat="44.09208" lon="5.40867">
        <ele>771.595215</ele>
        <time>2009-06-14T12:36:19Z</time>
      </trkpt>
      <trkpt lat="44.09209" lon="5.40884">
        <ele>777.84375</ele>
        <time>2009-06-14T12:36:25Z</time>
      </trkpt>
      <trkpt lat="44.0921" lon="5.40893">
        <ele>780.247314</ele>
        <time>2009-06-14T12:36:31Z</time>
      </trkpt>
      <trkpt lat="44.09212" lon="5.40894">
        <ele>777.84375</ele>
        <time>2009-06-14T12:36:36Z</time>
      </trkpt>
      <trkpt lat="44.09213" lon="5.40894">
        <ele>782.169922</ele>
        <time>2009-06-14T12:36:45Z</time>
      </trkpt>
      <trkpt lat="44.09213" lon="5.40902">
        <ele>783.611816</ele>
        <time>2009-06-14T12:37:02Z</time>
      </trkpt>
      <trkpt lat="44.092" lon="5.4092">
        <ele>777.363281</ele>
        <time>2009-06-14T12:37:09Z</time>
      </trkpt>
      <trkpt lat="44.09187" lon="5.40937">
        <ele>776.401855</ele>
        <time>2009-06-14T12:37:16Z</time>
      </trkpt>
      <trkpt lat="44.0917" lon="5.40946">
        <ele>772.075928</ele>
        <time>2009-06-14T12:37:21Z</time>
      </trkpt>
      <trkpt lat="44.09154" lon="5.40949">
        <ele>768.711426</ele>
        <time>2009-06-14T12:37:25Z</time>
      </trkpt>
      <trkpt lat="44.09148" lon="5.40953">
        <ele>767.75</ele>
        <time>2009-06-14T12:37:26Z</time>
      </trkpt>
      <trkpt lat="44.09123" lon="5.40974">
        <ele>764.866211</ele>
        <time>2009-06-14T12:37:32Z</time>
      </trkpt>
      <trkpt lat="44.09113" lon="5.40983">
        <ele>763.424072</ele>
        <time>2009-06-14T12:37:36Z</time>
      </trkpt>
      <trkpt lat="44.09098" lon="5.40999">
        <ele>764.866211</ele>
        <time>2009-06-14T12:37:44Z</time>
      </trkpt>
      <trkpt lat="44.09081" lon="5.41013">
        <ele>764.385498</ele>
        <time>2009-06-14T12:37:51Z</time>
      </trkpt>
      <trkpt lat="44.09073" lon="5.4102">
        <ele>762.943359</ele>
        <time>2009-06-14T12:37:57Z</time>
      </trkpt>
      <trkpt lat="44.09064" lon="5.41027">
        <ele>761.501465</ele>
        <time>2009-06-14T12:38:05Z</time>
      </trkpt>
      <trkpt lat="44.09064" lon="5.41028">
        <ele>761.020752</ele>
        <time>2009-06-14T12:38:06Z</time>
      </trkpt>
      <trkpt lat="44.09066" lon="5.4103">
        <ele>760.059326</ele>
        <time>2009-06-14T12:38:10Z</time>
      </trkpt>
      <trkpt lat="44.09085" lon="5.41012">
        <ele>758.617432</ele>
        <time>2009-06-14T12:38:18Z</time>
      </trkpt>
      <trkpt lat="44.09101" lon="5.40994">
        <ele>756.694824</ele>
        <time>2009-06-14T12:38:24Z</time>
      </trkpt>
      <trkpt lat="44.0912" lon="5.40976">
        <ele>755.733643</ele>
        <time>2009-06-14T12:38:31Z</time>
      </trkpt>
      <trkpt lat="44.09139" lon="5.40961">
        <ele>755.25293</ele>
        <time>2009-06-14T12:38:38Z</time>
      </trkpt>
      <trkpt lat="44.09154" lon="5.4095">
        <ele>757.175537</ele>
        <time>2009-06-14T12:38:43Z</time>
      </trkpt>
      <trkpt lat="44.09169" lon="5.40947">
        <ele>759.098145</ele>
        <time>2009-06-14T12:38:49Z</time>
      </trkpt>
      <trkpt lat="44.0918" lon="5.4094">
        <ele>755.733643</ele>
        <time>2009-06-14T12:38:54Z</time>
      </trkpt>
      <trkpt lat="44.09187" lon="5.40936">
        <ele>755.25293</ele>
        <time>2009-06-14T12:38:59Z</time>
      </trkpt>
      <trkpt lat="44.09191" lon="5.40933">
        <ele>766.788818</ele>
        <time>2009-06-14T12:39:11Z</time>
      </trkpt>
      <trkpt lat="44.09187" lon="5.40928">
        <ele>777.84375</ele>
        <time>2009-06-14T12:39:35Z</time>
      </trkpt>
      <trkpt lat="44.09187" lon="5.40929">
        <ele>778.324463</ele>
        <time>2009-06-14T12:39:36Z</time>
      </trkpt>
      <trkpt lat="44.09175" lon="5.40938">
        <ele>775.921143</ele>
        <time>2009-06-14T12:39:41Z</time>
      </trkpt>
      <trkpt lat="44.09154" lon="5.40946">
        <ele>776.882568</ele>
        <time>2009-06-14T12:39:45Z</time>
      </trkpt>
      <trkpt lat="44.09142" lon="5.40955">
        <ele>775.921143</ele>
        <time>2009-06-14T12:39:47Z</time>
      </trkpt>
      <trkpt lat="44.09085" lon="5.41007">
        <ele>771.595215</ele>
        <time>2009-06-14T12:39:58Z</time>
      </trkpt>
      <trkpt lat="44.0905" lon="5.41038">
        <ele>768.711426</ele>
        <time>2009-06-14T12:40:05Z</time>
      </trkpt>
      <trkpt lat="44.09036" lon="5.41052">
        <ele>767.269531</ele>
        <time>2009-06-14T12:40:08Z</time>
      </trkpt>
      <trkpt lat="44.09012" lon="5.41092">
        <ele>765.346924</ele>
        <time>2009-06-14T12:40:15Z</time>
      </trkpt>
      <trkpt lat="44.09005" lon="5.41119">
        <ele>764.866211</ele>
        <time>2009-06-14T12:40:18Z</time>
      </trkpt>
      <trkpt lat="44.08992" lon="5.41154">
        <ele>762.943359</ele>
        <time>2009-06-14T12:40:22Z</time>
      </trkpt>
      <trkpt lat="44.0897" lon="5.41169">
        <ele>762.943359</ele>
        <time>2009-06-14T12:40:25Z</time>
      </trkpt>
      <trkpt lat="44.08945" lon="5.41164">
        <ele>761.501465</ele>
        <time>2009-06-14T12:40:28Z</time>
      </trkpt>
      <trkpt lat="44.08911" lon="5.4115">
        <ele>760.059326</ele>
        <time>2009-06-14T12:40:32Z</time>
      </trkpt>
      <trkpt lat="44.08878" lon="5.41163">
        <ele>756.694824</ele>
        <time>2009-06-14T12:40:36Z</time>
      </trkpt>
      <trkpt lat="44.08863" lon="5.41198">
        <ele>754.772217</ele>
        <time>2009-06-14T12:40:39Z</time>
      </trkpt>
      <trkpt lat="44.08864" lon="5.41217">
        <ele>752.849609</ele>
        <time>2009-06-14T12:40:40Z</time>
      </trkpt>
      <trkpt lat="44.0886" lon="5.41282">
        <ele>749.96582</ele>
        <time>2009-06-14T12:40:45Z</time>
      </trkpt>
      <trkpt lat="44.08859" lon="5.41292">
        <ele>749.485107</ele>
        <time>2009-06-14T12:40:46Z</time>
      </trkpt>
      <trkpt lat="44.08847" lon="5.41304">
        <ele>748.043213</ele>
        <time>2009-06-14T12:40:50Z</time>
      </trkpt>
      <trkpt lat="44.08844" lon="5.41284">
        <ele>744.197754</ele>
        <time>2009-06-14T12:40:53Z</time>
      </trkpt>
      <trkpt lat="44.08845" lon="5.41274">
        <ele>742.275146</ele>
        <time>2009-06-14T12:40:54Z</time>
      </trkpt>
      <trkpt lat="44.0885" lon="5.41194">
        <ele>736.507324</ele>
        <time>2009-06-14T12:41:02Z</time>
      </trkpt>
      <trkpt lat="44.08854" lon="5.41152">
        <ele>734.584717</ele>
        <time>2009-06-14T12:41:05Z</time>
      </trkpt>
      <trkpt lat="44.08871" lon="5.41104">
        <ele>732.181396</ele>
        <time>2009-06-14T12:41:09Z</time>
      </trkpt>
      <trkpt lat="44.08897" lon="5.4108">
        <ele>732.181396</ele>
        <time>2009-06-14T12:41:12Z</time>
      </trkpt>
      <trkpt lat="44.08932" lon="5.41053">
        <ele>726.894043</ele>
        <time>2009-06-14T12:41:16Z</time>
      </trkpt>
      <trkpt lat="44.08941" lon="5.41028">
        <ele>725.451904</ele>
        <time>2009-06-14T12:41:18Z</time>
      </trkpt>
      <trkpt lat="44.08975" lon="5.40905">
        <ele>720.645508</ele>
        <time>2009-06-14T12:41:27Z</time>
      </trkpt>
      <trkpt lat="44.0898" lon="5.40877">
        <ele>718.7229</ele>
        <time>2009-06-14T12:41:29Z</time>
      </trkpt>
      <trkpt lat="44.0898" lon="5.40816">
        <ele>715.838867</ele>
        <time>2009-06-14T12:41:33Z</time>
      </trkpt>
      <trkpt lat="44.08979" lon="5.40735">
        <ele>712.954834</ele>
        <time>2009-06-14T12:41:39Z</time>
      </trkpt>
      <trkpt lat="44.08984" lon="5.40697">
        <ele>711.032227</ele>
        <time>2009-06-14T12:41:42Z</time>
      </trkpt>
      <trkpt lat="44.09004" lon="5.40652">
        <ele>709.109619</ele>
        <time>2009-06-14T12:41:46Z</time>
      </trkpt>
      <trkpt lat="44.09021" lon="5.40637">
        <ele>707.187012</ele>
        <time>2009-06-14T12:41:48Z</time>
      </trkpt>
      <trkpt lat="44.09054" lon="5.406">
        <ele>706.225586</ele>
        <time>2009-06-14T12:41:52Z</time>
      </trkpt>
      <trkpt lat="44.09075" lon="5.40547">
        <ele>703.82251</ele>
        <time>2009-06-14T12:41:56Z</time>
      </trkpt>
      <trkpt lat="44.09103" lon="5.40441">
        <ele>699.977051</ele>
        <time>2009-06-14T12:42:03Z</time>
      </trkpt>
      <trkpt lat="44.09132" lon="5.40375">
        <ele>698.534912</ele>
        <time>2009-06-14T12:42:08Z</time>
      </trkpt>
      <trkpt lat="44.09163" lon="5.40306">
        <ele>698.054443</ele>
        <time>2009-06-14T12:42:14Z</time>
      </trkpt>
      <trkpt lat="44.09213" lon="5.4019">
        <ele>698.054443</ele>
        <time>2009-06-14T12:42:25Z</time>
      </trkpt>
      <trkpt lat="44.09253" lon="5.401">
        <ele>696.612549</ele>
        <time>2009-06-14T12:42:34Z</time>
      </trkpt>
      <trkpt lat="44.09289" lon="5.40016">
        <ele>694.689697</ele>
        <time>2009-06-14T12:42:42Z</time>
      </trkpt>
      <trkpt lat="44.0932" lon="5.39952">
        <ele>693.247803</ele>
        <time>2009-06-14T12:42:48Z</time>
      </trkpt>
      <trkpt lat="44.09342" lon="5.39933">
        <ele>692.767334</ele>
        <time>2009-06-14T12:42:51Z</time>
      </trkpt>
      <trkpt lat="44.09364" lon="5.39902">
        <ele>692.286621</ele>
        <time>2009-06-14T12:42:55Z</time>
      </trkpt>
      <trkpt lat="44.0937" lon="5.39882">
        <ele>692.767334</ele>
        <time>2009-06-14T12:42:57Z</time>
      </trkpt>
      <trkpt lat="44.09374" lon="5.39809">
        <ele>691.805908</ele>
        <time>2009-06-14T12:43:04Z</time>
      </trkpt>
      <trkpt lat="44.09376" lon="5.39763">
        <ele>690.844482</ele>
        <time>2009-06-14T12:43:09Z</time>
      </trkpt>
      <trkpt lat="44.09381" lon="5.39704">
        <ele>691.325195</ele>
        <time>2009-06-14T12:43:16Z</time>
      </trkpt>
      <trkpt lat="44.09381" lon="5.39637">
        <ele>690.844482</ele>
        <time>2009-06-14T12:43:23Z</time>
      </trkpt>
      <trkpt lat="44.09381" lon="5.39575">
        <ele>688.922119</ele>
        <time>2009-06-14T12:43:29Z</time>
      </trkpt>
      <trkpt lat="44.0938" lon="5.39475">
        <ele>687.960693</ele>
        <time>2009-06-14T12:43:38Z</time>
      </trkpt>
      <trkpt lat="44.09377" lon="5.39373">
        <ele>685.076904</ele>
        <time>2009-06-14T12:43:47Z</time>
      </trkpt>
      <trkpt lat="44.09374" lon="5.39291">
        <ele>684.115479</ele>
        <time>2009-06-14T12:43:54Z</time>
      </trkpt>
      <trkpt lat="44.09367" lon="5.392">
        <ele>683.153809</ele>
        <time>2009-06-14T12:44:02Z</time>
      </trkpt>
      <trkpt lat="44.0936" lon="5.39114">
        <ele>682.67334</ele>
        <time>2009-06-14T12:44:10Z</time>
      </trkpt>
      <trkpt lat="44.09351" lon="5.39009">
        <ele>683.634521</ele>
        <time>2009-06-14T12:44:20Z</time>
      </trkpt>
      <trkpt lat="44.09342" lon="5.38898">
        <ele>682.67334</ele>
        <time>2009-06-14T12:44:31Z</time>
      </trkpt>
      <trkpt lat="44.09335" lon="5.38818">
        <ele>683.153809</ele>
        <time>2009-06-14T12:44:39Z</time>
      </trkpt>
      <trkpt lat="44.09327" lon="5.38723">
        <ele>683.153809</ele>
        <time>2009-06-14T12:44:49Z</time>
      </trkpt>
      <trkpt lat="44.0932" lon="5.38637">
        <ele>683.153809</ele>
        <time>2009-06-14T12:44:58Z</time>
      </trkpt>
      <trkpt lat="44.09312" lon="5.38553">
        <ele>683.634521</ele>
        <time>2009-06-14T12:45:07Z</time>
      </trkpt>
      <trkpt lat="44.09305" lon="5.38475">
        <ele>684.115479</ele>
        <time>2009-06-14T12:45:15Z</time>
      </trkpt>
      <trkpt lat="44.09301" lon="5.38384">
        <ele>684.596191</ele>
        <time>2009-06-14T12:45:24Z</time>
      </trkpt>
      <trkpt lat="44.09307" lon="5.38321">
        <ele>685.076904</ele>
        <time>2009-06-14T12:45:30Z</time>
      </trkpt>
      <trkpt lat="44.0932" lon="5.38245">
        <ele>682.67334</ele>
        <time>2009-06-14T12:45:38Z</time>
      </trkpt>
      <trkpt lat="44.09332" lon="5.38176">
        <ele>683.153809</ele>
        <time>2009-06-14T12:45:45Z</time>
      </trkpt>
      <trkpt lat="44.0933" lon="5.3813">
        <ele>683.153809</ele>
        <time>2009-06-14T12:45:50Z</time>
      </trkpt>
      <trkpt lat="44.09316" lon="5.38068">
        <ele>685.076904</ele>
        <time>2009-06-14T12:45:57Z</time>
      </trkpt>
      <trkpt lat="44.093" lon="5.38005">
        <ele>688.441406</ele>
        <time>2009-06-14T12:46:04Z</time>
      </trkpt>
      <trkpt lat="44.09278" lon="5.3792">
        <ele>691.805908</ele>
        <time>2009-06-14T12:46:14Z</time>
      </trkpt>
      <trkpt lat="44.0926" lon="5.37856">
        <ele>692.286621</ele>
        <time>2009-06-14T12:46:22Z</time>
      </trkpt>
      <trkpt lat="44.09248" lon="5.37798">
        <ele>692.286621</ele>
        <time>2009-06-14T12:46:29Z</time>
      </trkpt>
      <trkpt lat="44.09244" lon="5.37739">
        <ele>692.767334</ele>
        <time>2009-06-14T12:46:36Z</time>
      </trkpt>
      <trkpt lat="44.09242" lon="5.37663">
        <ele>693.728516</ele>
        <time>2009-06-14T12:46:45Z</time>
      </trkpt>
      <trkpt lat="44.09235" lon="5.37603">
        <ele>694.689697</ele>
        <time>2009-06-14T12:46:52Z</time>
      </trkpt>
      <trkpt lat="44.09221" lon="5.37535">
        <ele>697.093018</ele>
        <time>2009-06-14T12:47:00Z</time>
      </trkpt>
      <trkpt lat="44.09206" lon="5.37453">
        <ele>697.57373</ele>
        <time>2009-06-14T12:47:10Z</time>
      </trkpt>
      <trkpt lat="44.09194" lon="5.37389">
        <ele>698.054443</ele>
        <time>2009-06-14T12:47:18Z</time>
      </trkpt>
      <trkpt lat="44.09188" lon="5.37324">
        <ele>699.015625</ele>
        <time>2009-06-14T12:47:26Z</time>
      </trkpt>
      <trkpt lat="44.09189" lon="5.37275">
        <ele>700.458008</ele>
        <time>2009-06-14T12:47:33Z</time>
      </trkpt>
      <trkpt lat="44.09193" lon="5.37229">
        <ele>702.861084</ele>
        <time>2009-06-14T12:47:41Z</time>
      </trkpt>
      <trkpt lat="44.09197" lon="5.37172">
        <ele>706.225586</ele>
        <time>2009-06-14T12:47:52Z</time>
      </trkpt>
      <trkpt lat="44.092" lon="5.37124">
        <ele>709.109619</ele>
        <time>2009-06-14T12:48:02Z</time>
      </trkpt>
      <trkpt lat="44.09198" lon="5.37075">
        <ele>713.435547</ele>
        <time>2009-06-14T12:48:13Z</time>
      </trkpt>
      <trkpt lat="44.0919" lon="5.3703">
        <ele>718.242188</ele>
        <time>2009-06-14T12:48:24Z</time>
      </trkpt>
      <trkpt lat="44.0918" lon="5.36992">
        <ele>721.126221</ele>
        <time>2009-06-14T12:48:34Z</time>
      </trkpt>
      <trkpt lat="44.09168" lon="5.36952">
        <ele>724.490723</ele>
        <time>2009-06-14T12:48:45Z</time>
      </trkpt>
      <trkpt lat="44.09154" lon="5.36923">
        <ele>727.374756</ele>
        <time>2009-06-14T12:48:53Z</time>
      </trkpt>
      <trkpt lat="44.09136" lon="5.36895">
        <ele>730.258545</ele>
        <time>2009-06-14T12:49:02Z</time>
      </trkpt>
      <trkpt lat="44.09115" lon="5.36874">
        <ele>732.662109</ele>
        <time>2009-06-14T12:49:11Z</time>
      </trkpt>
      <trkpt lat="44.09091" lon="5.36859">
        <ele>735.545898</ele>
        <time>2009-06-14T12:49:21Z</time>
      </trkpt>
      <trkpt lat="44.09063" lon="5.3685">
        <ele>738.429932</ele>
        <time>2009-06-14T12:49:31Z</time>
      </trkpt>
      <trkpt lat="44.09032" lon="5.36849">
        <ele>741.794434</ele>
        <time>2009-06-14T12:49:42Z</time>
      </trkpt>
      <trkpt lat="44.09009" lon="5.36853">
        <ele>744.197754</ele>
        <time>2009-06-14T12:49:50Z</time>
      </trkpt>
      <trkpt lat="44.08975" lon="5.36861">
        <ele>746.120361</ele>
        <time>2009-06-14T12:50:02Z</time>
      </trkpt>
      <trkpt lat="44.08952" lon="5.36862">
        <ele>747.562256</ele>
        <time>2009-06-14T12:50:10Z</time>
      </trkpt>
      <trkpt lat="44.08936" lon="5.36858">
        <ele>749.004395</ele>
        <time>2009-06-14T12:50:16Z</time>
      </trkpt>
      <trkpt lat="44.08915" lon="5.36849">
        <ele>750.927002</ele>
        <time>2009-06-14T12:50:24Z</time>
      </trkpt>
      <trkpt lat="44.08893" lon="5.36833">
        <ele>753.330322</ele>
        <time>2009-06-14T12:50:33Z</time>
      </trkpt>
      <trkpt lat="44.08871" lon="5.36808">
        <ele>756.214111</ele>
        <time>2009-06-14T12:50:43Z</time>
      </trkpt>
      <trkpt lat="44.08851" lon="5.3678">
        <ele>759.098145</ele>
        <time>2009-06-14T12:50:53Z</time>
      </trkpt>
      <trkpt lat="44.08826" lon="5.3675">
        <ele>762.462646</ele>
        <time>2009-06-14T12:51:05Z</time>
      </trkpt>
      <trkpt lat="44.08798" lon="5.36728">
        <ele>766.788818</ele>
        <time>2009-06-14T12:51:16Z</time>
      </trkpt>
      <trkpt lat="44.08776" lon="5.36717">
        <ele>770.15332</ele>
        <time>2009-06-14T12:51:24Z</time>
      </trkpt>
      <trkpt lat="44.08757" lon="5.36704">
        <ele>771.114746</ele>
        <time>2009-06-14T12:51:32Z</time>
      </trkpt>
      <trkpt lat="44.08735" lon="5.36695">
        <ele>773.518066</ele>
        <time>2009-06-14T12:51:40Z</time>
      </trkpt>
      <trkpt lat="44.08704" lon="5.36689">
        <ele>775.921143</ele>
        <time>2009-06-14T12:51:50Z</time>
      </trkpt>
      <trkpt lat="44.08668" lon="5.36685">
        <ele>778.805176</ele>
        <time>2009-06-14T12:52:01Z</time>
      </trkpt>
      <trkpt lat="44.08633" lon="5.36685">
        <ele>779.766357</ele>
        <time>2009-06-14T12:52:11Z</time>
      </trkpt>
      <trkpt lat="44.086" lon="5.36681">
        <ele>781.689209</ele>
        <time>2009-06-14T12:52:20Z</time>
      </trkpt>
      <trkpt lat="44.08568" lon="5.36679">
        <ele>783.611816</ele>
        <time>2009-06-14T12:52:29Z</time>
      </trkpt>
      <trkpt lat="44.08528" lon="5.36674">
        <ele>785.053955</ele>
        <time>2009-06-14T12:52:40Z</time>
      </trkpt>
      <trkpt lat="44.08503" lon="5.36671">
        <ele>785.053955</ele>
        <time>2009-06-14T12:52:47Z</time>
      </trkpt>
      <trkpt lat="44.08474" lon="5.36666">
        <ele>786.976318</ele>
        <time>2009-06-14T12:52:55Z</time>
      </trkpt>
      <trkpt lat="44.08441" lon="5.36656">
        <ele>788.89917</ele>
        <time>2009-06-14T12:53:04Z</time>
      </trkpt>
      <trkpt lat="44.084" lon="5.36638">
        <ele>791.302246</ele>
        <time>2009-06-14T12:53:15Z</time>
      </trkpt>
      <trkpt lat="44.08355" lon="5.36619">
        <ele>793.705566</ele>
        <time>2009-06-14T12:53:27Z</time>
      </trkpt>
      <trkpt lat="44.08318" lon="5.36605">
        <ele>796.109131</ele>
        <time>2009-06-14T12:53:37Z</time>
      </trkpt>
      <trkpt lat="44.08279" lon="5.3659">
        <ele>799.473633</ele>
        <time>2009-06-14T12:53:48Z</time>
      </trkpt>
      <trkpt lat="44.08235" lon="5.36575">
        <ele>802.357422</ele>
        <time>2009-06-14T12:54:00Z</time>
      </trkpt>
      <trkpt lat="44.08199" lon="5.36565">
        <ele>804.280273</ele>
        <time>2009-06-14T12:54:10Z</time>
      </trkpt>
      <trkpt lat="44.08163" lon="5.36554">
        <ele>806.202637</ele>
        <time>2009-06-14T12:54:20Z</time>
      </trkpt>
      <trkpt lat="44.08132" lon="5.36538">
        <ele>807.644775</ele>
        <time>2009-06-14T12:54:29Z</time>
      </trkpt>
      <trkpt lat="44.08098" lon="5.36522">
        <ele>810.047852</ele>
        <time>2009-06-14T12:54:39Z</time>
      </trkpt>
      <trkpt lat="44.08057" lon="5.36499">
        <ele>812.451416</ele>
        <time>2009-06-14T12:54:51Z</time>
      </trkpt>
      <trkpt lat="44.08019" lon="5.36481">
        <ele>815.335449</ele>
        <time>2009-06-14T12:55:01Z</time>
      </trkpt>
      <trkpt lat="44.07972" lon="5.36457">
        <ele>818.219238</ele>
        <time>2009-06-14T12:55:14Z</time>
      </trkpt>
      <trkpt lat="44.07933" lon="5.3644">
        <ele>820.622559</ele>
        <time>2009-06-14T12:55:25Z</time>
      </trkpt>
      <trkpt lat="44.079" lon="5.36432">
        <ele>822.545166</ele>
        <time>2009-06-14T12:55:34Z</time>
      </trkpt>
      <trkpt lat="44.07872" lon="5.36416">
        <ele>824.948486</ele>
        <time>2009-06-14T12:55:42Z</time>
      </trkpt>
      <trkpt lat="44.07831" lon="5.36379">
        <ele>828.313232</ele>
        <time>2009-06-14T12:55:55Z</time>
      </trkpt>
      <trkpt lat="44.07821" lon="5.36352">
        <ele>829.755127</ele>
        <time>2009-06-14T12:56:01Z</time>
      </trkpt>
      <trkpt lat="44.07822" lon="5.36322">
        <ele>830.716553</ele>
        <time>2009-06-14T12:56:07Z</time>
      </trkpt>
      <trkpt lat="44.07836" lon="5.36284">
        <ele>831.197266</ele>
        <time>2009-06-14T12:56:15Z</time>
      </trkpt>
      <trkpt lat="44.07856" lon="5.36238">
        <ele>832.158447</ele>
        <time>2009-06-14T12:56:25Z</time>
      </trkpt>
      <trkpt lat="44.07878" lon="5.36193">
        <ele>834.081055</ele>
        <time>2009-06-14T12:56:35Z</time>
      </trkpt>
      <trkpt lat="44.07906" lon="5.36156">
        <ele>836.484375</ele>
        <time>2009-06-14T12:56:45Z</time>
      </trkpt>
      <trkpt lat="44.07939" lon="5.36118">
        <ele>838.406982</ele>
        <time>2009-06-14T12:56:56Z</time>
      </trkpt>
      <trkpt lat="44.07965" lon="5.36097">
        <ele>839.368164</ele>
        <time>2009-06-14T12:57:04Z</time>
      </trkpt>
      <trkpt lat="44.07978" lon="5.36071">
        <ele>839.848877</ele>
        <time>2009-06-14T12:57:10Z</time>
      </trkpt>
      <trkpt lat="44.07978" lon="5.36043">
        <ele>840.810059</ele>
        <time>2009-06-14T12:57:15Z</time>
      </trkpt>
      <trkpt lat="44.07971" lon="5.36024">
        <ele>841.290771</ele>
        <time>2009-06-14T12:57:19Z</time>
      </trkpt>
      <trkpt lat="44.07949" lon="5.3601">
        <ele>841.771484</ele>
        <time>2009-06-14T12:57:25Z</time>
      </trkpt>
      <trkpt lat="44.07934" lon="5.36014">
        <ele>841.290771</ele>
        <time>2009-06-14T12:57:29Z</time>
      </trkpt>
      <trkpt lat="44.07896" lon="5.36039">
        <ele>838.887695</ele>
        <time>2009-06-14T12:57:39Z</time>
      </trkpt>
      <trkpt lat="44.07863" lon="5.3605">
        <ele>840.810059</ele>
        <time>2009-06-14T12:57:47Z</time>
      </trkpt>
      <trkpt lat="44.0782" lon="5.36065">
        <ele>845.13623</ele>
        <time>2009-06-14T12:57:58Z</time>
      </trkpt>
      <trkpt lat="44.07777" lon="5.36078">
        <ele>848.500732</ele>
        <time>2009-06-14T12:58:09Z</time>
      </trkpt>
      <trkpt lat="44.07741" lon="5.36081">
        <ele>850.904053</ele>
        <time>2009-06-14T12:58:18Z</time>
      </trkpt>
      <trkpt lat="44.07711" lon="5.36072">
        <ele>852.82666</ele>
        <time>2009-06-14T12:58:26Z</time>
      </trkpt>
      <trkpt lat="44.07682" lon="5.36054">
        <ele>854.268799</ele>
        <time>2009-06-14T12:58:34Z</time>
      </trkpt>
      <trkpt lat="44.07651" lon="5.36028">
        <ele>855.22998</ele>
        <time>2009-06-14T12:58:43Z</time>
      </trkpt>
      <trkpt lat="44.0761" lon="5.35994">
        <ele>856.191162</ele>
        <time>2009-06-14T12:58:55Z</time>
      </trkpt>
      <trkpt lat="44.07577" lon="5.35968">
        <ele>858.594482</ele>
        <time>2009-06-14T12:59:04Z</time>
      </trkpt>
      <trkpt lat="44.07551" lon="5.35946">
        <ele>861.47876</ele>
        <time>2009-06-14T12:59:12Z</time>
      </trkpt>
      <trkpt lat="44.0751" lon="5.35915">
        <ele>864.362549</ele>
        <time>2009-06-14T12:59:24Z</time>
      </trkpt>
      <trkpt lat="44.07471" lon="5.35891">
        <ele>866.285156</ele>
        <time>2009-06-14T12:59:35Z</time>
      </trkpt>
      <trkpt lat="44.07429" lon="5.35867">
        <ele>868.688477</ele>
        <time>2009-06-14T12:59:46Z</time>
      </trkpt>
      <trkpt lat="44.074" lon="5.35848">
        <ele>870.130371</ele>
        <time>2009-06-14T12:59:54Z</time>
      </trkpt>
      <trkpt lat="44.07374" lon="5.35828">
        <ele>869.169189</ele>
        <time>2009-06-14T13:00:02Z</time>
      </trkpt>
      <trkpt lat="44.07352" lon="5.35805">
        <ele>867.727051</ele>
        <time>2009-06-14T13:00:09Z</time>
      </trkpt>
      <trkpt lat="44.07319" lon="5.35777">
        <ele>869.649902</ele>
        <time>2009-06-14T13:00:18Z</time>
      </trkpt>
      <trkpt lat="44.07291" lon="5.35762">
        <ele>870.130371</ele>
        <time>2009-06-14T13:00:25Z</time>
      </trkpt>
      <trkpt lat="44.07261" lon="5.35746">
        <ele>870.130371</ele>
        <time>2009-06-14T13:00:33Z</time>
      </trkpt>
      <trkpt lat="44.07234" lon="5.35723">
        <ele>869.169189</ele>
        <time>2009-06-14T13:00:41Z</time>
      </trkpt>
      <trkpt lat="44.07208" lon="5.357">
        <ele>867.727051</ele>
        <time>2009-06-14T13:00:49Z</time>
      </trkpt>
      <trkpt lat="44.07176" lon="5.35674">
        <ele>869.169189</ele>
        <time>2009-06-14T13:00:58Z</time>
      </trkpt>
      <trkpt lat="44.07149" lon="5.35647">
        <ele>868.688477</ele>
        <time>2009-06-14T13:01:06Z</time>
      </trkpt>
      <trkpt lat="44.07133" lon="5.35611">
        <ele>862.920654</ele>
        <time>2009-06-14T13:01:14Z</time>
      </trkpt>
      <trkpt lat="44.07123" lon="5.3558">
        <ele>860.517334</ele>
        <time>2009-06-14T13:01:21Z</time>
      </trkpt>
      <trkpt lat="44.07113" lon="5.35548">
        <ele>871.091797</ele>
        <time>2009-06-14T13:01:29Z</time>
      </trkpt>
      <trkpt lat="44.07112" lon="5.3551">
        <ele>873.975586</ele>
        <time>2009-06-14T13:01:37Z</time>
      </trkpt>
      <trkpt lat="44.07116" lon="5.3547">
        <ele>878.782471</ele>
        <time>2009-06-14T13:01:45Z</time>
      </trkpt>
      <trkpt lat="44.07122" lon="5.35436">
        <ele>882.627686</ele>
        <time>2009-06-14T13:01:52Z</time>
      </trkpt>
      <trkpt lat="44.07137" lon="5.35407">
        <ele>885.031006</ele>
        <time>2009-06-14T13:01:59Z</time>
      </trkpt>
      <trkpt lat="44.07162" lon="5.35371">
        <ele>888.395508</ele>
        <time>2009-06-14T13:02:09Z</time>
      </trkpt>
      <trkpt lat="44.0719" lon="5.35331">
        <ele>892.240967</ele>
        <time>2009-06-14T13:02:20Z</time>
      </trkpt>
      <trkpt lat="44.07215" lon="5.35295">
        <ele>895.605469</ele>
        <time>2009-06-14T13:02:30Z</time>
      </trkpt>
      <trkpt lat="44.07237" lon="5.3527">
        <ele>898.008789</ele>
        <time>2009-06-14T13:02:38Z</time>
      </trkpt>
      <trkpt lat="44.07245" lon="5.35257">
        <ele>898.969971</ele>
        <time>2009-06-14T13:02:43Z</time>
      </trkpt>
      <trkpt lat="44.07257" lon="5.3525">
        <ele>900.412109</ele>
        <time>2009-06-14T13:02:49Z</time>
      </trkpt>
      <trkpt lat="44.07269" lon="5.35244">
        <ele>899.931396</ele>
        <time>2009-06-14T13:02:54Z</time>
      </trkpt>
      <trkpt lat="44.07285" lon="5.35232">
        <ele>900.892578</ele>
        <time>2009-06-14T13:03:01Z</time>
      </trkpt>
      <trkpt lat="44.0731" lon="5.35221">
        <ele>901.373291</ele>
        <time>2009-06-14T13:03:09Z</time>
      </trkpt>
      <trkpt lat="44.07333" lon="5.35212">
        <ele>903.295898</ele>
        <time>2009-06-14T13:03:16Z</time>
      </trkpt>
      <trkpt lat="44.07371" lon="5.35205">
        <ele>905.218506</ele>
        <time>2009-06-14T13:03:27Z</time>
      </trkpt>
      <trkpt lat="44.07399" lon="5.35205">
        <ele>906.6604</ele>
        <time>2009-06-14T13:03:35Z</time>
      </trkpt>
      <trkpt lat="44.0743" lon="5.3521">
        <ele>909.544678</ele>
        <time>2009-06-14T13:03:44Z</time>
      </trkpt>
      <trkpt lat="44.07458" lon="5.3522">
        <ele>911.947998</ele>
        <time>2009-06-14T13:03:52Z</time>
      </trkpt>
      <trkpt lat="44.07491" lon="5.35236">
        <ele>914.831787</ele>
        <time>2009-06-14T13:04:02Z</time>
      </trkpt>
      <trkpt lat="44.07529" lon="5.3526">
        <ele>916.754395</ele>
        <time>2009-06-14T13:04:13Z</time>
      </trkpt>
      <trkpt lat="44.07557" lon="5.35277">
        <ele>916.273682</ele>
        <time>2009-06-14T13:04:21Z</time>
      </trkpt>
      <trkpt lat="44.07593" lon="5.353">
        <ele>917.235107</ele>
        <time>2009-06-14T13:04:31Z</time>
      </trkpt>
      <trkpt lat="44.07625" lon="5.35319">
        <ele>918.677002</ele>
        <time>2009-06-14T13:04:40Z</time>
      </trkpt>
      <trkpt lat="44.07657" lon="5.35339">
        <ele>919.638428</ele>
        <time>2009-06-14T13:04:50Z</time>
      </trkpt>
      <trkpt lat="44.07687" lon="5.35357">
        <ele>921.560791</ele>
        <time>2009-06-14T13:04:59Z</time>
      </trkpt>
      <trkpt lat="44.07718" lon="5.35378">
        <ele>923.964111</ele>
        <time>2009-06-14T13:05:09Z</time>
      </trkpt>
      <trkpt lat="44.07753" lon="5.354">
        <ele>926.848389</ele>
        <time>2009-06-14T13:05:20Z</time>
      </trkpt>
      <trkpt lat="44.07784" lon="5.35419">
        <ele>929.251465</ele>
        <time>2009-06-14T13:05:30Z</time>
      </trkpt>
      <trkpt lat="44.07809" lon="5.35435">
        <ele>932.135498</ele>
        <time>2009-06-14T13:05:38Z</time>
      </trkpt>
      <trkpt lat="44.07845" lon="5.35458">
        <ele>935.5</ele>
        <time>2009-06-14T13:05:49Z</time>
      </trkpt>
      <trkpt lat="44.07874" lon="5.35474">
        <ele>937.422607</ele>
        <time>2009-06-14T13:05:58Z</time>
      </trkpt>
      <trkpt lat="44.079" lon="5.35486">
        <ele>938.864746</ele>
        <time>2009-06-14T13:06:06Z</time>
      </trkpt>
      <trkpt lat="44.07931" lon="5.355">
        <ele>941.268066</ele>
        <time>2009-06-14T13:06:15Z</time>
      </trkpt>
      <trkpt lat="44.07966" lon="5.35514">
        <ele>942.710205</ele>
        <time>2009-06-14T13:06:25Z</time>
      </trkpt>
      <trkpt lat="44.07992" lon="5.35525">
        <ele>944.1521</ele>
        <time>2009-06-14T13:06:33Z</time>
      </trkpt>
      <trkpt lat="44.08018" lon="5.35534">
        <ele>945.593994</ele>
        <time>2009-06-14T13:06:41Z</time>
      </trkpt>
      <trkpt lat="44.08055" lon="5.35544">
        <ele>947.035889</ele>
        <time>2009-06-14T13:06:52Z</time>
      </trkpt>
      <trkpt lat="44.08085" lon="5.35554">
        <ele>949.919922</ele>
        <time>2009-06-14T13:07:01Z</time>
      </trkpt>
      <trkpt lat="44.08121" lon="5.3556">
        <ele>955.207031</ele>
        <time>2009-06-14T13:07:10Z</time>
      </trkpt>
      <trkpt lat="44.08147" lon="5.35563">
        <ele>957.610596</ele>
        <time>2009-06-14T13:07:16Z</time>
      </trkpt>
      <trkpt lat="44.08189" lon="5.35563">
        <ele>956.64917</ele>
        <time>2009-06-14T13:07:26Z</time>
      </trkpt>
      <trkpt lat="44.08221" lon="5.35564">
        <ele>957.129883</ele>
        <time>2009-06-14T13:07:33Z</time>
      </trkpt>
      <trkpt lat="44.08249" lon="5.3556">
        <ele>957.129883</ele>
        <time>2009-06-14T13:07:38Z</time>
      </trkpt>
      <trkpt lat="44.08291" lon="5.35557">
        <ele>957.610596</ele>
        <time>2009-06-14T13:07:45Z</time>
      </trkpt>
      <trkpt lat="44.08332" lon="5.35549">
        <ele>956.168457</ele>
        <time>2009-06-14T13:07:52Z</time>
      </trkpt>
      <trkpt lat="44.0838" lon="5.35539">
        <ele>955.207031</ele>
        <time>2009-06-14T13:08:00Z</time>
      </trkpt>
      <trkpt lat="44.08431" lon="5.3553">
        <ele>954.24585</ele>
        <time>2009-06-14T13:08:08Z</time>
      </trkpt>
      <trkpt lat="44.08483" lon="5.3552">
        <ele>952.803711</ele>
        <time>2009-06-14T13:08:16Z</time>
      </trkpt>
      <trkpt lat="44.08526" lon="5.35512">
        <ele>952.803711</ele>
        <time>2009-06-14T13:08:23Z</time>
      </trkpt>
      <trkpt lat="44.08579" lon="5.35505">
        <ele>955.207031</ele>
        <time>2009-06-14T13:08:31Z</time>
      </trkpt>
      <trkpt lat="44.0863" lon="5.35497">
        <ele>959.05249</ele>
        <time>2009-06-14T13:08:39Z</time>
      </trkpt>
      <trkpt lat="44.08672" lon="5.35489">
        <ele>959.05249</ele>
        <time>2009-06-14T13:08:46Z</time>
      </trkpt>
      <trkpt lat="44.08713" lon="5.35485">
        <ele>960.494385</ele>
        <time>2009-06-14T13:08:53Z</time>
      </trkpt>
      <trkpt lat="44.08754" lon="5.35475">
        <ele>959.05249</ele>
        <time>2009-06-14T13:09:00Z</time>
      </trkpt>
      <trkpt lat="44.08765" lon="5.35474">
        <ele>958.571777</ele>
        <time>2009-06-14T13:09:02Z</time>
      </trkpt>
      <trkpt lat="44.08803" lon="5.35464">
        <ele>957.610596</ele>
        <time>2009-06-14T13:09:09Z</time>
      </trkpt>
      <trkpt lat="44.08828" lon="5.35457">
        <ele>957.610596</ele>
        <time>2009-06-14T13:09:14Z</time>
      </trkpt>
      <trkpt lat="44.08848" lon="5.35447">
        <ele>957.129883</ele>
        <time>2009-06-14T13:09:18Z</time>
      </trkpt>
      <trkpt lat="44.08888" lon="5.35425">
        <ele>958.091309</ele>
        <time>2009-06-14T13:09:25Z</time>
      </trkpt>
      <trkpt lat="44.0892" lon="5.35405">
        <ele>958.091309</ele>
        <time>2009-06-14T13:09:31Z</time>
      </trkpt>
      <trkpt lat="44.08952" lon="5.35375">
        <ele>957.129883</ele>
        <time>2009-06-14T13:09:38Z</time>
      </trkpt>
      <trkpt lat="44.08982" lon="5.35343">
        <ele>959.533203</ele>
        <time>2009-06-14T13:09:44Z</time>
      </trkpt>
      <trkpt lat="44.09019" lon="5.35297">
        <ele>959.533203</ele>
        <time>2009-06-14T13:09:52Z</time>
      </trkpt>
      <trkpt lat="44.0906" lon="5.35245">
        <ele>959.05249</ele>
        <time>2009-06-14T13:10:00Z</time>
      </trkpt>
      <trkpt lat="44.09104" lon="5.35193">
        <ele>960.013672</ele>
        <time>2009-06-14T13:10:07Z</time>
      </trkpt>
      <trkpt lat="44.09149" lon="5.35142">
        <ele>957.610596</ele>
        <time>2009-06-14T13:10:13Z</time>
      </trkpt>
      <trkpt lat="44.09189" lon="5.35084">
        <ele>953.284424</ele>
        <time>2009-06-14T13:10:18Z</time>
      </trkpt>
      <trkpt lat="44.09226" lon="5.35009">
        <ele>947.035889</ele>
        <time>2009-06-14T13:10:23Z</time>
      </trkpt>
      <trkpt lat="44.09244" lon="5.34939">
        <ele>943.190674</ele>
        <time>2009-06-14T13:10:27Z</time>
      </trkpt>
      <trkpt lat="44.09251" lon="5.3487">
        <ele>941.268066</ele>
        <time>2009-06-14T13:10:31Z</time>
      </trkpt>
      <trkpt lat="44.09249" lon="5.34808">
        <ele>940.787354</ele>
        <time>2009-06-14T13:10:35Z</time>
      </trkpt>
      <trkpt lat="44.09238" lon="5.34729">
        <ele>942.229492</ele>
        <time>2009-06-14T13:10:41Z</time>
      </trkpt>
      <trkpt lat="44.09227" lon="5.34674">
        <ele>946.074707</ele>
        <time>2009-06-14T13:10:46Z</time>
      </trkpt>
      <trkpt lat="44.09219" lon="5.34631">
        <ele>948.477783</ele>
        <time>2009-06-14T13:10:51Z</time>
      </trkpt>
      <trkpt lat="44.09211" lon="5.34594">
        <ele>950.881104</ele>
        <time>2009-06-14T13:10:57Z</time>
      </trkpt>
      <trkpt lat="44.09206" lon="5.34559">
        <ele>953.284424</ele>
        <time>2009-06-14T13:11:05Z</time>
      </trkpt>
      <trkpt lat="44.092" lon="5.34521">
        <ele>956.64917</ele>
        <time>2009-06-14T13:11:14Z</time>
      </trkpt>
      <trkpt lat="44.09197" lon="5.34499">
        <ele>960.013672</ele>
        <time>2009-06-14T13:11:19Z</time>
      </trkpt>
      <trkpt lat="44.09191" lon="5.34458">
        <ele>963.378418</ele>
        <time>2009-06-14T13:11:29Z</time>
      </trkpt>
      <trkpt lat="44.09184" lon="5.34417">
        <ele>966.74292</ele>
        <time>2009-06-14T13:11:39Z</time>
      </trkpt>
      <trkpt lat="44.09177" lon="5.34385">
        <ele>970.107422</ele>
        <time>2009-06-14T13:11:47Z</time>
      </trkpt>
      <trkpt lat="44.09172" lon="5.34348">
        <ele>973.472412</ele>
        <time>2009-06-14T13:11:57Z</time>
      </trkpt>
      <trkpt lat="44.09169" lon="5.34318">
        <ele>979.23999</ele>
        <time>2009-06-14T13:12:06Z</time>
      </trkpt>
      <trkpt lat="44.09164" lon="5.3429">
        <ele>982.604736</ele>
        <time>2009-06-14T13:12:14Z</time>
      </trkpt>
      <trkpt lat="44.09162" lon="5.34262">
        <ele>985.008057</ele>
        <time>2009-06-14T13:12:22Z</time>
      </trkpt>
      <trkpt lat="44.09162" lon="5.34237">
        <ele>988.853516</ele>
        <time>2009-06-14T13:12:30Z</time>
      </trkpt>
      <trkpt lat="44.0916" lon="5.34213">
        <ele>994.621094</ele>
        <time>2009-06-14T13:12:37Z</time>
      </trkpt>
      <trkpt lat="44.09161" lon="5.34193">
        <ele>996.063232</ele>
        <time>2009-06-14T13:12:43Z</time>
      </trkpt>
      <trkpt lat="44.09159" lon="5.34161">
        <ele>997.98584</ele>
        <time>2009-06-14T13:12:51Z</time>
      </trkpt>
      <trkpt lat="44.09159" lon="5.34131">
        <ele>1000.869629</ele>
        <time>2009-06-14T13:12:59Z</time>
      </trkpt>
      <trkpt lat="44.09162" lon="5.34102">
        <ele>1000.869629</ele>
        <time>2009-06-14T13:13:06Z</time>
      </trkpt>
      <trkpt lat="44.09163" lon="5.34063">
        <ele>998.947021</ele>
        <time>2009-06-14T13:13:14Z</time>
      </trkpt>
      <trkpt lat="44.09168" lon="5.3402">
        <ele>997.024414</ele>
        <time>2009-06-14T13:13:22Z</time>
      </trkpt>
      <trkpt lat="44.09172" lon="5.33987">
        <ele>995.58252</ele>
        <time>2009-06-14T13:13:28Z</time>
      </trkpt>
      <trkpt lat="44.09174" lon="5.33954">
        <ele>995.101807</ele>
        <time>2009-06-14T13:13:33Z</time>
      </trkpt>
      <trkpt lat="44.09183" lon="5.33905">
        <ele>991.256592</ele>
        <time>2009-06-14T13:13:40Z</time>
      </trkpt>
      <trkpt lat="44.09192" lon="5.33842">
        <ele>989.333984</ele>
        <time>2009-06-14T13:13:48Z</time>
      </trkpt>
      <trkpt lat="44.09201" lon="5.33785">
        <ele>986.93042</ele>
        <time>2009-06-14T13:13:54Z</time>
      </trkpt>
      <trkpt lat="44.09209" lon="5.33722">
        <ele>985.008057</ele>
        <time>2009-06-14T13:13:59Z</time>
      </trkpt>
      <trkpt lat="44.09221" lon="5.33633">
        <ele>980.682129</ele>
        <time>2009-06-14T13:14:05Z</time>
      </trkpt>
      <trkpt lat="44.09236" lon="5.33524">
        <ele>975.875488</ele>
        <time>2009-06-14T13:14:12Z</time>
      </trkpt>
      <trkpt lat="44.09249" lon="5.33445">
        <ele>975.875488</ele>
        <time>2009-06-14T13:14:18Z</time>
      </trkpt>
      <trkpt lat="44.09258" lon="5.33382">
        <ele>978.759521</ele>
        <time>2009-06-14T13:14:24Z</time>
      </trkpt>
      <trkpt lat="44.09263" lon="5.33346">
        <ele>981.643311</ele>
        <time>2009-06-14T13:14:29Z</time>
      </trkpt>
      <trkpt lat="44.09269" lon="5.33311">
        <ele>984.527344</ele>
        <time>2009-06-14T13:14:36Z</time>
      </trkpt>
      <trkpt lat="44.09277" lon="5.33273">
        <ele>987.891846</ele>
        <time>2009-06-14T13:14:45Z</time>
      </trkpt>
      <trkpt lat="44.09282" lon="5.33237">
        <ele>989.814697</ele>
        <time>2009-06-14T13:14:54Z</time>
      </trkpt>
      <trkpt lat="44.09288" lon="5.33201">
        <ele>995.58252</ele>
        <time>2009-06-14T13:15:03Z</time>
      </trkpt>
      <trkpt lat="44.09293" lon="5.3316">
        <ele>998.466309</ele>
        <time>2009-06-14T13:15:12Z</time>
      </trkpt>
      <trkpt lat="44.09296" lon="5.33125">
        <ele>1001.350342</ele>
        <time>2009-06-14T13:15:20Z</time>
      </trkpt>
      <trkpt lat="44.09301" lon="5.33087">
        <ele>1003.753662</ele>
        <time>2009-06-14T13:15:29Z</time>
      </trkpt>
      <trkpt lat="44.09309" lon="5.33052">
        <ele>1004.234619</ele>
        <time>2009-06-14T13:15:37Z</time>
      </trkpt>
      <trkpt lat="44.09313" lon="5.33022">
        <ele>1003.753662</ele>
        <time>2009-06-14T13:15:44Z</time>
      </trkpt>
      <trkpt lat="44.09317" lon="5.32997">
        <ele>1003.753662</ele>
        <time>2009-06-14T13:15:50Z</time>
      </trkpt>
      <trkpt lat="44.09322" lon="5.32975">
        <ele>1002.311523</ele>
        <time>2009-06-14T13:15:56Z</time>
      </trkpt>
      <trkpt lat="44.09322" lon="5.3297">
        <ele>1002.311523</ele>
        <time>2009-06-14T13:15:58Z</time>
      </trkpt>
      <trkpt lat="44.09321" lon="5.32968">
        <ele>1002.792236</ele>
        <time>2009-06-14T13:16:06Z</time>
      </trkpt>
      <trkpt lat="44.09321" lon="5.32969">
        <ele>1001.831055</ele>
        <time>2009-06-14T13:16:14Z</time>
      </trkpt>
      <trkpt lat="44.0932" lon="5.3297">
        <ele>1000.38916</ele>
        <time>2009-06-14T13:16:34Z</time>
      </trkpt>
      <trkpt lat="44.09319" lon="5.3297">
        <ele>998.947021</ele>
        <time>2009-06-14T13:16:41Z</time>
      </trkpt>
      <trkpt lat="44.09318" lon="5.32969">
        <ele>1004.715088</ele>
        <time>2009-06-14T13:17:04Z</time>
      </trkpt>
      <trkpt lat="44.09318" lon="5.3297">
        <ele>1002.311523</ele>
        <time>2009-06-14T13:17:14Z</time>
      </trkpt>
      <trkpt lat="44.09318" lon="5.32974">
        <ele>1003.272949</ele>
        <time>2009-06-14T13:17:20Z</time>
      </trkpt>
      <trkpt lat="44.09318" lon="5.32976">
        <ele>1001.831055</ele>
        <time>2009-06-14T13:17:27Z</time>
      </trkpt>
      <trkpt lat="44.09315" lon="5.32976">
        <ele>1006.637695</ele>
        <time>2009-06-14T13:17:38Z</time>
      </trkpt>
      <trkpt lat="44.09315" lon="5.32977">
        <ele>1005.195801</ele>
        <time>2009-06-14T13:17:57Z</time>
      </trkpt>
      <trkpt lat="44.09315" lon="5.32976">
        <ele>1003.272949</ele>
        <time>2009-06-14T13:18:05Z</time>
      </trkpt>
      <trkpt lat="44.09316" lon="5.32972">
        <ele>1001.831055</ele>
        <time>2009-06-14T13:18:09Z</time>
      </trkpt>
      <trkpt lat="44.09322" lon="5.32953">
        <ele>997.98584</ele>
        <time>2009-06-14T13:18:15Z</time>
      </trkpt>
      <trkpt lat="44.09329" lon="5.32926">
        <ele>995.101807</ele>
        <time>2009-06-14T13:18:20Z</time>
      </trkpt>
      <trkpt lat="44.09336" lon="5.32888">
        <ele>992.218018</ele>
        <time>2009-06-14T13:18:25Z</time>
      </trkpt>
      <trkpt lat="44.09342" lon="5.32838">
        <ele>992.218018</ele>
        <time>2009-06-14T13:18:30Z</time>
      </trkpt>
      <trkpt lat="44.09356" lon="5.32769">
        <ele>988.372803</ele>
        <time>2009-06-14T13:18:36Z</time>
      </trkpt>
      <trkpt lat="44.09369" lon="5.32683">
        <ele>985.969238</ele>
        <time>2009-06-14T13:18:42Z</time>
      </trkpt>
      <trkpt lat="44.09388" lon="5.3256">
        <ele>980.682129</ele>
        <time>2009-06-14T13:18:50Z</time>
      </trkpt>
      <trkpt lat="44.09407" lon="5.32432">
        <ele>975.394775</ele>
        <time>2009-06-14T13:18:58Z</time>
      </trkpt>
      <trkpt lat="44.09421" lon="5.32328">
        <ele>973.472412</ele>
        <time>2009-06-14T13:19:05Z</time>
      </trkpt>
      <trkpt lat="44.09428" lon="5.32234">
        <ele>972.510986</ele>
        <time>2009-06-14T13:19:12Z</time>
      </trkpt>
      <trkpt lat="44.09424" lon="5.32144">
        <ele>972.510986</ele>
        <time>2009-06-14T13:19:19Z</time>
      </trkpt>
      <trkpt lat="44.09415" lon="5.32037">
        <ele>967.704102</ele>
        <time>2009-06-14T13:19:27Z</time>
      </trkpt>
      <trkpt lat="44.09398" lon="5.31945">
        <ele>960.013672</ele>
        <time>2009-06-14T13:19:33Z</time>
      </trkpt>
      <trkpt lat="44.09373" lon="5.3185">
        <ele>953.765137</ele>
        <time>2009-06-14T13:19:39Z</time>
      </trkpt>
      <trkpt lat="44.09336" lon="5.31747">
        <ele>949.439209</ele>
        <time>2009-06-14T13:19:46Z</time>
      </trkpt>
      <trkpt lat="44.09295" lon="5.31634">
        <ele>945.113281</ele>
        <time>2009-06-14T13:19:54Z</time>
      </trkpt>
      <trkpt lat="44.09246" lon="5.31496">
        <ele>937.90332</ele>
        <time>2009-06-14T13:20:04Z</time>
      </trkpt>
      <trkpt lat="44.0919" lon="5.31344">
        <ele>931.654785</ele>
        <time>2009-06-14T13:20:15Z</time>
      </trkpt>
      <trkpt lat="44.09133" lon="5.31186">
        <ele>926.367676</ele>
        <time>2009-06-14T13:20:26Z</time>
      </trkpt>
      <trkpt lat="44.09099" lon="5.31092">
        <ele>923.483643</ele>
        <time>2009-06-14T13:20:33Z</time>
      </trkpt>
      <trkpt lat="44.09075" lon="5.30998">
        <ele>919.638428</ele>
        <time>2009-06-14T13:20:40Z</time>
      </trkpt>
      <trkpt lat="44.09058" lon="5.30899">
        <ele>916.754395</ele>
        <time>2009-06-14T13:20:47Z</time>
      </trkpt>
      <trkpt lat="44.09055" lon="5.3081">
        <ele>914.351074</ele>
        <time>2009-06-14T13:20:53Z</time>
      </trkpt>
      <trkpt lat="44.09063" lon="5.30725">
        <ele>910.986572</ele>
        <time>2009-06-14T13:20:59Z</time>
      </trkpt>
      <trkpt lat="44.0908" lon="5.30638">
        <ele>907.141113</ele>
        <time>2009-06-14T13:21:05Z</time>
      </trkpt>
      <trkpt lat="44.09101" lon="5.30572">
        <ele>903.776611</ele>
        <time>2009-06-14T13:21:10Z</time>
      </trkpt>
      <trkpt lat="44.09124" lon="5.30506">
        <ele>900.892578</ele>
        <time>2009-06-14T13:21:15Z</time>
      </trkpt>
      <trkpt lat="44.09149" lon="5.30432">
        <ele>896.086182</ele>
        <time>2009-06-14T13:21:20Z</time>
      </trkpt>
      <trkpt lat="44.09165" lon="5.30378">
        <ele>892.240967</ele>
        <time>2009-06-14T13:21:24Z</time>
      </trkpt>
      <trkpt lat="44.09176" lon="5.30311">
        <ele>886.953369</ele>
        <time>2009-06-14T13:21:29Z</time>
      </trkpt>
      <trkpt lat="44.0918" lon="5.30227">
        <ele>881.185791</ele>
        <time>2009-06-14T13:21:34Z</time>
      </trkpt>
      <trkpt lat="44.09172" lon="5.30132">
        <ele>873.975586</ele>
        <time>2009-06-14T13:21:39Z</time>
      </trkpt>
      <trkpt lat="44.09155" lon="5.30055">
        <ele>869.169189</ele>
        <time>2009-06-14T13:21:43Z</time>
      </trkpt>
      <trkpt lat="44.09133" lon="5.29988">
        <ele>864.843262</ele>
        <time>2009-06-14T13:21:47Z</time>
      </trkpt>
      <trkpt lat="44.09105" lon="5.29932">
        <ele>861.959473</ele>
        <time>2009-06-14T13:21:51Z</time>
      </trkpt>
      <trkpt lat="44.09065" lon="5.29872">
        <ele>859.555908</ele>
        <time>2009-06-14T13:21:56Z</time>
      </trkpt>
      <trkpt lat="44.0902" lon="5.29827">
        <ele>858.114014</ele>
        <time>2009-06-14T13:22:01Z</time>
      </trkpt>
      <trkpt lat="44.08979" lon="5.29793">
        <ele>857.152588</ele>
        <time>2009-06-14T13:22:06Z</time>
      </trkpt>
      <trkpt lat="44.08941" lon="5.29771">
        <ele>855.710693</ele>
        <time>2009-06-14T13:22:11Z</time>
      </trkpt>
      <trkpt lat="44.08895" lon="5.29756">
        <ele>854.268799</ele>
        <time>2009-06-14T13:22:17Z</time>
      </trkpt>
      <trkpt lat="44.08842" lon="5.29742">
        <ele>851.865479</ele>
        <time>2009-06-14T13:22:23Z</time>
      </trkpt>
      <trkpt lat="44.08775" lon="5.29723">
        <ele>847.058838</ele>
        <time>2009-06-14T13:22:30Z</time>
      </trkpt>
      <trkpt lat="44.08718" lon="5.29708">
        <ele>842.73291</ele>
        <time>2009-06-14T13:22:35Z</time>
      </trkpt>
      <trkpt lat="44.08632" lon="5.29686">
        <ele>836.003662</ele>
        <time>2009-06-14T13:22:42Z</time>
      </trkpt>
      <trkpt lat="44.08536" lon="5.29673">
        <ele>829.274414</ele>
        <time>2009-06-14T13:22:50Z</time>
      </trkpt>
      <trkpt lat="44.08464" lon="5.29674">
        <ele>822.064453</ele>
        <time>2009-06-14T13:22:56Z</time>
      </trkpt>
      <trkpt lat="44.0838" lon="5.29682">
        <ele>815.816162</ele>
        <time>2009-06-14T13:23:03Z</time>
      </trkpt>
      <trkpt lat="44.0831" lon="5.29689">
        <ele>811.970703</ele>
        <time>2009-06-14T13:23:09Z</time>
      </trkpt>
      <trkpt lat="44.08264" lon="5.29668">
        <ele>810.047852</ele>
        <time>2009-06-14T13:23:13Z</time>
      </trkpt>
      <trkpt lat="44.08236" lon="5.29637">
        <ele>807.644775</ele>
        <time>2009-06-14T13:23:16Z</time>
      </trkpt>
      <trkpt lat="44.08217" lon="5.29596">
        <ele>804.760742</ele>
        <time>2009-06-14T13:23:19Z</time>
      </trkpt>
      <trkpt lat="44.08206" lon="5.29548">
        <ele>802.357422</ele>
        <time>2009-06-14T13:23:22Z</time>
      </trkpt>
      <trkpt lat="44.08205" lon="5.29498">
        <ele>799.473633</ele>
        <time>2009-06-14T13:23:25Z</time>
      </trkpt>
      <trkpt lat="44.08216" lon="5.29448">
        <ele>797.070313</ele>
        <time>2009-06-14T13:23:28Z</time>
      </trkpt>
      <trkpt lat="44.08251" lon="5.29339">
        <ele>790.821533</ele>
        <time>2009-06-14T13:23:35Z</time>
      </trkpt>
      <trkpt lat="44.08258" lon="5.2927">
        <ele>786.49585</ele>
        <time>2009-06-14T13:23:39Z</time>
      </trkpt>
      <trkpt lat="44.08251" lon="5.292">
        <ele>782.169922</ele>
        <time>2009-06-14T13:23:43Z</time>
      </trkpt>
      <trkpt lat="44.08229" lon="5.29118">
        <ele>776.401855</ele>
        <time>2009-06-14T13:23:48Z</time>
      </trkpt>
      <trkpt lat="44.08211" lon="5.29041">
        <ele>771.114746</ele>
        <time>2009-06-14T13:23:53Z</time>
      </trkpt>
      <trkpt lat="44.08211" lon="5.28976">
        <ele>766.788818</ele>
        <time>2009-06-14T13:23:57Z</time>
      </trkpt>
      <trkpt lat="44.08212" lon="5.28959">
        <ele>765.827637</ele>
        <time>2009-06-14T13:23:58Z</time>
      </trkpt>
      <trkpt lat="44.0823" lon="5.28892">
        <ele>760.540039</ele>
        <time>2009-06-14T13:24:02Z</time>
      </trkpt>
      <trkpt lat="44.08237" lon="5.28875">
        <ele>759.098145</ele>
        <time>2009-06-14T13:24:03Z</time>
      </trkpt>
      <trkpt lat="44.08287" lon="5.28781">
        <ele>751.407715</ele>
        <time>2009-06-14T13:24:09Z</time>
      </trkpt>
      <trkpt lat="44.08313" lon="5.28707">
        <ele>745.639648</ele>
        <time>2009-06-14T13:24:13Z</time>
      </trkpt>
      <trkpt lat="44.08327" lon="5.28628">
        <ele>739.871826</ele>
        <time>2009-06-14T13:24:17Z</time>
      </trkpt>
      <trkpt lat="44.08329" lon="5.28545">
        <ele>734.104004</ele>
        <time>2009-06-14T13:24:21Z</time>
      </trkpt>
      <trkpt lat="44.08319" lon="5.28378">
        <ele>722.568115</ele>
        <time>2009-06-14T13:24:29Z</time>
      </trkpt>
      <trkpt lat="44.08316" lon="5.28248">
        <ele>714.396729</ele>
        <time>2009-06-14T13:24:35Z</time>
      </trkpt>
      <trkpt lat="44.0832" lon="5.28062">
        <ele>702.380371</ele>
        <time>2009-06-14T13:24:43Z</time>
      </trkpt>
      <trkpt lat="44.08324" lon="5.27879">
        <ele>690.364014</ele>
        <time>2009-06-14T13:24:51Z</time>
      </trkpt>
      <trkpt lat="44.08332" lon="5.27813">
        <ele>686.038086</ele>
        <time>2009-06-14T13:24:54Z</time>
      </trkpt>
      <trkpt lat="44.0835" lon="5.2775">
        <ele>681.711914</ele>
        <time>2009-06-14T13:24:57Z</time>
      </trkpt>
      <trkpt lat="44.08379" lon="5.27645">
        <ele>674.502197</ele>
        <time>2009-06-14T13:25:02Z</time>
      </trkpt>
      <trkpt lat="44.08384" lon="5.27577">
        <ele>670.17627</ele>
        <time>2009-06-14T13:25:05Z</time>
      </trkpt>
      <trkpt lat="44.08372" lon="5.27488">
        <ele>664.408203</ele>
        <time>2009-06-14T13:25:09Z</time>
      </trkpt>
      <trkpt lat="44.08348" lon="5.27428">
        <ele>660.082275</ele>
        <time>2009-06-14T13:25:12Z</time>
      </trkpt>
      <trkpt lat="44.08326" lon="5.27393">
        <ele>656.237061</ele>
        <time>2009-06-14T13:25:14Z</time>
      </trkpt>
      <trkpt lat="44.08251" lon="5.27299">
        <ele>646.143311</ele>
        <time>2009-06-14T13:25:20Z</time>
      </trkpt>
      <trkpt lat="44.08102" lon="5.27146">
        <ele>631.723389</ele>
        <time>2009-06-14T13:25:31Z</time>
      </trkpt>
      <trkpt lat="44.0803" lon="5.2709">
        <ele>626.436279</ele>
        <time>2009-06-14T13:25:36Z</time>
      </trkpt>
      <trkpt lat="44.07939" lon="5.27042">
        <ele>621.14917</ele>
        <time>2009-06-14T13:25:42Z</time>
      </trkpt>
      <trkpt lat="44.07806" lon="5.26977">
        <ele>611.535889</ele>
        <time>2009-06-14T13:25:51Z</time>
      </trkpt>
      <trkpt lat="44.07719" lon="5.26925">
        <ele>604.326172</ele>
        <time>2009-06-14T13:25:57Z</time>
      </trkpt>
      <trkpt lat="44.07667" lon="5.26875">
        <ele>599.038574</ele>
        <time>2009-06-14T13:26:01Z</time>
      </trkpt>
      <trkpt lat="44.07614" lon="5.26829">
        <ele>593.270752</ele>
        <time>2009-06-14T13:26:05Z</time>
      </trkpt>
      <trkpt lat="44.07558" lon="5.26796">
        <ele>587.983398</ele>
        <time>2009-06-14T13:26:09Z</time>
      </trkpt>
      <trkpt lat="44.07514" lon="5.26744">
        <ele>583.657471</ele>
        <time>2009-06-14T13:26:13Z</time>
      </trkpt>
      <trkpt lat="44.07497" lon="5.26689">
        <ele>579.331543</ele>
        <time>2009-06-14T13:26:16Z</time>
      </trkpt>
      <trkpt lat="44.07497" lon="5.26648">
        <ele>576.447754</ele>
        <time>2009-06-14T13:26:18Z</time>
      </trkpt>
      <trkpt lat="44.0751" lon="5.26607">
        <ele>574.525146</ele>
        <time>2009-06-14T13:26:20Z</time>
      </trkpt>
      <trkpt lat="44.0753" lon="5.26573">
        <ele>572.602539</ele>
        <time>2009-06-14T13:26:22Z</time>
      </trkpt>
      <trkpt lat="44.07558" lon="5.2655">
        <ele>569.718506</ele>
        <time>2009-06-14T13:26:24Z</time>
      </trkpt>
      <trkpt lat="44.07572" lon="5.2654">
        <ele>568.276367</ele>
        <time>2009-06-14T13:26:25Z</time>
      </trkpt>
      <trkpt lat="44.07644" lon="5.26502">
        <ele>561.547363</ele>
        <time>2009-06-14T13:26:30Z</time>
      </trkpt>
      <trkpt lat="44.07691" lon="5.26454">
        <ele>556.740723</ele>
        <time>2009-06-14T13:26:34Z</time>
      </trkpt>
      <trkpt lat="44.0771" lon="5.26401">
        <ele>550.972656</ele>
        <time>2009-06-14T13:26:37Z</time>
      </trkpt>
      <trkpt lat="44.07709" lon="5.26344">
        <ele>546.646851</ele>
        <time>2009-06-14T13:26:40Z</time>
      </trkpt>
      <trkpt lat="44.07688" lon="5.26307">
        <ele>545.685547</ele>
        <time>2009-06-14T13:26:42Z</time>
      </trkpt>
      <trkpt lat="44.07661" lon="5.26281">
        <ele>542.320923</ele>
        <time>2009-06-14T13:26:44Z</time>
      </trkpt>
      <trkpt lat="44.07629" lon="5.26268">
        <ele>538.956299</ele>
        <time>2009-06-14T13:26:46Z</time>
      </trkpt>
      <trkpt lat="44.07582" lon="5.26266">
        <ele>535.110962</ele>
        <time>2009-06-14T13:26:49Z</time>
      </trkpt>
      <trkpt lat="44.0749" lon="5.26267">
        <ele>528.381836</ele>
        <time>2009-06-14T13:26:55Z</time>
      </trkpt>
      <trkpt lat="44.07418" lon="5.26234">
        <ele>524.536499</ele>
        <time>2009-06-14T13:27:00Z</time>
      </trkpt>
      <trkpt lat="44.07333" lon="5.26187">
        <ele>519.249268</ele>
        <time>2009-06-14T13:27:06Z</time>
      </trkpt>
      <trkpt lat="44.07201" lon="5.26132">
        <ele>510.59729</ele>
        <time>2009-06-14T13:27:15Z</time>
      </trkpt>
      <trkpt lat="44.07082" lon="5.26092">
        <ele>502.906738</ele>
        <time>2009-06-14T13:27:23Z</time>
      </trkpt>
      <trkpt lat="44.0696" lon="5.26056">
        <ele>495.696899</ele>
        <time>2009-06-14T13:27:31Z</time>
      </trkpt>
      <trkpt lat="44.06859" lon="5.26022">
        <ele>488.967773</ele>
        <time>2009-06-14T13:27:38Z</time>
      </trkpt>
      <trkpt lat="44.06809" lon="5.25979">
        <ele>485.122437</ele>
        <time>2009-06-14T13:27:42Z</time>
      </trkpt>
      <trkpt lat="44.06781" lon="5.25933">
        <ele>481.277222</ele>
        <time>2009-06-14T13:27:45Z</time>
      </trkpt>
      <trkpt lat="44.06708" lon="5.25777">
        <ele>469.260742</ele>
        <time>2009-06-14T13:27:54Z</time>
      </trkpt>
      <trkpt lat="44.06658" lon="5.25673">
        <ele>460.608765</ele>
        <time>2009-06-14T13:28:00Z</time>
      </trkpt>
      <trkpt lat="44.06634" lon="5.25575">
        <ele>451.957031</ele>
        <time>2009-06-14T13:28:05Z</time>
      </trkpt>
      <trkpt lat="44.06606" lon="5.25476">
        <ele>442.824463</ele>
        <time>2009-06-14T13:28:10Z</time>
      </trkpt>
      <trkpt lat="44.06577" lon="5.25425">
        <ele>439.459717</ele>
        <time>2009-06-14T13:28:13Z</time>
      </trkpt>
      <trkpt lat="44.06502" lon="5.25312">
        <ele>431.769165</ele>
        <time>2009-06-14T13:28:20Z</time>
      </trkpt>
      <trkpt lat="44.06454" lon="5.25231">
        <ele>429.846558</ele>
        <time>2009-06-14T13:28:25Z</time>
      </trkpt>
      <trkpt lat="44.06447" lon="5.25214">
        <ele>429.846558</ele>
        <time>2009-06-14T13:28:26Z</time>
      </trkpt>
      <trkpt lat="44.06428" lon="5.25127">
        <ele>428.404663</ele>
        <time>2009-06-14T13:28:31Z</time>
      </trkpt>
      <trkpt lat="44.06423" lon="5.25059">
        <ele>427.443359</ele>
        <time>2009-06-14T13:28:35Z</time>
      </trkpt>
      <trkpt lat="44.06423" lon="5.25042">
        <ele>427.443359</ele>
        <time>2009-06-14T13:28:36Z</time>
      </trkpt>
      <trkpt lat="44.06438" lon="5.24962">
        <ele>426.001343</ele>
        <time>2009-06-14T13:28:41Z</time>
      </trkpt>
      <trkpt lat="44.06463" lon="5.24864">
        <ele>421.194824</ele>
        <time>2009-06-14T13:28:47Z</time>
      </trkpt>
      <trkpt lat="44.06471" lon="5.24792">
        <ele>416.388184</ele>
        <time>2009-06-14T13:28:51Z</time>
      </trkpt>
      <trkpt lat="44.06467" lon="5.24736">
        <ele>412.062256</ele>
        <time>2009-06-14T13:28:54Z</time>
      </trkpt>
      <trkpt lat="44.06451" lon="5.24661">
        <ele>406.774902</ele>
        <time>2009-06-14T13:28:58Z</time>
      </trkpt>
      <trkpt lat="44.0642" lon="5.24593">
        <ele>401.968506</ele>
        <time>2009-06-14T13:29:02Z</time>
      </trkpt>
      <trkpt lat="44.06366" lon="5.24526">
        <ele>396.200562</ele>
        <time>2009-06-14T13:29:07Z</time>
      </trkpt>
      <trkpt lat="44.06254" lon="5.24407">
        <ele>383.703247</ele>
        <time>2009-06-14T13:29:17Z</time>
      </trkpt>
      <trkpt lat="44.06205" lon="5.24371">
        <ele>380.338745</ele>
        <time>2009-06-14T13:29:21Z</time>
      </trkpt>
      <trkpt lat="44.06103" lon="5.24316">
        <ele>372.648193</ele>
        <time>2009-06-14T13:29:29Z</time>
      </trkpt>
      <trkpt lat="44.05975" lon="5.24254">
        <ele>364.957642</ele>
        <time>2009-06-14T13:29:39Z</time>
      </trkpt>
      <trkpt lat="44.05825" lon="5.2418">
        <ele>355.344482</ele>
        <time>2009-06-14T13:29:51Z</time>
      </trkpt>
      <trkpt lat="44.0571" lon="5.24126">
        <ele>347.173218</ele>
        <time>2009-06-14T13:30:00Z</time>
      </trkpt>
      <trkpt lat="44.05611" lon="5.24078">
        <ele>340.444092</ele>
        <time>2009-06-14T13:30:08Z</time>
      </trkpt>
      <trkpt lat="44.05549" lon="5.2406">
        <ele>337.560059</ele>
        <time>2009-06-14T13:30:13Z</time>
      </trkpt>
      <trkpt lat="44.05498" lon="5.24066">
        <ele>334.676147</ele>
        <time>2009-06-14T13:30:17Z</time>
      </trkpt>
      <trkpt lat="44.05485" lon="5.24068">
        <ele>334.195435</ele>
        <time>2009-06-14T13:30:18Z</time>
      </trkpt>
      <trkpt lat="44.05436" lon="5.24052">
        <ele>332.272827</ele>
        <time>2009-06-14T13:30:22Z</time>
      </trkpt>
      <trkpt lat="44.05422" lon="5.24023">
        <ele>330.35022</ele>
        <time>2009-06-14T13:30:24Z</time>
      </trkpt>
      <trkpt lat="44.05415" lon="5.23988">
        <ele>327.466187</ele>
        <time>2009-06-14T13:30:26Z</time>
      </trkpt>
      <trkpt lat="44.05422" lon="5.23954">
        <ele>325.062988</ele>
        <time>2009-06-14T13:30:28Z</time>
      </trkpt>
      <trkpt lat="44.05444" lon="5.23929">
        <ele>323.140381</ele>
        <time>2009-06-14T13:30:30Z</time>
      </trkpt>
      <trkpt lat="44.05467" lon="5.23914">
        <ele>321.698364</ele>
        <time>2009-06-14T13:30:32Z</time>
      </trkpt>
      <trkpt lat="44.05558" lon="5.23858">
        <ele>314.488403</ele>
        <time>2009-06-14T13:30:40Z</time>
      </trkpt>
      <trkpt lat="44.0557" lon="5.23851">
        <ele>313.527222</ele>
        <time>2009-06-14T13:30:41Z</time>
      </trkpt>
      <trkpt lat="44.0561" lon="5.23806">
        <ele>310.643066</ele>
        <time>2009-06-14T13:30:45Z</time>
      </trkpt>
      <trkpt lat="44.0566" lon="5.23726">
        <ele>312.085205</ele>
        <time>2009-06-14T13:30:51Z</time>
      </trkpt>
      <trkpt lat="44.05702" lon="5.23658">
        <ele>310.162476</ele>
        <time>2009-06-14T13:30:57Z</time>
      </trkpt>
      <trkpt lat="44.05762" lon="5.23562">
        <ele>305.355957</ele>
        <time>2009-06-14T13:31:06Z</time>
      </trkpt>
      <trkpt lat="44.05792" lon="5.23511">
        <ele>303.433228</ele>
        <time>2009-06-14T13:31:11Z</time>
      </trkpt>
      <trkpt lat="44.05816" lon="5.23493">
        <ele>300.549316</ele>
        <time>2009-06-14T13:31:15Z</time>
      </trkpt>
      <trkpt lat="44.05822" lon="5.235">
        <ele>298.626709</ele>
        <time>2009-06-14T13:31:20Z</time>
      </trkpt>
      <trkpt lat="44.05817" lon="5.23506">
        <ele>295.261963</ele>
        <time>2009-06-14T13:31:39Z</time>
      </trkpt>
      <trkpt lat="44.05819" lon="5.23506">
        <ele>295.742676</ele>
        <time>2009-06-14T13:31:40Z</time>
      </trkpt>
      <trkpt lat="44.05823" lon="5.23507">
        <ele>298.626709</ele>
        <time>2009-06-14T13:31:46Z</time>
      </trkpt>
      <trkpt lat="44.05822" lon="5.23504">
        <ele>302.952515</ele>
        <time>2009-06-14T13:31:52Z</time>
      </trkpt>
      <trkpt lat="44.05816" lon="5.23502">
        <ele>303.433228</ele>
        <time>2009-06-14T13:32:01Z</time>
      </trkpt>
      <trkpt lat="44.05816" lon="5.23504">
        <ele>299.588013</ele>
        <time>2009-06-14T13:32:07Z</time>
      </trkpt>
      <trkpt lat="44.05816" lon="5.23503">
        <ele>298.626709</ele>
        <time>2009-06-14T13:32:34Z</time>
      </trkpt>
      <trkpt lat="44.05817" lon="5.23498">
        <ele>293.820068</ele>
        <time>2009-06-14T13:32:39Z</time>
      </trkpt>
      <trkpt lat="44.05818" lon="5.23505">
        <ele>300.068726</ele>
        <time>2009-06-14T13:32:48Z</time>
      </trkpt>
      <trkpt lat="44.05819" lon="5.23503">
        <ele>302.952515</ele>
        <time>2009-06-14T13:32:57Z</time>
      </trkpt>
      <trkpt lat="44.05824" lon="5.23503">
        <ele>307.759277</ele>
        <time>2009-06-14T13:33:04Z</time>
      </trkpt>
      <trkpt lat="44.05823" lon="5.23504">
        <ele>307.759277</ele>
        <time>2009-06-14T13:33:10Z</time>
      </trkpt>
      <trkpt lat="44.05822" lon="5.23503">
        <ele>307.278564</ele>
        <time>2009-06-14T13:33:16Z</time>
      </trkpt>
      <trkpt lat="44.05821" lon="5.23504">
        <ele>306.797852</ele>
        <time>2009-06-14T13:33:19Z</time>
      </trkpt>
      <trkpt lat="44.05821" lon="5.23498">
        <ele>309.201172</ele>
        <time>2009-06-14T13:33:28Z</time>
      </trkpt>
      <trkpt lat="44.0582" lon="5.23497">
        <ele>314.007813</ele>
        <time>2009-06-14T13:33:38Z</time>
      </trkpt>
      <trkpt lat="44.0582" lon="5.235">
        <ele>312.565796</ele>
        <time>2009-06-14T13:33:43Z</time>
      </trkpt>
      <trkpt lat="44.0582" lon="5.23503">
        <ele>308.720459</ele>
        <time>2009-06-14T13:33:49Z</time>
      </trkpt>
      <trkpt lat="44.05821" lon="5.23504">
        <ele>307.759277</ele>
        <time>2009-06-14T13:33:51Z</time>
      </trkpt>
      <trkpt lat="44.05824" lon="5.23501">
        <ele>308.720459</ele>
        <time>2009-06-14T13:34:00Z</time>
      </trkpt>
      <trkpt lat="44.05825" lon="5.23498">
        <ele>312.565796</ele>
        <time>2009-06-14T13:34:11Z</time>
      </trkpt>
      <trkpt lat="44.05827" lon="5.23496">
        <ele>314.007813</ele>
        <time>2009-06-14T13:34:16Z</time>
      </trkpt>
      <trkpt lat="44.05827" lon="5.23495">
        <ele>314.007813</ele>
        <time>2009-06-14T13:34:28Z</time>
      </trkpt>
      <trkpt lat="44.05826" lon="5.23497">
        <ele>311.604492</ele>
        <time>2009-06-14T13:34:33Z</time>
      </trkpt>
      <trkpt lat="44.05829" lon="5.23498">
        <ele>306.317261</ele>
        <time>2009-06-14T13:34:42Z</time>
      </trkpt>
      <trkpt lat="44.0583" lon="5.23495">
        <ele>304.875244</ele>
        <time>2009-06-14T13:34:44Z</time>
      </trkpt>
      <trkpt lat="44.05838" lon="5.23497">
        <ele>304.394653</ele>
        <time>2009-06-14T13:34:48Z</time>
      </trkpt>
      <trkpt lat="44.05859" lon="5.23488">
        <ele>305.355957</ele>
        <time>2009-06-14T13:34:55Z</time>
      </trkpt>
      <trkpt lat="44.05874" lon="5.23464">
        <ele>303.91394</ele>
        <time>2009-06-14T13:35:01Z</time>
      </trkpt>
      <trkpt lat="44.0588" lon="5.23441">
        <ele>301.029907</ele>
        <time>2009-06-14T13:35:05Z</time>
      </trkpt>
      <trkpt lat="44.05884" lon="5.23418">
        <ele>298.626709</ele>
        <time>2009-06-14T13:35:08Z</time>
      </trkpt>
      <trkpt lat="44.05886" lon="5.23403">
        <ele>299.1073</ele>
        <time>2009-06-14T13:35:10Z</time>
      </trkpt>
      <trkpt lat="44.05887" lon="5.23379">
        <ele>298.626709</ele>
        <time>2009-06-14T13:35:13Z</time>
      </trkpt>
      <trkpt lat="44.05908" lon="5.23371">
        <ele>297.665405</ele>
        <time>2009-06-14T13:35:17Z</time>
      </trkpt>
      <trkpt lat="44.05919" lon="5.23369">
        <ele>299.588013</ele>
        <time>2009-06-14T13:35:19Z</time>
      </trkpt>
      <trkpt lat="44.05948" lon="5.23352">
        <ele>297.665405</ele>
        <time>2009-06-14T13:35:25Z</time>
      </trkpt>
      <trkpt lat="44.05975" lon="5.23339">
        <ele>298.146118</ele>
        <time>2009-06-14T13:35:29Z</time>
      </trkpt>
      <trkpt lat="44.06009" lon="5.23323">
        <ele>295.261963</ele>
        <time>2009-06-14T13:35:35Z</time>
      </trkpt>
      <trkpt lat="44.06047" lon="5.23308">
        <ele>295.261963</ele>
        <time>2009-06-14T13:35:42Z</time>
      </trkpt>
      <trkpt lat="44.06079" lon="5.23295">
        <ele>296.704102</ele>
        <time>2009-06-14T13:35:48Z</time>
      </trkpt>
      <trkpt lat="44.06104" lon="5.23285">
        <ele>298.146118</ele>
        <time>2009-06-14T13:35:54Z</time>
      </trkpt>
      <trkpt lat="44.06142" lon="5.2327">
        <ele>299.1073</ele>
        <time>2009-06-14T13:36:04Z</time>
      </trkpt>
      <trkpt lat="44.06181" lon="5.23259">
        <ele>299.1073</ele>
        <time>2009-06-14T13:36:13Z</time>
      </trkpt>
      <trkpt lat="44.06228" lon="5.23244">
        <ele>299.588013</ele>
        <time>2009-06-14T13:36:23Z</time>
      </trkpt>
      <trkpt lat="44.06278" lon="5.23229">
        <ele>300.549316</ele>
        <time>2009-06-14T13:36:34Z</time>
      </trkpt>
      <trkpt lat="44.0631" lon="5.23224">
        <ele>301.51062</ele>
        <time>2009-06-14T13:36:42Z</time>
      </trkpt>
      <trkpt lat="44.06314" lon="5.23223">
        <ele>301.51062</ele>
        <time>2009-06-14T13:36:43Z</time>
      </trkpt>
      <trkpt lat="44.06349" lon="5.23222">
        <ele>302.471924</ele>
        <time>2009-06-14T13:36:52Z</time>
      </trkpt>
      <trkpt lat="44.06371" lon="5.23223">
        <ele>302.471924</ele>
        <time>2009-06-14T13:36:58Z</time>
      </trkpt>
      <trkpt lat="44.064" lon="5.23228">
        <ele>302.471924</ele>
        <time>2009-06-14T13:37:05Z</time>
      </trkpt>
      <trkpt lat="44.06435" lon="5.23239">
        <ele>302.952515</ele>
        <time>2009-06-14T13:37:13Z</time>
      </trkpt>
      <trkpt lat="44.06469" lon="5.23259">
        <ele>303.91394</ele>
        <time>2009-06-14T13:37:21Z</time>
      </trkpt>
      <trkpt lat="44.06507" lon="5.23284">
        <ele>305.355957</ele>
        <time>2009-06-14T13:37:30Z</time>
      </trkpt>
      <trkpt lat="44.06544" lon="5.23303">
        <ele>305.83667</ele>
        <time>2009-06-14T13:37:38Z</time>
      </trkpt>
      <trkpt lat="44.06585" lon="5.23326">
        <ele>305.83667</ele>
        <time>2009-06-14T13:37:47Z</time>
      </trkpt>
      <trkpt lat="44.06626" lon="5.23346">
        <ele>305.83667</ele>
        <time>2009-06-14T13:37:55Z</time>
      </trkpt>
      <trkpt lat="44.06642" lon="5.23351">
        <ele>305.83667</ele>
        <time>2009-06-14T13:37:58Z</time>
      </trkpt>
      <trkpt lat="44.06679" lon="5.23348">
        <ele>305.83667</ele>
        <time>2009-06-14T13:38:05Z</time>
      </trkpt>
      <trkpt lat="44.06726" lon="5.23337">
        <ele>306.797852</ele>
        <time>2009-06-14T13:38:14Z</time>
      </trkpt>
      <trkpt lat="44.06771" lon="5.23325">
        <ele>308.239868</ele>
        <time>2009-06-14T13:38:23Z</time>
      </trkpt>
      <trkpt lat="44.06815" lon="5.23306">
        <ele>309.201172</ele>
        <time>2009-06-14T13:38:32Z</time>
      </trkpt>
      <trkpt lat="44.06862" lon="5.23284">
        <ele>311.604492</ele>
        <time>2009-06-14T13:38:42Z</time>
      </trkpt>
      <trkpt lat="44.06901" lon="5.23274">
        <ele>313.527222</ele>
        <time>2009-06-14T13:38:50Z</time>
      </trkpt>
      <trkpt lat="44.06942" lon="5.23265">
        <ele>315.449829</ele>
        <time>2009-06-14T13:38:59Z</time>
      </trkpt>
      <trkpt lat="44.06977" lon="5.23262">
        <ele>315.449829</ele>
        <time>2009-06-14T13:39:06Z</time>
      </trkpt>
      <trkpt lat="44.06982" lon="5.23263">
        <ele>315.449829</ele>
        <time>2009-06-14T13:39:07Z</time>
      </trkpt>
      <trkpt lat="44.07033" lon="5.23275">
        <ele>316.411011</ele>
        <time>2009-06-14T13:39:17Z</time>
      </trkpt>
      <trkpt lat="44.07071" lon="5.23285">
        <ele>317.853027</ele>
        <time>2009-06-14T13:39:25Z</time>
      </trkpt>
      <trkpt lat="44.07116" lon="5.23308">
        <ele>320.256348</ele>
        <time>2009-06-14T13:39:35Z</time>
      </trkpt>
      <trkpt lat="44.07159" lon="5.23345">
        <ele>322.178955</ele>
        <time>2009-06-14T13:39:45Z</time>
      </trkpt>
      <trkpt lat="44.07201" lon="5.2338">
        <ele>323.620972</ele>
        <time>2009-06-14T13:39:55Z</time>
      </trkpt>
      <trkpt lat="44.07232" lon="5.23395">
        <ele>325.062988</ele>
        <time>2009-06-14T13:40:02Z</time>
      </trkpt>
      <trkpt lat="44.07263" lon="5.23394">
        <ele>326.02417</ele>
        <time>2009-06-14T13:40:09Z</time>
      </trkpt>
      <trkpt lat="44.07312" lon="5.23391">
        <ele>327.466187</ele>
        <time>2009-06-14T13:40:18Z</time>
      </trkpt>
      <trkpt lat="44.07352" lon="5.23387">
        <ele>328.427612</ele>
        <time>2009-06-14T13:40:26Z</time>
      </trkpt>
      <trkpt lat="44.07389" lon="5.23392">
        <ele>329.869507</ele>
        <time>2009-06-14T13:40:33Z</time>
      </trkpt>
      <trkpt lat="44.07443" lon="5.23418">
        <ele>331.792114</ele>
        <time>2009-06-14T13:40:44Z</time>
      </trkpt>
      <trkpt lat="44.0748" lon="5.23435">
        <ele>334.195435</ele>
        <time>2009-06-14T13:40:52Z</time>
      </trkpt>
      <trkpt lat="44.07527" lon="5.23455">
        <ele>335.156738</ele>
        <time>2009-06-14T13:41:02Z</time>
      </trkpt>
      <trkpt lat="44.07568" lon="5.2346">
        <ele>337.079468</ele>
        <time>2009-06-14T13:41:10Z</time>
      </trkpt>
      <trkpt lat="44.07623" lon="5.23464">
        <ele>339.002075</ele>
        <time>2009-06-14T13:41:21Z</time>
      </trkpt>
      <trkpt lat="44.07677" lon="5.23469">
        <ele>341.885986</ele>
        <time>2009-06-14T13:41:32Z</time>
      </trkpt>
      <trkpt lat="44.07707" lon="5.23472">
        <ele>343.808594</ele>
        <time>2009-06-14T13:41:38Z</time>
      </trkpt>
      <trkpt lat="44.07754" lon="5.23479">
        <ele>345.731323</ele>
        <time>2009-06-14T13:41:48Z</time>
      </trkpt>
      <trkpt lat="44.078" lon="5.23487">
        <ele>348.134644</ele>
        <time>2009-06-14T13:41:57Z</time>
      </trkpt>
      <trkpt lat="44.07846" lon="5.23495">
        <ele>350.057251</ele>
        <time>2009-06-14T13:42:06Z</time>
      </trkpt>
      <trkpt lat="44.07876" lon="5.235">
        <ele>351.018433</ele>
        <time>2009-06-14T13:42:12Z</time>
      </trkpt>
      <trkpt lat="44.07921" lon="5.23508">
        <ele>352.460571</ele>
        <time>2009-06-14T13:42:21Z</time>
      </trkpt>
      <trkpt lat="44.07975" lon="5.23516">
        <ele>353.902588</ele>
        <time>2009-06-14T13:42:31Z</time>
      </trkpt>
      <trkpt lat="44.0803" lon="5.23518">
        <ele>355.825195</ele>
        <time>2009-06-14T13:42:41Z</time>
      </trkpt>
      <trkpt lat="44.08081" lon="5.23521">
        <ele>357.26709</ele>
        <time>2009-06-14T13:42:51Z</time>
      </trkpt>
      <trkpt lat="44.08116" lon="5.23522">
        <ele>357.26709</ele>
        <time>2009-06-14T13:42:58Z</time>
      </trkpt>
      <trkpt lat="44.08159" lon="5.23524">
        <ele>357.26709</ele>
        <time>2009-06-14T13:43:06Z</time>
      </trkpt>
      <trkpt lat="44.08208" lon="5.23525">
        <ele>356.786377</ele>
        <time>2009-06-14T13:43:15Z</time>
      </trkpt>
      <trkpt lat="44.0825" lon="5.23526">
        <ele>357.747803</ele>
        <time>2009-06-14T13:43:23Z</time>
      </trkpt>
      <trkpt lat="44.08292" lon="5.23536">
        <ele>361.112427</ele>
        <time>2009-06-14T13:43:32Z</time>
      </trkpt>
      <trkpt lat="44.08303" lon="5.23539">
        <ele>361.112427</ele>
        <time>2009-06-14T13:43:35Z</time>
      </trkpt>
      <trkpt lat="44.08349" lon="5.23559">
        <ele>363.035034</ele>
        <time>2009-06-14T13:43:45Z</time>
      </trkpt>
      <trkpt lat="44.08388" lon="5.23574">
        <ele>363.996338</ele>
        <time>2009-06-14T13:43:53Z</time>
      </trkpt>
      <trkpt lat="44.08431" lon="5.23592">
        <ele>363.996338</ele>
        <time>2009-06-14T13:44:02Z</time>
      </trkpt>
      <trkpt lat="44.0847" lon="5.23603">
        <ele>364.957642</ele>
        <time>2009-06-14T13:44:11Z</time>
      </trkpt>
      <trkpt lat="44.08507" lon="5.23612">
        <ele>366.880249</ele>
        <time>2009-06-14T13:44:19Z</time>
      </trkpt>
      <trkpt lat="44.08543" lon="5.23617">
        <ele>368.802979</ele>
        <time>2009-06-14T13:44:27Z</time>
      </trkpt>
      <trkpt lat="44.08577" lon="5.23603">
        <ele>370.244873</ele>
        <time>2009-06-14T13:44:35Z</time>
      </trkpt>
      <trkpt lat="44.0862" lon="5.23583">
        <ele>373.128906</ele>
        <time>2009-06-14T13:44:45Z</time>
      </trkpt>
      <trkpt lat="44.08624" lon="5.23582">
        <ele>373.609497</ele>
        <time>2009-06-14T13:44:46Z</time>
      </trkpt>
      <trkpt lat="44.08642" lon="5.23581">
        <ele>374.570801</ele>
        <time>2009-06-14T13:44:50Z</time>
      </trkpt>
      <trkpt lat="44.087" lon="5.23599">
        <ele>377.935425</ele>
        <time>2009-06-14T13:45:03Z</time>
      </trkpt>
      <trkpt lat="44.0874" lon="5.23613">
        <ele>380.819458</ele>
        <time>2009-06-14T13:45:12Z</time>
      </trkpt>
      <trkpt lat="44.08771" lon="5.23634">
        <ele>381.78064</ele>
        <time>2009-06-14T13:45:19Z</time>
      </trkpt>
      <trkpt lat="44.08807" lon="5.2367">
        <ele>383.222656</ele>
        <time>2009-06-14T13:45:28Z</time>
      </trkpt>
      <trkpt lat="44.08843" lon="5.23704">
        <ele>385.145386</ele>
        <time>2009-06-14T13:45:37Z</time>
      </trkpt>
      <trkpt lat="44.0888" lon="5.23732">
        <ele>386.587402</ele>
        <time>2009-06-14T13:45:46Z</time>
      </trkpt>
      <trkpt lat="44.0891" lon="5.23751">
        <ele>389.471191</ele>
        <time>2009-06-14T13:45:53Z</time>
      </trkpt>
      <trkpt lat="44.08951" lon="5.23779">
        <ele>392.355347</ele>
        <time>2009-06-14T13:46:02Z</time>
      </trkpt>
      <trkpt lat="44.08981" lon="5.23802">
        <ele>394.758545</ele>
        <time>2009-06-14T13:46:09Z</time>
      </trkpt>
      <trkpt lat="44.09017" lon="5.23832">
        <ele>395.719849</ele>
        <time>2009-06-14T13:46:18Z</time>
      </trkpt>
      <trkpt lat="44.09051" lon="5.23856">
        <ele>397.161743</ele>
        <time>2009-06-14T13:46:26Z</time>
      </trkpt>
      <trkpt lat="44.09087" lon="5.23877">
        <ele>398.60376</ele>
        <time>2009-06-14T13:46:34Z</time>
      </trkpt>
      <trkpt lat="44.09126" lon="5.23892">
        <ele>398.60376</ele>
        <time>2009-06-14T13:46:42Z</time>
      </trkpt>
      <trkpt lat="44.09175" lon="5.23908">
        <ele>401.00708</ele>
        <time>2009-06-14T13:46:52Z</time>
      </trkpt>
      <trkpt lat="44.09213" lon="5.2392">
        <ele>403.4104</ele>
        <time>2009-06-14T13:47:00Z</time>
      </trkpt>
      <trkpt lat="44.09255" lon="5.23935">
        <ele>405.333008</ele>
        <time>2009-06-14T13:47:09Z</time>
      </trkpt>
      <trkpt lat="44.09286" lon="5.2394">
        <ele>406.294312</ele>
        <time>2009-06-14T13:47:16Z</time>
      </trkpt>
      <trkpt lat="44.0933" lon="5.23939">
        <ele>409.178345</ele>
        <time>2009-06-14T13:47:25Z</time>
      </trkpt>
      <trkpt lat="44.09363" lon="5.23941">
        <ele>409.178345</ele>
        <time>2009-06-14T13:47:32Z</time>
      </trkpt>
      <trkpt lat="44.09397" lon="5.2395">
        <ele>410.620239</ele>
        <time>2009-06-14T13:47:39Z</time>
      </trkpt>
      <trkpt lat="44.09444" lon="5.2396">
        <ele>413.02356</ele>
        <time>2009-06-14T13:47:49Z</time>
      </trkpt>
      <trkpt lat="44.09487" lon="5.23959">
        <ele>413.984863</ele>
        <time>2009-06-14T13:47:58Z</time>
      </trkpt>
      <trkpt lat="44.09525" lon="5.23957">
        <ele>415.42688</ele>
        <time>2009-06-14T13:48:06Z</time>
      </trkpt>
      <trkpt lat="44.09561" lon="5.23958">
        <ele>415.907471</ele>
        <time>2009-06-14T13:48:14Z</time>
      </trkpt>
      <trkpt lat="44.09603" lon="5.23957">
        <ele>417.349609</ele>
        <time>2009-06-14T13:48:24Z</time>
      </trkpt>
      <trkpt lat="44.09639" lon="5.23958">
        <ele>420.233398</ele>
        <time>2009-06-14T13:48:33Z</time>
      </trkpt>
      <trkpt lat="44.09672" lon="5.23963">
        <ele>419.752808</ele>
        <time>2009-06-14T13:48:41Z</time>
      </trkpt>
      <trkpt lat="44.09714" lon="5.23969">
        <ele>422.156006</ele>
        <time>2009-06-14T13:48:51Z</time>
      </trkpt>
      <trkpt lat="44.09753" lon="5.23977">
        <ele>426.482056</ele>
        <time>2009-06-14T13:49:00Z</time>
      </trkpt>
      <trkpt lat="44.09782" lon="5.23986">
        <ele>428.404663</ele>
        <time>2009-06-14T13:49:07Z</time>
      </trkpt>
      <trkpt lat="44.09804" lon="5.23994">
        <ele>429.365967</ele>
        <time>2009-06-14T13:49:13Z</time>
      </trkpt>
      <trkpt lat="44.09818" lon="5.24008">
        <ele>430.327271</ele>
        <time>2009-06-14T13:49:18Z</time>
      </trkpt>
      <trkpt lat="44.09821" lon="5.24028">
        <ele>431.288574</ele>
        <time>2009-06-14T13:49:22Z</time>
      </trkpt>
      <trkpt lat="44.09819" lon="5.24072">
        <ele>432.25</ele>
        <time>2009-06-14T13:49:30Z</time>
      </trkpt>
      <trkpt lat="44.09819" lon="5.24104">
        <ele>433.211304</ele>
        <time>2009-06-14T13:49:36Z</time>
      </trkpt>
      <trkpt lat="44.09823" lon="5.24148">
        <ele>437.056519</ele>
        <time>2009-06-14T13:49:44Z</time>
      </trkpt>
      <trkpt lat="44.09834" lon="5.24172">
        <ele>440.421265</ele>
        <time>2009-06-14T13:49:50Z</time>
      </trkpt>
      <trkpt lat="44.09847" lon="5.24174">
        <ele>439.94043</ele>
        <time>2009-06-14T13:49:54Z</time>
      </trkpt>
      <trkpt lat="44.09869" lon="5.24166">
        <ele>440.421265</ele>
        <time>2009-06-14T13:50:00Z</time>
      </trkpt>
      <trkpt lat="44.09895" lon="5.24169">
        <ele>445.227661</ele>
        <time>2009-06-14T13:50:06Z</time>
      </trkpt>
      <trkpt lat="44.09903" lon="5.24173">
        <ele>447.150269</ele>
        <time>2009-06-14T13:50:08Z</time>
      </trkpt>
      <trkpt lat="44.09928" lon="5.24178">
        <ele>449.072998</ele>
        <time>2009-06-14T13:50:15Z</time>
      </trkpt>
      <trkpt lat="44.09939" lon="5.24182">
        <ele>448.111816</ele>
        <time>2009-06-14T13:50:21Z</time>
      </trkpt>
      <trkpt lat="44.09948" lon="5.24185">
        <ele>445.708374</ele>
        <time>2009-06-14T13:50:28Z</time>
      </trkpt>
      <trkpt lat="44.09947" lon="5.24181">
        <ele>444.74707</ele>
        <time>2009-06-14T13:50:32Z</time>
      </trkpt>
      <trkpt lat="44.09928" lon="5.24177">
        <ele>441.863159</ele>
        <time>2009-06-14T13:50:38Z</time>
      </trkpt>
      <trkpt lat="44.099" lon="5.24171">
        <ele>440.901855</ele>
        <time>2009-06-14T13:50:44Z</time>
      </trkpt>
      <trkpt lat="44.09895" lon="5.24169">
        <ele>440.901855</ele>
        <time>2009-06-14T13:50:45Z</time>
      </trkpt>
      <trkpt lat="44.09881" lon="5.24163">
        <ele>442.824463</ele>
        <time>2009-06-14T13:50:48Z</time>
      </trkpt>
      <trkpt lat="44.09858" lon="5.24164">
        <ele>447.150269</ele>
        <time>2009-06-14T13:50:53Z</time>
      </trkpt>
      <trkpt lat="44.09853" lon="5.24166">
        <ele>448.111816</ele>
        <time>2009-06-14T13:50:54Z</time>
      </trkpt>
      <trkpt lat="44.09834" lon="5.24173">
        <ele>445.227661</ele>
        <time>2009-06-14T13:50:59Z</time>
      </trkpt>
      <trkpt lat="44.09825" lon="5.24159">
        <ele>441.863159</ele>
        <time>2009-06-14T13:51:02Z</time>
      </trkpt>
      <trkpt lat="44.09818" lon="5.24137">
        <ele>439.459717</ele>
        <time>2009-06-14T13:51:05Z</time>
      </trkpt>
      <trkpt lat="44.09819" lon="5.24089">
        <ele>437.056519</ele>
        <time>2009-06-14T13:51:10Z</time>
      </trkpt>
      <trkpt lat="44.09824" lon="5.24016">
        <ele>433.211304</ele>
        <time>2009-06-14T13:51:17Z</time>
      </trkpt>
      <trkpt lat="44.09838" lon="5.2396">
        <ele>431.288574</ele>
        <time>2009-06-14T13:51:23Z</time>
      </trkpt>
      <trkpt lat="44.09851" lon="5.23908">
        <ele>431.769165</ele>
        <time>2009-06-14T13:51:29Z</time>
      </trkpt>
      <trkpt lat="44.09849" lon="5.23876">
        <ele>432.25</ele>
        <time>2009-06-14T13:51:33Z</time>
      </trkpt>
      <trkpt lat="44.09838" lon="5.23859">
        <ele>433.211304</ele>
        <time>2009-06-14T13:51:36Z</time>
      </trkpt>
      <trkpt lat="44.09803" lon="5.23827">
        <ele>437.537109</ele>
        <time>2009-06-14T13:51:44Z</time>
      </trkpt>
      <trkpt lat="44.09766" lon="5.23795">
        <ele>437.056519</ele>
        <time>2009-06-14T13:51:53Z</time>
      </trkpt>
      <trkpt lat="44.09732" lon="5.23761">
        <ele>441.382446</ele>
        <time>2009-06-14T13:52:01Z</time>
      </trkpt>
      <trkpt lat="44.09728" lon="5.23756">
        <ele>441.382446</ele>
        <time>2009-06-14T13:52:02Z</time>
      </trkpt>
      <trkpt lat="44.09719" lon="5.23719">
        <ele>438.498535</ele>
        <time>2009-06-14T13:52:07Z</time>
      </trkpt>
      <trkpt lat="44.09714" lon="5.2364">
        <ele>435.133911</ele>
        <time>2009-06-14T13:52:16Z</time>
      </trkpt>
      <trkpt lat="44.09713" lon="5.2357">
        <ele>432.25</ele>
        <time>2009-06-14T13:52:23Z</time>
      </trkpt>
      <trkpt lat="44.09715" lon="5.2354">
        <ele>431.769165</ele>
        <time>2009-06-14T13:52:26Z</time>
      </trkpt>
      <trkpt lat="44.09733" lon="5.23486">
        <ele>431.288574</ele>
        <time>2009-06-14T13:52:32Z</time>
      </trkpt>
      <trkpt lat="44.09754" lon="5.23426">
        <ele>431.769165</ele>
        <time>2009-06-14T13:52:39Z</time>
      </trkpt>
      <trkpt lat="44.09755" lon="5.23417">
        <ele>431.769165</ele>
        <time>2009-06-14T13:52:40Z</time>
      </trkpt>
      <trkpt lat="44.09753" lon="5.23382">
        <ele>431.288574</ele>
        <time>2009-06-14T13:52:44Z</time>
      </trkpt>
      <trkpt lat="44.0973" lon="5.23283">
        <ele>429.846558</ele>
        <time>2009-06-14T13:52:55Z</time>
      </trkpt>
      <trkpt lat="44.09726" lon="5.23264">
        <ele>429.846558</ele>
        <time>2009-06-14T13:52:57Z</time>
      </trkpt>
      <trkpt lat="44.09726" lon="5.23224">
        <ele>429.365967</ele>
        <time>2009-06-14T13:53:01Z</time>
      </trkpt>
      <trkpt lat="44.09743" lon="5.23138">
        <ele>428.885376</ele>
        <time>2009-06-14T13:53:10Z</time>
      </trkpt>
      <trkpt lat="44.09758" lon="5.23071">
        <ele>428.885376</ele>
        <time>2009-06-14T13:53:17Z</time>
      </trkpt>
      <trkpt lat="44.09779" lon="5.23035">
        <ele>429.846558</ele>
        <time>2009-06-14T13:53:22Z</time>
      </trkpt>
      <trkpt lat="44.09801" lon="5.2302">
        <ele>430.327271</ele>
        <time>2009-06-14T13:53:26Z</time>
      </trkpt>
      <trkpt lat="44.09838" lon="5.23011">
        <ele>431.769165</ele>
        <time>2009-06-14T13:53:33Z</time>
      </trkpt>
      <trkpt lat="44.09886" lon="5.23008">
        <ele>432.25</ele>
        <time>2009-06-14T13:53:42Z</time>
      </trkpt>
      <trkpt lat="44.09947" lon="5.23003">
        <ele>433.691895</ele>
        <time>2009-06-14T13:53:53Z</time>
      </trkpt>
      <trkpt lat="44.09991" lon="5.22992">
        <ele>435.133911</ele>
        <time>2009-06-14T13:54:01Z</time>
      </trkpt>
      <trkpt lat="44.10018" lon="5.2298">
        <ele>436.575928</ele>
        <time>2009-06-14T13:54:07Z</time>
      </trkpt>
      <trkpt lat="44.10038" lon="5.22971">
        <ele>437.056519</ele>
        <time>2009-06-14T13:54:13Z</time>
      </trkpt>
      <trkpt lat="44.10066" lon="5.22959">
        <ele>437.056519</ele>
        <time>2009-06-14T13:54:19Z</time>
      </trkpt>
      <trkpt lat="44.10102" lon="5.22943">
        <ele>437.056519</ele>
        <time>2009-06-14T13:54:26Z</time>
      </trkpt>
      <trkpt lat="44.10145" lon="5.22924">
        <ele>436.095215</ele>
        <time>2009-06-14T13:54:34Z</time>
      </trkpt>
      <trkpt lat="44.102" lon="5.22901">
        <ele>435.614502</ele>
        <time>2009-06-14T13:54:43Z</time>
      </trkpt>
      <trkpt lat="44.10252" lon="5.22876">
        <ele>434.65332</ele>
        <time>2009-06-14T13:54:51Z</time>
      </trkpt>
      <trkpt lat="44.10278" lon="5.22854">
        <ele>434.172607</ele>
        <time>2009-06-14T13:54:56Z</time>
      </trkpt>
      <trkpt lat="44.10309" lon="5.22822">
        <ele>432.25</ele>
        <time>2009-06-14T13:55:03Z</time>
      </trkpt>
      <trkpt lat="44.10343" lon="5.22786">
        <ele>432.730713</ele>
        <time>2009-06-14T13:55:10Z</time>
      </trkpt>
      <trkpt lat="44.10373" lon="5.22757">
        <ele>432.25</ele>
        <time>2009-06-14T13:55:16Z</time>
      </trkpt>
      <trkpt lat="44.10383" lon="5.22751">
        <ele>432.25</ele>
        <time>2009-06-14T13:55:18Z</time>
      </trkpt>
      <trkpt lat="44.1042" lon="5.22718">
        <ele>429.846558</ele>
        <time>2009-06-14T13:55:25Z</time>
      </trkpt>
      <trkpt lat="44.10431" lon="5.22706">
        <ele>428.404663</ele>
        <time>2009-06-14T13:55:27Z</time>
      </trkpt>
      <trkpt lat="44.10459" lon="5.22656">
        <ele>425.520752</ele>
        <time>2009-06-14T13:55:33Z</time>
      </trkpt>
      <trkpt lat="44.10488" lon="5.22599">
        <ele>424.078735</ele>
        <time>2009-06-14T13:55:40Z</time>
      </trkpt>
      <trkpt lat="44.10518" lon="5.22538">
        <ele>421.194824</ele>
        <time>2009-06-14T13:55:48Z</time>
      </trkpt>
      <trkpt lat="44.10535" lon="5.22501">
        <ele>419.272217</ele>
        <time>2009-06-14T13:55:52Z</time>
      </trkpt>
      <trkpt lat="44.10567" lon="5.22475">
        <ele>416.868896</ele>
        <time>2009-06-14T13:55:56Z</time>
      </trkpt>
      <trkpt lat="44.10593" lon="5.22463">
        <ele>415.907471</ele>
        <time>2009-06-14T13:55:59Z</time>
      </trkpt>
      <trkpt lat="44.10645" lon="5.22423">
        <ele>416.868896</ele>
        <time>2009-06-14T13:56:07Z</time>
      </trkpt>
      <trkpt lat="44.10691" lon="5.22382">
        <ele>419.272217</ele>
        <time>2009-06-14T13:56:15Z</time>
      </trkpt>
      <trkpt lat="44.10734" lon="5.22346">
        <ele>419.272217</ele>
        <time>2009-06-14T13:56:23Z</time>
      </trkpt>
      <trkpt lat="44.10772" lon="5.22313">
        <ele>421.675415</ele>
        <time>2009-06-14T13:56:30Z</time>
      </trkpt>
      <trkpt lat="44.10793" lon="5.22283">
        <ele>422.636719</ele>
        <time>2009-06-14T13:56:35Z</time>
      </trkpt>
      <trkpt lat="44.10816" lon="5.22247">
        <ele>424.078735</ele>
        <time>2009-06-14T13:56:42Z</time>
      </trkpt>
      <trkpt lat="44.1082" lon="5.22243">
        <ele>424.559448</ele>
        <time>2009-06-14T13:56:43Z</time>
      </trkpt>
      <trkpt lat="44.10837" lon="5.22232">
        <ele>427.92395</ele>
        <time>2009-06-14T13:56:49Z</time>
      </trkpt>
      <trkpt lat="44.10841" lon="5.2224">
        <ele>427.443359</ele>
        <time>2009-06-14T13:56:52Z</time>
      </trkpt>
      <trkpt lat="44.10848" lon="5.22259">
        <ele>427.92395</ele>
        <time>2009-06-14T13:56:59Z</time>
      </trkpt>
      <trkpt lat="44.10856" lon="5.22287">
        <ele>429.846558</ele>
        <time>2009-06-14T13:57:07Z</time>
      </trkpt>
      <trkpt lat="44.10868" lon="5.2232">
        <ele>428.885376</ele>
        <time>2009-06-14T13:57:16Z</time>
      </trkpt>
      <trkpt lat="44.10884" lon="5.22334">
        <ele>430.327271</ele>
        <time>2009-06-14T13:57:22Z</time>
      </trkpt>
      <trkpt lat="44.10904" lon="5.22335">
        <ele>430.327271</ele>
        <time>2009-06-14T13:57:28Z</time>
      </trkpt>
      <trkpt lat="44.10933" lon="5.22325">
        <ele>432.25</ele>
        <time>2009-06-14T13:57:35Z</time>
      </trkpt>
      <trkpt lat="44.10963" lon="5.22312">
        <ele>432.25</ele>
        <time>2009-06-14T13:57:41Z</time>
      </trkpt>
      <trkpt lat="44.10998" lon="5.22296">
        <ele>431.288574</ele>
        <time>2009-06-14T13:57:47Z</time>
      </trkpt>
      <trkpt lat="44.11045" lon="5.22275">
        <ele>431.288574</ele>
        <time>2009-06-14T13:57:55Z</time>
      </trkpt>
      <trkpt lat="44.11086" lon="5.22258">
        <ele>431.769165</ele>
        <time>2009-06-14T13:58:03Z</time>
      </trkpt>
      <trkpt lat="44.11132" lon="5.22237">
        <ele>433.211304</ele>
        <time>2009-06-14T13:58:13Z</time>
      </trkpt>
      <trkpt lat="44.1118" lon="5.22215">
        <ele>434.172607</ele>
        <time>2009-06-14T13:58:24Z</time>
      </trkpt>
      <trkpt lat="44.11216" lon="5.22197">
        <ele>435.133911</ele>
        <time>2009-06-14T13:58:32Z</time>
      </trkpt>
      <trkpt lat="44.11262" lon="5.22176">
        <ele>435.133911</ele>
        <time>2009-06-14T13:58:41Z</time>
      </trkpt>
      <trkpt lat="44.11299" lon="5.2216">
        <ele>435.133911</ele>
        <time>2009-06-14T13:58:48Z</time>
      </trkpt>
      <trkpt lat="44.11349" lon="5.22135">
        <ele>433.211304</ele>
        <time>2009-06-14T13:58:56Z</time>
      </trkpt>
      <trkpt lat="44.11398" lon="5.22117">
        <ele>431.288574</ele>
        <time>2009-06-14T13:59:03Z</time>
      </trkpt>
      <trkpt lat="44.11412" lon="5.22115">
        <ele>430.807983</ele>
        <time>2009-06-14T13:59:05Z</time>
      </trkpt>
      <trkpt lat="44.1145" lon="5.22125">
        <ele>427.92395</ele>
        <time>2009-06-14T13:59:11Z</time>
      </trkpt>
      <trkpt lat="44.11484" lon="5.22144">
        <ele>428.885376</ele>
        <time>2009-06-14T13:59:17Z</time>
      </trkpt>
      <trkpt lat="44.11526" lon="5.22172">
        <ele>431.288574</ele>
        <time>2009-06-14T13:59:25Z</time>
      </trkpt>
      <trkpt lat="44.11565" lon="5.22207">
        <ele>429.846558</ele>
        <time>2009-06-14T13:59:33Z</time>
      </trkpt>
      <trkpt lat="44.11592" lon="5.2225">
        <ele>427.92395</ele>
        <time>2009-06-14T13:59:39Z</time>
      </trkpt>
      <trkpt lat="44.11611" lon="5.22305">
        <ele>426.482056</ele>
        <time>2009-06-14T13:59:45Z</time>
      </trkpt>
      <trkpt lat="44.11629" lon="5.22387">
        <ele>426.962769</ele>
        <time>2009-06-14T13:59:53Z</time>
      </trkpt>
      <trkpt lat="44.11647" lon="5.22434">
        <ele>426.001343</ele>
        <time>2009-06-14T13:59:58Z</time>
      </trkpt>
      <trkpt lat="44.11656" lon="5.22449">
        <ele>426.482056</ele>
        <time>2009-06-14T14:00:00Z</time>
      </trkpt>
      <trkpt lat="44.11681" lon="5.2247">
        <ele>427.92395</ele>
        <time>2009-06-14T14:00:05Z</time>
      </trkpt>
      <trkpt lat="44.11697" lon="5.2247">
        <ele>428.885376</ele>
        <time>2009-06-14T14:00:08Z</time>
      </trkpt>
      <trkpt lat="44.11708" lon="5.22468">
        <ele>429.846558</ele>
        <time>2009-06-14T14:00:10Z</time>
      </trkpt>
      <trkpt lat="44.11733" lon="5.22451">
        <ele>430.807983</ele>
        <time>2009-06-14T14:00:15Z</time>
      </trkpt>
      <trkpt lat="44.11744" lon="5.22431">
        <ele>432.25</ele>
        <time>2009-06-14T14:00:18Z</time>
      </trkpt>
      <trkpt lat="44.11775" lon="5.22359">
        <ele>434.172607</ele>
        <time>2009-06-14T14:00:28Z</time>
      </trkpt>
      <trkpt lat="44.11795" lon="5.22311">
        <ele>436.095215</ele>
        <time>2009-06-14T14:00:35Z</time>
      </trkpt>
      <trkpt lat="44.11814" lon="5.22263">
        <ele>438.979126</ele>
        <time>2009-06-14T14:00:43Z</time>
      </trkpt>
      <trkpt lat="44.11831" lon="5.22226">
        <ele>440.421265</ele>
        <time>2009-06-14T14:00:51Z</time>
      </trkpt>
      <trkpt lat="44.11841" lon="5.22214">
        <ele>441.382446</ele>
        <time>2009-06-14T14:00:54Z</time>
      </trkpt>
      <trkpt lat="44.11867" lon="5.22197">
        <ele>442.824463</ele>
        <time>2009-06-14T14:01:01Z</time>
      </trkpt>
      <trkpt lat="44.11895" lon="5.22187">
        <ele>443.785767</ele>
        <time>2009-06-14T14:01:08Z</time>
      </trkpt>
      <trkpt lat="44.119" lon="5.22185">
        <ele>444.266479</ele>
        <time>2009-06-14T14:01:09Z</time>
      </trkpt>
      <trkpt lat="44.11924" lon="5.22163">
        <ele>445.708374</ele>
        <time>2009-06-14T14:01:15Z</time>
      </trkpt>
      <trkpt lat="44.11954" lon="5.22125">
        <ele>449.072998</ele>
        <time>2009-06-14T14:01:23Z</time>
      </trkpt>
      <trkpt lat="44.11976" lon="5.22116">
        <ele>450.995605</ele>
        <time>2009-06-14T14:01:28Z</time>
      </trkpt>
      <trkpt lat="44.11989" lon="5.22121">
        <ele>451.957031</ele>
        <time>2009-06-14T14:01:31Z</time>
      </trkpt>
      <trkpt lat="44.12013" lon="5.22141">
        <ele>454.360229</ele>
        <time>2009-06-14T14:01:39Z</time>
      </trkpt>
      <trkpt lat="44.12037" lon="5.22163">
        <ele>455.802246</ele>
        <time>2009-06-14T14:01:48Z</time>
      </trkpt>
      <trkpt lat="44.12046" lon="5.22179">
        <ele>456.282959</ele>
        <time>2009-06-14T14:01:53Z</time>
      </trkpt>
      <trkpt lat="44.12042" lon="5.22197">
        <ele>457.244263</ele>
        <time>2009-06-14T14:01:57Z</time>
      </trkpt>
      <trkpt lat="44.12034" lon="5.22233">
        <ele>458.205566</ele>
        <time>2009-06-14T14:02:04Z</time>
      </trkpt>
      <trkpt lat="44.1203" lon="5.22275">
        <ele>457.724976</ele>
        <time>2009-06-14T14:02:12Z</time>
      </trkpt>
      <trkpt lat="44.12034" lon="5.22315">
        <ele>458.205566</ele>
        <time>2009-06-14T14:02:20Z</time>
      </trkpt>
      <trkpt lat="44.12041" lon="5.22354">
        <ele>460.128174</ele>
        <time>2009-06-14T14:02:28Z</time>
      </trkpt>
      <trkpt lat="44.12049" lon="5.22397">
        <ele>463.973389</ele>
        <time>2009-06-14T14:02:37Z</time>
      </trkpt>
      <trkpt lat="44.12055" lon="5.22436">
        <ele>466.376709</ele>
        <time>2009-06-14T14:02:46Z</time>
      </trkpt>
      <trkpt lat="44.12055" lon="5.22464">
        <ele>467.818726</ele>
        <time>2009-06-14T14:02:52Z</time>
      </trkpt>
      <trkpt lat="44.12051" lon="5.22501">
        <ele>470.702637</ele>
        <time>2009-06-14T14:03:00Z</time>
      </trkpt>
      <trkpt lat="44.12046" lon="5.22538">
        <ele>475.509277</ele>
        <time>2009-06-14T14:03:08Z</time>
      </trkpt>
      <trkpt lat="44.12041" lon="5.22582">
        <ele>478.393188</ele>
        <time>2009-06-14T14:03:17Z</time>
      </trkpt>
      <trkpt lat="44.12035" lon="5.22623">
        <ele>477.431885</ele>
        <time>2009-06-14T14:03:25Z</time>
      </trkpt>
      <trkpt lat="44.12031" lon="5.22658">
        <ele>481.757813</ele>
        <time>2009-06-14T14:03:33Z</time>
      </trkpt>
      <trkpt lat="44.12025" lon="5.22709">
        <ele>484.161133</ele>
        <time>2009-06-14T14:03:44Z</time>
      </trkpt>
      <trkpt lat="44.12024" lon="5.22749">
        <ele>484.641846</ele>
        <time>2009-06-14T14:03:53Z</time>
      </trkpt>
      <trkpt lat="44.12026" lon="5.22793">
        <ele>483.199829</ele>
        <time>2009-06-14T14:04:03Z</time>
      </trkpt>
      <trkpt lat="44.12028" lon="5.22826">
        <ele>481.277222</ele>
        <time>2009-06-14T14:04:11Z</time>
      </trkpt>
      <trkpt lat="44.12033" lon="5.22865">
        <ele>481.757813</ele>
        <time>2009-06-14T14:04:20Z</time>
      </trkpt>
      <trkpt lat="44.12035" lon="5.22902">
        <ele>476.951294</ele>
        <time>2009-06-14T14:04:29Z</time>
      </trkpt>
      <trkpt lat="44.1204" lon="5.22949">
        <ele>476.470581</ele>
        <time>2009-06-14T14:04:40Z</time>
      </trkpt>
      <trkpt lat="44.12049" lon="5.22993">
        <ele>481.757813</ele>
        <time>2009-06-14T14:04:50Z</time>
      </trkpt>
      <trkpt lat="44.1205" lon="5.2303">
        <ele>487.525635</ele>
        <time>2009-06-14T14:04:58Z</time>
      </trkpt>
      <trkpt lat="44.12042" lon="5.2306">
        <ele>489.929077</ele>
        <time>2009-06-14T14:05:05Z</time>
      </trkpt>
      <trkpt lat="44.12026" lon="5.23084">
        <ele>493.774292</ele>
        <time>2009-06-14T14:05:13Z</time>
      </trkpt>
      <trkpt lat="44.12005" lon="5.23112">
        <ele>496.177734</ele>
        <time>2009-06-14T14:05:22Z</time>
      </trkpt>
      <trkpt lat="44.11982" lon="5.23139">
        <ele>499.542236</ele>
        <time>2009-06-14T14:05:31Z</time>
      </trkpt>
      <trkpt lat="44.11958" lon="5.23169">
        <ele>503.868164</ele>
        <time>2009-06-14T14:05:41Z</time>
      </trkpt>
      <trkpt lat="44.1193" lon="5.23207">
        <ele>507.713501</ele>
        <time>2009-06-14T14:05:53Z</time>
      </trkpt>
      <trkpt lat="44.11904" lon="5.23242">
        <ele>510.116699</ele>
        <time>2009-06-14T14:06:04Z</time>
      </trkpt>
      <trkpt lat="44.1187" lon="5.23289">
        <ele>513.481445</ele>
        <time>2009-06-14T14:06:18Z</time>
      </trkpt>
      <trkpt lat="44.11841" lon="5.23327">
        <ele>514.92334</ele>
        <time>2009-06-14T14:06:29Z</time>
      </trkpt>
      <trkpt lat="44.11818" lon="5.23358">
        <ele>517.807251</ele>
        <time>2009-06-14T14:06:38Z</time>
      </trkpt>
      <trkpt lat="44.11797" lon="5.23394">
        <ele>520.210571</ele>
        <time>2009-06-14T14:06:47Z</time>
      </trkpt>
      <trkpt lat="44.11788" lon="5.23429">
        <ele>523.575195</ele>
        <time>2009-06-14T14:06:54Z</time>
      </trkpt>
      <trkpt lat="44.11775" lon="5.23468">
        <ele>523.575195</ele>
        <time>2009-06-14T14:07:01Z</time>
      </trkpt>
      <trkpt lat="44.11756" lon="5.23505">
        <ele>524.055786</ele>
        <time>2009-06-14T14:07:09Z</time>
      </trkpt>
      <trkpt lat="44.11751" lon="5.23514">
        <ele>524.536499</ele>
        <time>2009-06-14T14:07:11Z</time>
      </trkpt>
      <trkpt lat="44.11742" lon="5.23547">
        <ele>524.055786</ele>
        <time>2009-06-14T14:07:17Z</time>
      </trkpt>
      <trkpt lat="44.11743" lon="5.23567">
        <ele>523.575195</ele>
        <time>2009-06-14T14:07:20Z</time>
      </trkpt>
      <trkpt lat="44.1175" lon="5.23626">
        <ele>523.575195</ele>
        <time>2009-06-14T14:07:29Z</time>
      </trkpt>
      <trkpt lat="44.11753" lon="5.23671">
        <ele>523.575195</ele>
        <time>2009-06-14T14:07:36Z</time>
      </trkpt>
      <trkpt lat="44.11745" lon="5.2372">
        <ele>523.575195</ele>
        <time>2009-06-14T14:07:44Z</time>
      </trkpt>
      <trkpt lat="44.11736" lon="5.23779">
        <ele>524.055786</ele>
        <time>2009-06-14T14:07:54Z</time>
      </trkpt>
      <trkpt lat="44.11726" lon="5.23817">
        <ele>525.497803</ele>
        <time>2009-06-14T14:08:01Z</time>
      </trkpt>
      <trkpt lat="44.11714" lon="5.23844">
        <ele>524.536499</ele>
        <time>2009-06-14T14:08:07Z</time>
      </trkpt>
      <trkpt lat="44.11688" lon="5.23881">
        <ele>526.459106</ele>
        <time>2009-06-14T14:08:15Z</time>
      </trkpt>
      <trkpt lat="44.11659" lon="5.2392">
        <ele>527.42041</ele>
        <time>2009-06-14T14:08:23Z</time>
      </trkpt>
      <trkpt lat="44.11627" lon="5.23962">
        <ele>525.978394</ele>
        <time>2009-06-14T14:08:31Z</time>
      </trkpt>
      <trkpt lat="44.11593" lon="5.24002">
        <ele>524.055786</ele>
        <time>2009-06-14T14:08:39Z</time>
      </trkpt>
      <trkpt lat="44.11578" lon="5.24013">
        <ele>523.575195</ele>
        <time>2009-06-14T14:08:42Z</time>
      </trkpt>
      <trkpt lat="44.11543" lon="5.24023">
        <ele>523.094604</ele>
        <time>2009-06-14T14:08:48Z</time>
      </trkpt>
      <trkpt lat="44.11505" lon="5.24026">
        <ele>525.017212</ele>
        <time>2009-06-14T14:08:55Z</time>
      </trkpt>
      <trkpt lat="44.115" lon="5.24026">
        <ele>526.459106</ele>
        <time>2009-06-14T14:08:56Z</time>
      </trkpt>
      <trkpt lat="44.1148" lon="5.24018">
        <ele>528.862549</ele>
        <time>2009-06-14T14:09:01Z</time>
      </trkpt>
      <trkpt lat="44.11443" lon="5.23989">
        <ele>528.381836</ele>
        <time>2009-06-14T14:09:10Z</time>
      </trkpt>
      <trkpt lat="44.11412" lon="5.23976">
        <ele>529.82373</ele>
        <time>2009-06-14T14:09:17Z</time>
      </trkpt>
      <trkpt lat="44.11387" lon="5.23969">
        <ele>529.82373</ele>
        <time>2009-06-14T14:09:23Z</time>
      </trkpt>
      <trkpt lat="44.11357" lon="5.23969">
        <ele>537.033691</ele>
        <time>2009-06-14T14:09:31Z</time>
      </trkpt>
      <trkpt lat="44.1135" lon="5.23984">
        <ele>541.84021</ele>
        <time>2009-06-14T14:09:35Z</time>
      </trkpt>
      <trkpt lat="44.1136" lon="5.23995">
        <ele>545.685547</ele>
        <time>2009-06-14T14:09:39Z</time>
      </trkpt>
      <trkpt lat="44.11388" lon="5.24009">
        <ele>549.050049</ele>
        <time>2009-06-14T14:09:46Z</time>
      </trkpt>
      <trkpt lat="44.11395" lon="5.24013">
        <ele>549.050049</ele>
        <time>2009-06-14T14:09:48Z</time>
      </trkpt>
      <trkpt lat="44.11415" lon="5.24034">
        <ele>549.530762</ele>
        <time>2009-06-14T14:09:56Z</time>
      </trkpt>
      <trkpt lat="44.11432" lon="5.2406">
        <ele>550.972656</ele>
        <time>2009-06-14T14:10:05Z</time>
      </trkpt>
      <trkpt lat="44.1145" lon="5.24084">
        <ele>554.337402</ele>
        <time>2009-06-14T14:10:14Z</time>
      </trkpt>
      <trkpt lat="44.11467" lon="5.24104">
        <ele>558.66333</ele>
        <time>2009-06-14T14:10:23Z</time>
      </trkpt>
      <trkpt lat="44.11482" lon="5.24127">
        <ele>557.221436</ele>
        <time>2009-06-14T14:10:31Z</time>
      </trkpt>
      <trkpt lat="44.11499" lon="5.24153">
        <ele>555.779297</ele>
        <time>2009-06-14T14:10:40Z</time>
      </trkpt>
      <trkpt lat="44.11519" lon="5.24173">
        <ele>556.26001</ele>
        <time>2009-06-14T14:10:49Z</time>
      </trkpt>
      <trkpt lat="44.11538" lon="5.24187">
        <ele>555.779297</ele>
        <time>2009-06-14T14:10:57Z</time>
      </trkpt>
      <trkpt lat="44.11559" lon="5.24201">
        <ele>552.895264</ele>
        <time>2009-06-14T14:11:06Z</time>
      </trkpt>
      <trkpt lat="44.11577" lon="5.24216">
        <ele>553.375977</ele>
        <time>2009-06-14T14:11:15Z</time>
      </trkpt>
      <trkpt lat="44.11597" lon="5.24239">
        <ele>559.624756</ele>
        <time>2009-06-14T14:11:24Z</time>
      </trkpt>
      <trkpt lat="44.1161" lon="5.24262">
        <ele>563.950439</ele>
        <time>2009-06-14T14:11:32Z</time>
      </trkpt>
      <trkpt lat="44.11607" lon="5.24279">
        <ele>564.911865</ele>
        <time>2009-06-14T14:11:37Z</time>
      </trkpt>
      <trkpt lat="44.11596" lon="5.24296">
        <ele>569.718506</ele>
        <time>2009-06-14T14:11:44Z</time>
      </trkpt>
      <trkpt lat="44.11584" lon="5.24318">
        <ele>568.75708</ele>
        <time>2009-06-14T14:11:52Z</time>
      </trkpt>
      <trkpt lat="44.11571" lon="5.24342">
        <ele>570.679688</ele>
        <time>2009-06-14T14:12:00Z</time>
      </trkpt>
      <trkpt lat="44.11558" lon="5.24362">
        <ele>573.563965</ele>
        <time>2009-06-14T14:12:08Z</time>
      </trkpt>
      <trkpt lat="44.11546" lon="5.24387">
        <ele>576.447754</ele>
        <time>2009-06-14T14:12:16Z</time>
      </trkpt>
      <trkpt lat="44.11542" lon="5.24414">
        <ele>576.447754</ele>
        <time>2009-06-14T14:12:23Z</time>
      </trkpt>
      <trkpt lat="44.11549" lon="5.24438">
        <ele>578.370361</ele>
        <time>2009-06-14T14:12:30Z</time>
      </trkpt>
      <trkpt lat="44.11566" lon="5.2446">
        <ele>583.657471</ele>
        <time>2009-06-14T14:12:38Z</time>
      </trkpt>
      <trkpt lat="44.11581" lon="5.24481">
        <ele>584.138184</ele>
        <time>2009-06-14T14:12:47Z</time>
      </trkpt>
      <trkpt lat="44.116" lon="5.24502">
        <ele>589.90625</ele>
        <time>2009-06-14T14:12:56Z</time>
      </trkpt>
      <trkpt lat="44.1162" lon="5.24524">
        <ele>599.519287</ele>
        <time>2009-06-14T14:13:06Z</time>
      </trkpt>
      <trkpt lat="44.11645" lon="5.24552">
        <ele>605.768066</ele>
        <time>2009-06-14T14:13:18Z</time>
      </trkpt>
      <trkpt lat="44.11662" lon="5.24569">
        <ele>611.535889</ele>
        <time>2009-06-14T14:13:25Z</time>
      </trkpt>
      <trkpt lat="44.11675" lon="5.24585">
        <ele>615.861816</ele>
        <time>2009-06-14T14:13:32Z</time>
      </trkpt>
      <trkpt lat="44.11693" lon="5.24599">
        <ele>626.436279</ele>
        <time>2009-06-14T14:13:39Z</time>
      </trkpt>
      <trkpt lat="44.11715" lon="5.24623">
        <ele>630.762207</ele>
        <time>2009-06-14T14:13:50Z</time>
      </trkpt>
      <trkpt lat="44.11729" lon="5.24646">
        <ele>629.320068</ele>
        <time>2009-06-14T14:13:58Z</time>
      </trkpt>
      <trkpt lat="44.11752" lon="5.24672">
        <ele>628.8396</ele>
        <time>2009-06-14T14:14:07Z</time>
      </trkpt>
      <trkpt lat="44.11771" lon="5.24694">
        <ele>620.668457</ele>
        <time>2009-06-14T14:14:15Z</time>
      </trkpt>
      <trkpt lat="44.11782" lon="5.24705">
        <ele>616.822998</ele>
        <time>2009-06-14T14:14:21Z</time>
      </trkpt>
      <trkpt lat="44.11802" lon="5.24723">
        <ele>613.938965</ele>
        <time>2009-06-14T14:14:30Z</time>
      </trkpt>
      <trkpt lat="44.11818" lon="5.24736">
        <ele>609.132568</ele>
        <time>2009-06-14T14:14:37Z</time>
      </trkpt>
      <trkpt lat="44.11838" lon="5.24749">
        <ele>610.574463</ele>
        <time>2009-06-14T14:14:45Z</time>
      </trkpt>
      <trkpt lat="44.11847" lon="5.24757">
        <ele>606.729248</ele>
        <time>2009-06-14T14:14:50Z</time>
      </trkpt>
      <trkpt lat="44.11861" lon="5.24771">
        <ele>614.419678</ele>
        <time>2009-06-14T14:14:58Z</time>
      </trkpt>
      <trkpt lat="44.11876" lon="5.24784">
        <ele>610.574463</ele>
        <time>2009-06-14T14:15:05Z</time>
      </trkpt>
      <trkpt lat="44.11887" lon="5.24792">
        <ele>628.8396</ele>
        <time>2009-06-14T14:15:11Z</time>
      </trkpt>
      <trkpt lat="44.11905" lon="5.24797">
        <ele>627.878174</ele>
        <time>2009-06-14T14:15:17Z</time>
      </trkpt>
      <trkpt lat="44.11927" lon="5.24803">
        <ele>627.878174</ele>
        <time>2009-06-14T14:15:25Z</time>
      </trkpt>
      <trkpt lat="44.11946" lon="5.24813">
        <ele>625.474854</ele>
        <time>2009-06-14T14:15:33Z</time>
      </trkpt>
      <trkpt lat="44.11959" lon="5.24826">
        <ele>619.226318</ele>
        <time>2009-06-14T14:15:40Z</time>
      </trkpt>
      <trkpt lat="44.11974" lon="5.2484">
        <ele>619.707031</ele>
        <time>2009-06-14T14:15:47Z</time>
      </trkpt>
      <trkpt lat="44.11995" lon="5.24853">
        <ele>616.342285</ele>
        <time>2009-06-14T14:15:56Z</time>
      </trkpt>
      <trkpt lat="44.12011" lon="5.24863">
        <ele>610.574463</ele>
        <time>2009-06-14T14:16:03Z</time>
      </trkpt>
      <trkpt lat="44.12026" lon="5.2487">
        <ele>609.613281</ele>
        <time>2009-06-14T14:16:09Z</time>
      </trkpt>
      <trkpt lat="44.12045" lon="5.24863">
        <ele>610.574463</ele>
        <time>2009-06-14T14:16:16Z</time>
      </trkpt>
      <trkpt lat="44.12061" lon="5.24867">
        <ele>611.535889</ele>
        <time>2009-06-14T14:16:22Z</time>
      </trkpt>
      <trkpt lat="44.12078" lon="5.24875">
        <ele>611.055176</ele>
        <time>2009-06-14T14:16:29Z</time>
      </trkpt>
      <trkpt lat="44.12094" lon="5.24878">
        <ele>611.055176</ele>
        <time>2009-06-14T14:16:35Z</time>
      </trkpt>
      <trkpt lat="44.12106" lon="5.24889">
        <ele>608.171387</ele>
        <time>2009-06-14T14:16:41Z</time>
      </trkpt>
      <trkpt lat="44.12114" lon="5.24904">
        <ele>602.403076</ele>
        <time>2009-06-14T14:16:47Z</time>
      </trkpt>
      <trkpt lat="44.12124" lon="5.24923">
        <ele>631.24292</ele>
        <time>2009-06-14T14:16:52Z</time>
      </trkpt>
      <trkpt lat="44.12136" lon="5.24937">
        <ele>654.314697</ele>
        <time>2009-06-14T14:16:58Z</time>
      </trkpt>
      <trkpt lat="44.12153" lon="5.24939">
        <ele>661.043701</ele>
        <time>2009-06-14T14:17:04Z</time>
      </trkpt>
      <trkpt lat="44.12169" lon="5.24932">
        <ele>663.447021</ele>
        <time>2009-06-14T14:17:10Z</time>
      </trkpt>
      <trkpt lat="44.12186" lon="5.24921">
        <ele>661.524414</ele>
        <time>2009-06-14T14:17:18Z</time>
      </trkpt>
      <trkpt lat="44.12205" lon="5.24916">
        <ele>661.043701</ele>
        <time>2009-06-14T14:17:25Z</time>
      </trkpt>
      <trkpt lat="44.12224" lon="5.24928">
        <ele>672.098877</ele>
        <time>2009-06-14T14:17:32Z</time>
      </trkpt>
      <trkpt lat="44.12237" lon="5.24947">
        <ele>685.076904</ele>
        <time>2009-06-14T14:17:39Z</time>
      </trkpt>
      <trkpt lat="44.12247" lon="5.24967">
        <ele>686.518799</ele>
        <time>2009-06-14T14:17:46Z</time>
      </trkpt>
      <trkpt lat="44.12259" lon="5.24992">
        <ele>692.286621</ele>
        <time>2009-06-14T14:17:54Z</time>
      </trkpt>
      <trkpt lat="44.1227" lon="5.25009">
        <ele>695.17041</ele>
        <time>2009-06-14T14:18:00Z</time>
      </trkpt>
      <trkpt lat="44.12279" lon="5.25025">
        <ele>703.82251</ele>
        <time>2009-06-14T14:18:06Z</time>
      </trkpt>
      <trkpt lat="44.12293" lon="5.25047">
        <ele>701.419189</ele>
        <time>2009-06-14T14:18:14Z</time>
      </trkpt>
      <trkpt lat="44.12303" lon="5.25066">
        <ele>700.458008</ele>
        <time>2009-06-14T14:18:21Z</time>
      </trkpt>
      <trkpt lat="44.12314" lon="5.25087">
        <ele>699.496338</ele>
        <time>2009-06-14T14:18:28Z</time>
      </trkpt>
      <trkpt lat="44.12328" lon="5.25114">
        <ele>695.651123</ele>
        <time>2009-06-14T14:18:37Z</time>
      </trkpt>
      <trkpt lat="44.12341" lon="5.25136">
        <ele>705.264404</ele>
        <time>2009-06-14T14:18:43Z</time>
      </trkpt>
      <trkpt lat="44.12357" lon="5.25156">
        <ele>714.396729</ele>
        <time>2009-06-14T14:18:50Z</time>
      </trkpt>
      <trkpt lat="44.12367" lon="5.25172">
        <ele>713.916016</ele>
        <time>2009-06-14T14:18:56Z</time>
      </trkpt>
      <trkpt lat="44.1238" lon="5.25193">
        <ele>718.242188</ele>
        <time>2009-06-14T14:19:04Z</time>
      </trkpt>
      <trkpt lat="44.12394" lon="5.25214">
        <ele>724.971436</ele>
        <time>2009-06-14T14:19:11Z</time>
      </trkpt>
      <trkpt lat="44.12405" lon="5.25236">
        <ele>718.242188</ele>
        <time>2009-06-14T14:19:19Z</time>
      </trkpt>
      <trkpt lat="44.12415" lon="5.2525">
        <ele>720.645508</ele>
        <time>2009-06-14T14:19:24Z</time>
      </trkpt>
      <trkpt lat="44.12424" lon="5.25268">
        <ele>720.164795</ele>
        <time>2009-06-14T14:19:30Z</time>
      </trkpt>
      <trkpt lat="44.12435" lon="5.25289">
        <ele>718.242188</ele>
        <time>2009-06-14T14:19:37Z</time>
      </trkpt>
      <trkpt lat="44.12448" lon="5.25311">
        <ele>710.070801</ele>
        <time>2009-06-14T14:19:44Z</time>
      </trkpt>
      <trkpt lat="44.12457" lon="5.25327">
        <ele>702.380371</ele>
        <time>2009-06-14T14:19:49Z</time>
      </trkpt>
      <trkpt lat="44.12465" lon="5.2535">
        <ele>699.496338</ele>
        <time>2009-06-14T14:19:55Z</time>
      </trkpt>
      <trkpt lat="44.12466" lon="5.25365">
        <ele>706.706299</ele>
        <time>2009-06-14T14:20:00Z</time>
      </trkpt>
      <trkpt lat="44.12469" lon="5.25387">
        <ele>704.783691</ele>
        <time>2009-06-14T14:20:06Z</time>
      </trkpt>
      <trkpt lat="44.12468" lon="5.25413">
        <ele>697.57373</ele>
        <time>2009-06-14T14:20:13Z</time>
      </trkpt>
      <trkpt lat="44.12466" lon="5.25438">
        <ele>699.977051</ele>
        <time>2009-06-14T14:20:20Z</time>
      </trkpt>
      <trkpt lat="44.12464" lon="5.25467">
        <ele>706.706299</ele>
        <time>2009-06-14T14:20:28Z</time>
      </trkpt>
      <trkpt lat="44.12464" lon="5.25498">
        <ele>716.800293</ele>
        <time>2009-06-14T14:20:37Z</time>
      </trkpt>
      <trkpt lat="44.12465" lon="5.25532">
        <ele>723.048828</ele>
        <time>2009-06-14T14:20:47Z</time>
      </trkpt>
      <trkpt lat="44.12468" lon="5.2556">
        <ele>730.739258</ele>
        <time>2009-06-14T14:20:55Z</time>
      </trkpt>
      <trkpt lat="44.12473" lon="5.25588">
        <ele>733.142578</ele>
        <time>2009-06-14T14:21:03Z</time>
      </trkpt>
      <trkpt lat="44.12478" lon="5.25611">
        <ele>735.06543</ele>
        <time>2009-06-14T14:21:10Z</time>
      </trkpt>
      <trkpt lat="44.12486" lon="5.25636">
        <ele>735.06543</ele>
        <time>2009-06-14T14:21:18Z</time>
      </trkpt>
      <trkpt lat="44.12489" lon="5.25654">
        <ele>733.623291</ele>
        <time>2009-06-14T14:21:24Z</time>
      </trkpt>
      <trkpt lat="44.12494" lon="5.25679">
        <ele>726.41333</ele>
        <time>2009-06-14T14:21:31Z</time>
      </trkpt>
      <trkpt lat="44.125" lon="5.25698">
        <ele>732.181396</ele>
        <time>2009-06-14T14:21:37Z</time>
      </trkpt>
      <trkpt lat="44.12504" lon="5.25725">
        <ele>733.623291</ele>
        <time>2009-06-14T14:21:44Z</time>
      </trkpt>
      <trkpt lat="44.1251" lon="5.25753">
        <ele>737.949219</ele>
        <time>2009-06-14T14:21:52Z</time>
      </trkpt>
      <trkpt lat="44.12512" lon="5.25781">
        <ele>733.142578</ele>
        <time>2009-06-14T14:21:59Z</time>
      </trkpt>
      <trkpt lat="44.12511" lon="5.25803">
        <ele>734.584717</ele>
        <time>2009-06-14T14:22:05Z</time>
      </trkpt>
      <trkpt lat="44.12505" lon="5.25823">
        <ele>730.258545</ele>
        <time>2009-06-14T14:22:11Z</time>
      </trkpt>
      <trkpt lat="44.12493" lon="5.25845">
        <ele>735.545898</ele>
        <time>2009-06-14T14:22:19Z</time>
      </trkpt>
      <trkpt lat="44.12483" lon="5.25856">
        <ele>745.639648</ele>
        <time>2009-06-14T14:22:25Z</time>
      </trkpt>
      <trkpt lat="44.12469" lon="5.25871">
        <ele>758.617432</ele>
        <time>2009-06-14T14:22:33Z</time>
      </trkpt>
      <trkpt lat="44.12462" lon="5.25885">
        <ele>765.827637</ele>
        <time>2009-06-14T14:22:39Z</time>
      </trkpt>
      <trkpt lat="44.1245" lon="5.25903">
        <ele>762.943359</ele>
        <time>2009-06-14T14:22:47Z</time>
      </trkpt>
      <trkpt lat="44.12442" lon="5.25921">
        <ele>761.501465</ele>
        <time>2009-06-14T14:22:53Z</time>
      </trkpt>
      <trkpt lat="44.12437" lon="5.25948">
        <ele>765.827637</ele>
        <time>2009-06-14T14:23:01Z</time>
      </trkpt>
      <trkpt lat="44.12434" lon="5.25971">
        <ele>772.556641</ele>
        <time>2009-06-14T14:23:08Z</time>
      </trkpt>
      <trkpt lat="44.12433" lon="5.25998">
        <ele>767.75</ele>
        <time>2009-06-14T14:23:16Z</time>
      </trkpt>
      <trkpt lat="44.1243" lon="5.26028">
        <ele>759.578857</ele>
        <time>2009-06-14T14:23:25Z</time>
      </trkpt>
      <trkpt lat="44.12426" lon="5.26052">
        <ele>757.175537</ele>
        <time>2009-06-14T14:23:33Z</time>
      </trkpt>
      <trkpt lat="44.12428" lon="5.26076">
        <ele>760.059326</ele>
        <time>2009-06-14T14:23:41Z</time>
      </trkpt>
      <trkpt lat="44.12434" lon="5.26094">
        <ele>765.827637</ele>
        <time>2009-06-14T14:23:47Z</time>
      </trkpt>
      <trkpt lat="44.12443" lon="5.26116">
        <ele>764.385498</ele>
        <time>2009-06-14T14:23:54Z</time>
      </trkpt>
      <trkpt lat="44.12451" lon="5.26132">
        <ele>771.114746</ele>
        <time>2009-06-14T14:24:00Z</time>
      </trkpt>
      <trkpt lat="44.12455" lon="5.26153">
        <ele>773.037354</ele>
        <time>2009-06-14T14:24:06Z</time>
      </trkpt>
      <trkpt lat="44.12459" lon="5.26173">
        <ele>777.84375</ele>
        <time>2009-06-14T14:24:12Z</time>
      </trkpt>
      <trkpt lat="44.12456" lon="5.26195">
        <ele>779.285645</ele>
        <time>2009-06-14T14:24:19Z</time>
      </trkpt>
      <trkpt lat="44.12453" lon="5.26215">
        <ele>791.782959</ele>
        <time>2009-06-14T14:24:26Z</time>
      </trkpt>
      <trkpt lat="44.12448" lon="5.26237">
        <ele>808.605957</ele>
        <time>2009-06-14T14:24:34Z</time>
      </trkpt>
      <trkpt lat="44.12442" lon="5.26264">
        <ele>819.661377</ele>
        <time>2009-06-14T14:24:43Z</time>
      </trkpt>
      <trkpt lat="44.1244" lon="5.2629">
        <ele>812.932129</ele>
        <time>2009-06-14T14:24:51Z</time>
      </trkpt>
      <trkpt lat="44.12436" lon="5.26308">
        <ele>817.258057</ele>
        <time>2009-06-14T14:24:57Z</time>
      </trkpt>
      <trkpt lat="44.12432" lon="5.26327">
        <ele>804.280273</ele>
        <time>2009-06-14T14:25:03Z</time>
      </trkpt>
      <trkpt lat="44.12429" lon="5.26355">
        <ele>794.186279</ele>
        <time>2009-06-14T14:25:12Z</time>
      </trkpt>
      <trkpt lat="44.12425" lon="5.2637">
        <ele>793.705566</ele>
        <time>2009-06-14T14:25:17Z</time>
      </trkpt>
      <trkpt lat="44.12419" lon="5.26392">
        <ele>784.573242</ele>
        <time>2009-06-14T14:25:24Z</time>
      </trkpt>
      <trkpt lat="44.12411" lon="5.26416">
        <ele>781.689209</ele>
        <time>2009-06-14T14:25:32Z</time>
      </trkpt>
      <trkpt lat="44.12402" lon="5.26446">
        <ele>773.518066</ele>
        <time>2009-06-14T14:25:41Z</time>
      </trkpt>
      <trkpt lat="44.12395" lon="5.26471">
        <ele>765.827637</ele>
        <time>2009-06-14T14:25:49Z</time>
      </trkpt>
      <trkpt lat="44.12396" lon="5.26497">
        <ele>767.269531</ele>
        <time>2009-06-14T14:25:57Z</time>
      </trkpt>
      <trkpt lat="44.12405" lon="5.26526">
        <ele>779.766357</ele>
        <time>2009-06-14T14:26:06Z</time>
      </trkpt>
      <trkpt lat="44.12415" lon="5.2655">
        <ele>784.573242</ele>
        <time>2009-06-14T14:26:15Z</time>
      </trkpt>
      <trkpt lat="44.1242" lon="5.26567">
        <ele>791.302246</ele>
        <time>2009-06-14T14:26:21Z</time>
      </trkpt>
      <trkpt lat="44.12433" lon="5.26591">
        <ele>800.435059</ele>
        <time>2009-06-14T14:26:30Z</time>
      </trkpt>
      <trkpt lat="44.12443" lon="5.26606">
        <ele>801.39624</ele>
        <time>2009-06-14T14:26:36Z</time>
      </trkpt>
      <trkpt lat="44.12455" lon="5.26621">
        <ele>805.722168</ele>
        <time>2009-06-14T14:26:43Z</time>
      </trkpt>
      <trkpt lat="44.12469" lon="5.26632">
        <ele>815.816162</ele>
        <time>2009-06-14T14:26:50Z</time>
      </trkpt>
      <trkpt lat="44.12478" lon="5.2664">
        <ele>819.180664</ele>
        <time>2009-06-14T14:26:55Z</time>
      </trkpt>
      <trkpt lat="44.12482" lon="5.26645">
        <ele>821.58374</ele>
        <time>2009-06-14T14:26:57Z</time>
      </trkpt>
      <trkpt lat="44.12488" lon="5.26662">
        <ele>824.467773</ele>
        <time>2009-06-14T14:27:03Z</time>
      </trkpt>
      <trkpt lat="44.12499" lon="5.26686">
        <ele>831.677734</ele>
        <time>2009-06-14T14:27:12Z</time>
      </trkpt>
      <trkpt lat="44.12507" lon="5.26709">
        <ele>838.406982</ele>
        <time>2009-06-14T14:27:21Z</time>
      </trkpt>
      <trkpt lat="44.12513" lon="5.26727">
        <ele>843.213379</ele>
        <time>2009-06-14T14:27:28Z</time>
      </trkpt>
      <trkpt lat="44.1252" lon="5.26748">
        <ele>845.616943</ele>
        <time>2009-06-14T14:27:36Z</time>
      </trkpt>
      <trkpt lat="44.12532" lon="5.26774">
        <ele>845.616943</ele>
        <time>2009-06-14T14:27:46Z</time>
      </trkpt>
      <trkpt lat="44.12543" lon="5.26794">
        <ele>845.616943</ele>
        <time>2009-06-14T14:27:54Z</time>
      </trkpt>
      <trkpt lat="44.12552" lon="5.26812">
        <ele>845.13623</ele>
        <time>2009-06-14T14:28:01Z</time>
      </trkpt>
      <trkpt lat="44.12568" lon="5.26837">
        <ele>847.058838</ele>
        <time>2009-06-14T14:28:12Z</time>
      </trkpt>
      <trkpt lat="44.12573" lon="5.26854">
        <ele>844.655518</ele>
        <time>2009-06-14T14:28:18Z</time>
      </trkpt>
      <trkpt lat="44.12578" lon="5.26873">
        <ele>841.771484</ele>
        <time>2009-06-14T14:28:25Z</time>
      </trkpt>
      <trkpt lat="44.12583" lon="5.26893">
        <ele>846.097656</ele>
        <time>2009-06-14T14:28:32Z</time>
      </trkpt>
      <trkpt lat="44.12592" lon="5.26918">
        <ele>853.307373</ele>
        <time>2009-06-14T14:28:41Z</time>
      </trkpt>
      <trkpt lat="44.12601" lon="5.26945">
        <ele>855.22998</ele>
        <time>2009-06-14T14:28:50Z</time>
      </trkpt>
      <trkpt lat="44.12609" lon="5.26967">
        <ele>848.981445</ele>
        <time>2009-06-14T14:28:57Z</time>
      </trkpt>
      <trkpt lat="44.12613" lon="5.26989">
        <ele>849.942871</ele>
        <time>2009-06-14T14:29:04Z</time>
      </trkpt>
      <trkpt lat="44.12618" lon="5.27023">
        <ele>856.671875</ele>
        <time>2009-06-14T14:29:15Z</time>
      </trkpt>
      <trkpt lat="44.12628" lon="5.27055">
        <ele>860.036621</ele>
        <time>2009-06-14T14:29:26Z</time>
      </trkpt>
      <trkpt lat="44.12642" lon="5.27083">
        <ele>864.843262</ele>
        <time>2009-06-14T14:29:36Z</time>
      </trkpt>
      <trkpt lat="44.12651" lon="5.27108">
        <ele>868.688477</ele>
        <time>2009-06-14T14:29:44Z</time>
      </trkpt>
      <trkpt lat="44.12655" lon="5.27138">
        <ele>867.727051</ele>
        <time>2009-06-14T14:29:53Z</time>
      </trkpt>
      <trkpt lat="44.12658" lon="5.27166">
        <ele>870.130371</ele>
        <time>2009-06-14T14:30:01Z</time>
      </trkpt>
      <trkpt lat="44.12659" lon="5.27191">
        <ele>871.572266</ele>
        <time>2009-06-14T14:30:09Z</time>
      </trkpt>
      <trkpt lat="44.12661" lon="5.27218">
        <ele>871.091797</ele>
        <time>2009-06-14T14:30:17Z</time>
      </trkpt>
      <trkpt lat="44.12661" lon="5.27237">
        <ele>876.859863</ele>
        <time>2009-06-14T14:30:23Z</time>
      </trkpt>
      <trkpt lat="44.12662" lon="5.27263">
        <ele>881.185791</ele>
        <time>2009-06-14T14:30:31Z</time>
      </trkpt>
      <trkpt lat="44.12663" lon="5.27296">
        <ele>881.185791</ele>
        <time>2009-06-14T14:30:41Z</time>
      </trkpt>
      <trkpt lat="44.12663" lon="5.27315">
        <ele>876.859863</ele>
        <time>2009-06-14T14:30:47Z</time>
      </trkpt>
      <trkpt lat="44.12661" lon="5.27339">
        <ele>872.052979</ele>
        <time>2009-06-14T14:30:54Z</time>
      </trkpt>
      <trkpt lat="44.12655" lon="5.27362">
        <ele>872.052979</ele>
        <time>2009-06-14T14:31:02Z</time>
      </trkpt>
      <trkpt lat="44.12645" lon="5.27384">
        <ele>875.898193</ele>
        <time>2009-06-14T14:31:10Z</time>
      </trkpt>
      <trkpt lat="44.1264" lon="5.27408">
        <ele>875.898193</ele>
        <time>2009-06-14T14:31:18Z</time>
      </trkpt>
      <trkpt lat="44.12626" lon="5.2744">
        <ele>873.495117</ele>
        <time>2009-06-14T14:31:30Z</time>
      </trkpt>
      <trkpt lat="44.12612" lon="5.27459">
        <ele>879.743652</ele>
        <time>2009-06-14T14:31:38Z</time>
      </trkpt>
      <trkpt lat="44.12603" lon="5.27475">
        <ele>885.031006</ele>
        <time>2009-06-14T14:31:45Z</time>
      </trkpt>
      <trkpt lat="44.12596" lon="5.2749">
        <ele>894.644043</ele>
        <time>2009-06-14T14:31:52Z</time>
      </trkpt>
      <trkpt lat="44.12582" lon="5.27512">
        <ele>899.931396</ele>
        <time>2009-06-14T14:32:00Z</time>
      </trkpt>
      <trkpt lat="44.12571" lon="5.27535">
        <ele>906.6604</ele>
        <time>2009-06-14T14:32:09Z</time>
      </trkpt>
      <trkpt lat="44.12566" lon="5.27568">
        <ele>905.699219</ele>
        <time>2009-06-14T14:32:18Z</time>
      </trkpt>
      <trkpt lat="44.12567" lon="5.27598">
        <ele>903.295898</ele>
        <time>2009-06-14T14:32:26Z</time>
      </trkpt>
      <trkpt lat="44.12567" lon="5.27624">
        <ele>896.086182</ele>
        <time>2009-06-14T14:32:34Z</time>
      </trkpt>
      <trkpt lat="44.12578" lon="5.27652">
        <ele>909.063965</ele>
        <time>2009-06-14T14:32:43Z</time>
      </trkpt>
      <trkpt lat="44.12585" lon="5.27686">
        <ele>910.986572</ele>
        <time>2009-06-14T14:32:53Z</time>
      </trkpt>
      <trkpt lat="44.12591" lon="5.27719">
        <ele>910.986572</ele>
        <time>2009-06-14T14:33:02Z</time>
      </trkpt>
      <trkpt lat="44.12599" lon="5.27752">
        <ele>922.041504</ele>
        <time>2009-06-14T14:33:12Z</time>
      </trkpt>
      <trkpt lat="44.12609" lon="5.27797">
        <ele>926.367676</ele>
        <time>2009-06-14T14:33:26Z</time>
      </trkpt>
      <trkpt lat="44.12616" lon="5.27816">
        <ele>927.329102</ele>
        <time>2009-06-14T14:33:32Z</time>
      </trkpt>
      <trkpt lat="44.12624" lon="5.27833">
        <ele>928.770996</ele>
        <time>2009-06-14T14:33:38Z</time>
      </trkpt>
      <trkpt lat="44.12637" lon="5.27845">
        <ele>927.329102</ele>
        <time>2009-06-14T14:33:43Z</time>
      </trkpt>
      <trkpt lat="44.12651" lon="5.27867">
        <ele>929.732178</ele>
        <time>2009-06-14T14:33:51Z</time>
      </trkpt>
      <trkpt lat="44.12654" lon="5.27891">
        <ele>926.848389</ele>
        <time>2009-06-14T14:33:58Z</time>
      </trkpt>
      <trkpt lat="44.12654" lon="5.27917">
        <ele>921.080322</ele>
        <time>2009-06-14T14:34:05Z</time>
      </trkpt>
      <trkpt lat="44.12653" lon="5.27942">
        <ele>921.080322</ele>
        <time>2009-06-14T14:34:12Z</time>
      </trkpt>
      <trkpt lat="44.12657" lon="5.27965">
        <ele>916.754395</ele>
        <time>2009-06-14T14:34:18Z</time>
      </trkpt>
      <trkpt lat="44.12655" lon="5.27994">
        <ele>909.544678</ele>
        <time>2009-06-14T14:34:26Z</time>
      </trkpt>
      <trkpt lat="44.12653" lon="5.28024">
        <ele>906.6604</ele>
        <time>2009-06-14T14:34:35Z</time>
      </trkpt>
      <trkpt lat="44.12656" lon="5.28049">
        <ele>902.815186</ele>
        <time>2009-06-14T14:34:43Z</time>
      </trkpt>
      <trkpt lat="44.12664" lon="5.28072">
        <ele>918.196289</ele>
        <time>2009-06-14T14:34:50Z</time>
      </trkpt>
      <trkpt lat="44.12672" lon="5.28092">
        <ele>927.329102</ele>
        <time>2009-06-14T14:34:57Z</time>
      </trkpt>
      <trkpt lat="44.12681" lon="5.28121">
        <ele>923.964111</ele>
        <time>2009-06-14T14:35:07Z</time>
      </trkpt>
      <trkpt lat="44.12691" lon="5.28153">
        <ele>918.196289</ele>
        <time>2009-06-14T14:35:18Z</time>
      </trkpt>
      <trkpt lat="44.12699" lon="5.28168">
        <ele>944.632568</ele>
        <time>2009-06-14T14:35:24Z</time>
      </trkpt>
      <trkpt lat="44.12703" lon="5.28201">
        <ele>951.361816</ele>
        <time>2009-06-14T14:35:33Z</time>
      </trkpt>
      <trkpt lat="44.12702" lon="5.28221">
        <ele>948.958496</ele>
        <time>2009-06-14T14:35:39Z</time>
      </trkpt>
      <trkpt lat="44.12697" lon="5.28246">
        <ele>944.632568</ele>
        <time>2009-06-14T14:35:48Z</time>
      </trkpt>
      <trkpt lat="44.1269" lon="5.28277">
        <ele>927.329102</ele>
        <time>2009-06-14T14:35:59Z</time>
      </trkpt>
      <trkpt lat="44.12688" lon="5.28305">
        <ele>910.505859</ele>
        <time>2009-06-14T14:36:07Z</time>
      </trkpt>
      <trkpt lat="44.12689" lon="5.28326">
        <ele>902.815186</ele>
        <time>2009-06-14T14:36:14Z</time>
      </trkpt>
      <trkpt lat="44.12698" lon="5.28351">
        <ele>934.058105</ele>
        <time>2009-06-14T14:36:23Z</time>
      </trkpt>
      <trkpt lat="44.12711" lon="5.28368">
        <ele>949.919922</ele>
        <time>2009-06-14T14:36:30Z</time>
      </trkpt>
      <trkpt lat="44.12727" lon="5.28377">
        <ele>953.284424</ele>
        <time>2009-06-14T14:36:37Z</time>
      </trkpt>
      <trkpt lat="44.1275" lon="5.28379">
        <ele>960.975098</ele>
        <time>2009-06-14T14:36:46Z</time>
      </trkpt>
      <trkpt lat="44.12766" lon="5.28373">
        <ele>961.455811</ele>
        <time>2009-06-14T14:36:53Z</time>
      </trkpt>
      <trkpt lat="44.12786" lon="5.28368">
        <ele>966.74292</ele>
        <time>2009-06-14T14:37:02Z</time>
      </trkpt>
      <trkpt lat="44.12811" lon="5.28371">
        <ele>976.356201</ele>
        <time>2009-06-14T14:37:13Z</time>
      </trkpt>
      <trkpt lat="44.1283" lon="5.28374">
        <ele>977.798096</ele>
        <time>2009-06-14T14:37:22Z</time>
      </trkpt>
      <trkpt lat="44.12849" lon="5.28377">
        <ele>980.201416</ele>
        <time>2009-06-14T14:37:31Z</time>
      </trkpt>
      <trkpt lat="44.12865" lon="5.28375">
        <ele>981.643311</ele>
        <time>2009-06-14T14:37:38Z</time>
      </trkpt>
      <trkpt lat="44.12873" lon="5.28379">
        <ele>984.527344</ele>
        <time>2009-06-14T14:37:42Z</time>
      </trkpt>
      <trkpt lat="44.12875" lon="5.28381">
        <ele>984.527344</ele>
        <time>2009-06-14T14:37:43Z</time>
      </trkpt>
      <trkpt lat="44.12868" lon="5.28392">
        <ele>985.488525</ele>
        <time>2009-06-14T14:37:48Z</time>
      </trkpt>
      <trkpt lat="44.12864" lon="5.28395">
        <ele>982.124023</ele>
        <time>2009-06-14T14:37:49Z</time>
      </trkpt>
      <trkpt lat="44.12847" lon="5.28411">
        <ele>980.201416</ele>
        <time>2009-06-14T14:37:56Z</time>
      </trkpt>
      <trkpt lat="44.12842" lon="5.28432">
        <ele>974.433594</ele>
        <time>2009-06-14T14:38:02Z</time>
      </trkpt>
      <trkpt lat="44.12849" lon="5.2845">
        <ele>985.008057</ele>
        <time>2009-06-14T14:38:08Z</time>
      </trkpt>
      <trkpt lat="44.12864" lon="5.28475">
        <ele>989.814697</ele>
        <time>2009-06-14T14:38:18Z</time>
      </trkpt>
      <trkpt lat="44.1288" lon="5.28501">
        <ele>997.98584</ele>
        <time>2009-06-14T14:38:29Z</time>
      </trkpt>
      <trkpt lat="44.12886" lon="5.2852">
        <ele>999.427734</ele>
        <time>2009-06-14T14:38:36Z</time>
      </trkpt>
      <trkpt lat="44.12887" lon="5.28549">
        <ele>993.659912</ele>
        <time>2009-06-14T14:38:45Z</time>
      </trkpt>
      <trkpt lat="44.12887" lon="5.28577">
        <ele>987.891846</ele>
        <time>2009-06-14T14:38:54Z</time>
      </trkpt>
      <trkpt lat="44.1289" lon="5.28604">
        <ele>991.256592</ele>
        <time>2009-06-14T14:39:03Z</time>
      </trkpt>
      <trkpt lat="44.12897" lon="5.28625">
        <ele>997.98584</ele>
        <time>2009-06-14T14:39:11Z</time>
      </trkpt>
      <trkpt lat="44.12911" lon="5.28644">
        <ele>1000.869629</ele>
        <time>2009-06-14T14:39:20Z</time>
      </trkpt>
      <trkpt lat="44.12923" lon="5.28661">
        <ele>1003.753662</ele>
        <time>2009-06-14T14:39:28Z</time>
      </trkpt>
      <trkpt lat="44.12935" lon="5.28683">
        <ele>1007.118408</ele>
        <time>2009-06-14T14:39:37Z</time>
      </trkpt>
      <trkpt lat="44.12947" lon="5.28703">
        <ele>1013.366943</ele>
        <time>2009-06-14T14:39:46Z</time>
      </trkpt>
      <trkpt lat="44.12955" lon="5.28726">
        <ele>1008.560303</ele>
        <time>2009-06-14T14:39:55Z</time>
      </trkpt>
      <trkpt lat="44.12957" lon="5.28755">
        <ele>1008.560303</ele>
        <time>2009-06-14T14:40:04Z</time>
      </trkpt>
      <trkpt lat="44.12954" lon="5.28789">
        <ele>1010.48291</ele>
        <time>2009-06-14T14:40:15Z</time>
      </trkpt>
      <trkpt lat="44.12957" lon="5.28815">
        <ele>1013.366943</ele>
        <time>2009-06-14T14:40:24Z</time>
      </trkpt>
      <trkpt lat="44.12967" lon="5.28833">
        <ele>1015.770264</ele>
        <time>2009-06-14T14:40:31Z</time>
      </trkpt>
      <trkpt lat="44.12981" lon="5.28845">
        <ele>1019.615479</ele>
        <time>2009-06-14T14:40:38Z</time>
      </trkpt>
      <trkpt lat="44.13" lon="5.28857">
        <ele>1025.864014</ele>
        <time>2009-06-14T14:40:46Z</time>
      </trkpt>
      <trkpt lat="44.13026" lon="5.28874">
        <ele>1030.670654</ele>
        <time>2009-06-14T14:40:58Z</time>
      </trkpt>
      <trkpt lat="44.1305" lon="5.28894">
        <ele>1033.554443</ele>
        <time>2009-06-14T14:41:10Z</time>
      </trkpt>
      <trkpt lat="44.13064" lon="5.28915">
        <ele>1035.477051</ele>
        <time>2009-06-14T14:41:19Z</time>
      </trkpt>
      <trkpt lat="44.13075" lon="5.28939">
        <ele>1040.283936</ele>
        <time>2009-06-14T14:41:28Z</time>
      </trkpt>
      <trkpt lat="44.13079" lon="5.28964">
        <ele>1041.72583</ele>
        <time>2009-06-14T14:41:36Z</time>
      </trkpt>
      <trkpt lat="44.13089" lon="5.28995">
        <ele>1043.167725</ele>
        <time>2009-06-14T14:41:47Z</time>
      </trkpt>
      <trkpt lat="44.13092" lon="5.29013">
        <ele>1038.842041</ele>
        <time>2009-06-14T14:41:54Z</time>
      </trkpt>
      <trkpt lat="44.13099" lon="5.29036">
        <ele>1036.919189</ele>
        <time>2009-06-14T14:42:03Z</time>
      </trkpt>
      <trkpt lat="44.13107" lon="5.29055">
        <ele>1036.438721</ele>
        <time>2009-06-14T14:42:10Z</time>
      </trkpt>
      <trkpt lat="44.13114" lon="5.29074">
        <ele>1036.919189</ele>
        <time>2009-06-14T14:42:17Z</time>
      </trkpt>
      <trkpt lat="44.1313" lon="5.29099">
        <ele>1041.72583</ele>
        <time>2009-06-14T14:42:28Z</time>
      </trkpt>
      <trkpt lat="44.13142" lon="5.29113">
        <ele>1049.896973</ele>
        <time>2009-06-14T14:42:35Z</time>
      </trkpt>
      <trkpt lat="44.13155" lon="5.29135">
        <ele>1052.300293</ele>
        <time>2009-06-14T14:42:44Z</time>
      </trkpt>
      <trkpt lat="44.13161" lon="5.29154">
        <ele>1054.223145</ele>
        <time>2009-06-14T14:42:52Z</time>
      </trkpt>
      <trkpt lat="44.13169" lon="5.29175">
        <ele>1059.990723</ele>
        <time>2009-06-14T14:43:00Z</time>
      </trkpt>
      <trkpt lat="44.13176" lon="5.29192">
        <ele>1065.758789</ele>
        <time>2009-06-14T14:43:06Z</time>
      </trkpt>
      <trkpt lat="44.13185" lon="5.29216">
        <ele>1070.56543</ele>
        <time>2009-06-14T14:43:15Z</time>
      </trkpt>
      <trkpt lat="44.13191" lon="5.29236">
        <ele>1073.449463</ele>
        <time>2009-06-14T14:43:23Z</time>
      </trkpt>
      <trkpt lat="44.13199" lon="5.29259">
        <ele>1078.736572</ele>
        <time>2009-06-14T14:43:32Z</time>
      </trkpt>
      <trkpt lat="44.13209" lon="5.29281">
        <ele>1081.620361</ele>
        <time>2009-06-14T14:43:41Z</time>
      </trkpt>
      <trkpt lat="44.13219" lon="5.29301">
        <ele>1084.023926</ele>
        <time>2009-06-14T14:43:49Z</time>
      </trkpt>
      <trkpt lat="44.13229" lon="5.29324">
        <ele>1086.907715</ele>
        <time>2009-06-14T14:43:58Z</time>
      </trkpt>
      <trkpt lat="44.13238" lon="5.29346">
        <ele>1086.427246</ele>
        <time>2009-06-14T14:44:07Z</time>
      </trkpt>
      <trkpt lat="44.13248" lon="5.29368">
        <ele>1082.101074</ele>
        <time>2009-06-14T14:44:16Z</time>
      </trkpt>
      <trkpt lat="44.1326" lon="5.29386">
        <ele>1082.581787</ele>
        <time>2009-06-14T14:44:23Z</time>
      </trkpt>
      <trkpt lat="44.1327" lon="5.29404">
        <ele>1084.985352</ele>
        <time>2009-06-14T14:44:30Z</time>
      </trkpt>
      <trkpt lat="44.13282" lon="5.29424">
        <ele>1087.869141</ele>
        <time>2009-06-14T14:44:39Z</time>
      </trkpt>
      <trkpt lat="44.13292" lon="5.2944">
        <ele>1084.985352</ele>
        <time>2009-06-14T14:44:45Z</time>
      </trkpt>
      <trkpt lat="44.13303" lon="5.29461">
        <ele>1079.217041</ele>
        <time>2009-06-14T14:44:53Z</time>
      </trkpt>
      <trkpt lat="44.13316" lon="5.29483">
        <ele>1072.007324</ele>
        <time>2009-06-14T14:45:02Z</time>
      </trkpt>
      <trkpt lat="44.13326" lon="5.29505">
        <ele>1063.835938</ele>
        <time>2009-06-14T14:45:10Z</time>
      </trkpt>
      <trkpt lat="44.13335" lon="5.29519">
        <ele>1059.990723</ele>
        <time>2009-06-14T14:45:16Z</time>
      </trkpt>
      <trkpt lat="44.13348" lon="5.29545">
        <ele>1061.432861</ele>
        <time>2009-06-14T14:45:25Z</time>
      </trkpt>
      <trkpt lat="44.13357" lon="5.29565">
        <ele>1066.719971</ele>
        <time>2009-06-14T14:45:32Z</time>
      </trkpt>
      <trkpt lat="44.13371" lon="5.2959">
        <ele>1064.797363</ele>
        <time>2009-06-14T14:45:42Z</time>
      </trkpt>
      <trkpt lat="44.13382" lon="5.29612">
        <ele>1061.432861</ele>
        <time>2009-06-14T14:45:51Z</time>
      </trkpt>
      <trkpt lat="44.13389" lon="5.29629">
        <ele>1066.719971</ele>
        <time>2009-06-14T14:45:57Z</time>
      </trkpt>
      <trkpt lat="44.13397" lon="5.2965">
        <ele>1076.813965</ele>
        <time>2009-06-14T14:46:04Z</time>
      </trkpt>
      <trkpt lat="44.13403" lon="5.29666">
        <ele>1086.907715</ele>
        <time>2009-06-14T14:46:11Z</time>
      </trkpt>
      <trkpt lat="44.13412" lon="5.29684">
        <ele>1098.924072</ele>
        <time>2009-06-14T14:46:18Z</time>
      </trkpt>
      <trkpt lat="44.13418" lon="5.29698">
        <ele>1103.730957</ele>
        <time>2009-06-14T14:46:24Z</time>
      </trkpt>
      <trkpt lat="44.13427" lon="5.29715">
        <ele>1106.134033</ele>
        <time>2009-06-14T14:46:30Z</time>
      </trkpt>
      <trkpt lat="44.13438" lon="5.29735">
        <ele>1118.150635</ele>
        <time>2009-06-14T14:46:38Z</time>
      </trkpt>
      <trkpt lat="44.13444" lon="5.29758">
        <ele>1121.515137</ele>
        <time>2009-06-14T14:46:46Z</time>
      </trkpt>
      <trkpt lat="44.13449" lon="5.29784">
        <ele>1122.476563</ele>
        <time>2009-06-14T14:46:55Z</time>
      </trkpt>
      <trkpt lat="44.13451" lon="5.29815">
        <ele>1121.99585</ele>
        <time>2009-06-14T14:47:05Z</time>
      </trkpt>
      <trkpt lat="44.13458" lon="5.2984">
        <ele>1115.747314</ele>
        <time>2009-06-14T14:47:14Z</time>
      </trkpt>
      <trkpt lat="44.13461" lon="5.29863">
        <ele>1113.824463</ele>
        <time>2009-06-14T14:47:21Z</time>
      </trkpt>
      <trkpt lat="44.13462" lon="5.29896">
        <ele>1113.343994</ele>
        <time>2009-06-14T14:47:31Z</time>
      </trkpt>
      <trkpt lat="44.13466" lon="5.29918">
        <ele>1114.785889</ele>
        <time>2009-06-14T14:47:39Z</time>
      </trkpt>
      <trkpt lat="44.13468" lon="5.29941">
        <ele>1112.382568</ele>
        <time>2009-06-14T14:47:47Z</time>
      </trkpt>
      <trkpt lat="44.1347" lon="5.29975">
        <ele>1113.824463</ele>
        <time>2009-06-14T14:47:58Z</time>
      </trkpt>
      <trkpt lat="44.13472" lon="5.29998">
        <ele>1116.228027</ele>
        <time>2009-06-14T14:48:05Z</time>
      </trkpt>
      <trkpt lat="44.13474" lon="5.30026">
        <ele>1112.863281</ele>
        <time>2009-06-14T14:48:14Z</time>
      </trkpt>
      <trkpt lat="44.13478" lon="5.30054">
        <ele>1108.056885</ele>
        <time>2009-06-14T14:48:23Z</time>
      </trkpt>
      <trkpt lat="44.13478" lon="5.30077">
        <ele>1119.592773</ele>
        <time>2009-06-14T14:48:31Z</time>
      </trkpt>
      <trkpt lat="44.13489" lon="5.30104">
        <ele>1125.841064</ele>
        <time>2009-06-14T14:48:41Z</time>
      </trkpt>
      <trkpt lat="44.13497" lon="5.30124">
        <ele>1134.493164</ele>
        <time>2009-06-14T14:48:48Z</time>
      </trkpt>
      <trkpt lat="44.13505" lon="5.30136">
        <ele>1136.89624</ele>
        <time>2009-06-14T14:48:54Z</time>
      </trkpt>
      <trkpt lat="44.13515" lon="5.30153">
        <ele>1133.051025</ele>
        <time>2009-06-14T14:49:01Z</time>
      </trkpt>
      <trkpt lat="44.13525" lon="5.30168">
        <ele>1134.012451</ele>
        <time>2009-06-14T14:49:08Z</time>
      </trkpt>
      <trkpt lat="44.13537" lon="5.30188">
        <ele>1132.089844</ele>
        <time>2009-06-14T14:49:16Z</time>
      </trkpt>
      <trkpt lat="44.13547" lon="5.30207">
        <ele>1129.686279</ele>
        <time>2009-06-14T14:49:23Z</time>
      </trkpt>
      <trkpt lat="44.13558" lon="5.30227">
        <ele>1132.570557</ele>
        <time>2009-06-14T14:49:31Z</time>
      </trkpt>
      <trkpt lat="44.13568" lon="5.30244">
        <ele>1150.835449</ele>
        <time>2009-06-14T14:49:38Z</time>
      </trkpt>
      <trkpt lat="44.13574" lon="5.30257">
        <ele>1157.083984</ele>
        <time>2009-06-14T14:49:44Z</time>
      </trkpt>
      <trkpt lat="44.1358" lon="5.30277">
        <ele>1165.255371</ele>
        <time>2009-06-14T14:49:50Z</time>
      </trkpt>
      <trkpt lat="44.13588" lon="5.30293">
        <ele>1169.581299</ele>
        <time>2009-06-14T14:49:56Z</time>
      </trkpt>
      <trkpt lat="44.13589" lon="5.30315">
        <ele>1165.736084</ele>
        <time>2009-06-14T14:50:03Z</time>
      </trkpt>
      <trkpt lat="44.13587" lon="5.30341">
        <ele>1161.409912</ele>
        <time>2009-06-14T14:50:11Z</time>
      </trkpt>
      <trkpt lat="44.13581" lon="5.30359">
        <ele>1160.448486</ele>
        <time>2009-06-14T14:50:18Z</time>
      </trkpt>
      <trkpt lat="44.13576" lon="5.30382">
        <ele>1158.04541</ele>
        <time>2009-06-14T14:50:26Z</time>
      </trkpt>
      <trkpt lat="44.13569" lon="5.30404">
        <ele>1165.255371</ele>
        <time>2009-06-14T14:50:33Z</time>
      </trkpt>
      <trkpt lat="44.13566" lon="5.30429">
        <ele>1161.409912</ele>
        <time>2009-06-14T14:50:41Z</time>
      </trkpt>
      <trkpt lat="44.13561" lon="5.30454">
        <ele>1167.658447</ele>
        <time>2009-06-14T14:50:49Z</time>
      </trkpt>
      <trkpt lat="44.13561" lon="5.30475">
        <ele>1171.503662</ele>
        <time>2009-06-14T14:50:56Z</time>
      </trkpt>
      <trkpt lat="44.13557" lon="5.30495">
        <ele>1169.581299</ele>
        <time>2009-06-14T14:51:03Z</time>
      </trkpt>
      <trkpt lat="44.13555" lon="5.30511">
        <ele>1166.697266</ele>
        <time>2009-06-14T14:51:08Z</time>
      </trkpt>
      <trkpt lat="44.13551" lon="5.30539">
        <ele>1167.658447</ele>
        <time>2009-06-14T14:51:16Z</time>
      </trkpt>
      <trkpt lat="44.13549" lon="5.30563">
        <ele>1162.371094</ele>
        <time>2009-06-14T14:51:24Z</time>
      </trkpt>
      <trkpt lat="44.1355" lon="5.3059">
        <ele>1169.100586</ele>
        <time>2009-06-14T14:51:32Z</time>
      </trkpt>
      <trkpt lat="44.13553" lon="5.30616">
        <ele>1175.348877</ele>
        <time>2009-06-14T14:51:40Z</time>
      </trkpt>
      <trkpt lat="44.1356" lon="5.30641">
        <ele>1178.23291</ele>
        <time>2009-06-14T14:51:48Z</time>
      </trkpt>
      <trkpt lat="44.13573" lon="5.30672">
        <ele>1182.078369</ele>
        <time>2009-06-14T14:51:59Z</time>
      </trkpt>
      <trkpt lat="44.13584" lon="5.30695">
        <ele>1187.365479</ele>
        <time>2009-06-14T14:52:08Z</time>
      </trkpt>
      <trkpt lat="44.13591" lon="5.30707">
        <ele>1193.133301</ele>
        <time>2009-06-14T14:52:13Z</time>
      </trkpt>
      <trkpt lat="44.13598" lon="5.30724">
        <ele>1191.691406</ele>
        <time>2009-06-14T14:52:19Z</time>
      </trkpt>
      <trkpt lat="44.1361" lon="5.30745">
        <ele>1186.404297</ele>
        <time>2009-06-14T14:52:27Z</time>
      </trkpt>
      <trkpt lat="44.13624" lon="5.30762">
        <ele>1183.520264</ele>
        <time>2009-06-14T14:52:35Z</time>
      </trkpt>
      <trkpt lat="44.13636" lon="5.30779">
        <ele>1184.000977</ele>
        <time>2009-06-14T14:52:43Z</time>
      </trkpt>
      <trkpt lat="44.1365" lon="5.30793">
        <ele>1184.481689</ele>
        <time>2009-06-14T14:52:51Z</time>
      </trkpt>
      <trkpt lat="44.1366" lon="5.30807">
        <ele>1185.442871</ele>
        <time>2009-06-14T14:52:57Z</time>
      </trkpt>
      <trkpt lat="44.13672" lon="5.30825">
        <ele>1190.72998</ele>
        <time>2009-06-14T14:53:05Z</time>
      </trkpt>
      <trkpt lat="44.13683" lon="5.30836">
        <ele>1192.172119</ele>
        <time>2009-06-14T14:53:11Z</time>
      </trkpt>
      <trkpt lat="44.13696" lon="5.3085">
        <ele>1196.498291</ele>
        <time>2009-06-14T14:53:18Z</time>
      </trkpt>
      <trkpt lat="44.13709" lon="5.30867">
        <ele>1196.97876</ele>
        <time>2009-06-14T14:53:26Z</time>
      </trkpt>
      <trkpt lat="44.13724" lon="5.30885">
        <ele>1200.343506</ele>
        <time>2009-06-14T14:53:34Z</time>
      </trkpt>
      <trkpt lat="44.13738" lon="5.30906">
        <ele>1199.38208</ele>
        <time>2009-06-14T14:53:43Z</time>
      </trkpt>
      <trkpt lat="44.13747" lon="5.30921">
        <ele>1195.055908</ele>
        <time>2009-06-14T14:53:49Z</time>
      </trkpt>
      <trkpt lat="44.13759" lon="5.30944">
        <ele>1205.149902</ele>
        <time>2009-06-14T14:53:57Z</time>
      </trkpt>
      <trkpt lat="44.13771" lon="5.30969">
        <ele>1213.321289</ele>
        <time>2009-06-14T14:54:05Z</time>
      </trkpt>
      <trkpt lat="44.13782" lon="5.30995">
        <ele>1219.089111</ele>
        <time>2009-06-14T14:54:14Z</time>
      </trkpt>
      <trkpt lat="44.13791" lon="5.31024">
        <ele>1222.453613</ele>
        <time>2009-06-14T14:54:24Z</time>
      </trkpt>
      <trkpt lat="44.13799" lon="5.3105">
        <ele>1223.895508</ele>
        <time>2009-06-14T14:54:33Z</time>
      </trkpt>
      <trkpt lat="44.13803" lon="5.31067">
        <ele>1222.453613</ele>
        <time>2009-06-14T14:54:39Z</time>
      </trkpt>
      <trkpt lat="44.13814" lon="5.31087">
        <ele>1224.856934</ele>
        <time>2009-06-14T14:54:47Z</time>
      </trkpt>
      <trkpt lat="44.13816" lon="5.31093">
        <ele>1224.856934</ele>
        <time>2009-06-14T14:54:49Z</time>
      </trkpt>
      <trkpt lat="44.13816" lon="5.31112">
        <ele>1223.895508</ele>
        <time>2009-06-14T14:54:55Z</time>
      </trkpt>
      <trkpt lat="44.13815" lon="5.31119">
        <ele>1229.182861</ele>
        <time>2009-06-14T14:54:57Z</time>
      </trkpt>
      <trkpt lat="44.13814" lon="5.31142">
        <ele>1227.260254</ele>
        <time>2009-06-14T14:55:04Z</time>
      </trkpt>
      <trkpt lat="44.13813" lon="5.31167">
        <ele>1225.337402</ele>
        <time>2009-06-14T14:55:13Z</time>
      </trkpt>
      <trkpt lat="44.13814" lon="5.31182">
        <ele>1231.586182</ele>
        <time>2009-06-14T14:55:18Z</time>
      </trkpt>
      <trkpt lat="44.13822" lon="5.31207">
        <ele>1237.354004</ele>
        <time>2009-06-14T14:55:27Z</time>
      </trkpt>
      <trkpt lat="44.1383" lon="5.31228">
        <ele>1237.834717</ele>
        <time>2009-06-14T14:55:35Z</time>
      </trkpt>
      <trkpt lat="44.13834" lon="5.3125">
        <ele>1237.354004</ele>
        <time>2009-06-14T14:55:43Z</time>
      </trkpt>
      <trkpt lat="44.13841" lon="5.3127">
        <ele>1242.160645</ele>
        <time>2009-06-14T14:55:51Z</time>
      </trkpt>
      <trkpt lat="44.13843" lon="5.31289">
        <ele>1246.486816</ele>
        <time>2009-06-14T14:55:58Z</time>
      </trkpt>
      <trkpt lat="44.13844" lon="5.31313">
        <ele>1254.657715</ele>
        <time>2009-06-14T14:56:06Z</time>
      </trkpt>
      <trkpt lat="44.13848" lon="5.31334">
        <ele>1247.447998</ele>
        <time>2009-06-14T14:56:13Z</time>
      </trkpt>
      <trkpt lat="44.13851" lon="5.31355">
        <ele>1247.928711</ele>
        <time>2009-06-14T14:56:20Z</time>
      </trkpt>
      <trkpt lat="44.13857" lon="5.31377">
        <ele>1249.370605</ele>
        <time>2009-06-14T14:56:28Z</time>
      </trkpt>
      <trkpt lat="44.13865" lon="5.31395">
        <ele>1250.332031</ele>
        <time>2009-06-14T14:56:35Z</time>
      </trkpt>
      <trkpt lat="44.13872" lon="5.31414">
        <ele>1251.293213</ele>
        <time>2009-06-14T14:56:43Z</time>
      </trkpt>
      <trkpt lat="44.13878" lon="5.31432">
        <ele>1250.332031</ele>
        <time>2009-06-14T14:56:50Z</time>
      </trkpt>
      <trkpt lat="44.13886" lon="5.31449">
        <ele>1247.447998</ele>
        <time>2009-06-14T14:56:57Z</time>
      </trkpt>
      <trkpt lat="44.13895" lon="5.31473">
        <ele>1245.044678</ele>
        <time>2009-06-14T14:57:07Z</time>
      </trkpt>
      <trkpt lat="44.13905" lon="5.31489">
        <ele>1250.332031</ele>
        <time>2009-06-14T14:57:14Z</time>
      </trkpt>
      <trkpt lat="44.13916" lon="5.31501">
        <ele>1257.541748</ele>
        <time>2009-06-14T14:57:20Z</time>
      </trkpt>
      <trkpt lat="44.13927" lon="5.31511">
        <ele>1259.944824</ele>
        <time>2009-06-14T14:57:25Z</time>
      </trkpt>
      <trkpt lat="44.13933" lon="5.31527">
        <ele>1260.425781</ele>
        <time>2009-06-14T14:57:32Z</time>
      </trkpt>
      <trkpt lat="44.13941" lon="5.31545">
        <ele>1258.022461</ele>
        <time>2009-06-14T14:57:40Z</time>
      </trkpt>
      <trkpt lat="44.13952" lon="5.31562">
        <ele>1261.387207</ele>
        <time>2009-06-14T14:57:48Z</time>
      </trkpt>
      <trkpt lat="44.13964" lon="5.3158">
        <ele>1269.077637</ele>
        <time>2009-06-14T14:57:56Z</time>
      </trkpt>
      <trkpt lat="44.13975" lon="5.31597">
        <ele>1271.961426</ele>
        <time>2009-06-14T14:58:02Z</time>
      </trkpt>
      <trkpt lat="44.13989" lon="5.31617">
        <ele>1277.249023</ele>
        <time>2009-06-14T14:58:11Z</time>
      </trkpt>
      <trkpt lat="44.14002" lon="5.31635">
        <ele>1280.613525</ele>
        <time>2009-06-14T14:58:20Z</time>
      </trkpt>
      <trkpt lat="44.14011" lon="5.31649">
        <ele>1283.016602</ele>
        <time>2009-06-14T14:58:26Z</time>
      </trkpt>
      <trkpt lat="44.14027" lon="5.31669">
        <ele>1285.419922</ele>
        <time>2009-06-14T14:58:36Z</time>
      </trkpt>
      <trkpt lat="44.14043" lon="5.31691">
        <ele>1287.823242</ele>
        <time>2009-06-14T14:58:47Z</time>
      </trkpt>
      <trkpt lat="44.14055" lon="5.31707">
        <ele>1290.226563</ele>
        <time>2009-06-14T14:58:55Z</time>
      </trkpt>
      <trkpt lat="44.14065" lon="5.31727">
        <ele>1293.591309</ele>
        <time>2009-06-14T14:59:04Z</time>
      </trkpt>
      <trkpt lat="44.14077" lon="5.31746">
        <ele>1294.072021</ele>
        <time>2009-06-14T14:59:13Z</time>
      </trkpt>
      <trkpt lat="44.14091" lon="5.31761">
        <ele>1292.630127</ele>
        <time>2009-06-14T14:59:20Z</time>
      </trkpt>
      <trkpt lat="44.14101" lon="5.3178">
        <ele>1294.072021</ele>
        <time>2009-06-14T14:59:29Z</time>
      </trkpt>
      <trkpt lat="44.1411" lon="5.31791">
        <ele>1295.994629</ele>
        <time>2009-06-14T14:59:36Z</time>
      </trkpt>
      <trkpt lat="44.14121" lon="5.31804">
        <ele>1295.513916</ele>
        <time>2009-06-14T14:59:44Z</time>
      </trkpt>
      <trkpt lat="44.14132" lon="5.31813">
        <ele>1290.707031</ele>
        <time>2009-06-14T14:59:51Z</time>
      </trkpt>
      <trkpt lat="44.14147" lon="5.31822">
        <ele>1291.187744</ele>
        <time>2009-06-14T14:59:57Z</time>
      </trkpt>
      <trkpt lat="44.14155" lon="5.3183">
        <ele>1289.265137</ele>
        <time>2009-06-14T15:00:02Z</time>
      </trkpt>
      <trkpt lat="44.1417" lon="5.31841">
        <ele>1288.303955</ele>
        <time>2009-06-14T15:00:10Z</time>
      </trkpt>
      <trkpt lat="44.14187" lon="5.31848">
        <ele>1288.784668</ele>
        <time>2009-06-14T15:00:19Z</time>
      </trkpt>
      <trkpt lat="44.14204" lon="5.31846">
        <ele>1289.265137</ele>
        <time>2009-06-14T15:00:27Z</time>
      </trkpt>
      <trkpt lat="44.14223" lon="5.31842">
        <ele>1289.265137</ele>
        <time>2009-06-14T15:00:36Z</time>
      </trkpt>
      <trkpt lat="44.14239" lon="5.31845">
        <ele>1285.900635</ele>
        <time>2009-06-14T15:00:44Z</time>
      </trkpt>
      <trkpt lat="44.14249" lon="5.31851">
        <ele>1286.861816</ele>
        <time>2009-06-14T15:00:50Z</time>
      </trkpt>
      <trkpt lat="44.14264" lon="5.31859">
        <ele>1297.917236</ele>
        <time>2009-06-14T15:00:58Z</time>
      </trkpt>
      <trkpt lat="44.14282" lon="5.31854">
        <ele>1304.165771</ele>
        <time>2009-06-14T15:01:06Z</time>
      </trkpt>
      <trkpt lat="44.14296" lon="5.31845">
        <ele>1308.01123</ele>
        <time>2009-06-14T15:01:14Z</time>
      </trkpt>
      <trkpt lat="44.14314" lon="5.31831">
        <ele>1312.336914</ele>
        <time>2009-06-14T15:01:23Z</time>
      </trkpt>
      <trkpt lat="44.14331" lon="5.31818">
        <ele>1313.778809</ele>
        <time>2009-06-14T15:01:32Z</time>
      </trkpt>
      <trkpt lat="44.14351" lon="5.31805">
        <ele>1318.104736</ele>
        <time>2009-06-14T15:01:43Z</time>
      </trkpt>
      <trkpt lat="44.1437" lon="5.31788">
        <ele>1323.39209</ele>
        <time>2009-06-14T15:01:53Z</time>
      </trkpt>
      <trkpt lat="44.14384" lon="5.31772">
        <ele>1328.19873</ele>
        <time>2009-06-14T15:02:01Z</time>
      </trkpt>
      <trkpt lat="44.14398" lon="5.31763">
        <ele>1327.718018</ele>
        <time>2009-06-14T15:02:08Z</time>
      </trkpt>
      <trkpt lat="44.14417" lon="5.31753">
        <ele>1337.331055</ele>
        <time>2009-06-14T15:02:18Z</time>
      </trkpt>
      <trkpt lat="44.14432" lon="5.31751">
        <ele>1339.253662</ele>
        <time>2009-06-14T15:02:25Z</time>
      </trkpt>
      <trkpt lat="44.14455" lon="5.31749">
        <ele>1342.137939</ele>
        <time>2009-06-14T15:02:36Z</time>
      </trkpt>
      <trkpt lat="44.14472" lon="5.31751">
        <ele>1344.060547</ele>
        <time>2009-06-14T15:02:44Z</time>
      </trkpt>
      <trkpt lat="44.14495" lon="5.31755">
        <ele>1342.618652</ele>
        <time>2009-06-14T15:02:55Z</time>
      </trkpt>
      <trkpt lat="44.14519" lon="5.31759">
        <ele>1339.734375</ele>
        <time>2009-06-14T15:03:06Z</time>
      </trkpt>
      <trkpt lat="44.14539" lon="5.31762">
        <ele>1341.176514</ele>
        <time>2009-06-14T15:03:16Z</time>
      </trkpt>
      <trkpt lat="44.14562" lon="5.31767">
        <ele>1341.176514</ele>
        <time>2009-06-14T15:03:26Z</time>
      </trkpt>
      <trkpt lat="44.14584" lon="5.31773">
        <ele>1343.099121</ele>
        <time>2009-06-14T15:03:36Z</time>
      </trkpt>
      <trkpt lat="44.14589" lon="5.31771">
        <ele>1344.060547</ele>
        <time>2009-06-14T15:03:38Z</time>
      </trkpt>
      <trkpt lat="44.14592" lon="5.31756">
        <ele>1345.983154</ele>
        <time>2009-06-14T15:03:43Z</time>
      </trkpt>
      <trkpt lat="44.14585" lon="5.31736">
        <ele>1348.38623</ele>
        <time>2009-06-14T15:03:50Z</time>
      </trkpt>
      <trkpt lat="44.14566" lon="5.31706">
        <ele>1357.519043</ele>
        <time>2009-06-14T15:04:02Z</time>
      </trkpt>
      <trkpt lat="44.14554" lon="5.31685">
        <ele>1365.690186</ele>
        <time>2009-06-14T15:04:10Z</time>
      </trkpt>
      <trkpt lat="44.14548" lon="5.31664">
        <ele>1367.13208</ele>
        <time>2009-06-14T15:04:17Z</time>
      </trkpt>
      <trkpt lat="44.14553" lon="5.31643">
        <ele>1367.612549</ele>
        <time>2009-06-14T15:04:23Z</time>
      </trkpt>
      <trkpt lat="44.14562" lon="5.31626">
        <ele>1368.573975</ele>
        <time>2009-06-14T15:04:29Z</time>
      </trkpt>
      <trkpt lat="44.14578" lon="5.31599">
        <ele>1370.496582</ele>
        <time>2009-06-14T15:04:37Z</time>
      </trkpt>
      <trkpt lat="44.14592" lon="5.3157">
        <ele>1379.148438</ele>
        <time>2009-06-14T15:04:46Z</time>
      </trkpt>
      <trkpt lat="44.146" lon="5.31554">
        <ele>1385.396973</ele>
        <time>2009-06-14T15:04:53Z</time>
      </trkpt>
      <trkpt lat="44.14611" lon="5.31537">
        <ele>1391.165039</ele>
        <time>2009-06-14T15:05:00Z</time>
      </trkpt>
      <trkpt lat="44.14626" lon="5.31531">
        <ele>1387.800293</ele>
        <time>2009-06-14T15:05:07Z</time>
      </trkpt>
      <trkpt lat="44.14643" lon="5.31533">
        <ele>1387.800293</ele>
        <time>2009-06-14T15:05:14Z</time>
      </trkpt>
      <trkpt lat="44.14663" lon="5.31537">
        <ele>1383.474365</ele>
        <time>2009-06-14T15:05:22Z</time>
      </trkpt>
      <trkpt lat="44.14691" lon="5.31545">
        <ele>1381.551758</ele>
        <time>2009-06-14T15:05:35Z</time>
      </trkpt>
      <trkpt lat="44.14709" lon="5.31555">
        <ele>1382.032471</ele>
        <time>2009-06-14T15:05:44Z</time>
      </trkpt>
      <trkpt lat="44.14722" lon="5.31567">
        <ele>1381.071289</ele>
        <time>2009-06-14T15:05:50Z</time>
      </trkpt>
      <trkpt lat="44.14727" lon="5.31581">
        <ele>1382.513184</ele>
        <time>2009-06-14T15:05:56Z</time>
      </trkpt>
      <trkpt lat="44.14737" lon="5.31591">
        <ele>1386.838867</ele>
        <time>2009-06-14T15:06:02Z</time>
      </trkpt>
      <trkpt lat="44.14753" lon="5.31599">
        <ele>1387.800293</ele>
        <time>2009-06-14T15:06:08Z</time>
      </trkpt>
      <trkpt lat="44.14778" lon="5.31609">
        <ele>1389.723145</ele>
        <time>2009-06-14T15:06:20Z</time>
      </trkpt>
      <trkpt lat="44.14798" lon="5.31616">
        <ele>1391.165039</ele>
        <time>2009-06-14T15:06:29Z</time>
      </trkpt>
      <trkpt lat="44.14814" lon="5.31623">
        <ele>1392.607178</ele>
        <time>2009-06-14T15:06:37Z</time>
      </trkpt>
      <trkpt lat="44.14833" lon="5.31635">
        <ele>1394.049072</ele>
        <time>2009-06-14T15:06:46Z</time>
      </trkpt>
      <trkpt lat="44.14857" lon="5.31648">
        <ele>1396.932861</ele>
        <time>2009-06-14T15:06:57Z</time>
      </trkpt>
      <trkpt lat="44.14881" lon="5.31663">
        <ele>1400.778076</ele>
        <time>2009-06-14T15:07:09Z</time>
      </trkpt>
      <trkpt lat="44.14899" lon="5.31674">
        <ele>1401.258789</ele>
        <time>2009-06-14T15:07:17Z</time>
      </trkpt>
      <trkpt lat="44.14918" lon="5.31686">
        <ele>1402.700684</ele>
        <time>2009-06-14T15:07:26Z</time>
      </trkpt>
      <trkpt lat="44.14934" lon="5.31698">
        <ele>1402.700684</ele>
        <time>2009-06-14T15:07:34Z</time>
      </trkpt>
      <trkpt lat="44.14963" lon="5.31718">
        <ele>1403.181396</ele>
        <time>2009-06-14T15:07:47Z</time>
      </trkpt>
      <trkpt lat="44.14976" lon="5.31727">
        <ele>1403.181396</ele>
        <time>2009-06-14T15:07:53Z</time>
      </trkpt>
      <trkpt lat="44.14989" lon="5.31738">
        <ele>1404.623535</ele>
        <time>2009-06-14T15:08:00Z</time>
      </trkpt>
      <trkpt lat="44.15008" lon="5.31748">
        <ele>1405.584961</ele>
        <time>2009-06-14T15:08:09Z</time>
      </trkpt>
      <trkpt lat="44.1503" lon="5.31757">
        <ele>1407.507568</ele>
        <time>2009-06-14T15:08:18Z</time>
      </trkpt>
      <trkpt lat="44.15047" lon="5.31764">
        <ele>1407.988281</ele>
        <time>2009-06-14T15:08:25Z</time>
      </trkpt>
      <trkpt lat="44.15067" lon="5.31773">
        <ele>1408.46875</ele>
        <time>2009-06-14T15:08:33Z</time>
      </trkpt>
      <trkpt lat="44.15089" lon="5.31789">
        <ele>1406.546143</ele>
        <time>2009-06-14T15:08:42Z</time>
      </trkpt>
      <trkpt lat="44.15108" lon="5.31806">
        <ele>1407.988281</ele>
        <time>2009-06-14T15:08:51Z</time>
      </trkpt>
      <trkpt lat="44.15122" lon="5.31818">
        <ele>1412.313965</ele>
        <time>2009-06-14T15:08:58Z</time>
      </trkpt>
      <trkpt lat="44.15137" lon="5.31835">
        <ele>1417.120605</ele>
        <time>2009-06-14T15:09:06Z</time>
      </trkpt>
      <trkpt lat="44.15152" lon="5.31849">
        <ele>1420.004639</ele>
        <time>2009-06-14T15:09:13Z</time>
      </trkpt>
      <trkpt lat="44.15173" lon="5.31867">
        <ele>1421.446533</ele>
        <time>2009-06-14T15:09:23Z</time>
      </trkpt>
      <trkpt lat="44.15187" lon="5.31879">
        <ele>1423.369385</ele>
        <time>2009-06-14T15:09:30Z</time>
      </trkpt>
      <trkpt lat="44.15192" lon="5.3189">
        <ele>1420.966064</ele>
        <time>2009-06-14T15:09:35Z</time>
      </trkpt>
      <trkpt lat="44.15199" lon="5.31903">
        <ele>1415.197998</ele>
        <time>2009-06-14T15:09:42Z</time>
      </trkpt>
      <trkpt lat="44.15213" lon="5.31903">
        <ele>1420.004639</ele>
        <time>2009-06-14T15:09:48Z</time>
      </trkpt>
      <trkpt lat="44.15224" lon="5.31904">
        <ele>1422.888672</ele>
        <time>2009-06-14T15:09:54Z</time>
      </trkpt>
      <trkpt lat="44.15229" lon="5.3191">
        <ele>1422.407959</ele>
        <time>2009-06-14T15:09:59Z</time>
      </trkpt>
      <trkpt lat="44.15231" lon="5.31917">
        <ele>1423.369385</ele>
        <time>2009-06-14T15:10:03Z</time>
      </trkpt>
      <trkpt lat="44.15234" lon="5.31915">
        <ele>1422.888672</ele>
        <time>2009-06-14T15:10:08Z</time>
      </trkpt>
      <trkpt lat="44.15228" lon="5.31908">
        <ele>1421.927246</ele>
        <time>2009-06-14T15:10:13Z</time>
      </trkpt>
      <trkpt lat="44.15219" lon="5.31904">
        <ele>1420.485352</ele>
        <time>2009-06-14T15:10:17Z</time>
      </trkpt>
      <trkpt lat="44.15219" lon="5.31887">
        <ele>1420.004639</ele>
        <time>2009-06-14T15:10:22Z</time>
      </trkpt>
      <trkpt lat="44.15224" lon="5.31884">
        <ele>1420.485352</ele>
        <time>2009-06-14T15:10:24Z</time>
      </trkpt>
      <trkpt lat="44.15234" lon="5.31876">
        <ele>1421.927246</ele>
        <time>2009-06-14T15:10:30Z</time>
      </trkpt>
      <trkpt lat="44.15236" lon="5.31875">
        <ele>1420.966064</ele>
        <time>2009-06-14T15:10:40Z</time>
      </trkpt>
      <trkpt lat="44.15239" lon="5.31875">
        <ele>1420.485352</ele>
        <time>2009-06-14T15:10:48Z</time>
      </trkpt>
      <trkpt lat="44.15239" lon="5.31875">
        <ele>1420.966064</ele>
        <time>2009-06-14T15:10:51Z</time>
      </trkpt>
      <trkpt lat="44.15241" lon="5.31876">
        <ele>1420.004639</ele>
        <time>2009-06-14T15:10:57Z</time>
      </trkpt>
      <trkpt lat="44.1524" lon="5.31877">
        <ele>1420.004639</ele>
        <time>2009-06-14T15:11:09Z</time>
      </trkpt>
      <trkpt lat="44.15239" lon="5.31876">
        <ele>1419.043213</ele>
        <time>2009-06-14T15:11:23Z</time>
      </trkpt>
      <trkpt lat="44.15237" lon="5.3188">
        <ele>1417.601074</ele>
        <time>2009-06-14T15:11:28Z</time>
      </trkpt>
      <trkpt lat="44.15236" lon="5.31885">
        <ele>1416.15918</ele>
        <time>2009-06-14T15:11:32Z</time>
      </trkpt>
      <trkpt lat="44.1523" lon="5.31894">
        <ele>1412.794678</ele>
        <time>2009-06-14T15:11:40Z</time>
      </trkpt>
      <trkpt lat="44.15228" lon="5.31897">
        <ele>1414.717285</ele>
        <time>2009-06-14T15:11:43Z</time>
      </trkpt>
      <trkpt lat="44.15231" lon="5.31901">
        <ele>1415.678711</ele>
        <time>2009-06-14T15:11:50Z</time>
      </trkpt>
      <trkpt lat="44.15236" lon="5.31897">
        <ele>1412.313965</ele>
        <time>2009-06-14T15:11:58Z</time>
      </trkpt>
      <trkpt lat="44.15236" lon="5.31891">
        <ele>1416.639893</ele>
        <time>2009-06-14T15:12:04Z</time>
      </trkpt>
      <trkpt lat="44.15236" lon="5.31888">
        <ele>1418.081787</ele>
        <time>2009-06-14T15:12:06Z</time>
      </trkpt>
      <trkpt lat="44.15236" lon="5.31876">
        <ele>1420.004639</ele>
        <time>2009-06-14T15:12:15Z</time>
      </trkpt>
      <trkpt lat="44.15233" lon="5.31916">
        <ele>1404.143066</ele>
        <time>2009-06-14T15:13:28Z</time>
      </trkpt>
      <trkpt lat="44.1523" lon="5.31907">
        <ele>1417.120605</ele>
        <time>2009-06-14T15:13:32Z</time>
      </trkpt>
      <trkpt lat="44.15224" lon="5.31904">
        <ele>1420.966064</ele>
        <time>2009-06-14T15:13:38Z</time>
      </trkpt>
      <trkpt lat="44.15226" lon="5.31897">
        <ele>1417.120605</ele>
        <time>2009-06-14T15:13:43Z</time>
      </trkpt>
      <trkpt lat="44.1523" lon="5.31888">
        <ele>1417.601074</ele>
        <time>2009-06-14T15:13:52Z</time>
      </trkpt>
      <trkpt lat="44.15229" lon="5.31889">
        <ele>1422.407959</ele>
        <time>2009-06-14T15:14:09Z</time>
      </trkpt>
      <trkpt lat="44.15226" lon="5.31882">
        <ele>1425.772461</ele>
        <time>2009-06-14T15:14:44Z</time>
      </trkpt>
      <trkpt lat="44.15228" lon="5.31881">
        <ele>1421.446533</ele>
        <time>2009-06-14T15:15:34Z</time>
      </trkpt>
      <trkpt lat="44.15228" lon="5.31884">
        <ele>1418.5625</ele>
        <time>2009-06-14T15:15:57Z</time>
      </trkpt>
      <trkpt lat="44.15229" lon="5.31887">
        <ele>1415.678711</ele>
        <time>2009-06-14T15:16:26Z</time>
      </trkpt>
      <trkpt lat="44.15227" lon="5.31891">
        <ele>1420.485352</ele>
        <time>2009-06-14T15:16:51Z</time>
      </trkpt>
      <trkpt lat="44.15227" lon="5.3189">
        <ele>1421.927246</ele>
        <time>2009-06-14T15:17:06Z</time>
      </trkpt>
      <trkpt lat="44.15226" lon="5.31886">
        <ele>1424.811279</ele>
        <time>2009-06-14T15:17:27Z</time>
      </trkpt>
      <trkpt lat="44.15228" lon="5.31884">
        <ele>1421.927246</ele>
        <time>2009-06-14T15:17:59Z</time>
      </trkpt>
      <trkpt lat="44.15233" lon="5.31877">
        <ele>1421.446533</ele>
        <time>2009-06-14T15:18:06Z</time>
      </trkpt>
      <trkpt lat="44.15235" lon="5.31873">
        <ele>1421.927246</ele>
        <time>2009-06-14T15:18:12Z</time>
      </trkpt>
      <trkpt lat="44.15235" lon="5.31871">
        <ele>1420.966064</ele>
        <time>2009-06-14T15:18:20Z</time>
      </trkpt>
      <trkpt lat="44.15234" lon="5.31872">
        <ele>1420.004639</ele>
        <time>2009-06-14T15:18:27Z</time>
      </trkpt>
      <trkpt lat="44.15233" lon="5.31871">
        <ele>1419.523926</ele>
        <time>2009-06-14T15:18:32Z</time>
      </trkpt>
      <trkpt lat="44.15231" lon="5.31869">
        <ele>1419.523926</ele>
        <time>2009-06-14T15:18:34Z</time>
      </trkpt>
      <trkpt lat="44.15231" lon="5.31854">
        <ele>1419.043213</ele>
        <time>2009-06-14T15:18:40Z</time>
      </trkpt>
      <trkpt lat="44.1523" lon="5.31851">
        <ele>1419.043213</ele>
        <time>2009-06-14T15:18:41Z</time>
      </trkpt>
      <trkpt lat="44.15225" lon="5.31829">
        <ele>1418.081787</ele>
        <time>2009-06-14T15:18:49Z</time>
      </trkpt>
      <trkpt lat="44.1522" lon="5.31811">
        <ele>1419.043213</ele>
        <time>2009-06-14T15:18:55Z</time>
      </trkpt>
      <trkpt lat="44.1521" lon="5.31781">
        <ele>1422.888672</ele>
        <time>2009-06-14T15:19:06Z</time>
      </trkpt>
      <trkpt lat="44.15201" lon="5.31754">
        <ele>1425.291748</ele>
        <time>2009-06-14T15:19:17Z</time>
      </trkpt>
      <trkpt lat="44.15193" lon="5.31729">
        <ele>1427.695068</ele>
        <time>2009-06-14T15:19:27Z</time>
      </trkpt>
      <trkpt lat="44.15182" lon="5.31699">
        <ele>1430.579102</ele>
        <time>2009-06-14T15:19:39Z</time>
      </trkpt>
      <trkpt lat="44.15171" lon="5.31671">
        <ele>1431.059814</ele>
        <time>2009-06-14T15:19:50Z</time>
      </trkpt>
      <trkpt lat="44.15161" lon="5.31637">
        <ele>1431.540283</ele>
        <time>2009-06-14T15:20:02Z</time>
      </trkpt>
      <trkpt lat="44.15154" lon="5.31606">
        <ele>1434.424316</ele>
        <time>2009-06-14T15:20:13Z</time>
      </trkpt>
      <trkpt lat="44.15147" lon="5.31578">
        <ele>1439.230957</ele>
        <time>2009-06-14T15:20:24Z</time>
      </trkpt>
      <trkpt lat="44.1514" lon="5.31542">
        <ele>1440.192383</ele>
        <time>2009-06-14T15:20:37Z</time>
      </trkpt>
      <trkpt lat="44.15131" lon="5.31514">
        <ele>1443.076172</ele>
        <time>2009-06-14T15:20:47Z</time>
      </trkpt>
      <trkpt lat="44.15115" lon="5.31479">
        <ele>1444.037598</ele>
        <time>2009-06-14T15:21:00Z</time>
      </trkpt>
      <trkpt lat="44.15098" lon="5.31449">
        <ele>1446.440918</ele>
        <time>2009-06-14T15:21:12Z</time>
      </trkpt>
      <trkpt lat="44.15096" lon="5.31427">
        <ele>1448.843994</ele>
        <time>2009-06-14T15:21:19Z</time>
      </trkpt>
      <trkpt lat="44.15104" lon="5.31406">
        <ele>1448.843994</ele>
        <time>2009-06-14T15:21:27Z</time>
      </trkpt>
      <trkpt lat="44.15115" lon="5.3139">
        <ele>1447.4021</ele>
        <time>2009-06-14T15:21:35Z</time>
      </trkpt>
      <trkpt lat="44.15128" lon="5.31377">
        <ele>1446.440918</ele>
        <time>2009-06-14T15:21:43Z</time>
      </trkpt>
      <trkpt lat="44.15144" lon="5.31361">
        <ele>1446.440918</ele>
        <time>2009-06-14T15:21:52Z</time>
      </trkpt>
      <trkpt lat="44.15163" lon="5.31351">
        <ele>1450.286133</ele>
        <time>2009-06-14T15:22:03Z</time>
      </trkpt>
      <trkpt lat="44.15178" lon="5.31353">
        <ele>1452.689453</ele>
        <time>2009-06-14T15:22:10Z</time>
      </trkpt>
      <trkpt lat="44.15198" lon="5.31357">
        <ele>1454.131592</ele>
        <time>2009-06-14T15:22:20Z</time>
      </trkpt>
      <trkpt lat="44.15216" lon="5.31362">
        <ele>1456.053955</ele>
        <time>2009-06-14T15:22:29Z</time>
      </trkpt>
      <trkpt lat="44.15233" lon="5.31368">
        <ele>1457.976807</ele>
        <time>2009-06-14T15:22:38Z</time>
      </trkpt>
      <trkpt lat="44.15248" lon="5.31378">
        <ele>1460.379883</ele>
        <time>2009-06-14T15:22:47Z</time>
      </trkpt>
      <trkpt lat="44.15263" lon="5.31393">
        <ele>1462.783203</ele>
        <time>2009-06-14T15:22:57Z</time>
      </trkpt>
      <trkpt lat="44.15277" lon="5.31408">
        <ele>1466.147705</ele>
        <time>2009-06-14T15:23:06Z</time>
      </trkpt>
      <trkpt lat="44.15291" lon="5.31428">
        <ele>1468.070557</ele>
        <time>2009-06-14T15:23:16Z</time>
      </trkpt>
      <trkpt lat="44.15308" lon="5.31444">
        <ele>1470.473877</ele>
        <time>2009-06-14T15:23:25Z</time>
      </trkpt>
      <trkpt lat="44.15329" lon="5.31455">
        <ele>1471.435059</ele>
        <time>2009-06-14T15:23:35Z</time>
      </trkpt>
      <trkpt lat="44.15352" lon="5.31465">
        <ele>1472.877197</ele>
        <time>2009-06-14T15:23:46Z</time>
      </trkpt>
      <trkpt lat="44.15375" lon="5.31477">
        <ele>1473.838379</ele>
        <time>2009-06-14T15:23:57Z</time>
      </trkpt>
      <trkpt lat="44.15396" lon="5.31492">
        <ele>1472.877197</ele>
        <time>2009-06-14T15:24:08Z</time>
      </trkpt>
      <trkpt lat="44.15412" lon="5.31504">
        <ele>1473.838379</ele>
        <time>2009-06-14T15:24:16Z</time>
      </trkpt>
      <trkpt lat="44.15433" lon="5.31517">
        <ele>1474.799805</ele>
        <time>2009-06-14T15:24:26Z</time>
      </trkpt>
      <trkpt lat="44.15447" lon="5.31527">
        <ele>1475.760986</ele>
        <time>2009-06-14T15:24:33Z</time>
      </trkpt>
      <trkpt lat="44.15463" lon="5.31537">
        <ele>1477.203125</ele>
        <time>2009-06-14T15:24:41Z</time>
      </trkpt>
      <trkpt lat="44.15474" lon="5.31546">
        <ele>1478.64502</ele>
        <time>2009-06-14T15:24:48Z</time>
      </trkpt>
      <trkpt lat="44.15492" lon="5.31546">
        <ele>1482.009521</ele>
        <time>2009-06-14T15:24:56Z</time>
      </trkpt>
      <trkpt lat="44.15501" lon="5.31533">
        <ele>1482.970703</ele>
        <time>2009-06-14T15:25:01Z</time>
      </trkpt>
      <trkpt lat="44.15498" lon="5.31514">
        <ele>1483.451416</ele>
        <time>2009-06-14T15:25:06Z</time>
      </trkpt>
      <trkpt lat="44.15486" lon="5.31486">
        <ele>1483.932129</ele>
        <time>2009-06-14T15:25:14Z</time>
      </trkpt>
      <trkpt lat="44.15481" lon="5.31457">
        <ele>1485.85498</ele>
        <time>2009-06-14T15:25:22Z</time>
      </trkpt>
      <trkpt lat="44.15481" lon="5.31426">
        <ele>1489.219482</ele>
        <time>2009-06-14T15:25:30Z</time>
      </trkpt>
      <trkpt lat="44.15481" lon="5.31393">
        <ele>1492.103516</ele>
        <time>2009-06-14T15:25:37Z</time>
      </trkpt>
      <trkpt lat="44.15483" lon="5.31353">
        <ele>1494.026123</ele>
        <time>2009-06-14T15:25:46Z</time>
      </trkpt>
      <trkpt lat="44.15486" lon="5.31319">
        <ele>1495.94873</ele>
        <time>2009-06-14T15:25:55Z</time>
      </trkpt>
      <trkpt lat="44.15489" lon="5.31279">
        <ele>1499.793945</ele>
        <time>2009-06-14T15:26:06Z</time>
      </trkpt>
      <trkpt lat="44.15496" lon="5.31248">
        <ele>1502.197266</ele>
        <time>2009-06-14T15:26:15Z</time>
      </trkpt>
      <trkpt lat="44.15511" lon="5.31227">
        <ele>1504.120117</ele>
        <time>2009-06-14T15:26:23Z</time>
      </trkpt>
      <trkpt lat="44.15529" lon="5.31221">
        <ele>1504.120117</ele>
        <time>2009-06-14T15:26:30Z</time>
      </trkpt>
      <trkpt lat="44.15549" lon="5.31226">
        <ele>1505.081299</ele>
        <time>2009-06-14T15:26:38Z</time>
      </trkpt>
      <trkpt lat="44.15566" lon="5.3124">
        <ele>1507.003906</ele>
        <time>2009-06-14T15:26:46Z</time>
      </trkpt>
      <trkpt lat="44.15592" lon="5.31259">
        <ele>1508.445801</ele>
        <time>2009-06-14T15:26:57Z</time>
      </trkpt>
      <trkpt lat="44.15615" lon="5.31273">
        <ele>1509.887695</ele>
        <time>2009-06-14T15:27:06Z</time>
      </trkpt>
      <trkpt lat="44.15638" lon="5.31285">
        <ele>1511.810547</ele>
        <time>2009-06-14T15:27:15Z</time>
      </trkpt>
      <trkpt lat="44.15667" lon="5.31297">
        <ele>1512.771729</ele>
        <time>2009-06-14T15:27:25Z</time>
      </trkpt>
      <trkpt lat="44.15694" lon="5.3131">
        <ele>1513.73291</ele>
        <time>2009-06-14T15:27:35Z</time>
      </trkpt>
      <trkpt lat="44.15718" lon="5.31321">
        <ele>1514.213623</ele>
        <time>2009-06-14T15:27:44Z</time>
      </trkpt>
      <trkpt lat="44.1574" lon="5.31337">
        <ele>1515.175049</ele>
        <time>2009-06-14T15:27:53Z</time>
      </trkpt>
      <trkpt lat="44.15759" lon="5.31349">
        <ele>1517.578369</ele>
        <time>2009-06-14T15:28:01Z</time>
      </trkpt>
      <trkpt lat="44.15772" lon="5.31347">
        <ele>1519.501221</ele>
        <time>2009-06-14T15:28:06Z</time>
      </trkpt>
      <trkpt lat="44.15784" lon="5.31331">
        <ele>1519.501221</ele>
        <time>2009-06-14T15:28:11Z</time>
      </trkpt>
      <trkpt lat="44.15787" lon="5.31301">
        <ele>1518.059082</ele>
        <time>2009-06-14T15:28:18Z</time>
      </trkpt>
      <trkpt lat="44.15786" lon="5.3127">
        <ele>1519.501221</ele>
        <time>2009-06-14T15:28:26Z</time>
      </trkpt>
      <trkpt lat="44.15785" lon="5.31243">
        <ele>1521.423584</ele>
        <time>2009-06-14T15:28:34Z</time>
      </trkpt>
      <trkpt lat="44.15783" lon="5.31216">
        <ele>1523.826904</ele>
        <time>2009-06-14T15:28:42Z</time>
      </trkpt>
      <trkpt lat="44.15774" lon="5.3119">
        <ele>1527.19165</ele>
        <time>2009-06-14T15:28:50Z</time>
      </trkpt>
      <trkpt lat="44.15763" lon="5.31164">
        <ele>1529.114014</ele>
        <time>2009-06-14T15:28:58Z</time>
      </trkpt>
      <trkpt lat="44.15753" lon="5.31133">
        <ele>1533.440186</ele>
        <time>2009-06-14T15:29:08Z</time>
      </trkpt>
      <trkpt lat="44.15746" lon="5.31096">
        <ele>1538.246826</ele>
        <time>2009-06-14T15:29:20Z</time>
      </trkpt>
      <trkpt lat="44.15743" lon="5.31068">
        <ele>1541.130615</ele>
        <time>2009-06-14T15:29:29Z</time>
      </trkpt>
      <trkpt lat="44.15743" lon="5.31039">
        <ele>1543.533936</ele>
        <time>2009-06-14T15:29:38Z</time>
      </trkpt>
      <trkpt lat="44.15747" lon="5.31014">
        <ele>1545.456543</ele>
        <time>2009-06-14T15:29:46Z</time>
      </trkpt>
      <trkpt lat="44.15753" lon="5.30981">
        <ele>1547.37915</ele>
        <time>2009-06-14T15:29:56Z</time>
      </trkpt>
      <trkpt lat="44.1576" lon="5.30953">
        <ele>1549.302002</ele>
        <time>2009-06-14T15:30:05Z</time>
      </trkpt>
      <trkpt lat="44.15768" lon="5.30927">
        <ele>1550.743896</ele>
        <time>2009-06-14T15:30:14Z</time>
      </trkpt>
      <trkpt lat="44.15781" lon="5.30898">
        <ele>1552.666504</ele>
        <time>2009-06-14T15:30:25Z</time>
      </trkpt>
      <trkpt lat="44.15796" lon="5.30874">
        <ele>1554.589111</ele>
        <time>2009-06-14T15:30:35Z</time>
      </trkpt>
      <trkpt lat="44.15813" lon="5.30859">
        <ele>1557.473145</ele>
        <time>2009-06-14T15:30:44Z</time>
      </trkpt>
      <trkpt lat="44.15834" lon="5.30843">
        <ele>1562.279541</ele>
        <time>2009-06-14T15:30:55Z</time>
      </trkpt>
      <trkpt lat="44.15848" lon="5.30834">
        <ele>1562.760254</ele>
        <time>2009-06-14T15:31:02Z</time>
      </trkpt>
      <trkpt lat="44.15866" lon="5.30825">
        <ele>1564.683105</ele>
        <time>2009-06-14T15:31:10Z</time>
      </trkpt>
      <trkpt lat="44.15888" lon="5.30818">
        <ele>1565.163818</ele>
        <time>2009-06-14T15:31:19Z</time>
      </trkpt>
      <trkpt lat="44.15905" lon="5.30815">
        <ele>1565.163818</ele>
        <time>2009-06-14T15:31:27Z</time>
      </trkpt>
      <trkpt lat="44.15923" lon="5.30815">
        <ele>1565.644531</ele>
        <time>2009-06-14T15:31:35Z</time>
      </trkpt>
      <trkpt lat="44.15941" lon="5.30818">
        <ele>1564.683105</ele>
        <time>2009-06-14T15:31:43Z</time>
      </trkpt>
      <trkpt lat="44.15956" lon="5.3082">
        <ele>1567.086426</ele>
        <time>2009-06-14T15:31:50Z</time>
      </trkpt>
      <trkpt lat="44.15971" lon="5.30822">
        <ele>1567.086426</ele>
        <time>2009-06-14T15:31:57Z</time>
      </trkpt>
      <trkpt lat="44.15992" lon="5.30826">
        <ele>1567.086426</ele>
        <time>2009-06-14T15:32:06Z</time>
      </trkpt>
      <trkpt lat="44.16004" lon="5.30826">
        <ele>1567.566895</ele>
        <time>2009-06-14T15:32:11Z</time>
      </trkpt>
      <trkpt lat="44.16022" lon="5.30821">
        <ele>1569.970215</ele>
        <time>2009-06-14T15:32:17Z</time>
      </trkpt>
      <trkpt lat="44.16031" lon="5.30807">
        <ele>1570.450928</ele>
        <time>2009-06-14T15:32:22Z</time>
      </trkpt>
      <trkpt lat="44.16031" lon="5.30789">
        <ele>1571.412109</ele>
        <time>2009-06-14T15:32:27Z</time>
      </trkpt>
      <trkpt lat="44.16023" lon="5.30762">
        <ele>1571.412109</ele>
        <time>2009-06-14T15:32:35Z</time>
      </trkpt>
      <trkpt lat="44.16012" lon="5.3074">
        <ele>1571.892822</ele>
        <time>2009-06-14T15:32:43Z</time>
      </trkpt>
      <trkpt lat="44.16002" lon="5.30716">
        <ele>1570.931641</ele>
        <time>2009-06-14T15:32:52Z</time>
      </trkpt>
      <trkpt lat="44.15995" lon="5.3069">
        <ele>1570.450928</ele>
        <time>2009-06-14T15:33:01Z</time>
      </trkpt>
      <trkpt lat="44.1599" lon="5.30669">
        <ele>1571.892822</ele>
        <time>2009-06-14T15:33:08Z</time>
      </trkpt>
      <trkpt lat="44.15984" lon="5.30645">
        <ele>1574.296143</ele>
        <time>2009-06-14T15:33:16Z</time>
      </trkpt>
      <trkpt lat="44.15977" lon="5.30614">
        <ele>1577.180176</ele>
        <time>2009-06-14T15:33:25Z</time>
      </trkpt>
      <trkpt lat="44.1597" lon="5.30577">
        <ele>1580.064209</ele>
        <time>2009-06-14T15:33:36Z</time>
      </trkpt>
      <trkpt lat="44.15966" lon="5.30545">
        <ele>1583.428711</ele>
        <time>2009-06-14T15:33:46Z</time>
      </trkpt>
      <trkpt lat="44.15967" lon="5.3052">
        <ele>1586.312744</ele>
        <time>2009-06-14T15:33:54Z</time>
      </trkpt>
      <trkpt lat="44.15969" lon="5.30495">
        <ele>1588.716064</ele>
        <time>2009-06-14T15:34:02Z</time>
      </trkpt>
      <trkpt lat="44.15975" lon="5.30459">
        <ele>1592.080566</ele>
        <time>2009-06-14T15:34:13Z</time>
      </trkpt>
      <trkpt lat="44.15982" lon="5.30428">
        <ele>1594.964355</ele>
        <time>2009-06-14T15:34:23Z</time>
      </trkpt>
      <trkpt lat="44.15987" lon="5.30399">
        <ele>1597.36792</ele>
        <time>2009-06-14T15:34:32Z</time>
      </trkpt>
      <trkpt lat="44.15995" lon="5.30361">
        <ele>1599.77124</ele>
        <time>2009-06-14T15:34:44Z</time>
      </trkpt>
      <trkpt lat="44.16002" lon="5.3033">
        <ele>1601.693848</ele>
        <time>2009-06-14T15:34:54Z</time>
      </trkpt>
      <trkpt lat="44.16013" lon="5.30295">
        <ele>1603.616455</ele>
        <time>2009-06-14T15:35:06Z</time>
      </trkpt>
      <trkpt lat="44.16025" lon="5.30265">
        <ele>1605.539063</ele>
        <time>2009-06-14T15:35:16Z</time>
      </trkpt>
      <trkpt lat="44.16037" lon="5.30235">
        <ele>1606.500244</ele>
        <time>2009-06-14T15:35:27Z</time>
      </trkpt>
      <trkpt lat="44.16051" lon="5.30205">
        <ele>1607.942383</ele>
        <time>2009-06-14T15:35:39Z</time>
      </trkpt>
      <trkpt lat="44.16062" lon="5.30178">
        <ele>1609.864746</ele>
        <time>2009-06-14T15:35:49Z</time>
      </trkpt>
      <trkpt lat="44.16077" lon="5.30152">
        <ele>1611.787598</ele>
        <time>2009-06-14T15:36:00Z</time>
      </trkpt>
      <trkpt lat="44.16094" lon="5.3013">
        <ele>1612.749023</ele>
        <time>2009-06-14T15:36:10Z</time>
      </trkpt>
      <trkpt lat="44.16112" lon="5.30112">
        <ele>1613.710205</ele>
        <time>2009-06-14T15:36:20Z</time>
      </trkpt>
      <trkpt lat="44.1613" lon="5.30097">
        <ele>1614.671631</ele>
        <time>2009-06-14T15:36:29Z</time>
      </trkpt>
      <trkpt lat="44.16146" lon="5.30087">
        <ele>1616.594238</ele>
        <time>2009-06-14T15:36:36Z</time>
      </trkpt>
      <trkpt lat="44.1617" lon="5.30076">
        <ele>1618.516846</ele>
        <time>2009-06-14T15:36:47Z</time>
      </trkpt>
      <trkpt lat="44.16186" lon="5.30082">
        <ele>1619.95874</ele>
        <time>2009-06-14T15:36:54Z</time>
      </trkpt>
      <trkpt lat="44.16201" lon="5.30101">
        <ele>1621.400635</ele>
        <time>2009-06-14T15:37:03Z</time>
      </trkpt>
      <trkpt lat="44.16214" lon="5.30123">
        <ele>1623.323486</ele>
        <time>2009-06-14T15:37:12Z</time>
      </trkpt>
      <trkpt lat="44.16224" lon="5.30144">
        <ele>1624.765381</ele>
        <time>2009-06-14T15:37:20Z</time>
      </trkpt>
      <trkpt lat="44.16239" lon="5.30172">
        <ele>1628.130127</ele>
        <time>2009-06-14T15:37:31Z</time>
      </trkpt>
      <trkpt lat="44.16251" lon="5.30195">
        <ele>1630.533447</ele>
        <time>2009-06-14T15:37:40Z</time>
      </trkpt>
      <trkpt lat="44.1626" lon="5.30212">
        <ele>1632.456055</ele>
        <time>2009-06-14T15:37:47Z</time>
      </trkpt>
      <trkpt lat="44.16275" lon="5.30237">
        <ele>1634.859375</ele>
        <time>2009-06-14T15:37:57Z</time>
      </trkpt>
      <trkpt lat="44.16289" lon="5.30251">
        <ele>1635.820557</ele>
        <time>2009-06-14T15:38:04Z</time>
      </trkpt>
      <trkpt lat="44.16307" lon="5.30256">
        <ele>1636.30127</ele>
        <time>2009-06-14T15:38:11Z</time>
      </trkpt>
      <trkpt lat="44.16323" lon="5.3025">
        <ele>1636.781738</ele>
        <time>2009-06-14T15:38:17Z</time>
      </trkpt>
      <trkpt lat="44.16346" lon="5.30234">
        <ele>1637.743164</ele>
        <time>2009-06-14T15:38:26Z</time>
      </trkpt>
      <trkpt lat="44.1637" lon="5.30216">
        <ele>1639.185059</ele>
        <time>2009-06-14T15:38:37Z</time>
      </trkpt>
      <trkpt lat="44.16386" lon="5.302">
        <ele>1641.107666</ele>
        <time>2009-06-14T15:38:45Z</time>
      </trkpt>
      <trkpt lat="44.164" lon="5.30174">
        <ele>1642.549805</ele>
        <time>2009-06-14T15:38:55Z</time>
      </trkpt>
      <trkpt lat="44.16409" lon="5.3015">
        <ele>1643.991699</ele>
        <time>2009-06-14T15:39:03Z</time>
      </trkpt>
      <trkpt lat="44.16421" lon="5.30118">
        <ele>1645.914551</ele>
        <time>2009-06-14T15:39:14Z</time>
      </trkpt>
      <trkpt lat="44.16431" lon="5.30088">
        <ele>1648.317627</ele>
        <time>2009-06-14T15:39:25Z</time>
      </trkpt>
      <trkpt lat="44.16441" lon="5.30059">
        <ele>1650.720947</ele>
        <time>2009-06-14T15:39:35Z</time>
      </trkpt>
      <trkpt lat="44.16452" lon="5.30029">
        <ele>1653.124268</ele>
        <time>2009-06-14T15:39:46Z</time>
      </trkpt>
      <trkpt lat="44.16464" lon="5.29997">
        <ele>1654.566162</ele>
        <time>2009-06-14T15:39:57Z</time>
      </trkpt>
      <trkpt lat="44.16474" lon="5.2997">
        <ele>1655.527588</ele>
        <time>2009-06-14T15:40:06Z</time>
      </trkpt>
      <trkpt lat="44.16486" lon="5.29942">
        <ele>1657.450195</ele>
        <time>2009-06-14T15:40:15Z</time>
      </trkpt>
      <trkpt lat="44.16497" lon="5.29916">
        <ele>1659.853271</ele>
        <time>2009-06-14T15:40:24Z</time>
      </trkpt>
      <trkpt lat="44.1651" lon="5.29887">
        <ele>1661.776367</ele>
        <time>2009-06-14T15:40:35Z</time>
      </trkpt>
      <trkpt lat="44.16517" lon="5.29858">
        <ele>1663.69873</ele>
        <time>2009-06-14T15:40:45Z</time>
      </trkpt>
      <trkpt lat="44.16523" lon="5.29827">
        <ele>1665.621582</ele>
        <time>2009-06-14T15:40:55Z</time>
      </trkpt>
      <trkpt lat="44.16529" lon="5.29789">
        <ele>1668.505371</ele>
        <time>2009-06-14T15:41:07Z</time>
      </trkpt>
      <trkpt lat="44.16538" lon="5.29756">
        <ele>1671.38916</ele>
        <time>2009-06-14T15:41:18Z</time>
      </trkpt>
      <trkpt lat="44.16547" lon="5.29729">
        <ele>1672.831299</ele>
        <time>2009-06-14T15:41:27Z</time>
      </trkpt>
      <trkpt lat="44.1656" lon="5.29707">
        <ele>1674.273193</ele>
        <time>2009-06-14T15:41:36Z</time>
      </trkpt>
      <trkpt lat="44.16577" lon="5.29688">
        <ele>1677.157471</ele>
        <time>2009-06-14T15:41:46Z</time>
      </trkpt>
      <trkpt lat="44.16593" lon="5.29678">
        <ele>1679.560547</ele>
        <time>2009-06-14T15:41:54Z</time>
      </trkpt>
      <trkpt lat="44.16615" lon="5.29665">
        <ele>1682.925049</ele>
        <time>2009-06-14T15:42:04Z</time>
      </trkpt>
      <trkpt lat="44.16634" lon="5.29653">
        <ele>1684.8479</ele>
        <time>2009-06-14T15:42:13Z</time>
      </trkpt>
      <trkpt lat="44.16651" lon="5.29643">
        <ele>1686.770264</ele>
        <time>2009-06-14T15:42:22Z</time>
      </trkpt>
      <trkpt lat="44.16668" lon="5.29632">
        <ele>1688.693115</ele>
        <time>2009-06-14T15:42:31Z</time>
      </trkpt>
      <trkpt lat="44.16683" lon="5.29621">
        <ele>1690.13501</ele>
        <time>2009-06-14T15:42:39Z</time>
      </trkpt>
      <trkpt lat="44.16701" lon="5.29607">
        <ele>1692.057861</ele>
        <time>2009-06-14T15:42:49Z</time>
      </trkpt>
      <trkpt lat="44.16724" lon="5.29585">
        <ele>1694.460938</ele>
        <time>2009-06-14T15:43:01Z</time>
      </trkpt>
      <trkpt lat="44.16742" lon="5.29566">
        <ele>1696.383789</ele>
        <time>2009-06-14T15:43:11Z</time>
      </trkpt>
      <trkpt lat="44.16757" lon="5.29546">
        <ele>1699.748291</ele>
        <time>2009-06-14T15:43:20Z</time>
      </trkpt>
      <trkpt lat="44.16767" lon="5.29521">
        <ele>1700.229004</ele>
        <time>2009-06-14T15:43:29Z</time>
      </trkpt>
      <trkpt lat="44.1677" lon="5.29496">
        <ele>1700.229004</ele>
        <time>2009-06-14T15:43:36Z</time>
      </trkpt>
      <trkpt lat="44.16765" lon="5.29473">
        <ele>1701.190186</ele>
        <time>2009-06-14T15:43:42Z</time>
      </trkpt>
      <trkpt lat="44.16755" lon="5.29443">
        <ele>1699.267578</ele>
        <time>2009-06-14T15:43:52Z</time>
      </trkpt>
      <trkpt lat="44.16745" lon="5.29417">
        <ele>1698.786865</ele>
        <time>2009-06-14T15:44:01Z</time>
      </trkpt>
      <trkpt lat="44.16732" lon="5.29394">
        <ele>1700.229004</ele>
        <time>2009-06-14T15:44:10Z</time>
      </trkpt>
      <trkpt lat="44.16719" lon="5.29366">
        <ele>1702.151367</ele>
        <time>2009-06-14T15:44:20Z</time>
      </trkpt>
      <trkpt lat="44.16712" lon="5.29336">
        <ele>1704.074219</ele>
        <time>2009-06-14T15:44:30Z</time>
      </trkpt>
      <trkpt lat="44.1671" lon="5.29305">
        <ele>1706.958008</ele>
        <time>2009-06-14T15:44:40Z</time>
      </trkpt>
      <trkpt lat="44.16712" lon="5.29274">
        <ele>1711.28418</ele>
        <time>2009-06-14T15:44:50Z</time>
      </trkpt>
      <trkpt lat="44.16721" lon="5.29246">
        <ele>1714.648682</ele>
        <time>2009-06-14T15:45:00Z</time>
      </trkpt>
      <trkpt lat="44.16732" lon="5.29227">
        <ele>1716.571289</ele>
        <time>2009-06-14T15:45:08Z</time>
      </trkpt>
      <trkpt lat="44.1675" lon="5.29204">
        <ele>1718.493896</ele>
        <time>2009-06-14T15:45:19Z</time>
      </trkpt>
      <trkpt lat="44.16767" lon="5.2919">
        <ele>1719.935791</ele>
        <time>2009-06-14T15:45:28Z</time>
      </trkpt>
      <trkpt lat="44.16785" lon="5.29181">
        <ele>1722.339111</ele>
        <time>2009-06-14T15:45:37Z</time>
      </trkpt>
      <trkpt lat="44.16806" lon="5.29172">
        <ele>1725.223145</ele>
        <time>2009-06-14T15:45:47Z</time>
      </trkpt>
      <trkpt lat="44.16825" lon="5.29165">
        <ele>1726.665283</ele>
        <time>2009-06-14T15:45:55Z</time>
      </trkpt>
      <trkpt lat="44.16845" lon="5.29157">
        <ele>1728.107178</ele>
        <time>2009-06-14T15:46:05Z</time>
      </trkpt>
      <trkpt lat="44.16866" lon="5.29149">
        <ele>1730.510498</ele>
        <time>2009-06-14T15:46:15Z</time>
      </trkpt>
      <trkpt lat="44.16884" lon="5.29141">
        <ele>1732.913574</ele>
        <time>2009-06-14T15:46:24Z</time>
      </trkpt>
      <trkpt lat="44.16902" lon="5.29134">
        <ele>1733.875</ele>
        <time>2009-06-14T15:46:33Z</time>
      </trkpt>
      <trkpt lat="44.16924" lon="5.29125">
        <ele>1736.758789</ele>
        <time>2009-06-14T15:46:44Z</time>
      </trkpt>
      <trkpt lat="44.16939" lon="5.29115">
        <ele>1739.162109</ele>
        <time>2009-06-14T15:46:52Z</time>
      </trkpt>
      <trkpt lat="44.16948" lon="5.29097">
        <ele>1741.565674</ele>
        <time>2009-06-14T15:46:59Z</time>
      </trkpt>
      <trkpt lat="44.16947" lon="5.29082">
        <ele>1743.488281</ele>
        <time>2009-06-14T15:47:04Z</time>
      </trkpt>
      <trkpt lat="44.16936" lon="5.29062">
        <ele>1745.410889</ele>
        <time>2009-06-14T15:47:12Z</time>
      </trkpt>
      <trkpt lat="44.16915" lon="5.29039">
        <ele>1747.333496</ele>
        <time>2009-06-14T15:47:23Z</time>
      </trkpt>
      <trkpt lat="44.16897" lon="5.29019">
        <ele>1748.775391</ele>
        <time>2009-06-14T15:47:33Z</time>
      </trkpt>
      <trkpt lat="44.16878" lon="5.28994">
        <ele>1750.217529</ele>
        <time>2009-06-14T15:47:45Z</time>
      </trkpt>
      <trkpt lat="44.16867" lon="5.28967">
        <ele>1751.178711</ele>
        <time>2009-06-14T15:47:55Z</time>
      </trkpt>
      <trkpt lat="44.16862" lon="5.28939">
        <ele>1753.101318</ele>
        <time>2009-06-14T15:48:04Z</time>
      </trkpt>
      <trkpt lat="44.16862" lon="5.28914">
        <ele>1754.543213</ele>
        <time>2009-06-14T15:48:11Z</time>
      </trkpt>
      <trkpt lat="44.16865" lon="5.28885">
        <ele>1756.466064</ele>
        <time>2009-06-14T15:48:20Z</time>
      </trkpt>
      <trkpt lat="44.1687" lon="5.28848">
        <ele>1758.869385</ele>
        <time>2009-06-14T15:48:32Z</time>
      </trkpt>
      <trkpt lat="44.16874" lon="5.2882">
        <ele>1760.791992</ele>
        <time>2009-06-14T15:48:41Z</time>
      </trkpt>
      <trkpt lat="44.1688" lon="5.28789">
        <ele>1762.7146</ele>
        <time>2009-06-14T15:48:51Z</time>
      </trkpt>
      <trkpt lat="44.16889" lon="5.28761">
        <ele>1764.637207</ele>
        <time>2009-06-14T15:49:01Z</time>
      </trkpt>
      <trkpt lat="44.16897" lon="5.28735">
        <ele>1766.559814</ele>
        <time>2009-06-14T15:49:10Z</time>
      </trkpt>
      <trkpt lat="44.16907" lon="5.28708">
        <ele>1768.482422</ele>
        <time>2009-06-14T15:49:20Z</time>
      </trkpt>
      <trkpt lat="44.16921" lon="5.28677">
        <ele>1770.405029</ele>
        <time>2009-06-14T15:49:32Z</time>
      </trkpt>
      <trkpt lat="44.16934" lon="5.28656">
        <ele>1771.846924</ele>
        <time>2009-06-14T15:49:41Z</time>
      </trkpt>
      <trkpt lat="44.16949" lon="5.28631">
        <ele>1774.731201</ele>
        <time>2009-06-14T15:49:52Z</time>
      </trkpt>
      <trkpt lat="44.1696" lon="5.28614">
        <ele>1776.173096</ele>
        <time>2009-06-14T15:50:00Z</time>
      </trkpt>
      <trkpt lat="44.16979" lon="5.28591">
        <ele>1779.056885</ele>
        <time>2009-06-14T15:50:11Z</time>
      </trkpt>
      <trkpt lat="44.16999" lon="5.28573">
        <ele>1780.979736</ele>
        <time>2009-06-14T15:50:22Z</time>
      </trkpt>
      <trkpt lat="44.17015" lon="5.28561">
        <ele>1784.344238</ele>
        <time>2009-06-14T15:50:30Z</time>
      </trkpt>
      <trkpt lat="44.17031" lon="5.28547">
        <ele>1786.747314</ele>
        <time>2009-06-14T15:50:39Z</time>
      </trkpt>
      <trkpt lat="44.17049" lon="5.28531">
        <ele>1789.150879</ele>
        <time>2009-06-14T15:50:49Z</time>
      </trkpt>
      <trkpt lat="44.17062" lon="5.28518">
        <ele>1791.554199</ele>
        <time>2009-06-14T15:50:57Z</time>
      </trkpt>
      <trkpt lat="44.17076" lon="5.285">
        <ele>1793.476807</ele>
        <time>2009-06-14T15:51:06Z</time>
      </trkpt>
      <trkpt lat="44.1709" lon="5.28478">
        <ele>1796.36084</ele>
        <time>2009-06-14T15:51:17Z</time>
      </trkpt>
      <trkpt lat="44.17104" lon="5.28461">
        <ele>1798.283203</ele>
        <time>2009-06-14T15:51:26Z</time>
      </trkpt>
      <trkpt lat="44.17118" lon="5.28448">
        <ele>1800.206055</ele>
        <time>2009-06-14T15:51:34Z</time>
      </trkpt>
      <trkpt lat="44.17134" lon="5.28439">
        <ele>1802.128418</ele>
        <time>2009-06-14T15:51:42Z</time>
      </trkpt>
      <trkpt lat="44.17151" lon="5.28432">
        <ele>1804.531982</ele>
        <time>2009-06-14T15:51:51Z</time>
      </trkpt>
      <trkpt lat="44.17175" lon="5.28427">
        <ele>1807.416016</ele>
        <time>2009-06-14T15:52:03Z</time>
      </trkpt>
      <trkpt lat="44.17193" lon="5.28424">
        <ele>1809.819092</ele>
        <time>2009-06-14T15:52:12Z</time>
      </trkpt>
      <trkpt lat="44.17212" lon="5.28421">
        <ele>1811.741943</ele>
        <time>2009-06-14T15:52:21Z</time>
      </trkpt>
      <trkpt lat="44.17235" lon="5.28418">
        <ele>1812.703125</ele>
        <time>2009-06-14T15:52:33Z</time>
      </trkpt>
      <trkpt lat="44.17252" lon="5.28415">
        <ele>1813.664307</ele>
        <time>2009-06-14T15:52:42Z</time>
      </trkpt>
      <trkpt lat="44.17271" lon="5.28412">
        <ele>1815.106445</ele>
        <time>2009-06-14T15:52:52Z</time>
      </trkpt>
      <trkpt lat="44.17285" lon="5.28409">
        <ele>1816.54834</ele>
        <time>2009-06-14T15:52:59Z</time>
      </trkpt>
      <trkpt lat="44.17304" lon="5.28406">
        <ele>1819.432373</ele>
        <time>2009-06-14T15:53:09Z</time>
      </trkpt>
      <trkpt lat="44.17323" lon="5.28402">
        <ele>1821.835693</ele>
        <time>2009-06-14T15:53:19Z</time>
      </trkpt>
      <trkpt lat="44.17338" lon="5.28401">
        <ele>1823.277832</ele>
        <time>2009-06-14T15:53:27Z</time>
      </trkpt>
      <trkpt lat="44.17358" lon="5.28397">
        <ele>1825.200195</ele>
        <time>2009-06-14T15:53:37Z</time>
      </trkpt>
      <trkpt lat="44.17375" lon="5.28393">
        <ele>1826.642334</ele>
        <time>2009-06-14T15:53:46Z</time>
      </trkpt>
      <trkpt lat="44.17391" lon="5.28389">
        <ele>1828.564941</ele>
        <time>2009-06-14T15:53:54Z</time>
      </trkpt>
      <trkpt lat="44.174" lon="5.28389">
        <ele>1829.04541</ele>
        <time>2009-06-14T15:53:59Z</time>
      </trkpt>
      <trkpt lat="44.17401" lon="5.28395">
        <ele>1829.526123</ele>
        <time>2009-06-14T15:54:03Z</time>
      </trkpt>
      <trkpt lat="44.17398" lon="5.28398">
        <ele>1830.006836</ele>
        <time>2009-06-14T15:54:06Z</time>
      </trkpt>
      <trkpt lat="44.17391" lon="5.28405">
        <ele>1830.487549</ele>
        <time>2009-06-14T15:54:12Z</time>
      </trkpt>
      <trkpt lat="44.17393" lon="5.28407">
        <ele>1830.487549</ele>
        <time>2009-06-14T15:54:16Z</time>
      </trkpt>
      <trkpt lat="44.17402" lon="5.28395">
        <ele>1830.006836</ele>
        <time>2009-06-14T15:54:24Z</time>
      </trkpt>
      <trkpt lat="44.17399" lon="5.28392">
        <ele>1829.526123</ele>
        <time>2009-06-14T15:54:29Z</time>
      </trkpt>
      <trkpt lat="44.17396" lon="5.28396">
        <ele>1829.04541</ele>
        <time>2009-06-14T15:54:31Z</time>
      </trkpt>
      <trkpt lat="44.17385" lon="5.28412">
        <ele>1830.006836</ele>
        <time>2009-06-14T15:54:41Z</time>
      </trkpt>
      <trkpt lat="44.17382" lon="5.28414">
        <ele>1830.487549</ele>
        <time>2009-06-14T15:54:43Z</time>
      </trkpt>
      <trkpt lat="44.17383" lon="5.28418">
        <ele>1830.968262</ele>
        <time>2009-06-14T15:54:48Z</time>
      </trkpt>
      <trkpt lat="44.17384" lon="5.28417">
        <ele>1830.968262</ele>
        <time>2009-06-14T15:54:49Z</time>
      </trkpt>
      <trkpt lat="44.17397" lon="5.284">
        <ele>1829.526123</ele>
        <time>2009-06-14T15:54:55Z</time>
      </trkpt>
      <trkpt lat="44.17411" lon="5.28385">
        <ele>1830.006836</ele>
        <time>2009-06-14T15:55:00Z</time>
      </trkpt>
      <trkpt lat="44.17423" lon="5.28372">
        <ele>1831.929443</ele>
        <time>2009-06-14T15:55:06Z</time>
      </trkpt>
      <trkpt lat="44.17428" lon="5.28352">
        <ele>1833.852051</ele>
        <time>2009-06-14T15:55:12Z</time>
      </trkpt>
      <trkpt lat="44.17427" lon="5.28331">
        <ele>1836.255615</ele>
        <time>2009-06-14T15:55:19Z</time>
      </trkpt>
      <trkpt lat="44.17423" lon="5.28303">
        <ele>1838.658936</ele>
        <time>2009-06-14T15:55:28Z</time>
      </trkpt>
      <trkpt lat="44.17418" lon="5.28276">
        <ele>1841.062012</ele>
        <time>2009-06-14T15:55:37Z</time>
      </trkpt>
      <trkpt lat="44.17413" lon="5.28251">
        <ele>1843.946045</ele>
        <time>2009-06-14T15:55:46Z</time>
      </trkpt>
      <trkpt lat="44.17408" lon="5.28225">
        <ele>1846.829834</ele>
        <time>2009-06-14T15:55:56Z</time>
      </trkpt>
      <trkpt lat="44.17404" lon="5.28202">
        <ele>1849.233154</ele>
        <time>2009-06-14T15:56:05Z</time>
      </trkpt>
      <trkpt lat="44.17399" lon="5.28176">
        <ele>1851.636475</ele>
        <time>2009-06-14T15:56:15Z</time>
      </trkpt>
      <trkpt lat="44.17394" lon="5.28153">
        <ele>1854.040039</ele>
        <time>2009-06-14T15:56:24Z</time>
      </trkpt>
      <trkpt lat="44.17388" lon="5.28126">
        <ele>1856.443115</ele>
        <time>2009-06-14T15:56:34Z</time>
      </trkpt>
      <trkpt lat="44.17384" lon="5.28104">
        <ele>1858.365723</ele>
        <time>2009-06-14T15:56:42Z</time>
      </trkpt>
      <trkpt lat="44.17377" lon="5.28077">
        <ele>1860.28833</ele>
        <time>2009-06-14T15:56:52Z</time>
      </trkpt>
      <trkpt lat="44.17369" lon="5.28052">
        <ele>1862.69165</ele>
        <time>2009-06-14T15:57:02Z</time>
      </trkpt>
      <trkpt lat="44.17361" lon="5.28035">
        <ele>1864.133545</ele>
        <time>2009-06-14T15:57:09Z</time>
      </trkpt>
      <trkpt lat="44.1735" lon="5.28013">
        <ele>1866.056152</ele>
        <time>2009-06-14T15:57:19Z</time>
      </trkpt>
      <trkpt lat="44.1734" lon="5.27993">
        <ele>1868.459717</ele>
        <time>2009-06-14T15:57:28Z</time>
      </trkpt>
      <trkpt lat="44.17331" lon="5.27976">
        <ele>1868.94043</ele>
        <time>2009-06-14T15:57:36Z</time>
      </trkpt>
      <trkpt lat="44.17321" lon="5.27957">
        <ele>1869.901611</ele>
        <time>2009-06-14T15:57:45Z</time>
      </trkpt>
      <trkpt lat="44.17313" lon="5.27942">
        <ele>1870.863037</ele>
        <time>2009-06-14T15:57:52Z</time>
      </trkpt>
      <trkpt lat="44.17304" lon="5.27922">
        <ele>1872.304932</ele>
        <time>2009-06-14T15:58:01Z</time>
      </trkpt>
      <trkpt lat="44.173" lon="5.27902">
        <ele>1873.266357</ele>
        <time>2009-06-14T15:58:09Z</time>
      </trkpt>
      <trkpt lat="44.17296" lon="5.27878">
        <ele>1873.746826</ele>
        <time>2009-06-14T15:58:18Z</time>
      </trkpt>
      <trkpt lat="44.17298" lon="5.27853">
        <ele>1875.669434</ele>
        <time>2009-06-14T15:58:27Z</time>
      </trkpt>
      <trkpt lat="44.173" lon="5.27829">
        <ele>1877.592041</ele>
        <time>2009-06-14T15:58:35Z</time>
      </trkpt>
      <trkpt lat="44.17304" lon="5.27805">
        <ele>1879.514648</ele>
        <time>2009-06-14T15:58:43Z</time>
      </trkpt>
      <trkpt lat="44.17315" lon="5.27776">
        <ele>1881.917969</ele>
        <time>2009-06-14T15:58:54Z</time>
      </trkpt>
      <trkpt lat="44.17326" lon="5.27752">
        <ele>1884.321533</ele>
        <time>2009-06-14T15:59:03Z</time>
      </trkpt>
      <trkpt lat="44.17335" lon="5.27727">
        <ele>1886.244141</ele>
        <time>2009-06-14T15:59:12Z</time>
      </trkpt>
      <trkpt lat="44.17339" lon="5.2771">
        <ele>1887.205322</ele>
        <time>2009-06-14T15:59:18Z</time>
      </trkpt>
      <trkpt lat="44.17341" lon="5.27708">
        <ele>1887.686035</ele>
        <time>2009-06-14T15:59:19Z</time>
      </trkpt>
      <trkpt lat="44.1735" lon="5.27711">
        <ele>1889.12793</ele>
        <time>2009-06-14T15:59:24Z</time>
      </trkpt>
      <trkpt lat="44.17351" lon="5.27726">
        <ele>1890.569824</ele>
        <time>2009-06-14T15:59:29Z</time>
      </trkpt>
      <trkpt lat="44.17352" lon="5.27739">
        <ele>1892.492676</ele>
        <time>2009-06-14T15:59:33Z</time>
      </trkpt>
      <trkpt lat="44.17354" lon="5.27748">
        <ele>1893.93457</ele>
        <time>2009-06-14T15:59:36Z</time>
      </trkpt>
      <trkpt lat="44.17353" lon="5.27772">
        <ele>1896.818359</ele>
        <time>2009-06-14T15:59:44Z</time>
      </trkpt>
      <trkpt lat="44.1735" lon="5.27782">
        <ele>1896.818359</ele>
        <time>2009-06-14T15:59:47Z</time>
      </trkpt>
      <trkpt lat="44.17352" lon="5.27809">
        <ele>1898.740967</ele>
        <time>2009-06-14T15:59:55Z</time>
      </trkpt>
      <trkpt lat="44.17352" lon="5.2782">
        <ele>1899.22168</ele>
        <time>2009-06-14T16:00:01Z</time>
      </trkpt>
      <trkpt lat="44.17354" lon="5.27822">
        <ele>1898.260254</ele>
        <time>2009-06-14T16:00:13Z</time>
      </trkpt>
      <trkpt lat="44.17356" lon="5.27827">
        <ele>1899.702393</ele>
        <time>2009-06-14T16:00:22Z</time>
      </trkpt>
      <trkpt lat="44.17356" lon="5.27827">
        <ele>1901.625244</ele>
        <time>2009-06-14T16:00:31Z</time>
      </trkpt>
      <trkpt lat="44.17356" lon="5.27826">
        <ele>1901.625244</ele>
        <time>2009-06-14T16:00:40Z</time>
      </trkpt>
      <trkpt lat="44.17358" lon="5.27824">
        <ele>1899.702393</ele>
        <time>2009-06-14T16:00:52Z</time>
      </trkpt>
      <trkpt lat="44.17355" lon="5.27827">
        <ele>1906.912354</ele>
        <time>2009-06-14T16:01:12Z</time>
      </trkpt>
      <trkpt lat="44.17348" lon="5.27831">
        <ele>1915.083496</ele>
        <time>2009-06-14T16:01:21Z</time>
      </trkpt>
      <trkpt lat="44.1736" lon="5.27825">
        <ele>1897.299072</ele>
        <time>2009-06-14T16:01:45Z</time>
      </trkpt>
      <trkpt lat="44.17364" lon="5.27825">
        <ele>1905.470459</ele>
        <time>2009-06-14T16:02:57Z</time>
      </trkpt>
      <trkpt lat="44.17359" lon="5.27824">
        <ele>1902.586426</ele>
        <time>2009-06-14T16:04:12Z</time>
      </trkpt>
      <trkpt lat="44.17358" lon="5.27826">
        <ele>1903.067139</ele>
        <time>2009-06-14T16:04:17Z</time>
      </trkpt>
      <trkpt lat="44.17361" lon="5.27824">
        <ele>1898.260254</ele>
        <time>2009-06-14T16:04:32Z</time>
      </trkpt>
      <trkpt lat="44.17364" lon="5.27822">
        <ele>1895.376465</ele>
        <time>2009-06-14T16:05:13Z</time>
      </trkpt>
      <trkpt lat="44.17361" lon="5.27822">
        <ele>1902.105713</ele>
        <time>2009-06-14T16:05:40Z</time>
      </trkpt>
      <trkpt lat="44.1736" lon="5.27822">
        <ele>1904.028564</ele>
        <time>2009-06-14T16:05:56Z</time>
      </trkpt>
      <trkpt lat="44.17359" lon="5.27822">
        <ele>1905.950928</ele>
        <time>2009-06-14T16:06:03Z</time>
      </trkpt>
      <trkpt lat="44.17357" lon="5.27825">
        <ele>1905.470459</ele>
        <time>2009-06-14T16:06:41Z</time>
      </trkpt>
      <trkpt lat="44.17363" lon="5.27827">
        <ele>1898.740967</ele>
        <time>2009-06-14T16:06:53Z</time>
      </trkpt>
      <trkpt lat="44.17362" lon="5.27824">
        <ele>1899.702393</ele>
        <time>2009-06-14T16:07:15Z</time>
      </trkpt>
      <trkpt lat="44.17364" lon="5.27824">
        <ele>1896.337891</ele>
        <time>2009-06-14T16:07:19Z</time>
      </trkpt>
      <trkpt lat="44.17361" lon="5.27821">
        <ele>1899.702393</ele>
        <time>2009-06-14T16:07:28Z</time>
      </trkpt>
      <trkpt lat="44.17357" lon="5.27828">
        <ele>1904.989746</ele>
        <time>2009-06-14T16:07:37Z</time>
      </trkpt>
      <trkpt lat="44.17353" lon="5.2783">
        <ele>1908.834961</ele>
        <time>2009-06-14T16:07:46Z</time>
      </trkpt>
      <trkpt lat="44.17354" lon="5.27831">
        <ele>1904.028564</ele>
        <time>2009-06-14T16:07:53Z</time>
      </trkpt>
      <trkpt lat="44.17352" lon="5.27832">
        <ele>1902.586426</ele>
        <time>2009-06-14T16:07:55Z</time>
      </trkpt>
      <trkpt lat="44.17351" lon="5.27843">
        <ele>1901.144531</ele>
        <time>2009-06-14T16:08:01Z</time>
      </trkpt>
      <trkpt lat="44.17353" lon="5.27848">
        <ele>1899.22168</ele>
        <time>2009-06-14T16:08:06Z</time>
      </trkpt>
      <trkpt lat="44.17353" lon="5.2785">
        <ele>1898.740967</ele>
        <time>2009-06-14T16:08:08Z</time>
      </trkpt>
      <trkpt lat="44.17351" lon="5.27858">
        <ele>1898.740967</ele>
        <time>2009-06-14T16:08:14Z</time>
      </trkpt>
      <trkpt lat="44.17353" lon="5.27873">
        <ele>1898.260254</ele>
        <time>2009-06-14T16:08:21Z</time>
      </trkpt>
      <trkpt lat="44.17356" lon="5.27881">
        <ele>1897.299072</ele>
        <time>2009-06-14T16:08:28Z</time>
      </trkpt>
      <trkpt lat="44.17359" lon="5.27889">
        <ele>1896.337891</ele>
        <time>2009-06-14T16:08:36Z</time>
      </trkpt>
      <trkpt lat="44.17365" lon="5.27901">
        <ele>1895.376465</ele>
        <time>2009-06-14T16:08:40Z</time>
      </trkpt>
      <trkpt lat="44.17382" lon="5.27921">
        <ele>1892.492676</ele>
        <time>2009-06-14T16:08:47Z</time>
      </trkpt>
      <trkpt lat="44.17403" lon="5.27941">
        <ele>1889.608643</ele>
        <time>2009-06-14T16:08:53Z</time>
      </trkpt>
      <trkpt lat="44.17424" lon="5.27961">
        <ele>1887.686035</ele>
        <time>2009-06-14T16:09:00Z</time>
      </trkpt>
      <trkpt lat="44.17434" lon="5.2797">
        <ele>1886.724609</ele>
        <time>2009-06-14T16:09:05Z</time>
      </trkpt>
      <trkpt lat="44.17438" lon="5.27976">
        <ele>1886.244141</ele>
        <time>2009-06-14T16:09:10Z</time>
      </trkpt>
      <trkpt lat="44.17439" lon="5.27975">
        <ele>1887.205322</ele>
        <time>2009-06-14T16:09:24Z</time>
      </trkpt>
      <trkpt lat="44.17439" lon="5.27976">
        <ele>1888.647461</ele>
        <time>2009-06-14T16:09:39Z</time>
      </trkpt>
      <trkpt lat="44.17438" lon="5.27975">
        <ele>1890.089355</ele>
        <time>2009-06-14T16:09:52Z</time>
      </trkpt>
      <trkpt lat="44.17436" lon="5.27972">
        <ele>1889.608643</ele>
        <time>2009-06-14T16:10:01Z</time>
      </trkpt>
      <trkpt lat="44.17433" lon="5.27972">
        <ele>1890.569824</ele>
        <time>2009-06-14T16:10:09Z</time>
      </trkpt>
      <trkpt lat="44.17429" lon="5.27973">
        <ele>1893.93457</ele>
        <time>2009-06-14T16:10:17Z</time>
      </trkpt>
      <trkpt lat="44.17427" lon="5.27973">
        <ele>1895.376465</ele>
        <time>2009-06-14T16:10:28Z</time>
      </trkpt>
      <trkpt lat="44.17427" lon="5.27973">
        <ele>1893.93457</ele>
        <time>2009-06-14T16:10:43Z</time>
      </trkpt>
      <trkpt lat="44.17428" lon="5.27973">
        <ele>1893.93457</ele>
        <time>2009-06-14T16:10:53Z</time>
      </trkpt>
      <trkpt lat="44.17427" lon="5.27971">
        <ele>1890.569824</ele>
        <time>2009-06-14T16:11:03Z</time>
      </trkpt>
      <trkpt lat="44.17428" lon="5.27969">
        <ele>1888.166748</ele>
        <time>2009-06-14T16:11:10Z</time>
      </trkpt>
      <trkpt lat="44.17443" lon="5.27982">
        <ele>1885.282715</ele>
        <time>2009-06-14T16:11:17Z</time>
      </trkpt>
      <trkpt lat="44.17454" lon="5.28002">
        <ele>1883.359863</ele>
        <time>2009-06-14T16:11:21Z</time>
      </trkpt>
      <trkpt lat="44.17471" lon="5.28035">
        <ele>1881.437256</ele>
        <time>2009-06-14T16:11:26Z</time>
      </trkpt>
      <trkpt lat="44.17474" lon="5.28041">
        <ele>1881.437256</ele>
        <time>2009-06-14T16:11:27Z</time>
      </trkpt>
      <trkpt lat="44.17492" lon="5.28046">
        <ele>1880.476074</ele>
        <time>2009-06-14T16:11:31Z</time>
      </trkpt>
      <trkpt lat="44.17503" lon="5.2803">
        <ele>1878.553467</ele>
        <time>2009-06-14T16:11:34Z</time>
      </trkpt>
      <trkpt lat="44.17505" lon="5.28021">
        <ele>1877.592041</ele>
        <time>2009-06-14T16:11:35Z</time>
      </trkpt>
      <trkpt lat="44.17522" lon="5.27943">
        <ele>1872.304932</ele>
        <time>2009-06-14T16:11:43Z</time>
      </trkpt>
      <trkpt lat="44.17525" lon="5.2789">
        <ele>1869.901611</ele>
        <time>2009-06-14T16:11:48Z</time>
      </trkpt>
      <trkpt lat="44.17517" lon="5.27827">
        <ele>1866.536865</ele>
        <time>2009-06-14T16:11:54Z</time>
      </trkpt>
      <trkpt lat="44.17508" lon="5.27797">
        <ele>1864.133545</ele>
        <time>2009-06-14T16:11:57Z</time>
      </trkpt>
      <trkpt lat="44.17477" lon="5.27741">
        <ele>1858.846436</ele>
        <time>2009-06-14T16:12:03Z</time>
      </trkpt>
      <trkpt lat="44.17437" lon="5.277">
        <ele>1855.001221</ele>
        <time>2009-06-14T16:12:09Z</time>
      </trkpt>
      <trkpt lat="44.17408" lon="5.27659">
        <ele>1850.675049</ele>
        <time>2009-06-14T16:12:14Z</time>
      </trkpt>
      <trkpt lat="44.17385" lon="5.27608">
        <ele>1846.349365</ele>
        <time>2009-06-14T16:12:19Z</time>
      </trkpt>
      <trkpt lat="44.17356" lon="5.27533">
        <ele>1840.581299</ele>
        <time>2009-06-14T16:12:26Z</time>
      </trkpt>
      <trkpt lat="44.17348" lon="5.27485">
        <ele>1836.736084</ele>
        <time>2009-06-14T16:12:30Z</time>
      </trkpt>
      <trkpt lat="44.17349" lon="5.27385">
        <ele>1830.006836</ele>
        <time>2009-06-14T16:12:37Z</time>
      </trkpt>
      <trkpt lat="44.17345" lon="5.27307">
        <ele>1826.161621</ele>
        <time>2009-06-14T16:12:43Z</time>
      </trkpt>
      <trkpt lat="44.17343" lon="5.27257">
        <ele>1823.758301</ele>
        <time>2009-06-14T16:12:48Z</time>
      </trkpt>
      <trkpt lat="44.17351" lon="5.27236">
        <ele>1822.316406</ele>
        <time>2009-06-14T16:12:51Z</time>
      </trkpt>
      <trkpt lat="44.1737" lon="5.2724">
        <ele>1820.393799</ele>
        <time>2009-06-14T16:12:54Z</time>
      </trkpt>
      <trkpt lat="44.17379" lon="5.27255">
        <ele>1819.432373</ele>
        <time>2009-06-14T16:12:56Z</time>
      </trkpt>
      <trkpt lat="44.1738" lon="5.27276">
        <ele>1818.470947</ele>
        <time>2009-06-14T16:12:58Z</time>
      </trkpt>
      <trkpt lat="44.17377" lon="5.27356">
        <ele>1815.106445</ele>
        <time>2009-06-14T16:13:05Z</time>
      </trkpt>
      <trkpt lat="44.17378" lon="5.27434">
        <ele>1813.183838</ele>
        <time>2009-06-14T16:13:11Z</time>
      </trkpt>
      <trkpt lat="44.17379" lon="5.27458">
        <ele>1812.222412</ele>
        <time>2009-06-14T16:13:13Z</time>
      </trkpt>
      <trkpt lat="44.17393" lon="5.27503">
        <ele>1809.338623</ele>
        <time>2009-06-14T16:13:17Z</time>
      </trkpt>
      <trkpt lat="44.17406" lon="5.27523">
        <ele>1807.896729</ele>
        <time>2009-06-14T16:13:19Z</time>
      </trkpt>
      <trkpt lat="44.17451" lon="5.27581">
        <ele>1801.647949</ele>
        <time>2009-06-14T16:13:25Z</time>
      </trkpt>
      <trkpt lat="44.17459" lon="5.27591">
        <ele>1800.206055</ele>
        <time>2009-06-14T16:13:26Z</time>
      </trkpt>
      <trkpt lat="44.17494" lon="5.27614">
        <ele>1794.437988</ele>
        <time>2009-06-14T16:13:30Z</time>
      </trkpt>
      <trkpt lat="44.17504" lon="5.27617">
        <ele>1792.996094</ele>
        <time>2009-06-14T16:13:31Z</time>
      </trkpt>
      <trkpt lat="44.17576" lon="5.27638">
        <ele>1782.9021</ele>
        <time>2009-06-14T16:13:38Z</time>
      </trkpt>
      <trkpt lat="44.17632" lon="5.27674">
        <ele>1776.653809</ele>
        <time>2009-06-14T16:13:44Z</time>
      </trkpt>
      <trkpt lat="44.17648" lon="5.2769">
        <ele>1775.21167</ele>
        <time>2009-06-14T16:13:46Z</time>
      </trkpt>
      <trkpt lat="44.17679" lon="5.27747">
        <ele>1770.885742</ele>
        <time>2009-06-14T16:13:51Z</time>
      </trkpt>
      <trkpt lat="44.17712" lon="5.27831">
        <ele>1764.156494</ele>
        <time>2009-06-14T16:13:58Z</time>
      </trkpt>
      <trkpt lat="44.17729" lon="5.27895">
        <ele>1758.869385</ele>
        <time>2009-06-14T16:14:03Z</time>
      </trkpt>
      <trkpt lat="44.17739" lon="5.27957">
        <ele>1754.062744</ele>
        <time>2009-06-14T16:14:08Z</time>
      </trkpt>
      <trkpt lat="44.17741" lon="5.27978">
        <ele>1752.620605</ele>
        <time>2009-06-14T16:14:10Z</time>
      </trkpt>
      <trkpt lat="44.17737" lon="5.28017">
        <ele>1750.697998</ele>
        <time>2009-06-14T16:14:14Z</time>
      </trkpt>
      <trkpt lat="44.17741" lon="5.28043">
        <ele>1748.775391</ele>
        <time>2009-06-14T16:14:18Z</time>
      </trkpt>
      <trkpt lat="44.17753" lon="5.28041">
        <ele>1746.372314</ele>
        <time>2009-06-14T16:14:21Z</time>
      </trkpt>
      <trkpt lat="44.17758" lon="5.28017">
        <ele>1743.007568</ele>
        <time>2009-06-14T16:14:24Z</time>
      </trkpt>
      <trkpt lat="44.17764" lon="5.2793">
        <ele>1733.394287</ele>
        <time>2009-06-14T16:14:31Z</time>
      </trkpt>
      <trkpt lat="44.17767" lon="5.27849">
        <ele>1725.703857</ele>
        <time>2009-06-14T16:14:37Z</time>
      </trkpt>
      <trkpt lat="44.17771" lon="5.27747">
        <ele>1716.571289</ele>
        <time>2009-06-14T16:14:44Z</time>
      </trkpt>
      <trkpt lat="44.17767" lon="5.27685">
        <ele>1711.764893</ele>
        <time>2009-06-14T16:14:48Z</time>
      </trkpt>
      <trkpt lat="44.17753" lon="5.27612">
        <ele>1705.516113</ele>
        <time>2009-06-14T16:14:53Z</time>
      </trkpt>
      <trkpt lat="44.1773" lon="5.27541">
        <ele>1701.670898</ele>
        <time>2009-06-14T16:14:58Z</time>
      </trkpt>
      <trkpt lat="44.177" lon="5.27491">
        <ele>1697.825684</ele>
        <time>2009-06-14T16:15:02Z</time>
      </trkpt>
      <trkpt lat="44.17684" lon="5.27472">
        <ele>1696.383789</ele>
        <time>2009-06-14T16:15:04Z</time>
      </trkpt>
      <trkpt lat="44.17647" lon="5.27449">
        <ele>1693.499756</ele>
        <time>2009-06-14T16:15:08Z</time>
      </trkpt>
      <trkpt lat="44.17627" lon="5.27442">
        <ele>1692.538574</ele>
        <time>2009-06-14T16:15:10Z</time>
      </trkpt>
      <trkpt lat="44.17604" lon="5.27415">
        <ele>1688.212402</ele>
        <time>2009-06-14T16:15:14Z</time>
      </trkpt>
      <trkpt lat="44.17606" lon="5.27392">
        <ele>1687.250977</ele>
        <time>2009-06-14T16:15:16Z</time>
      </trkpt>
      <trkpt lat="44.17612" lon="5.2738">
        <ele>1685.809082</ele>
        <time>2009-06-14T16:15:17Z</time>
      </trkpt>
      <trkpt lat="44.17644" lon="5.27317">
        <ele>1681.483154</ele>
        <time>2009-06-14T16:15:22Z</time>
      </trkpt>
      <trkpt lat="44.17672" lon="5.27284">
        <ele>1678.599365</ele>
        <time>2009-06-14T16:15:25Z</time>
      </trkpt>
      <trkpt lat="44.17707" lon="5.27257">
        <ele>1674.753906</ele>
        <time>2009-06-14T16:15:29Z</time>
      </trkpt>
      <trkpt lat="44.1772" lon="5.27221">
        <ele>1670.908691</ele>
        <time>2009-06-14T16:15:32Z</time>
      </trkpt>
      <trkpt lat="44.17722" lon="5.27206">
        <ele>1669.947266</ele>
        <time>2009-06-14T16:15:33Z</time>
      </trkpt>
      <trkpt lat="44.17737" lon="5.27107">
        <ele>1665.140869</ele>
        <time>2009-06-14T16:15:39Z</time>
      </trkpt>
      <trkpt lat="44.17752" lon="5.2702">
        <ele>1662.256836</ele>
        <time>2009-06-14T16:15:44Z</time>
      </trkpt>
      <trkpt lat="44.17761" lon="5.26909">
        <ele>1656.008057</ele>
        <time>2009-06-14T16:15:50Z</time>
      </trkpt>
      <trkpt lat="44.17762" lon="5.26821">
        <ele>1649.279053</ele>
        <time>2009-06-14T16:15:55Z</time>
      </trkpt>
      <trkpt lat="44.17762" lon="5.26715">
        <ele>1642.069092</ele>
        <time>2009-06-14T16:16:01Z</time>
      </trkpt>
      <trkpt lat="44.17754" lon="5.26627">
        <ele>1636.30127</ele>
        <time>2009-06-14T16:16:06Z</time>
      </trkpt>
      <trkpt lat="44.17752" lon="5.26609">
        <ele>1635.339844</ele>
        <time>2009-06-14T16:16:07Z</time>
      </trkpt>
      <trkpt lat="44.17762" lon="5.26563">
        <ele>1633.417236</ele>
        <time>2009-06-14T16:16:10Z</time>
      </trkpt>
      <trkpt lat="44.17774" lon="5.26495">
        <ele>1627.64917</ele>
        <time>2009-06-14T16:16:14Z</time>
      </trkpt>
      <trkpt lat="44.17778" lon="5.26402">
        <ele>1619.478271</ele>
        <time>2009-06-14T16:16:19Z</time>
      </trkpt>
      <trkpt lat="44.17775" lon="5.26262">
        <ele>1609.384277</ele>
        <time>2009-06-14T16:16:27Z</time>
      </trkpt>
      <trkpt lat="44.17774" lon="5.26209">
        <ele>1606.019531</ele>
        <time>2009-06-14T16:16:30Z</time>
      </trkpt>
      <trkpt lat="44.1778" lon="5.261">
        <ele>1597.36792</ele>
        <time>2009-06-14T16:16:36Z</time>
      </trkpt>
      <trkpt lat="44.1778" lon="5.26006">
        <ele>1591.599854</ele>
        <time>2009-06-14T16:16:41Z</time>
      </trkpt>
      <trkpt lat="44.17773" lon="5.25943">
        <ele>1588.235352</ele>
        <time>2009-06-14T16:16:45Z</time>
      </trkpt>
      <trkpt lat="44.17766" lon="5.25885">
        <ele>1584.87085</ele>
        <time>2009-06-14T16:16:49Z</time>
      </trkpt>
      <trkpt lat="44.17781" lon="5.25843">
        <ele>1582.467529</ele>
        <time>2009-06-14T16:16:52Z</time>
      </trkpt>
      <trkpt lat="44.17788" lon="5.25811">
        <ele>1579.583252</ele>
        <time>2009-06-14T16:16:54Z</time>
      </trkpt>
      <trkpt lat="44.17796" lon="5.25725">
        <ele>1576.699463</ele>
        <time>2009-06-14T16:16:59Z</time>
      </trkpt>
      <trkpt lat="44.17792" lon="5.25634">
        <ele>1573.334961</ele>
        <time>2009-06-14T16:17:04Z</time>
      </trkpt>
      <trkpt lat="44.17789" lon="5.25617">
        <ele>1573.334961</ele>
        <time>2009-06-14T16:17:05Z</time>
      </trkpt>
      <trkpt lat="44.17768" lon="5.25558">
        <ele>1570.450928</ele>
        <time>2009-06-14T16:17:09Z</time>
      </trkpt>
      <trkpt lat="44.17765" lon="5.25501">
        <ele>1564.202393</ele>
        <time>2009-06-14T16:17:13Z</time>
      </trkpt>
      <trkpt lat="44.17775" lon="5.25453">
        <ele>1560.356934</ele>
        <time>2009-06-14T16:17:16Z</time>
      </trkpt>
      <trkpt lat="44.17776" lon="5.2542">
        <ele>1560.837646</ele>
        <time>2009-06-14T16:17:18Z</time>
      </trkpt>
      <trkpt lat="44.17771" lon="5.25304">
        <ele>1557.953857</ele>
        <time>2009-06-14T16:17:25Z</time>
      </trkpt>
      <trkpt lat="44.17762" lon="5.25178">
        <ele>1554.108643</ele>
        <time>2009-06-14T16:17:33Z</time>
      </trkpt>
      <trkpt lat="44.17755" lon="5.25068">
        <ele>1550.263428</ele>
        <time>2009-06-14T16:17:40Z</time>
      </trkpt>
      <trkpt lat="44.17745" lon="5.2499">
        <ele>1544.97583</ele>
        <time>2009-06-14T16:17:45Z</time>
      </trkpt>
      <trkpt lat="44.17723" lon="5.24878">
        <ele>1537.766113</ele>
        <time>2009-06-14T16:17:52Z</time>
      </trkpt>
      <trkpt lat="44.17695" lon="5.24771">
        <ele>1529.114014</ele>
        <time>2009-06-14T16:17:59Z</time>
      </trkpt>
      <trkpt lat="44.17685" lon="5.24731">
        <ele>1526.710938</ele>
        <time>2009-06-14T16:18:02Z</time>
      </trkpt>
      <trkpt lat="44.17663" lon="5.24694">
        <ele>1522.38501</ele>
        <time>2009-06-14T16:18:06Z</time>
      </trkpt>
      <trkpt lat="44.17663" lon="5.24669">
        <ele>1518.059082</ele>
        <time>2009-06-14T16:18:10Z</time>
      </trkpt>
      <trkpt lat="44.17675" lon="5.24677">
        <ele>1517.0979</ele>
        <time>2009-06-14T16:18:12Z</time>
      </trkpt>
      <trkpt lat="44.17683" lon="5.24696">
        <ele>1517.0979</ele>
        <time>2009-06-14T16:18:14Z</time>
      </trkpt>
      <trkpt lat="44.177" lon="5.24725">
        <ele>1515.655762</ele>
        <time>2009-06-14T16:18:17Z</time>
      </trkpt>
      <trkpt lat="44.1774" lon="5.2478">
        <ele>1513.73291</ele>
        <time>2009-06-14T16:18:22Z</time>
      </trkpt>
      <trkpt lat="44.17788" lon="5.24856">
        <ele>1508.445801</ele>
        <time>2009-06-14T16:18:28Z</time>
      </trkpt>
      <trkpt lat="44.17831" lon="5.24923">
        <ele>1503.158691</ele>
        <time>2009-06-14T16:18:33Z</time>
      </trkpt>
      <trkpt lat="44.17867" lon="5.24996">
        <ele>1496.429443</ele>
        <time>2009-06-14T16:18:38Z</time>
      </trkpt>
      <trkpt lat="44.17892" lon="5.25051">
        <ele>1491.622803</ele>
        <time>2009-06-14T16:18:42Z</time>
      </trkpt>
      <trkpt lat="44.17897" lon="5.25065">
        <ele>1489.700195</ele>
        <time>2009-06-14T16:18:43Z</time>
      </trkpt>
      <trkpt lat="44.17906" lon="5.25126">
        <ele>1482.490234</ele>
        <time>2009-06-14T16:18:47Z</time>
      </trkpt>
      <trkpt lat="44.17898" lon="5.25173">
        <ele>1477.203125</ele>
        <time>2009-06-14T16:18:50Z</time>
      </trkpt>
      <trkpt lat="44.17894" lon="5.25213">
        <ele>1473.838379</ele>
        <time>2009-06-14T16:18:53Z</time>
      </trkpt>
      <trkpt lat="44.17904" lon="5.2524">
        <ele>1471.435059</ele>
        <time>2009-06-14T16:18:55Z</time>
      </trkpt>
      <trkpt lat="44.17927" lon="5.25341">
        <ele>1461.341309</ele>
        <time>2009-06-14T16:19:01Z</time>
      </trkpt>
      <trkpt lat="44.17948" lon="5.2541">
        <ele>1455.092773</ele>
        <time>2009-06-14T16:19:05Z</time>
      </trkpt>
      <trkpt lat="44.17965" lon="5.25468">
        <ele>1449.324707</ele>
        <time>2009-06-14T16:19:09Z</time>
      </trkpt>
      <trkpt lat="44.17974" lon="5.25495">
        <ele>1446.440918</ele>
        <time>2009-06-14T16:19:11Z</time>
      </trkpt>
      <trkpt lat="44.18006" lon="5.25529">
        <ele>1442.11499</ele>
        <time>2009-06-14T16:19:15Z</time>
      </trkpt>
      <trkpt lat="44.18058" lon="5.25566">
        <ele>1432.982178</ele>
        <time>2009-06-14T16:19:20Z</time>
      </trkpt>
      <trkpt lat="44.18084" lon="5.25611">
        <ele>1428.656494</ele>
        <time>2009-06-14T16:19:24Z</time>
      </trkpt>
      <trkpt lat="44.18088" lon="5.25652">
        <ele>1429.617676</ele>
        <time>2009-06-14T16:19:27Z</time>
      </trkpt>
      <trkpt lat="44.18086" lon="5.25702">
        <ele>1432.020996</ele>
        <time>2009-06-14T16:19:32Z</time>
      </trkpt>
      <trkpt lat="44.18085" lon="5.25748">
        <ele>1433.462891</ele>
        <time>2009-06-14T16:19:38Z</time>
      </trkpt>
      <trkpt lat="44.18085" lon="5.25799">
        <ele>1432.020996</ele>
        <time>2009-06-14T16:19:45Z</time>
      </trkpt>
      <trkpt lat="44.18087" lon="5.25833">
        <ele>1432.020996</ele>
        <time>2009-06-14T16:19:50Z</time>
      </trkpt>
      <trkpt lat="44.18095" lon="5.25852">
        <ele>1431.059814</ele>
        <time>2009-06-14T16:19:55Z</time>
      </trkpt>
      <trkpt lat="44.18108" lon="5.25854">
        <ele>1429.617676</ele>
        <time>2009-06-14T16:20:00Z</time>
      </trkpt>
      <trkpt lat="44.18112" lon="5.25836">
        <ele>1427.695068</ele>
        <time>2009-06-14T16:20:04Z</time>
      </trkpt>
      <trkpt lat="44.18112" lon="5.2583">
        <ele>1427.695068</ele>
        <time>2009-06-14T16:20:05Z</time>
      </trkpt>
      <trkpt lat="44.18111" lon="5.25772">
        <ele>1424.330566</ele>
        <time>2009-06-14T16:20:12Z</time>
      </trkpt>
      <trkpt lat="44.18109" lon="5.25687">
        <ele>1420.966064</ele>
        <time>2009-06-14T16:20:20Z</time>
      </trkpt>
      <trkpt lat="44.18107" lon="5.25592">
        <ele>1418.5625</ele>
        <time>2009-06-14T16:20:28Z</time>
      </trkpt>
      <trkpt lat="44.18105" lon="5.25563">
        <ele>1420.966064</ele>
        <time>2009-06-14T16:20:31Z</time>
      </trkpt>
      <trkpt lat="44.18108" lon="5.25535">
        <ele>1420.004639</ele>
        <time>2009-06-14T16:20:35Z</time>
      </trkpt>
      <trkpt lat="44.18109" lon="5.25515">
        <ele>1420.004639</ele>
        <time>2009-06-14T16:20:38Z</time>
      </trkpt>
      <trkpt lat="44.18105" lon="5.25509">
        <ele>1420.485352</ele>
        <time>2009-06-14T16:20:39Z</time>
      </trkpt>
      <trkpt lat="44.18094" lon="5.25495">
        <ele>1422.407959</ele>
        <time>2009-06-14T16:20:42Z</time>
      </trkpt>
      <trkpt lat="44.18062" lon="5.25478">
        <ele>1424.811279</ele>
        <time>2009-06-14T16:20:48Z</time>
      </trkpt>
      <trkpt lat="44.18041" lon="5.25471">
        <ele>1425.291748</ele>
        <time>2009-06-14T16:20:51Z</time>
      </trkpt>
      <trkpt lat="44.18012" lon="5.25442">
        <ele>1423.369385</ele>
        <time>2009-06-14T16:20:56Z</time>
      </trkpt>
      <trkpt lat="44.18007" lon="5.25424">
        <ele>1424.811279</ele>
        <time>2009-06-14T16:20:58Z</time>
      </trkpt>
      <trkpt lat="44.17985" lon="5.25336">
        <ele>1427.695068</ele>
        <time>2009-06-14T16:21:07Z</time>
      </trkpt>
      <trkpt lat="44.17981" lon="5.25278">
        <ele>1424.811279</ele>
        <time>2009-06-14T16:21:12Z</time>
      </trkpt>
      <trkpt lat="44.17983" lon="5.25229">
        <ele>1421.927246</ele>
        <time>2009-06-14T16:21:16Z</time>
      </trkpt>
      <trkpt lat="44.18003" lon="5.25185">
        <ele>1419.523926</ele>
        <time>2009-06-14T16:21:20Z</time>
      </trkpt>
      <trkpt lat="44.18034" lon="5.25136">
        <ele>1416.15918</ele>
        <time>2009-06-14T16:21:25Z</time>
      </trkpt>
      <trkpt lat="44.18037" lon="5.25109">
        <ele>1415.197998</ele>
        <time>2009-06-14T16:21:27Z</time>
      </trkpt>
      <trkpt lat="44.18046" lon="5.25012">
        <ele>1412.313965</ele>
        <time>2009-06-14T16:21:34Z</time>
      </trkpt>
      <trkpt lat="44.18052" lon="5.24941">
        <ele>1408.949463</ele>
        <time>2009-06-14T16:21:39Z</time>
      </trkpt>
      <trkpt lat="44.18046" lon="5.24881">
        <ele>1409.430176</ele>
        <time>2009-06-14T16:21:43Z</time>
      </trkpt>
      <trkpt lat="44.18029" lon="5.24809">
        <ele>1410.391357</ele>
        <time>2009-06-14T16:21:48Z</time>
      </trkpt>
      <trkpt lat="44.18001" lon="5.24744">
        <ele>1408.46875</ele>
        <time>2009-06-14T16:21:53Z</time>
      </trkpt>
      <trkpt lat="44.17964" lon="5.24678">
        <ele>1404.143066</ele>
        <time>2009-06-14T16:21:58Z</time>
      </trkpt>
      <trkpt lat="44.17919" lon="5.24615">
        <ele>1396.452393</ele>
        <time>2009-06-14T16:22:03Z</time>
      </trkpt>
      <trkpt lat="44.17873" lon="5.2457">
        <ele>1392.126465</ele>
        <time>2009-06-14T16:22:07Z</time>
      </trkpt>
      <trkpt lat="44.17838" lon="5.24509">
        <ele>1385.396973</ele>
        <time>2009-06-14T16:22:11Z</time>
      </trkpt>
      <trkpt lat="44.17838" lon="5.24471">
        <ele>1382.513184</ele>
        <time>2009-06-14T16:22:13Z</time>
      </trkpt>
      <trkpt lat="44.17828" lon="5.24384">
        <ele>1378.667969</ele>
        <time>2009-06-14T16:22:18Z</time>
      </trkpt>
      <trkpt lat="44.17806" lon="5.24306">
        <ele>1374.342041</ele>
        <time>2009-06-14T16:22:23Z</time>
      </trkpt>
      <trkpt lat="44.17777" lon="5.24232">
        <ele>1372.419434</ele>
        <time>2009-06-14T16:22:28Z</time>
      </trkpt>
      <trkpt lat="44.17737" lon="5.24166">
        <ele>1370.496582</ele>
        <time>2009-06-14T16:22:33Z</time>
      </trkpt>
      <trkpt lat="44.17698" lon="5.24128">
        <ele>1368.573975</ele>
        <time>2009-06-14T16:22:37Z</time>
      </trkpt>
      <trkpt lat="44.17658" lon="5.24093">
        <ele>1365.690186</ele>
        <time>2009-06-14T16:22:41Z</time>
      </trkpt>
      <trkpt lat="44.17634" lon="5.24038">
        <ele>1361.364258</ele>
        <time>2009-06-14T16:22:45Z</time>
      </trkpt>
      <trkpt lat="44.17643" lon="5.24002">
        <ele>1358.480225</ele>
        <time>2009-06-14T16:22:47Z</time>
      </trkpt>
      <trkpt lat="44.17649" lon="5.23985">
        <ele>1356.557617</ele>
        <time>2009-06-14T16:22:48Z</time>
      </trkpt>
      <trkpt lat="44.17677" lon="5.23915">
        <ele>1350.789551</ele>
        <time>2009-06-14T16:22:52Z</time>
      </trkpt>
      <trkpt lat="44.17685" lon="5.23847">
        <ele>1345.021729</ele>
        <time>2009-06-14T16:22:56Z</time>
      </trkpt>
      <trkpt lat="44.1767" lon="5.23793">
        <ele>1341.657227</ele>
        <time>2009-06-14T16:22:59Z</time>
      </trkpt>
      <trkpt lat="44.17625" lon="5.23704">
        <ele>1332.524658</ele>
        <time>2009-06-14T16:23:04Z</time>
      </trkpt>
      <trkpt lat="44.17582" lon="5.23643">
        <ele>1326.276123</ele>
        <time>2009-06-14T16:23:08Z</time>
      </trkpt>
      <trkpt lat="44.17554" lon="5.23599">
        <ele>1321.469238</ele>
        <time>2009-06-14T16:23:11Z</time>
      </trkpt>
      <trkpt lat="44.17538" lon="5.23529">
        <ele>1313.29834</ele>
        <time>2009-06-14T16:23:15Z</time>
      </trkpt>
      <trkpt lat="44.1755" lon="5.23491">
        <ele>1308.491699</ele>
        <time>2009-06-14T16:23:17Z</time>
      </trkpt>
      <trkpt lat="44.17563" lon="5.23389">
        <ele>1299.839844</ele>
        <time>2009-06-14T16:23:22Z</time>
      </trkpt>
      <trkpt lat="44.17559" lon="5.23299">
        <ele>1290.707031</ele>
        <time>2009-06-14T16:23:26Z</time>
      </trkpt>
      <trkpt lat="44.17545" lon="5.23229">
        <ele>1284.939453</ele>
        <time>2009-06-14T16:23:29Z</time>
      </trkpt>
      <trkpt lat="44.17518" lon="5.23121">
        <ele>1276.287598</ele>
        <time>2009-06-14T16:23:34Z</time>
      </trkpt>
      <trkpt lat="44.1751" lon="5.23099">
        <ele>1274.364746</ele>
        <time>2009-06-14T16:23:35Z</time>
      </trkpt>
      <trkpt lat="44.17457" lon="5.22998">
        <ele>1261.86792</ele>
        <time>2009-06-14T16:23:40Z</time>
      </trkpt>
      <trkpt lat="44.17408" lon="5.229">
        <ele>1251.293213</ele>
        <time>2009-06-14T16:23:45Z</time>
      </trkpt>
      <trkpt lat="44.17366" lon="5.22796">
        <ele>1243.602539</ele>
        <time>2009-06-14T16:23:50Z</time>
      </trkpt>
      <trkpt lat="44.17341" lon="5.22711">
        <ele>1236.873291</ele>
        <time>2009-06-14T16:23:54Z</time>
      </trkpt>
      <trkpt lat="44.17317" lon="5.22596">
        <ele>1227.260254</ele>
        <time>2009-06-14T16:23:59Z</time>
      </trkpt>
      <trkpt lat="44.17289" lon="5.22485">
        <ele>1215.724609</ele>
        <time>2009-06-14T16:24:04Z</time>
      </trkpt>
      <trkpt lat="44.17262" lon="5.22424">
        <ele>1209.956299</ele>
        <time>2009-06-14T16:24:07Z</time>
      </trkpt>
      <trkpt lat="44.17221" lon="5.22322">
        <ele>1201.304688</ele>
        <time>2009-06-14T16:24:12Z</time>
      </trkpt>
      <trkpt lat="44.17169" lon="5.22175">
        <ele>1187.846191</ele>
        <time>2009-06-14T16:24:19Z</time>
      </trkpt>
      <trkpt lat="44.17147" lon="5.22124">
        <ele>1182.559082</ele>
        <time>2009-06-14T16:24:22Z</time>
      </trkpt>
      <trkpt lat="44.17128" lon="5.22088">
        <ele>1177.271729</ele>
        <time>2009-06-14T16:24:25Z</time>
      </trkpt>
      <trkpt lat="44.17126" lon="5.22084">
        <ele>1175.82959</ele>
        <time>2009-06-14T16:24:26Z</time>
      </trkpt>
      <trkpt lat="44.17126" lon="5.22059">
        <ele>1165.255371</ele>
        <time>2009-06-14T16:24:30Z</time>
      </trkpt>
      <trkpt lat="44.17139" lon="5.22069">
        <ele>1160.929199</ele>
        <time>2009-06-14T16:24:32Z</time>
      </trkpt>
      <trkpt lat="44.17143" lon="5.22077">
        <ele>1157.564697</ele>
        <time>2009-06-14T16:24:33Z</time>
      </trkpt>
      <trkpt lat="44.17152" lon="5.22097">
        <ele>1152.758057</ele>
        <time>2009-06-14T16:24:35Z</time>
      </trkpt>
      <trkpt lat="44.17187" lon="5.22131">
        <ele>1149.393555</ele>
        <time>2009-06-14T16:24:39Z</time>
      </trkpt>
      <trkpt lat="44.1722" lon="5.22156">
        <ele>1146.509521</ele>
        <time>2009-06-14T16:24:42Z</time>
      </trkpt>
      <trkpt lat="44.17273" lon="5.22172">
        <ele>1143.625488</ele>
        <time>2009-06-14T16:24:46Z</time>
      </trkpt>
      <trkpt lat="44.17309" lon="5.22176">
        <ele>1140.741455</ele>
        <time>2009-06-14T16:24:49Z</time>
      </trkpt>
      <trkpt lat="44.17335" lon="5.22162">
        <ele>1136.415771</ele>
        <time>2009-06-14T16:24:52Z</time>
      </trkpt>
      <trkpt lat="44.17342" lon="5.22133">
        <ele>1134.012451</ele>
        <time>2009-06-14T16:24:54Z</time>
      </trkpt>
      <trkpt lat="44.17341" lon="5.22084">
        <ele>1133.531738</ele>
        <time>2009-06-14T16:24:57Z</time>
      </trkpt>
      <trkpt lat="44.17329" lon="5.22058">
        <ele>1132.089844</ele>
        <time>2009-06-14T16:24:59Z</time>
      </trkpt>
      <trkpt lat="44.17315" lon="5.22009">
        <ele>1133.531738</ele>
        <time>2009-06-14T16:25:02Z</time>
      </trkpt>
      <trkpt lat="44.17314" lon="5.21969">
        <ele>1131.608887</ele>
        <time>2009-06-14T16:25:04Z</time>
      </trkpt>
      <trkpt lat="44.17326" lon="5.21851">
        <ele>1122.957275</ele>
        <time>2009-06-14T16:25:10Z</time>
      </trkpt>
      <trkpt lat="44.17335" lon="5.21815">
        <ele>1120.073242</ele>
        <time>2009-06-14T16:25:12Z</time>
      </trkpt>
      <trkpt lat="44.17364" lon="5.21757">
        <ele>1113.343994</ele>
        <time>2009-06-14T16:25:16Z</time>
      </trkpt>
      <trkpt lat="44.17372" lon="5.21744">
        <ele>1111.421387</ele>
        <time>2009-06-14T16:25:17Z</time>
      </trkpt>
      <trkpt lat="44.17386" lon="5.21676">
        <ele>1104.21167</ele>
        <time>2009-06-14T16:25:21Z</time>
      </trkpt>
      <trkpt lat="44.17377" lon="5.21638">
        <ele>1100.846924</ele>
        <time>2009-06-14T16:25:23Z</time>
      </trkpt>
      <trkpt lat="44.17371" lon="5.21619">
        <ele>1099.404785</ele>
        <time>2009-06-14T16:25:24Z</time>
      </trkpt>
      <trkpt lat="44.17323" lon="5.2146">
        <ele>1086.427246</ele>
        <time>2009-06-14T16:25:32Z</time>
      </trkpt>
      <trkpt lat="44.17282" lon="5.21309">
        <ele>1073.449463</ele>
        <time>2009-06-14T16:25:39Z</time>
      </trkpt>
      <trkpt lat="44.17258" lon="5.21198">
        <ele>1064.797363</ele>
        <time>2009-06-14T16:25:44Z</time>
      </trkpt>
      <trkpt lat="44.17247" lon="5.21088">
        <ele>1056.626221</ele>
        <time>2009-06-14T16:25:49Z</time>
      </trkpt>
      <trkpt lat="44.17227" lon="5.20978">
        <ele>1047.493652</ele>
        <time>2009-06-14T16:25:54Z</time>
      </trkpt>
      <trkpt lat="44.17202" lon="5.20845">
        <ele>1035.957764</ele>
        <time>2009-06-14T16:26:00Z</time>
      </trkpt>
      <trkpt lat="44.17177" lon="5.20742">
        <ele>1027.306152</ele>
        <time>2009-06-14T16:26:05Z</time>
      </trkpt>
      <trkpt lat="44.17142" lon="5.20626">
        <ele>1017.212158</ele>
        <time>2009-06-14T16:26:11Z</time>
      </trkpt>
      <trkpt lat="44.17105" lon="5.20535">
        <ele>1008.079834</ele>
        <time>2009-06-14T16:26:16Z</time>
      </trkpt>
      <trkpt lat="44.17074" lon="5.20471">
        <ele>1000.869629</ele>
        <time>2009-06-14T16:26:20Z</time>
      </trkpt>
      <trkpt lat="44.1706" lon="5.20398">
        <ele>993.659912</ele>
        <time>2009-06-14T16:26:24Z</time>
      </trkpt>
      <trkpt lat="44.17072" lon="5.20337">
        <ele>988.853516</ele>
        <time>2009-06-14T16:26:27Z</time>
      </trkpt>
      <trkpt lat="44.17079" lon="5.20318">
        <ele>987.411133</ele>
        <time>2009-06-14T16:26:28Z</time>
      </trkpt>
      <trkpt lat="44.17092" lon="5.20279">
        <ele>983.565918</ele>
        <time>2009-06-14T16:26:30Z</time>
      </trkpt>
      <trkpt lat="44.17094" lon="5.20205">
        <ele>976.356201</ele>
        <time>2009-06-14T16:26:34Z</time>
      </trkpt>
      <trkpt lat="44.17079" lon="5.20172">
        <ele>974.914307</ele>
        <time>2009-06-14T16:26:36Z</time>
      </trkpt>
      <trkpt lat="44.17048" lon="5.20138">
        <ele>972.510986</ele>
        <time>2009-06-14T16:26:39Z</time>
      </trkpt>
      <trkpt lat="44.17037" lon="5.20131">
        <ele>971.068848</ele>
        <time>2009-06-14T16:26:40Z</time>
      </trkpt>
      <trkpt lat="44.16966" lon="5.20101">
        <ele>965.781738</ele>
        <time>2009-06-14T16:26:46Z</time>
      </trkpt>
      <trkpt lat="44.16933" lon="5.20076">
        <ele>963.378418</ele>
        <time>2009-06-14T16:26:49Z</time>
      </trkpt>
      <trkpt lat="44.16895" lon="5.20023">
        <ele>960.013672</ele>
        <time>2009-06-14T16:26:53Z</time>
      </trkpt>
      <trkpt lat="44.16879" lon="5.1999">
        <ele>957.610596</ele>
        <time>2009-06-14T16:26:55Z</time>
      </trkpt>
      <trkpt lat="44.16861" lon="5.19914">
        <ele>951.361816</ele>
        <time>2009-06-14T16:26:59Z</time>
      </trkpt>
      <trkpt lat="44.16865" lon="5.19858">
        <ele>946.074707</ele>
        <time>2009-06-14T16:27:02Z</time>
      </trkpt>
      <trkpt lat="44.1688" lon="5.19825">
        <ele>942.710205</ele>
        <time>2009-06-14T16:27:04Z</time>
      </trkpt>
      <trkpt lat="44.16891" lon="5.1981">
        <ele>941.748779</ele>
        <time>2009-06-14T16:27:05Z</time>
      </trkpt>
      <trkpt lat="44.16949" lon="5.1972">
        <ele>932.616211</ele>
        <time>2009-06-14T16:27:11Z</time>
      </trkpt>
      <trkpt lat="44.16965" lon="5.19692">
        <ele>930.212891</ele>
        <time>2009-06-14T16:27:13Z</time>
      </trkpt>
      <trkpt lat="44.16977" lon="5.19635">
        <ele>925.40625</ele>
        <time>2009-06-14T16:27:17Z</time>
      </trkpt>
      <trkpt lat="44.16963" lon="5.19608">
        <ele>923.483643</ele>
        <time>2009-06-14T16:27:19Z</time>
      </trkpt>
      <trkpt lat="44.1694" lon="5.19588">
        <ele>923.483643</ele>
        <time>2009-06-14T16:27:21Z</time>
      </trkpt>
      <trkpt lat="44.16874" lon="5.19551">
        <ele>921.080322</ele>
        <time>2009-06-14T16:27:27Z</time>
      </trkpt>
      <trkpt lat="44.16797" lon="5.19519">
        <ele>914.831787</ele>
        <time>2009-06-14T16:27:34Z</time>
      </trkpt>
      <trkpt lat="44.16731" lon="5.19492">
        <ele>912.90918</ele>
        <time>2009-06-14T16:27:40Z</time>
      </trkpt>
      <trkpt lat="44.16677" lon="5.19464">
        <ele>911.467285</ele>
        <time>2009-06-14T16:27:45Z</time>
      </trkpt>
      <trkpt lat="44.16645" lon="5.1942">
        <ele>911.947998</ele>
        <time>2009-06-14T16:27:49Z</time>
      </trkpt>
      <trkpt lat="44.16641" lon="5.19385">
        <ele>910.025146</ele>
        <time>2009-06-14T16:27:51Z</time>
      </trkpt>
      <trkpt lat="44.16651" lon="5.19352">
        <ele>910.025146</ele>
        <time>2009-06-14T16:27:53Z</time>
      </trkpt>
      <trkpt lat="44.16658" lon="5.19338">
        <ele>910.505859</ele>
        <time>2009-06-14T16:27:54Z</time>
      </trkpt>
      <trkpt lat="44.16705" lon="5.19231">
        <ele>906.6604</ele>
        <time>2009-06-14T16:28:01Z</time>
      </trkpt>
      <trkpt lat="44.16746" lon="5.19187">
        <ele>903.295898</ele>
        <time>2009-06-14T16:28:05Z</time>
      </trkpt>
      <trkpt lat="44.16774" lon="5.19182">
        <ele>898.008789</ele>
        <time>2009-06-14T16:28:07Z</time>
      </trkpt>
      <trkpt lat="44.16867" lon="5.19154">
        <ele>894.163574</ele>
        <time>2009-06-14T16:28:14Z</time>
      </trkpt>
      <trkpt lat="44.16905" lon="5.19136">
        <ele>890.798584</ele>
        <time>2009-06-14T16:28:17Z</time>
      </trkpt>
      <trkpt lat="44.16935" lon="5.19107">
        <ele>888.395508</ele>
        <time>2009-06-14T16:28:20Z</time>
      </trkpt>
      <trkpt lat="44.1694" lon="5.19078">
        <ele>886.953369</ele>
        <time>2009-06-14T16:28:22Z</time>
      </trkpt>
      <trkpt lat="44.16931" lon="5.19052">
        <ele>885.031006</ele>
        <time>2009-06-14T16:28:24Z</time>
      </trkpt>
      <trkpt lat="44.16915" lon="5.19032">
        <ele>884.06958</ele>
        <time>2009-06-14T16:28:26Z</time>
      </trkpt>
      <trkpt lat="44.16836" lon="5.18947">
        <ele>879.262939</ele>
        <time>2009-06-14T16:28:35Z</time>
      </trkpt>
      <trkpt lat="44.16816" lon="5.18892">
        <ele>876.37915</ele>
        <time>2009-06-14T16:28:39Z</time>
      </trkpt>
      <trkpt lat="44.16827" lon="5.18846">
        <ele>872.052979</ele>
        <time>2009-06-14T16:28:42Z</time>
      </trkpt>
      <trkpt lat="44.16835" lon="5.18831">
        <ele>870.611084</ele>
        <time>2009-06-14T16:28:43Z</time>
      </trkpt>
      <trkpt lat="44.16889" lon="5.18721">
        <ele>864.362549</ele>
        <time>2009-06-14T16:28:50Z</time>
      </trkpt>
      <trkpt lat="44.16895" lon="5.18653">
        <ele>862.439941</ele>
        <time>2009-06-14T16:28:54Z</time>
      </trkpt>
      <trkpt lat="44.16882" lon="5.18623">
        <ele>861.47876</ele>
        <time>2009-06-14T16:28:56Z</time>
      </trkpt>
      <trkpt lat="44.16873" lon="5.18611">
        <ele>861.47876</ele>
        <time>2009-06-14T16:28:57Z</time>
      </trkpt>
      <trkpt lat="44.16839" lon="5.18563">
        <ele>860.998047</ele>
        <time>2009-06-14T16:29:01Z</time>
      </trkpt>
      <trkpt lat="44.16816" lon="5.18503">
        <ele>858.594482</ele>
        <time>2009-06-14T16:29:05Z</time>
      </trkpt>
      <trkpt lat="44.16795" lon="5.18382">
        <ele>852.345947</ele>
        <time>2009-06-14T16:29:12Z</time>
      </trkpt>
      <trkpt lat="44.16778" lon="5.18294">
        <ele>847.058838</ele>
        <time>2009-06-14T16:29:17Z</time>
      </trkpt>
      <trkpt lat="44.16756" lon="5.18226">
        <ele>842.252197</ele>
        <time>2009-06-14T16:29:21Z</time>
      </trkpt>
      <trkpt lat="44.16716" lon="5.18129">
        <ele>836.003662</ele>
        <time>2009-06-14T16:29:27Z</time>
      </trkpt>
      <trkpt lat="44.16681" lon="5.18049">
        <ele>829.274414</ele>
        <time>2009-06-14T16:29:32Z</time>
      </trkpt>
      <trkpt lat="44.16677" lon="5.17967">
        <ele>823.025879</ele>
        <time>2009-06-14T16:29:36Z</time>
      </trkpt>
      <trkpt lat="44.16686" lon="5.17926">
        <ele>819.661377</ele>
        <time>2009-06-14T16:29:38Z</time>
      </trkpt>
      <trkpt lat="44.16708" lon="5.17815">
        <ele>811.970703</ele>
        <time>2009-06-14T16:29:43Z</time>
      </trkpt>
      <trkpt lat="44.16742" lon="5.17734">
        <ele>803.318848</ele>
        <time>2009-06-14T16:29:47Z</time>
      </trkpt>
      <trkpt lat="44.16755" lon="5.17646">
        <ele>796.589844</ele>
        <time>2009-06-14T16:29:51Z</time>
      </trkpt>
      <trkpt lat="44.16746" lon="5.17604">
        <ele>792.263672</ele>
        <time>2009-06-14T16:29:53Z</time>
      </trkpt>
      <trkpt lat="44.1674" lon="5.17585">
        <ele>790.821533</ele>
        <time>2009-06-14T16:29:54Z</time>
      </trkpt>
      <trkpt lat="44.16727" lon="5.17546">
        <ele>788.418457</ele>
        <time>2009-06-14T16:29:56Z</time>
      </trkpt>
      <trkpt lat="44.16718" lon="5.17464">
        <ele>785.053955</ele>
        <time>2009-06-14T16:30:00Z</time>
      </trkpt>
      <trkpt lat="44.16718" lon="5.17325">
        <ele>778.324463</ele>
        <time>2009-06-14T16:30:07Z</time>
      </trkpt>
      <trkpt lat="44.16721" lon="5.172">
        <ele>772.556641</ele>
        <time>2009-06-14T16:30:13Z</time>
      </trkpt>
      <trkpt lat="44.16723" lon="5.17068">
        <ele>762.943359</ele>
        <time>2009-06-14T16:30:19Z</time>
      </trkpt>
      <trkpt lat="44.16729" lon="5.1697">
        <ele>758.617432</ele>
        <time>2009-06-14T16:30:24Z</time>
      </trkpt>
      <trkpt lat="44.16716" lon="5.16901">
        <ele>756.214111</ele>
        <time>2009-06-14T16:30:28Z</time>
      </trkpt>
      <trkpt lat="44.16685" lon="5.16822">
        <ele>752.368896</ele>
        <time>2009-06-14T16:30:33Z</time>
      </trkpt>
      <trkpt lat="44.1664" lon="5.16732">
        <ele>749.004395</ele>
        <time>2009-06-14T16:30:39Z</time>
      </trkpt>
      <trkpt lat="44.16633" lon="5.16716">
        <ele>749.004395</ele>
        <time>2009-06-14T16:30:40Z</time>
      </trkpt>
      <trkpt lat="44.16612" lon="5.16628">
        <ele>746.120361</ele>
        <time>2009-06-14T16:30:45Z</time>
      </trkpt>
      <trkpt lat="44.16599" lon="5.16538">
        <ele>742.755859</ele>
        <time>2009-06-14T16:30:50Z</time>
      </trkpt>
      <trkpt lat="44.16585" lon="5.16408">
        <ele>736.026611</ele>
        <time>2009-06-14T16:30:57Z</time>
      </trkpt>
      <trkpt lat="44.16574" lon="5.16353">
        <ele>732.662109</ele>
        <time>2009-06-14T16:31:00Z</time>
      </trkpt>
      <trkpt lat="44.16554" lon="5.16303">
        <ele>728.81665</ele>
        <time>2009-06-14T16:31:03Z</time>
      </trkpt>
      <trkpt lat="44.16516" lon="5.16245">
        <ele>725.451904</ele>
        <time>2009-06-14T16:31:07Z</time>
      </trkpt>
      <trkpt lat="44.16507" lon="5.1623">
        <ele>724.490723</ele>
        <time>2009-06-14T16:31:08Z</time>
      </trkpt>
      <trkpt lat="44.16484" lon="5.16159">
        <ele>720.164795</ele>
        <time>2009-06-14T16:31:12Z</time>
      </trkpt>
      <trkpt lat="44.16462" lon="5.16041">
        <ele>712.954834</ele>
        <time>2009-06-14T16:31:18Z</time>
      </trkpt>
      <trkpt lat="44.16431" lon="5.15972">
        <ele>708.628906</ele>
        <time>2009-06-14T16:31:22Z</time>
      </trkpt>
      <trkpt lat="44.16395" lon="5.15938">
        <ele>704.783691</ele>
        <time>2009-06-14T16:31:25Z</time>
      </trkpt>
      <trkpt lat="44.16367" lon="5.15931">
        <ele>703.341797</ele>
        <time>2009-06-14T16:31:27Z</time>
      </trkpt>
      <trkpt lat="44.1634" lon="5.15927">
        <ele>701.899902</ele>
        <time>2009-06-14T16:31:29Z</time>
      </trkpt>
      <trkpt lat="44.16293" lon="5.15903">
        <ele>700.938477</ele>
        <time>2009-06-14T16:31:33Z</time>
      </trkpt>
      <trkpt lat="44.16272" lon="5.15887">
        <ele>700.938477</ele>
        <time>2009-06-14T16:31:35Z</time>
      </trkpt>
      <trkpt lat="44.16249" lon="5.15852">
        <ele>699.977051</ele>
        <time>2009-06-14T16:31:38Z</time>
      </trkpt>
      <trkpt lat="44.16244" lon="5.15822">
        <ele>699.977051</ele>
        <time>2009-06-14T16:31:40Z</time>
      </trkpt>
      <trkpt lat="44.16232" lon="5.15681">
        <ele>698.054443</ele>
        <time>2009-06-14T16:31:49Z</time>
      </trkpt>
      <trkpt lat="44.16214" lon="5.15606">
        <ele>698.534912</ele>
        <time>2009-06-14T16:31:54Z</time>
      </trkpt>
      <trkpt lat="44.16191" lon="5.15547">
        <ele>696.131836</ele>
        <time>2009-06-14T16:31:58Z</time>
      </trkpt>
      <trkpt lat="44.16154" lon="5.155">
        <ele>693.247803</ele>
        <time>2009-06-14T16:32:02Z</time>
      </trkpt>
      <trkpt lat="44.16077" lon="5.15434">
        <ele>688.441406</ele>
        <time>2009-06-14T16:32:09Z</time>
      </trkpt>
      <trkpt lat="44.16055" lon="5.15416">
        <ele>686.999268</ele>
        <time>2009-06-14T16:32:11Z</time>
      </trkpt>
      <trkpt lat="44.16006" lon="5.15396">
        <ele>683.634521</ele>
        <time>2009-06-14T16:32:15Z</time>
      </trkpt>
      <trkpt lat="44.15954" lon="5.15396">
        <ele>679.308594</ele>
        <time>2009-06-14T16:32:19Z</time>
      </trkpt>
      <trkpt lat="44.15903" lon="5.15405">
        <ele>675.463379</ele>
        <time>2009-06-14T16:32:23Z</time>
      </trkpt>
      <trkpt lat="44.15862" lon="5.15384">
        <ele>669.215088</ele>
        <time>2009-06-14T16:32:27Z</time>
      </trkpt>
      <trkpt lat="44.15847" lon="5.1535">
        <ele>667.292236</ele>
        <time>2009-06-14T16:32:29Z</time>
      </trkpt>
      <trkpt lat="44.15792" lon="5.15269">
        <ele>660.562988</ele>
        <time>2009-06-14T16:32:35Z</time>
      </trkpt>
      <trkpt lat="44.15781" lon="5.15256">
        <ele>659.121094</ele>
        <time>2009-06-14T16:32:36Z</time>
      </trkpt>
      <trkpt lat="44.15747" lon="5.15189">
        <ele>655.275879</ele>
        <time>2009-06-14T16:32:40Z</time>
      </trkpt>
      <trkpt lat="44.15741" lon="5.1517">
        <ele>654.314697</ele>
        <time>2009-06-14T16:32:41Z</time>
      </trkpt>
      <trkpt lat="44.15724" lon="5.15113">
        <ele>648.546387</ele>
        <time>2009-06-14T16:32:44Z</time>
      </trkpt>
      <trkpt lat="44.15716" lon="5.15027">
        <ele>642.298096</ele>
        <time>2009-06-14T16:32:48Z</time>
      </trkpt>
      <trkpt lat="44.15717" lon="5.14983">
        <ele>638.933594</ele>
        <time>2009-06-14T16:32:50Z</time>
      </trkpt>
      <trkpt lat="44.157" lon="5.14898">
        <ele>632.204102</ele>
        <time>2009-06-14T16:32:54Z</time>
      </trkpt>
      <trkpt lat="44.1567" lon="5.14844">
        <ele>627.397705</ele>
        <time>2009-06-14T16:32:57Z</time>
      </trkpt>
      <trkpt lat="44.15644" lon="5.14815">
        <ele>623.55249</ele>
        <time>2009-06-14T16:32:59Z</time>
      </trkpt>
      <trkpt lat="44.15606" lon="5.14783">
        <ele>619.226318</ele>
        <time>2009-06-14T16:33:02Z</time>
      </trkpt>
      <trkpt lat="44.15586" lon="5.14753">
        <ele>615.861816</ele>
        <time>2009-06-14T16:33:05Z</time>
      </trkpt>
      <trkpt lat="44.15594" lon="5.14738">
        <ele>610.09375</ele>
        <time>2009-06-14T16:33:07Z</time>
      </trkpt>
      <trkpt lat="44.15611" lon="5.14728">
        <ele>605.287354</ele>
        <time>2009-06-14T16:33:09Z</time>
      </trkpt>
      <trkpt lat="44.15634" lon="5.14721">
        <ele>602.403076</ele>
        <time>2009-06-14T16:33:11Z</time>
      </trkpt>
      <trkpt lat="44.157" lon="5.14708">
        <ele>594.232178</ele>
        <time>2009-06-14T16:33:16Z</time>
      </trkpt>
      <trkpt lat="44.15756" lon="5.14728">
        <ele>587.983398</ele>
        <time>2009-06-14T16:33:20Z</time>
      </trkpt>
      <trkpt lat="44.15828" lon="5.14752">
        <ele>580.773682</ele>
        <time>2009-06-14T16:33:25Z</time>
      </trkpt>
      <trkpt lat="44.15845" lon="5.14756">
        <ele>581.254395</ele>
        <time>2009-06-14T16:33:26Z</time>
      </trkpt>
      <trkpt lat="44.15886" lon="5.14786">
        <ele>574.044434</ele>
        <time>2009-06-14T16:33:29Z</time>
      </trkpt>
      <trkpt lat="44.15905" lon="5.14824">
        <ele>570.198975</ele>
        <time>2009-06-14T16:33:31Z</time>
      </trkpt>
      <trkpt lat="44.15913" lon="5.14843">
        <ele>568.75708</ele>
        <time>2009-06-14T16:33:32Z</time>
      </trkpt>
      <trkpt lat="44.1596" lon="5.14909">
        <ele>562.028076</ele>
        <time>2009-06-14T16:33:37Z</time>
      </trkpt>
      <trkpt lat="44.1597" lon="5.14917">
        <ele>561.06665</ele>
        <time>2009-06-14T16:33:38Z</time>
      </trkpt>
      <trkpt lat="44.1601" lon="5.14904">
        <ele>557.221436</ele>
        <time>2009-06-14T16:33:42Z</time>
      </trkpt>
      <trkpt lat="44.16017" lon="5.14879">
        <ele>553.375977</ele>
        <time>2009-06-14T16:33:44Z</time>
      </trkpt>
      <trkpt lat="44.16014" lon="5.14835">
        <ele>554.337402</ele>
        <time>2009-06-14T16:33:46Z</time>
      </trkpt>
      <trkpt lat="44.16019" lon="5.148">
        <ele>551.453369</ele>
        <time>2009-06-14T16:33:48Z</time>
      </trkpt>
      <trkpt lat="44.16049" lon="5.14744">
        <ele>548.088867</ele>
        <time>2009-06-14T16:33:52Z</time>
      </trkpt>
      <trkpt lat="44.16062" lon="5.14701">
        <ele>545.685547</ele>
        <time>2009-06-14T16:33:55Z</time>
      </trkpt>
      <trkpt lat="44.16086" lon="5.14675">
        <ele>542.320923</ele>
        <time>2009-06-14T16:33:59Z</time>
      </trkpt>
      <trkpt lat="44.16107" lon="5.1469">
        <ele>537.514282</ele>
        <time>2009-06-14T16:34:01Z</time>
      </trkpt>
      <trkpt lat="44.1615" lon="5.14693">
        <ele>532.707764</ele>
        <time>2009-06-14T16:34:06Z</time>
      </trkpt>
      <trkpt lat="44.16153" lon="5.1467">
        <ele>529.34314</ele>
        <time>2009-06-14T16:34:08Z</time>
      </trkpt>
      <trkpt lat="44.16146" lon="5.1463">
        <ele>534.149658</ele>
        <time>2009-06-14T16:34:10Z</time>
      </trkpt>
      <trkpt lat="44.16129" lon="5.1457">
        <ele>529.34314</ele>
        <time>2009-06-14T16:34:14Z</time>
      </trkpt>
      <trkpt lat="44.16116" lon="5.14526">
        <ele>525.017212</ele>
        <time>2009-06-14T16:34:17Z</time>
      </trkpt>
      <trkpt lat="44.16114" lon="5.14477">
        <ele>520.691284</ele>
        <time>2009-06-14T16:34:20Z</time>
      </trkpt>
      <trkpt lat="44.16101" lon="5.1445">
        <ele>517.32666</ele>
        <time>2009-06-14T16:34:22Z</time>
      </trkpt>
      <trkpt lat="44.1609" lon="5.14438">
        <ele>516.845947</ele>
        <time>2009-06-14T16:34:23Z</time>
      </trkpt>
      <trkpt lat="44.16025" lon="5.14363">
        <ele>507.232788</ele>
        <time>2009-06-14T16:34:29Z</time>
      </trkpt>
      <trkpt lat="44.16003" lon="5.14339">
        <ele>504.348877</ele>
        <time>2009-06-14T16:34:31Z</time>
      </trkpt>
      <trkpt lat="44.15974" lon="5.14286">
        <ele>498.100342</ele>
        <time>2009-06-14T16:34:35Z</time>
      </trkpt>
      <trkpt lat="44.15973" lon="5.14239">
        <ele>492.332397</ele>
        <time>2009-06-14T16:34:38Z</time>
      </trkpt>
      <trkpt lat="44.15987" lon="5.14209">
        <ele>488.967773</ele>
        <time>2009-06-14T16:34:40Z</time>
      </trkpt>
      <trkpt lat="44.16017" lon="5.1417">
        <ele>482.719238</ele>
        <time>2009-06-14T16:34:43Z</time>
      </trkpt>
      <trkpt lat="44.16043" lon="5.14151">
        <ele>481.277222</ele>
        <time>2009-06-14T16:34:45Z</time>
      </trkpt>
      <trkpt lat="44.16113" lon="5.1412">
        <ele>476.951294</ele>
        <time>2009-06-14T16:34:50Z</time>
      </trkpt>
      <trkpt lat="44.16177" lon="5.14122">
        <ele>474.067261</ele>
        <time>2009-06-14T16:34:54Z</time>
      </trkpt>
      <trkpt lat="44.16253" lon="5.14108">
        <ele>470.221924</ele>
        <time>2009-06-14T16:34:59Z</time>
      </trkpt>
      <trkpt lat="44.16317" lon="5.14115">
        <ele>462.050781</ele>
        <time>2009-06-14T16:35:03Z</time>
      </trkpt>
      <trkpt lat="44.16343" lon="5.14119">
        <ele>458.686157</ele>
        <time>2009-06-14T16:35:05Z</time>
      </trkpt>
      <trkpt lat="44.16385" lon="5.14157">
        <ele>452.918213</ele>
        <time>2009-06-14T16:35:09Z</time>
      </trkpt>
      <trkpt lat="44.16394" lon="5.14171">
        <ele>450.995605</ele>
        <time>2009-06-14T16:35:10Z</time>
      </trkpt>
      <trkpt lat="44.1645" lon="5.14241">
        <ele>443.785767</ele>
        <time>2009-06-14T16:35:16Z</time>
      </trkpt>
      <trkpt lat="44.16469" lon="5.14263">
        <ele>440.901855</ele>
        <time>2009-06-14T16:35:18Z</time>
      </trkpt>
      <trkpt lat="44.16493" lon="5.14326">
        <ele>437.056519</ele>
        <time>2009-06-14T16:35:22Z</time>
      </trkpt>
      <trkpt lat="44.16499" lon="5.14341">
        <ele>435.133911</ele>
        <time>2009-06-14T16:35:23Z</time>
      </trkpt>
      <trkpt lat="44.16506" lon="5.14412">
        <ele>431.288574</ele>
        <time>2009-06-14T16:35:27Z</time>
      </trkpt>
      <trkpt lat="44.16503" lon="5.14463">
        <ele>427.443359</ele>
        <time>2009-06-14T16:35:30Z</time>
      </trkpt>
      <trkpt lat="44.16515" lon="5.14508">
        <ele>423.598022</ele>
        <time>2009-06-14T16:35:33Z</time>
      </trkpt>
      <trkpt lat="44.16534" lon="5.14529">
        <ele>421.675415</ele>
        <time>2009-06-14T16:35:35Z</time>
      </trkpt>
      <trkpt lat="44.16559" lon="5.14593">
        <ele>418.310791</ele>
        <time>2009-06-14T16:35:40Z</time>
      </trkpt>
      <trkpt lat="44.16547" lon="5.14638">
        <ele>414.465454</ele>
        <time>2009-06-14T16:35:43Z</time>
      </trkpt>
      <trkpt lat="44.16548" lon="5.14685">
        <ele>410.139648</ele>
        <time>2009-06-14T16:35:46Z</time>
      </trkpt>
      <trkpt lat="44.1656" lon="5.14738">
        <ele>405.813721</ele>
        <time>2009-06-14T16:35:50Z</time>
      </trkpt>
      <trkpt lat="44.16576" lon="5.14748">
        <ele>402.449097</ele>
        <time>2009-06-14T16:35:52Z</time>
      </trkpt>
      <trkpt lat="44.16604" lon="5.14751">
        <ele>399.565063</ele>
        <time>2009-06-14T16:35:55Z</time>
      </trkpt>
      <trkpt lat="44.16626" lon="5.14779">
        <ele>397.161743</ele>
        <time>2009-06-14T16:35:58Z</time>
      </trkpt>
      <trkpt lat="44.16631" lon="5.14792">
        <ele>397.642456</ele>
        <time>2009-06-14T16:35:59Z</time>
      </trkpt>
      <trkpt lat="44.16647" lon="5.1484">
        <ele>397.161743</ele>
        <time>2009-06-14T16:36:03Z</time>
      </trkpt>
      <trkpt lat="44.16672" lon="5.1487">
        <ele>394.277954</ele>
        <time>2009-06-14T16:36:07Z</time>
      </trkpt>
      <trkpt lat="44.16698" lon="5.14875">
        <ele>395.239136</ele>
        <time>2009-06-14T16:36:10Z</time>
      </trkpt>
      <trkpt lat="44.1672" lon="5.14866">
        <ele>395.239136</ele>
        <time>2009-06-14T16:36:13Z</time>
      </trkpt>
      <trkpt lat="44.1673" lon="5.1485">
        <ele>394.277954</ele>
        <time>2009-06-14T16:36:16Z</time>
      </trkpt>
      <trkpt lat="44.16741" lon="5.14831">
        <ele>394.277954</ele>
        <time>2009-06-14T16:36:21Z</time>
      </trkpt>
      <trkpt lat="44.16745" lon="5.14825">
        <ele>395.239136</ele>
        <time>2009-06-14T16:36:26Z</time>
      </trkpt>
      <trkpt lat="44.16746" lon="5.14825">
        <ele>396.681152</ele>
        <time>2009-06-14T16:36:33Z</time>
      </trkpt>
      <trkpt lat="44.16746" lon="5.14822">
        <ele>397.161743</ele>
        <time>2009-06-14T16:36:43Z</time>
      </trkpt>
      <trkpt lat="44.16753" lon="5.14803">
        <ele>396.200562</ele>
        <time>2009-06-14T16:36:49Z</time>
      </trkpt>
      <trkpt lat="44.16765" lon="5.14766">
        <ele>393.797241</ele>
        <time>2009-06-14T16:36:55Z</time>
      </trkpt>
      <trkpt lat="44.16781" lon="5.14711">
        <ele>390.913208</ele>
        <time>2009-06-14T16:37:02Z</time>
      </trkpt>
      <trkpt lat="44.16802" lon="5.1464">
        <ele>389.951904</ele>
        <time>2009-06-14T16:37:11Z</time>
      </trkpt>
      <trkpt lat="44.1682" lon="5.14572">
        <ele>388.990601</ele>
        <time>2009-06-14T16:37:19Z</time>
      </trkpt>
      <trkpt lat="44.16838" lon="5.14493">
        <ele>388.029297</ele>
        <time>2009-06-14T16:37:27Z</time>
      </trkpt>
      <trkpt lat="44.16851" lon="5.14421">
        <ele>385.625977</ele>
        <time>2009-06-14T16:37:33Z</time>
      </trkpt>
      <trkpt lat="44.16859" lon="5.1438">
        <ele>383.703247</ele>
        <time>2009-06-14T16:37:36Z</time>
      </trkpt>
      <trkpt lat="44.16881" lon="5.14324">
        <ele>381.300049</ele>
        <time>2009-06-14T16:37:40Z</time>
      </trkpt>
      <trkpt lat="44.16935" lon="5.1423">
        <ele>376.49353</ele>
        <time>2009-06-14T16:37:47Z</time>
      </trkpt>
      <trkpt lat="44.16967" lon="5.14185">
        <ele>374.090088</ele>
        <time>2009-06-14T16:37:51Z</time>
      </trkpt>
      <trkpt lat="44.16985" lon="5.14162">
        <ele>373.609497</ele>
        <time>2009-06-14T16:37:53Z</time>
      </trkpt>
      <trkpt lat="44.17024" lon="5.14094">
        <ele>371.206299</ele>
        <time>2009-06-14T16:37:58Z</time>
      </trkpt>
      <trkpt lat="44.17052" lon="5.14059">
        <ele>368.802979</ele>
        <time>2009-06-14T16:38:01Z</time>
      </trkpt>
      <trkpt lat="44.17076" lon="5.14">
        <ele>366.399536</ele>
        <time>2009-06-14T16:38:05Z</time>
      </trkpt>
      <trkpt lat="44.1708" lon="5.13984">
        <ele>365.438354</ele>
        <time>2009-06-14T16:38:06Z</time>
      </trkpt>
      <trkpt lat="44.17112" lon="5.13934">
        <ele>363.035034</ele>
        <time>2009-06-14T16:38:10Z</time>
      </trkpt>
      <trkpt lat="44.17121" lon="5.13923">
        <ele>362.07373</ele>
        <time>2009-06-14T16:38:11Z</time>
      </trkpt>
      <trkpt lat="44.17151" lon="5.13867">
        <ele>358.708984</ele>
        <time>2009-06-14T16:38:15Z</time>
      </trkpt>
      <trkpt lat="44.17162" lon="5.13837">
        <ele>356.786377</ele>
        <time>2009-06-14T16:38:17Z</time>
      </trkpt>
      <trkpt lat="44.17197" lon="5.13786">
        <ele>352.460571</ele>
        <time>2009-06-14T16:38:21Z</time>
      </trkpt>
      <trkpt lat="44.1727" lon="5.13716">
        <ele>346.692627</ele>
        <time>2009-06-14T16:38:28Z</time>
      </trkpt>
      <trkpt lat="44.17295" lon="5.13668">
        <ele>343.327881</ele>
        <time>2009-06-14T16:38:32Z</time>
      </trkpt>
      <trkpt lat="44.17298" lon="5.13653">
        <ele>342.366699</ele>
        <time>2009-06-14T16:38:33Z</time>
      </trkpt>
      <trkpt lat="44.17315" lon="5.1356">
        <ele>337.079468</ele>
        <time>2009-06-14T16:38:39Z</time>
      </trkpt>
      <trkpt lat="44.17317" lon="5.13544">
        <ele>337.079468</ele>
        <time>2009-06-14T16:38:40Z</time>
      </trkpt>
      <trkpt lat="44.17316" lon="5.13501">
        <ele>334.195435</ele>
        <time>2009-06-14T16:38:43Z</time>
      </trkpt>
      <trkpt lat="44.17319" lon="5.13434">
        <ele>329.869507</ele>
        <time>2009-06-14T16:38:48Z</time>
      </trkpt>
      <trkpt lat="44.17321" lon="5.13396">
        <ele>327.946777</ele>
        <time>2009-06-14T16:38:52Z</time>
      </trkpt>
      <trkpt lat="44.17323" lon="5.13384">
        <ele>326.504883</ele>
        <time>2009-06-14T16:38:54Z</time>
      </trkpt>
      <trkpt lat="44.17334" lon="5.1337">
        <ele>328.908325</ele>
        <time>2009-06-14T16:38:59Z</time>
      </trkpt>
      <trkpt lat="44.17338" lon="5.13369">
        <ele>329.869507</ele>
        <time>2009-06-14T16:39:00Z</time>
      </trkpt>
      <trkpt lat="44.17361" lon="5.13356">
        <ele>330.830933</ele>
        <time>2009-06-14T16:39:04Z</time>
      </trkpt>
      <trkpt lat="44.17398" lon="5.13317">
        <ele>328.908325</ele>
        <time>2009-06-14T16:39:11Z</time>
      </trkpt>
      <trkpt lat="44.17419" lon="5.13293">
        <ele>326.985596</ele>
        <time>2009-06-14T16:39:16Z</time>
      </trkpt>
      <trkpt lat="44.17441" lon="5.1327">
        <ele>324.582275</ele>
        <time>2009-06-14T16:39:22Z</time>
      </trkpt>
      <trkpt lat="44.17453" lon="5.13256">
        <ele>322.659668</ele>
        <time>2009-06-14T16:39:28Z</time>
      </trkpt>
      <trkpt lat="44.17465" lon="5.13243">
        <ele>321.217773</ele>
        <time>2009-06-14T16:39:32Z</time>
      </trkpt>
      <trkpt lat="44.17491" lon="5.1322">
        <ele>322.178955</ele>
        <time>2009-06-14T16:39:38Z</time>
      </trkpt>
      <trkpt lat="44.17514" lon="5.13196">
        <ele>322.178955</ele>
        <time>2009-06-14T16:39:43Z</time>
      </trkpt>
      <trkpt lat="44.17538" lon="5.13171">
        <ele>320.256348</ele>
        <time>2009-06-14T16:39:48Z</time>
      </trkpt>
      <trkpt lat="44.17557" lon="5.13133">
        <ele>319.775635</ele>
        <time>2009-06-14T16:39:53Z</time>
      </trkpt>
      <trkpt lat="44.17567" lon="5.13076">
        <ele>319.295044</ele>
        <time>2009-06-14T16:39:59Z</time>
      </trkpt>
      <trkpt lat="44.17563" lon="5.13029">
        <ele>318.333618</ele>
        <time>2009-06-14T16:40:04Z</time>
      </trkpt>
      <trkpt lat="44.17555" lon="5.12984">
        <ele>317.372437</ele>
        <time>2009-06-14T16:40:09Z</time>
      </trkpt>
      <trkpt lat="44.1756" lon="5.12946">
        <ele>316.411011</ele>
        <time>2009-06-14T16:40:14Z</time>
      </trkpt>
      <trkpt lat="44.17577" lon="5.12934">
        <ele>315.449829</ele>
        <time>2009-06-14T16:40:17Z</time>
      </trkpt>
      <trkpt lat="44.17641" lon="5.12907">
        <ele>313.527222</ele>
        <time>2009-06-14T16:40:26Z</time>
      </trkpt>
      <trkpt lat="44.17699" lon="5.12881">
        <ele>313.527222</ele>
        <time>2009-06-14T16:40:34Z</time>
      </trkpt>
      <trkpt lat="44.17767" lon="5.12852">
        <ele>312.085205</ele>
        <time>2009-06-14T16:40:43Z</time>
      </trkpt>
      <trkpt lat="44.17834" lon="5.12822">
        <ele>309.201172</ele>
        <time>2009-06-14T16:40:52Z</time>
      </trkpt>
      <trkpt lat="44.17878" lon="5.12802">
        <ele>307.759277</ele>
        <time>2009-06-14T16:40:58Z</time>
      </trkpt>
      <trkpt lat="44.1793" lon="5.12778">
        <ele>305.83667</ele>
        <time>2009-06-14T16:41:05Z</time>
      </trkpt>
      <trkpt lat="44.17998" lon="5.12748">
        <ele>303.433228</ele>
        <time>2009-06-14T16:41:14Z</time>
      </trkpt>
      <trkpt lat="44.18052" lon="5.12724">
        <ele>301.51062</ele>
        <time>2009-06-14T16:41:21Z</time>
      </trkpt>
      <trkpt lat="44.18115" lon="5.12696">
        <ele>301.029907</ele>
        <time>2009-06-14T16:41:29Z</time>
      </trkpt>
      <trkpt lat="44.1817" lon="5.12672">
        <ele>300.549316</ele>
        <time>2009-06-14T16:41:36Z</time>
      </trkpt>
      <trkpt lat="44.18208" lon="5.12653">
        <ele>299.588013</ele>
        <time>2009-06-14T16:41:41Z</time>
      </trkpt>
      <trkpt lat="44.18253" lon="5.12611">
        <ele>301.991333</ele>
        <time>2009-06-14T16:41:47Z</time>
      </trkpt>
      <trkpt lat="44.18308" lon="5.12545">
        <ele>301.029907</ele>
        <time>2009-06-14T16:41:55Z</time>
      </trkpt>
      <trkpt lat="44.18382" lon="5.12451">
        <ele>299.1073</ele>
        <time>2009-06-14T16:42:06Z</time>
      </trkpt>
      <trkpt lat="44.18441" lon="5.12377">
        <ele>297.665405</ele>
        <time>2009-06-14T16:42:15Z</time>
      </trkpt>
      <trkpt lat="44.18492" lon="5.1232">
        <ele>296.223511</ele>
        <time>2009-06-14T16:42:22Z</time>
      </trkpt>
      <trkpt lat="44.18551" lon="5.12277">
        <ele>295.742676</ele>
        <time>2009-06-14T16:42:29Z</time>
      </trkpt>
      <trkpt lat="44.18618" lon="5.12228">
        <ele>294.781372</ele>
        <time>2009-06-14T16:42:37Z</time>
      </trkpt>
      <trkpt lat="44.18691" lon="5.12174">
        <ele>294.300781</ele>
        <time>2009-06-14T16:42:46Z</time>
      </trkpt>
      <trkpt lat="44.18755" lon="5.12129">
        <ele>292.858765</ele>
        <time>2009-06-14T16:42:54Z</time>
      </trkpt>
      <trkpt lat="44.18821" lon="5.1209">
        <ele>291.416748</ele>
        <time>2009-06-14T16:43:02Z</time>
      </trkpt>
      <trkpt lat="44.18902" lon="5.12064">
        <ele>289.494141</ele>
        <time>2009-06-14T16:43:11Z</time>
      </trkpt>
      <trkpt lat="44.18983" lon="5.12038">
        <ele>288.052246</ele>
        <time>2009-06-14T16:43:20Z</time>
      </trkpt>
      <trkpt lat="44.19091" lon="5.12004">
        <ele>287.571411</ele>
        <time>2009-06-14T16:43:32Z</time>
      </trkpt>
      <trkpt lat="44.19171" lon="5.11979">
        <ele>287.09082</ele>
        <time>2009-06-14T16:43:41Z</time>
      </trkpt>
      <trkpt lat="44.19247" lon="5.11953">
        <ele>286.610229</ele>
        <time>2009-06-14T16:43:50Z</time>
      </trkpt>
      <trkpt lat="44.19288" lon="5.11935">
        <ele>286.129517</ele>
        <time>2009-06-14T16:43:55Z</time>
      </trkpt>
      <trkpt lat="44.19341" lon="5.11909">
        <ele>286.129517</ele>
        <time>2009-06-14T16:44:01Z</time>
      </trkpt>
      <trkpt lat="44.19402" lon="5.11874">
        <ele>283.726196</ele>
        <time>2009-06-14T16:44:08Z</time>
      </trkpt>
      <trkpt lat="44.19455" lon="5.11837">
        <ele>279.400269</ele>
        <time>2009-06-14T16:44:14Z</time>
      </trkpt>
      <trkpt lat="44.19507" lon="5.1181">
        <ele>276.035645</ele>
        <time>2009-06-14T16:44:19Z</time>
      </trkpt>
      <trkpt lat="44.19551" lon="5.11803">
        <ele>271.709717</ele>
        <time>2009-06-14T16:44:23Z</time>
      </trkpt>
      <trkpt lat="44.19604" lon="5.11787">
        <ele>269.306519</ele>
        <time>2009-06-14T16:44:28Z</time>
      </trkpt>
      <trkpt lat="44.1964" lon="5.1176">
        <ele>268.825806</ele>
        <time>2009-06-14T16:44:32Z</time>
      </trkpt>
      <trkpt lat="44.19686" lon="5.11718">
        <ele>269.306519</ele>
        <time>2009-06-14T16:44:38Z</time>
      </trkpt>
      <trkpt lat="44.19744" lon="5.11669">
        <ele>270.2677</ele>
        <time>2009-06-14T16:44:46Z</time>
      </trkpt>
      <trkpt lat="44.19806" lon="5.11608">
        <ele>270.748413</ele>
        <time>2009-06-14T16:44:55Z</time>
      </trkpt>
      <trkpt lat="44.19858" lon="5.11541">
        <ele>269.787109</ele>
        <time>2009-06-14T16:45:03Z</time>
      </trkpt>
      <trkpt lat="44.19903" lon="5.11459">
        <ele>267.864502</ele>
        <time>2009-06-14T16:45:11Z</time>
      </trkpt>
      <trkpt lat="44.19954" lon="5.11368">
        <ele>265.941895</ele>
        <time>2009-06-14T16:45:20Z</time>
      </trkpt>
      <trkpt lat="44.2" lon="5.11306">
        <ele>264.499878</ele>
        <time>2009-06-14T16:45:27Z</time>
      </trkpt>
      <trkpt lat="44.20068" lon="5.11229">
        <ele>264.019287</ele>
        <time>2009-06-14T16:45:36Z</time>
      </trkpt>
      <trkpt lat="44.20131" lon="5.11141">
        <ele>262.096558</ele>
        <time>2009-06-14T16:45:45Z</time>
      </trkpt>
      <trkpt lat="44.20211" lon="5.1103">
        <ele>259.212646</ele>
        <time>2009-06-14T16:45:56Z</time>
      </trkpt>
      <trkpt lat="44.20283" lon="5.1093">
        <ele>257.770752</ele>
        <time>2009-06-14T16:46:06Z</time>
      </trkpt>
      <trkpt lat="44.20338" lon="5.10852">
        <ele>256.809326</ele>
        <time>2009-06-14T16:46:14Z</time>
      </trkpt>
      <trkpt lat="44.20403" lon="5.10754">
        <ele>256.328735</ele>
        <time>2009-06-14T16:46:24Z</time>
      </trkpt>
      <trkpt lat="44.20447" lon="5.1069">
        <ele>256.328735</ele>
        <time>2009-06-14T16:46:31Z</time>
      </trkpt>
      <trkpt lat="44.20461" lon="5.10676">
        <ele>256.328735</ele>
        <time>2009-06-14T16:46:33Z</time>
      </trkpt>
      <trkpt lat="44.20514" lon="5.10641">
        <ele>257.770752</ele>
        <time>2009-06-14T16:46:40Z</time>
      </trkpt>
      <trkpt lat="44.20563" lon="5.10611">
        <ele>256.809326</ele>
        <time>2009-06-14T16:46:46Z</time>
      </trkpt>
      <trkpt lat="44.20633" lon="5.10568">
        <ele>253.925415</ele>
        <time>2009-06-14T16:46:54Z</time>
      </trkpt>
      <trkpt lat="44.2071" lon="5.1052">
        <ele>251.041382</ele>
        <time>2009-06-14T16:47:03Z</time>
      </trkpt>
      <trkpt lat="44.20786" lon="5.10473">
        <ele>250.560791</ele>
        <time>2009-06-14T16:47:12Z</time>
      </trkpt>
      <trkpt lat="44.20833" lon="5.10443">
        <ele>249.599487</ele>
        <time>2009-06-14T16:47:18Z</time>
      </trkpt>
      <trkpt lat="44.20874" lon="5.10401">
        <ele>250.0802</ele>
        <time>2009-06-14T16:47:24Z</time>
      </trkpt>
      <trkpt lat="44.20932" lon="5.10329">
        <ele>249.118774</ele>
        <time>2009-06-14T16:47:33Z</time>
      </trkpt>
      <trkpt lat="44.20978" lon="5.10282">
        <ele>246.715454</ele>
        <time>2009-06-14T16:47:39Z</time>
      </trkpt>
      <trkpt lat="44.21026" lon="5.10229">
        <ele>244.312256</ele>
        <time>2009-06-14T16:47:45Z</time>
      </trkpt>
      <trkpt lat="44.2108" lon="5.10156">
        <ele>242.389648</ele>
        <time>2009-06-14T16:47:52Z</time>
      </trkpt>
      <trkpt lat="44.2114" lon="5.10095">
        <ele>242.389648</ele>
        <time>2009-06-14T16:47:59Z</time>
      </trkpt>
      <trkpt lat="44.21173" lon="5.10066">
        <ele>242.389648</ele>
        <time>2009-06-14T16:48:03Z</time>
      </trkpt>
      <trkpt lat="44.21212" lon="5.10054">
        <ele>241.428223</ele>
        <time>2009-06-14T16:48:07Z</time>
      </trkpt>
      <trkpt lat="44.21316" lon="5.10041">
        <ele>239.024902</ele>
        <time>2009-06-14T16:48:17Z</time>
      </trkpt>
      <trkpt lat="44.21404" lon="5.10016">
        <ele>235.660278</ele>
        <time>2009-06-14T16:48:25Z</time>
      </trkpt>
      <trkpt lat="44.2149" lon="5.09989">
        <ele>233.25708</ele>
        <time>2009-06-14T16:48:33Z</time>
      </trkpt>
      <trkpt lat="44.21543" lon="5.09965">
        <ele>232.295776</ele>
        <time>2009-06-14T16:48:38Z</time>
      </trkpt>
      <trkpt lat="44.21588" lon="5.09928">
        <ele>231.814941</ele>
        <time>2009-06-14T16:48:43Z</time>
      </trkpt>
      <trkpt lat="44.21659" lon="5.09868">
        <ele>230.85376</ele>
        <time>2009-06-14T16:48:51Z</time>
      </trkpt>
      <trkpt lat="44.21733" lon="5.09819">
        <ele>228.931152</ele>
        <time>2009-06-14T16:48:59Z</time>
      </trkpt>
      <trkpt lat="44.21817" lon="5.09763">
        <ele>227.969727</ele>
        <time>2009-06-14T16:49:08Z</time>
      </trkpt>
      <trkpt lat="44.21863" lon="5.09737">
        <ele>227.489136</ele>
        <time>2009-06-14T16:49:13Z</time>
      </trkpt>
      <trkpt lat="44.21895" lon="5.09747">
        <ele>226.527832</ele>
        <time>2009-06-14T16:49:17Z</time>
      </trkpt>
      <trkpt lat="44.21909" lon="5.09752">
        <ele>226.047119</ele>
        <time>2009-06-14T16:49:19Z</time>
      </trkpt>
      <trkpt lat="44.21921" lon="5.09738">
        <ele>226.047119</ele>
        <time>2009-06-14T16:49:21Z</time>
      </trkpt>
      <trkpt lat="44.21946" lon="5.09693">
        <ele>226.527832</ele>
        <time>2009-06-14T16:49:26Z</time>
      </trkpt>
      <trkpt lat="44.21953" lon="5.09687">
        <ele>226.527832</ele>
        <time>2009-06-14T16:49:27Z</time>
      </trkpt>
      <trkpt lat="44.22006" lon="5.0965">
        <ele>226.047119</ele>
        <time>2009-06-14T16:49:34Z</time>
      </trkpt>
      <trkpt lat="44.2208" lon="5.09583">
        <ele>226.047119</ele>
        <time>2009-06-14T16:49:44Z</time>
      </trkpt>
      <trkpt lat="44.22129" lon="5.09537">
        <ele>226.047119</ele>
        <time>2009-06-14T16:49:51Z</time>
      </trkpt>
      <trkpt lat="44.22179" lon="5.09486">
        <ele>225.566528</ele>
        <time>2009-06-14T16:49:58Z</time>
      </trkpt>
      <trkpt lat="44.22233" lon="5.09429">
        <ele>225.566528</ele>
        <time>2009-06-14T16:50:06Z</time>
      </trkpt>
      <trkpt lat="44.22308" lon="5.09346">
        <ele>226.047119</ele>
        <time>2009-06-14T16:50:17Z</time>
      </trkpt>
      <trkpt lat="44.22326" lon="5.0932">
        <ele>225.566528</ele>
        <time>2009-06-14T16:50:20Z</time>
      </trkpt>
      <trkpt lat="44.22349" lon="5.09257">
        <ele>225.566528</ele>
        <time>2009-06-14T16:50:26Z</time>
      </trkpt>
      <trkpt lat="44.22381" lon="5.09147">
        <ele>225.085938</ele>
        <time>2009-06-14T16:50:36Z</time>
      </trkpt>
      <trkpt lat="44.22409" lon="5.09075">
        <ele>224.605225</ele>
        <time>2009-06-14T16:50:43Z</time>
      </trkpt>
      <trkpt lat="44.22444" lon="5.09019">
        <ele>224.124512</ele>
        <time>2009-06-14T16:50:49Z</time>
      </trkpt>
      <trkpt lat="44.22503" lon="5.0893">
        <ele>222.201782</ele>
        <time>2009-06-14T16:50:58Z</time>
      </trkpt>
      <trkpt lat="44.22543" lon="5.08886">
        <ele>221.721191</ele>
        <time>2009-06-14T16:51:03Z</time>
      </trkpt>
      <trkpt lat="44.22605" lon="5.08843">
        <ele>220.759888</ele>
        <time>2009-06-14T16:51:10Z</time>
      </trkpt>
      <trkpt lat="44.22655" lon="5.08829">
        <ele>218.83728</ele>
        <time>2009-06-14T16:51:15Z</time>
      </trkpt>
      <trkpt lat="44.22717" lon="5.08826">
        <ele>216.43396</ele>
        <time>2009-06-14T16:51:21Z</time>
      </trkpt>
      <trkpt lat="44.22774" lon="5.08824">
        <ele>214.991943</ele>
        <time>2009-06-14T16:51:27Z</time>
      </trkpt>
      <trkpt lat="44.22831" lon="5.08825">
        <ele>211.627441</ele>
        <time>2009-06-14T16:51:33Z</time>
      </trkpt>
      <trkpt lat="44.2284" lon="5.08826">
        <ele>211.146729</ele>
        <time>2009-06-14T16:51:34Z</time>
      </trkpt>
      <trkpt lat="44.22877" lon="5.08812">
        <ele>210.185425</ele>
        <time>2009-06-14T16:51:38Z</time>
      </trkpt>
      <trkpt lat="44.22922" lon="5.08773">
        <ele>209.704834</ele>
        <time>2009-06-14T16:51:43Z</time>
      </trkpt>
      <trkpt lat="44.22963" lon="5.08717">
        <ele>208.743408</ele>
        <time>2009-06-14T16:51:48Z</time>
      </trkpt>
      <trkpt lat="44.23016" lon="5.08639">
        <ele>208.262817</ele>
        <time>2009-06-14T16:51:55Z</time>
      </trkpt>
      <trkpt lat="44.23056" lon="5.08598">
        <ele>208.743408</ele>
        <time>2009-06-14T16:52:00Z</time>
      </trkpt>
      <trkpt lat="44.23117" lon="5.08543">
        <ele>211.146729</ele>
        <time>2009-06-14T16:52:08Z</time>
      </trkpt>
      <trkpt lat="44.23131" lon="5.08528">
        <ele>211.627441</ele>
        <time>2009-06-14T16:52:10Z</time>
      </trkpt>
      <trkpt lat="44.23175" lon="5.08455">
        <ele>214.51123</ele>
        <time>2009-06-14T16:52:18Z</time>
      </trkpt>
      <trkpt lat="44.23222" lon="5.08371">
        <ele>216.43396</ele>
        <time>2009-06-14T16:52:27Z</time>
      </trkpt>
      <trkpt lat="44.23255" lon="5.08332">
        <ele>216.43396</ele>
        <time>2009-06-14T16:52:32Z</time>
      </trkpt>
      <trkpt lat="44.23305" lon="5.0829">
        <ele>216.43396</ele>
        <time>2009-06-14T16:52:39Z</time>
      </trkpt>
      <trkpt lat="44.2337" lon="5.08237">
        <ele>216.43396</ele>
        <time>2009-06-14T16:52:48Z</time>
      </trkpt>
      <trkpt lat="44.23438" lon="5.08178">
        <ele>217.875977</ele>
        <time>2009-06-14T16:52:58Z</time>
      </trkpt>
      <trkpt lat="44.23473" lon="5.08137">
        <ele>218.83728</ele>
        <time>2009-06-14T16:53:04Z</time>
      </trkpt>
      <trkpt lat="44.23517" lon="5.08063">
        <ele>220.759888</ele>
        <time>2009-06-14T16:53:13Z</time>
      </trkpt>
      <trkpt lat="44.23556" lon="5.07995">
        <ele>219.317993</ele>
        <time>2009-06-14T16:53:21Z</time>
      </trkpt>
      <trkpt lat="44.236" lon="5.07938">
        <ele>217.395386</ele>
        <time>2009-06-14T16:53:28Z</time>
      </trkpt>
      <trkpt lat="44.23639" lon="5.07896">
        <ele>215.472656</ele>
        <time>2009-06-14T16:53:33Z</time>
      </trkpt>
      <trkpt lat="44.23659" lon="5.07847">
        <ele>213.069336</ele>
        <time>2009-06-14T16:53:37Z</time>
      </trkpt>
      <trkpt lat="44.23673" lon="5.07778">
        <ele>211.146729</ele>
        <time>2009-06-14T16:53:42Z</time>
      </trkpt>
      <trkpt lat="44.23674" lon="5.07723">
        <ele>211.146729</ele>
        <time>2009-06-14T16:53:46Z</time>
      </trkpt>
      <trkpt lat="44.23684" lon="5.07659">
        <ele>210.666016</ele>
        <time>2009-06-14T16:53:51Z</time>
      </trkpt>
      <trkpt lat="44.2369" lon="5.07636">
        <ele>210.666016</ele>
        <time>2009-06-14T16:53:53Z</time>
      </trkpt>
      <trkpt lat="44.23714" lon="5.0758">
        <ele>211.627441</ele>
        <time>2009-06-14T16:53:59Z</time>
      </trkpt>
      <trkpt lat="44.23734" lon="5.07556">
        <ele>210.666016</ele>
        <time>2009-06-14T16:54:03Z</time>
      </trkpt>
      <trkpt lat="44.23779" lon="5.07523">
        <ele>212.108032</ele>
        <time>2009-06-14T16:54:10Z</time>
      </trkpt>
      <trkpt lat="44.23813" lon="5.07509">
        <ele>210.185425</ele>
        <time>2009-06-14T16:54:15Z</time>
      </trkpt>
      <trkpt lat="44.23847" lon="5.07499">
        <ele>208.743408</ele>
        <time>2009-06-14T16:54:20Z</time>
      </trkpt>
      <trkpt lat="44.23871" lon="5.07483">
        <ele>208.743408</ele>
        <time>2009-06-14T16:54:24Z</time>
      </trkpt>
      <trkpt lat="44.23878" lon="5.07473">
        <ele>209.224121</ele>
        <time>2009-06-14T16:54:27Z</time>
      </trkpt>
      <trkpt lat="44.23882" lon="5.07465">
        <ele>209.224121</ele>
        <time>2009-06-14T16:54:30Z</time>
      </trkpt>
      <trkpt lat="44.23893" lon="5.07464">
        <ele>209.224121</ele>
        <time>2009-06-14T16:54:34Z</time>
      </trkpt>
      <trkpt lat="44.23895" lon="5.07466">
        <ele>209.224121</ele>
        <time>2009-06-14T16:54:35Z</time>
      </trkpt>
      <trkpt lat="44.23901" lon="5.07475">
        <ele>209.704834</ele>
        <time>2009-06-14T16:54:38Z</time>
      </trkpt>
      <trkpt lat="44.23896" lon="5.07486">
        <ele>212.108032</ele>
        <time>2009-06-14T16:54:42Z</time>
      </trkpt>
      <trkpt lat="44.23874" lon="5.07515">
        <ele>216.43396</ele>
        <time>2009-06-14T16:54:49Z</time>
      </trkpt>
      <trkpt lat="44.23871" lon="5.0752">
        <ele>216.43396</ele>
        <time>2009-06-14T16:54:50Z</time>
      </trkpt>
      <trkpt lat="44.23855" lon="5.07541">
        <ele>216.914673</ele>
        <time>2009-06-14T16:54:54Z</time>
      </trkpt>
      <trkpt lat="44.23847" lon="5.07584">
        <ele>212.588623</ele>
        <time>2009-06-14T16:55:00Z</time>
      </trkpt>
      <trkpt lat="44.23844" lon="5.07604">
        <ele>205.378784</ele>
        <time>2009-06-14T16:55:05Z</time>
      </trkpt>
      <trkpt lat="44.23836" lon="5.07608">
        <ele>199.61084</ele>
        <time>2009-06-14T16:55:11Z</time>
      </trkpt>
      <trkpt lat="44.2383" lon="5.07603">
        <ele>198.649536</ele>
        <time>2009-06-14T16:55:13Z</time>
      </trkpt>
      <trkpt lat="44.23823" lon="5.07611">
        <ele>196.246338</ele>
        <time>2009-06-14T16:55:17Z</time>
      </trkpt>
      <trkpt lat="44.23823" lon="5.07614">
        <ele>196.246338</ele>
        <time>2009-06-14T16:55:18Z</time>
      </trkpt>
      <trkpt lat="44.23824" lon="5.07625">
        <ele>195.765625</ele>
        <time>2009-06-14T16:55:22Z</time>
      </trkpt>
      <trkpt lat="44.23827" lon="5.07626">
        <ele>199.61084</ele>
        <time>2009-06-14T16:55:32Z</time>
      </trkpt>
      <trkpt lat="44.23827" lon="5.07628">
        <ele>196.726929</ele>
        <time>2009-06-14T16:55:40Z</time>
      </trkpt>
      <trkpt lat="44.23826" lon="5.07626">
        <ele>198.168945</ele>
        <time>2009-06-14T16:55:54Z</time>
      </trkpt>
      <trkpt lat="44.23825" lon="5.07628">
        <ele>198.649536</ele>
        <time>2009-06-14T16:56:01Z</time>
      </trkpt>
      <trkpt lat="44.23825" lon="5.07629">
        <ele>197.688232</ele>
        <time>2009-06-14T16:56:09Z</time>
      </trkpt>
      <trkpt lat="44.23826" lon="5.07632">
        <ele>197.688232</ele>
        <time>2009-06-14T16:56:16Z</time>
      </trkpt>
      <trkpt lat="44.23827" lon="5.07636">
        <ele>196.246338</ele>
        <time>2009-06-14T16:56:22Z</time>
      </trkpt>
      <trkpt lat="44.23828" lon="5.07638">
        <ele>196.246338</ele>
        <time>2009-06-14T16:56:29Z</time>
      </trkpt>
      <trkpt lat="44.23825" lon="5.07632">
        <ele>192.881714</ele>
        <time>2009-06-14T16:56:36Z</time>
      </trkpt>
      <trkpt lat="44.23825" lon="5.07631">
        <ele>194.804321</ele>
        <time>2009-06-14T16:56:41Z</time>
      </trkpt>
      <trkpt lat="44.23826" lon="5.0763">
        <ele>195.284912</ele>
        <time>2009-06-14T16:56:46Z</time>
      </trkpt>
      <trkpt lat="44.23827" lon="5.0763">
        <ele>196.246338</ele>
        <time>2009-06-14T16:57:05Z</time>
      </trkpt>
      <trkpt lat="44.23839" lon="5.07635">
        <ele>192.401123</ele>
        <time>2009-06-14T16:57:09Z</time>
      </trkpt>
      <trkpt lat="44.23841" lon="5.07634">
        <ele>190.958984</ele>
        <time>2009-06-14T16:57:13Z</time>
      </trkpt>
      <trkpt lat="44.23831" lon="5.07635">
        <ele>192.881714</ele>
        <time>2009-06-14T16:57:21Z</time>
      </trkpt>
      <trkpt lat="44.23832" lon="5.07636">
        <ele>193.362305</ele>
        <time>2009-06-14T16:57:27Z</time>
      </trkpt>
      <trkpt lat="44.2383" lon="5.07631">
        <ele>195.284912</ele>
        <time>2009-06-14T16:57:35Z</time>
      </trkpt>
      <trkpt lat="44.2383" lon="5.0763">
        <ele>196.246338</ele>
        <time>2009-06-14T16:57:44Z</time>
      </trkpt>
      <trkpt lat="44.23829" lon="5.07631">
        <ele>203.93689</ele>
        <time>2009-06-14T16:57:56Z</time>
      </trkpt>
      <trkpt lat="44.23825" lon="5.07629">
        <ele>201.052856</ele>
        <time>2009-06-14T16:58:09Z</time>
      </trkpt>
      <trkpt lat="44.23824" lon="5.07629">
        <ele>199.130127</ele>
        <time>2009-06-14T16:58:17Z</time>
      </trkpt>
      <trkpt lat="44.23825" lon="5.07631">
        <ele>195.765625</ele>
        <time>2009-06-14T16:58:35Z</time>
      </trkpt>
      <trkpt lat="44.23829" lon="5.07628">
        <ele>195.284912</ele>
        <time>2009-06-14T16:59:16Z</time>
      </trkpt>
      <trkpt lat="44.2383" lon="5.07629">
        <ele>195.765625</ele>
        <time>2009-06-14T16:59:32Z</time>
      </trkpt>
      <trkpt lat="44.23831" lon="5.0763">
        <ele>196.726929</ele>
        <time>2009-06-14T16:59:43Z</time>
      </trkpt>
      <trkpt lat="44.23832" lon="5.0763">
        <ele>196.726929</ele>
        <time>2009-06-14T16:59:53Z</time>
      </trkpt>
      <trkpt lat="44.23829" lon="5.07635">
        <ele>194.804321</ele>
        <time>2009-06-14T17:00:03Z</time>
      </trkpt>
      <trkpt lat="44.23826" lon="5.07631">
        <ele>201.052856</ele>
        <time>2009-06-14T17:00:08Z</time>
      </trkpt>
      <trkpt lat="44.23825" lon="5.07628">
        <ele>204.41748</ele>
        <time>2009-06-14T17:00:18Z</time>
      </trkpt>
      <trkpt lat="44.23826" lon="5.07631">
        <ele>206.820679</ele>
        <time>2009-06-14T17:00:30Z</time>
      </trkpt>
      <trkpt lat="44.23826" lon="5.07633">
        <ele>201.052856</ele>
        <time>2009-06-14T17:00:43Z</time>
      </trkpt>
      <trkpt lat="44.23826" lon="5.07631">
        <ele>202.494873</ele>
        <time>2009-06-14T17:00:49Z</time>
      </trkpt>
    </trkseg>
  </trk>
</gpx>